# Wetter Temperatur Luftdruck Luftfeuchtigkeit Sichtweite Windgeschwindigkeit Windrichtung Zeit
1 Clouds 17 1018 77 10000 11.32 60 12:30 22.04.2021
2 Clouds 20 1017 77 10000 12.86 60 11:50 22.04.2021
3 Clouds 22 1016 23 10000 8.75 20 11:27 22.04.2021
4 Clear 23 1015 13 10000 8.75 340 10:59 22.04.2021
5 Clear 23 1015 13 10000 8.75 340 10:40 22.04.2021
6 Clouds 24 1015 12 10000 6.69 330 10:19 22.04.2021
7 Clouds 24 1015 12 10000 6.69 330 09:36 22.04.2021
8 Clouds 25 1014 11 10000 7.2 310 08:51 22.04.2021
9 Clouds 25 1014 11 10000 7.2 310 08:23 22.04.2021
10 Clouds 26 1015 11 10000 8.75 300 07:54 22.04.2021
11 Clouds 26 1015 11 10000 8.75 300 07:31 22.04.2021
12 Clouds 26 1015 11 10000 8.75 300 06:46 22.04.2021
13 Clouds 26 1015 11 10000 8.75 300 06:18 22.04.2021
14 Clouds 26 1016 14 10000 8.75 300 05:23 22.04.2021
15 Clear 19 1019 55 10000 2.57 150 02:27 22.04.2021
16 Clear 16 1020 59 10000 3.09 60 00:23 22.04.2021
17 Clear 16 1020 33 10000 5.66 30 23:41 21.04.2021
18 Clear 16 1020 33 10000 5.66 30 23:20 21.04.2021
19 Clouds 15 1019 47 10000 3.09 360 22:40 21.04.2021
20 Clouds 15 1019 47 10000 3.09 360 22:20 21.04.2021
21 Clear 15 1020 38 10000 5.66 360 21:41 21.04.2021
22 Clear 15 1020 38 10000 5.66 360 21:23 21.04.2021
23 Clear 15 1020 31 10000 4.63 340 20:32 21.04.2021
24 Clear 15 1020 29 10000 5.14 340 19:58 21.04.2021
25 Clear 15 1019 26 10000 2.57 290 19:38 21.04.2021
26 Clear 16 1019 26 10000 2.57 290 19:18 21.04.2021
27 Clear 16 1019 26 10000 2.57 290 18:42 21.04.2021
28 Clear 17 1019 26 10000 2.57 290 18:22 21.04.2021
29 Clear 17 1019 19 10000 3.09 320 17:45 21.04.2021
30 Clear 17 1019 20 10000 4.63 320 17:23 21.04.2021
31 Clear 17 1019 25 10000 3.6 330 16:41 21.04.2021
32 Clear 17 1019 20 10000 5.66 330 15:56 21.04.2021
33 Clear 18 1019 19 10000 4.12 320 15:37 21.04.2021
34 Clear 19 1019 20 10000 4.63 320 14:47 21.04.2021
35 Clear 19 1019 36 10000 4.12 260 14:29 21.04.2021
36 Clear 19 1019 52 10000 4.12 270 13:51 21.04.2021
37 Clear 19 1019 55 10000 4.12 260 13:24 21.04.2021
38 Clear 20 1018 52 10000 4.63 250 12:56 21.04.2021
39 Clear 20 1018 52 10000 5.14 230 12:29 21.04.2021
40 Clouds 20 1018 48 10000 5.66 230 11:47 21.04.2021
41 Clouds 21 1017 42 10000 6.17 240 11:25 21.04.2021
42 Clouds 22 1017 43 10000 3.6 190 10:43 21.04.2021
43 Clouds 22 1017 43 10000 3.6 190 10:18 21.04.2021
44 Clouds 23 1017 40 10000 4.12 200 09:41 21.04.2021
45 Clouds 24 1017 46 10000 3.09 200 08:56 21.04.2021
46 Clouds 24 1017 46 10000 3.09 200 08:56 21.04.2021
47 Clouds 23 1017 46 10000 3.09 200 08:37 21.04.2021
48 Clouds 23 1017 46 10000 3.09 200 08:18 21.04.2021
49 Clouds 23 1017 52 10000 6.69 160 07:29 21.04.2021
50 Clouds 23 1018 52 10000 6.69 140 06:28 21.04.2021
51 Clear 23 1019 37 10000 4.12 40 04:46 21.04.2021
52 Clear 19 1020 39 10000 7.72 30 00:51 21.04.2021
53 Clear 17 1019 55 10000 6.17 50 23:48 20.04.2021
54 Clear 17 1019 55 10000 5.66 50 23:21 20.04.2021
55 Clear 16 1018 42 10000 4.12 20 22:40 20.04.2021
56 Clouds 16 1017 48 10000 3.6 20 22:18 20.04.2021
57 Clouds 16 1017 44 10000 5.21 4 21:46 20.04.2021
58 Clear 16 1017 48 10000 3.09 30 21:24 20.04.2021
59 Clear 16 1017 63 10000 1.54 320 20:43 20.04.2021
60 Clear 16 1017 63 10000 1.54 320 20:23 20.04.2021
61 Clear 16 1016 59 10000 2.06 290 19:54 20.04.2021
62 Clear 16 1016 72 10000 2.06 260 19:36 20.04.2021
63 Clear 16 1016 67 10000 3.09 190 19:18 20.04.2021
64 Clear 15 1016 88 10000 3.09 190 18:35 20.04.2021
65 Clear 16 1016 72 10000 3.09 180 17:46 20.04.2021
66 Clear 17 1015 67 10000 0.51 0 17:25 20.04.2021
67 Clear 17 1015 59 10000 1.54 200 16:44 20.04.2021
68 Clouds 17 1015 63 10000 1.03 330 15:51 20.04.2021
69 Clear 17 1015 59 10000 0.51 0 15:28 20.04.2021
70 Clear 18 1015 59 10000 1.54 30 14:57 20.04.2021
71 Clear 17 1015 63 10000 1.54 250 14:31 20.04.2021
72 Clouds 18 1015 63 10000 2.57 200 13:44 20.04.2021
73 Clouds 19 1014 68 10000 3.09 200 13:18 20.04.2021
74 Clouds 19 1014 63 10000 4.63 200 12:41 20.04.2021
75 Clouds 19 1014 63 10000 4.63 200 12:20 20.04.2021
76 Clouds 20 1014 63 10000 5.66 200 11:41 20.04.2021
77 Clouds 20 1014 63 10000 5.66 200 11:21 20.04.2021
78 Clouds 21 1013 40 10000 3.6 190 10:43 20.04.2021
79 Clouds 21 1013 40 10000 3.6 190 10:23 20.04.2021
80 Clouds 22 1013 60 10000 4.12 200 09:23 20.04.2021
81 Clouds 22 1013 68 10000 6.17 200 08:55 20.04.2021
82 Clouds 22 1013 68 10000 6.17 200 08:20 20.04.2021
83 Clouds 22 1014 52 10000 4.63 190 07:40 20.04.2021
84 Clouds 22 1014 52 10000 4.63 190 07:40 20.04.2021
85 Clouds 22 1014 52 10000 4.63 190 07:40 20.04.2021
86 Clouds 23 1014 49 10000 5.66 190 06:37 20.04.2021
87 Clear 22 1015 64 10000 4.12 180 05:38 20.04.2021
88 Clouds 22 1015 37 10000 3.6 180 04:41 20.04.2021
89 Clear 16 1015 55 10000 1.54 90 00:53 20.04.2021
90 Clear 15 1015 51 10000 1.03 80 00:34 20.04.2021
91 Clear 13 1015 54 10000 1.54 40 23:36 19.04.2021
92 Clouds 13 1015 50 10000 1.54 350 22:56 19.04.2021
93 Clouds 13 1015 50 10000 1.54 350 22:56 19.04.2021
94 Clouds 12 1015 54 10000 2.06 320 22:32 19.04.2021
95 Clouds 13 1014 47 10000 2.06 310 21:48 19.04.2021
96 Clear 13 1014 54 10000 3.09 320 21:28 19.04.2021
97 Clear 13 1014 58 10000 2.57 300 20:46 19.04.2021
98 Clear 13 1014 54 10000 3.09 300 20:25 19.04.2021
99 Clear 13 1014 58 10000 3.09 300 20:01 19.04.2021
100 Clear 14 1014 67 10000 2.57 300 19:40 19.04.2021
101 Clear 14 1014 67 10000 2.57 300 19:21 19.04.2021
102 Clear 15 1014 67 10000 1.54 290 18:45 19.04.2021
103 Clouds 15 1013 63 10000 1.54 280 18:21 19.04.2021
104 Clouds 15 1013 63 10000 1.54 300 17:54 19.04.2021
105 Clouds 15 1014 63 10000 1.54 280 17:27 19.04.2021
106 Clouds 14 1014 67 10000 2.06 280 16:49 19.04.2021
107 Clouds 15 1014 67 10000 1.03 0 16:31 19.04.2021
108 Clouds 15 1013 63 10000 2.06 210 15:44 19.04.2021
109 Clouds 16 1013 63 10000 2.06 210 15:25 19.04.2021
110 Clouds 16 1013 63 10000 3.09 200 14:53 19.04.2021
111 Clear 16 1013 63 10000 2.57 200 14:34 19.04.2021
112 Clear 16 1013 59 10000 4.12 210 13:53 19.04.2021
113 Clear 16 1013 55 10000 5.66 210 13:30 19.04.2021
114 Clear 17 1012 59 10000 6.17 230 12:56 19.04.2021
115 Clear 17 1012 51 10000 7.2 220 12:36 19.04.2021
116 Clouds 17 1011 45 10000 6.17 220 12:18 19.04.2021
117 Clouds 18 1011 45 10000 6.17 220 11:49 19.04.2021
118 Clouds 19 1011 45 10000 6.69 210 11:20 19.04.2021
119 Clouds 20 1010 30 10000 3.09 200 10:44 19.04.2021
120 Clouds 20 1010 30 10000 3.09 200 10:20 19.04.2021
121 Clouds 21 1009 28 10000 3.09 190 09:43 19.04.2021
122 Clouds 21 1009 28 10000 3.09 190 09:43 19.04.2021
123 Clouds 20 1010 39 10000 4.12 170 09:24 19.04.2021
124 Clouds 21 1009 45 10000 4.63 130 08:41 19.04.2021
125 Clouds 21 1009 28 10000 3.09 300 07:50 19.04.2021
126 Clouds 21 1009 28 10000 3.09 300 07:26 19.04.2021
127 Clear 21 1009 28 10000 3.6 330 06:52 19.04.2021
128 Clear 20 1009 24 10000 5.66 300 05:41 19.04.2021
129 Clear 16 1009 31 10000 5.14 320 01:50 19.04.2021
130 Clear 14 1009 44 10000 7.72 340 00:42 19.04.2021
131 Clouds 12 1009 41 10000 7.72 340 23:22 18.04.2021
132 Clouds 12 1008 43 10000 4.12 310 22:58 18.04.2021
133 Clouds 12 1007 43 10000 3.6 320 22:40 18.04.2021
134 Clouds 12 1007 43 10000 3.6 320 22:22 18.04.2021
135 Clouds 12 1007 40 10000 5.14 300 21:29 18.04.2021
136 Clouds 13 1006 40 10000 3.6 280 20:55 18.04.2021
137 Clouds 13 1006 40 10000 3.6 280 20:55 18.04.2021
138 Clouds 13 1006 40 10000 4.63 270 20:37 18.04.2021
139 Clouds 13 1006 40 10000 4.63 270 20:19 18.04.2021
140 Clouds 13 1005 43 10000 2.57 280 19:41 18.04.2021
141 Clouds 13 1005 43 10000 2.57 280 19:21 18.04.2021
142 Clouds 13 1005 43 10000 3.6 290 18:45 18.04.2021
143 Clouds 13 1005 38 10000 3.6 310 18:26 18.04.2021
144 Clouds 13 1004 38 10000 3.09 310 17:47 18.04.2021
145 Clouds 13 1004 38 10000 3.09 310 17:28 18.04.2021
146 Clouds 13 1004 41 10000 3.6 310 16:53 18.04.2021
147 Clouds 14 1004 41 10000 4.12 300 16:35 18.04.2021
148 Clouds 14 1004 41 10000 3.09 310 15:51 18.04.2021
149 Clouds 14 1003 33 10000 4.63 300 15:28 18.04.2021
150 Clouds 14 1003 33 10000 5.14 320 14:54 18.04.2021
151 Clouds 14 1002 33 10000 5.14 330 14:36 18.04.2021
152 Clouds 14 1002 33 10000 5.14 330 14:18 18.04.2021
153 Clouds 15 1001 33 10000 6.17 330 13:38 18.04.2021
154 Clouds 15 1001 33 10000 6.17 330 13:19 18.04.2021
155 Clouds 16 1000 20 10000 7.72 270 12:35 18.04.2021
156 Clouds 17 999 19 10000 9.26 280 11:51 18.04.2021
157 Clouds 18 998 17 10000 9.26 270 11:26 18.04.2021
158 Clear 19 998 22 10000 4.12 240 10:51 18.04.2021
159 Clear 19 998 22 10000 4.12 240 10:32 18.04.2021
160 Clouds 20 996 14 10000 9.77 280 09:57 18.04.2021
161 Clouds 20 996 14 10000 9.77 280 09:38 18.04.2021
162 Clouds 20 996 17 10000 8.75 280 09:19 18.04.2021
163 Clouds 20 996 17 10000 8.75 280 08:40 18.04.2021
164 Clouds 21 996 17 10000 8.75 280 08:19 18.04.2021
165 Clouds 21 996 18 10000 8.75 270 07:39 18.04.2021
166 Clouds 21 996 37 10000 5.66 230 05:45 18.04.2021
167 Clouds 21 996 37 10000 5.66 230 05:24 18.04.2021
168 Clouds 20 997 42 10000 5.14 230 03:37 18.04.2021
169 Clouds 19 997 42 10000 7.2 240 02:22 18.04.2021
170 Clouds 17 998 63 10000 9.77 220 00:41 18.04.2021
171 Clouds 15 998 72 10000 8.75 210 23:40 17.04.2021
172 Clouds 14 998 77 10000 8.75 200 22:59 17.04.2021
173 Clouds 14 998 77 10000 9.26 220 22:39 17.04.2021
174 Clouds 14 998 77 10000 9.26 220 22:20 17.04.2021
175 Clouds 14 998 94 10000 4.63 200 21:38 17.04.2021
176 Clouds 14 998 94 10000 4.63 200 21:19 17.04.2021
177 Clouds 14 998 94 10000 2.57 270 20:28 17.04.2021
178 Clouds 14 998 94 10000 3.09 280 19:46 17.04.2021
179 Rain 14 998 94 10000 4.63 280 19:22 17.04.2021
180 Rain 14 998 94 10000 3.09 270 18:58 17.04.2021
181 Clouds 15 998 100 7000 5.14 310 18:37 17.04.2021
182 Rain 15 998 100 4000 9.26 310 18:18 17.04.2021
183 Rain 16 998 100 2500 11.32 200 17:41 17.04.2021
184 Mist 16 1000 94 2500 10.8 170 16:55 17.04.2021
185 Mist 16 1001 100 4500 9.77 150 16:29 17.04.2021
186 Mist 16 1001 100 4500 9.77 150 16:29 17.04.2021
187 Rain 15 1002 100 5000 8.75 140 15:55 17.04.2021
188 Rain 15 1005 100 2500 5.66 110 14:51 17.04.2021
189 Rain 15 1007 100 3000 5.66 110 14:33 17.04.2021
190 Mist 15 1008 100 3000 4.63 110 13:50 17.04.2021
191 Mist 15 1009 100 3000 4.12 110 13:27 17.04.2021
192 Clouds 15 1010 94 8000 3.6 120 12:42 17.04.2021
193 Clouds 15 1010 94 8000 3.6 120 12:21 17.04.2021
194 Clouds 15 1011 94 6000 3.6 120 11:50 17.04.2021
195 Mist 15 1011 94 5000 5.66 130 11:30 17.04.2021
196 Clouds 15 1012 94 8000 6.69 150 10:46 17.04.2021
197 Clouds 16 1012 94 8000 6.69 150 10:27 17.04.2021
198 Clouds 16 1014 88 10000 5.14 140 09:44 17.04.2021
199 Clouds 17 1015 77 10000 8.23 130 08:41 17.04.2021
200 Clouds 17 1015 77 10000 8.23 130 08:21 17.04.2021
201 Clouds 18 1017 68 10000 6.17 150 06:58 17.04.2021
202 Rain 17 1020 77 10000 4.63 150 03:55 17.04.2021
203 Rain 17 1020 77 10000 4.63 150 03:37 17.04.2021
204 Clouds 16 1021 72 10000 3.09 130 00:49 17.04.2021
205 Rain 16 1021 77 10000 3.09 140 00:28 17.04.2021
206 Clouds 15 1022 77 10000 3.6 150 23:48 16.04.2021
207 Clouds 15 1022 77 10000 3.6 150 23:48 16.04.2021
208 Rain 15 1022 77 10000 3.6 140 23:25 16.04.2021
209 Rain 15 1022 77 10000 3.09 130 22:46 16.04.2021
210 Rain 15 1022 77 10000 3.09 130 22:21 16.04.2021
211 Rain 15 1022 77 10000 3.6 130 21:51 16.04.2021
212 Rain 15 1022 77 10000 3.6 130 21:30 16.04.2021
213 Rain 15 1022 77 10000 3.6 130 21:30 16.04.2021
214 Rain 15 1023 77 10000 3.09 130 20:50 16.04.2021
215 Rain 15 1023 77 10000 3.09 120 20:25 16.04.2021
216 Rain 15 1023 77 10000 2.06 120 19:54 16.04.2021
217 Clouds 15 1024 77 10000 2.57 110 19:29 16.04.2021
218 Clouds 15 1024 77 10000 1.54 120 18:40 16.04.2021
219 Clouds 15 1024 72 10000 2.06 120 18:19 16.04.2021
220 Clouds 15 1025 72 10000 1.54 120 17:43 16.04.2021
221 Clouds 15 1025 72 10000 1.54 120 17:19 16.04.2021
222 Rain 15 1025 72 10000 1.54 110 16:42 16.04.2021
223 Clouds 15 1025 72 10000 1.54 110 16:23 16.04.2021
224 Rain 15 1025 72 10000 1.54 100 15:45 16.04.2021
225 Clouds 15 1025 72 10000 1.54 120 15:20 16.04.2021
226 Clouds 15 1026 72 10000 1.54 150 14:42 16.04.2021
227 Clouds 16 1026 72 10000 1.54 150 14:19 16.04.2021
228 Clouds 16 1026 72 10000 2.57 150 13:46 16.04.2021
229 Clouds 16 1026 67 10000 3.09 150 13:20 16.04.2021
230 Clouds 16 1026 72 10000 4.63 150 12:47 16.04.2021
231 Clouds 16 1026 72 10000 4.12 140 12:27 16.04.2021
232 Clouds 16 1025 67 10000 5.14 130 11:54 16.04.2021
233 Clouds 16 1025 67 10000 4.63 130 11:27 16.04.2021
234 Clouds 16 1025 63 10000 4.12 170 10:55 16.04.2021
235 Clouds 16 1025 63 10000 4.12 170 10:35 16.04.2021
236 Clouds 16 1025 72 10000 7.2 120 09:53 16.04.2021
237 Clouds 17 1025 63 10000 7.72 120 09:25 16.04.2021
238 Rain 18 1025 63 10000 7.72 120 08:55 16.04.2021
239 Clouds 18 1025 63 10000 7.72 120 08:36 16.04.2021
240 Clouds 18 1025 63 10000 7.72 120 08:18 16.04.2021
241 Clouds 18 1025 55 10000 3.09 120 07:35 16.04.2021
242 Clouds 18 1025 55 10000 3.09 120 07:35 16.04.2021
243 Clouds 18 1025 55 10000 2.06 130 06:58 16.04.2021
244 Clouds 17 1026 55 10000 2.06 160 05:34 16.04.2021
245 Clouds 16 1027 55 10000 1.03 0 04:21 16.04.2021
246 Clouds 12 1027 62 10000 3.6 10 00:58 16.04.2021
247 Clouds 11 1027 66 10000 3.6 350 00:40 16.04.2021
248 Clouds 11 1027 66 10000 3.6 350 00:19 16.04.2021
249 Clouds 11 1026 66 10000 4.12 10 23:41 15.04.2021
250 Clouds 11 1026 66 10000 4.12 10 23:23 15.04.2021
251 Clouds 11 1026 66 10000 4.12 10 23:22 15.04.2021
252 Clouds 10 1026 66 10000 4.12 30 22:40 15.04.2021
253 Clouds 11 1026 66 10000 4.12 30 22:21 15.04.2021
254 Clouds 11 1026 66 10000 4.12 20 21:42 15.04.2021
255 Clouds 11 1026 66 10000 4.12 20 21:20 15.04.2021
256 Clear 11 1026 66 10000 3.6 20 20:44 15.04.2021
257 Clear 11 1026 66 10000 3.6 20 20:24 15.04.2021
258 Clouds 11 1026 62 10000 3.6 30 19:45 15.04.2021
259 Clouds 11 1025 62 10000 3.6 30 19:27 15.04.2021
260 Clouds 11 1025 66 10000 3.6 50 18:43 15.04.2021
261 Clouds 12 1025 66 10000 4.12 40 18:21 15.04.2021
262 Clouds 12 1026 66 10000 3.09 60 17:55 15.04.2021
263 Clouds 11 1026 66 10000 2.06 80 17:36 15.04.2021
264 Clouds 11 1026 71 10000 2.06 110 16:59 15.04.2021
265 Clear 11 1026 66 10000 1.54 140 16:40 15.04.2021
266 Clear 11 1026 66 10000 1.54 140 16:22 15.04.2021
267 Clear 12 1026 62 10000 3.6 120 15:45 15.04.2021
268 Clear 12 1026 62 10000 3.6 120 15:26 15.04.2021
269 Clouds 12 1026 58 10000 5.66 130 14:41 15.04.2021
270 Clouds 12 1026 58 10000 5.66 130 14:23 15.04.2021
271 Clouds 12 1026 58 10000 5.66 130 14:23 15.04.2021
272 Clouds 12 1024 62 10000 6.17 110 13:42 15.04.2021
273 Clouds 12 1024 62 10000 6.17 110 13:19 15.04.2021
274 Clouds 12 1023 62 10000 7.2 100 12:42 15.04.2021
275 Clouds 12 1023 62 10000 7.2 100 12:21 15.04.2021
276 Clouds 12 1023 62 10000 6.69 110 11:46 15.04.2021
277 Clouds 13 1022 58 10000 7.2 110 11:24 15.04.2021
278 Clouds 13 1021 38 10000 4.12 130 10:55 15.04.2021
279 Clouds 14 1021 38 10000 4.12 130 10:28 15.04.2021
280 Clouds 15 1021 51 10000 7.72 140 09:50 15.04.2021
281 Clouds 15 1021 51 10000 7.72 140 09:28 15.04.2021
282 Clouds 15 1020 38 10000 3.09 140 08:49 15.04.2021
283 Clouds 16 1020 38 10000 3.09 140 08:24 15.04.2021
284 Clouds 15 1020 38 10000 4.63 120 07:26 15.04.2021
285 Clouds 15 1021 38 10000 4.12 160 06:54 15.04.2021
286 Clouds 14 1021 38 10000 4.12 160 06:33 15.04.2021
287 Clouds 13 1021 38 10000 4.63 110 04:53 15.04.2021
288 Clouds 11 1021 43 10000 4.63 50 02:51 15.04.2021
289 Clouds 8 1020 61 10000 8.23 40 23:49 14.04.2021
290 Clouds 8 1019 61 10000 10.29 40 23:29 14.04.2021
291 Clouds 8 1019 66 10000 9.26 40 22:47 14.04.2021
292 Clouds 8 1018 61 10000 9.26 40 22:27 14.04.2021
293 Clouds 8 1017 66 10000 9.77 40 21:56 14.04.2021
294 Clouds 8 1017 66 10000 9.77 40 21:37 14.04.2021
295 Clouds 8 1017 71 10000 8.23 40 21:18 14.04.2021
296 Clouds 8 1016 71 10000 8.75 40 20:36 14.04.2021
297 Clouds 9 1016 71 10000 8.75 40 20:18 14.04.2021
298 Clouds 9 1016 76 10000 8.23 40 19:38 14.04.2021
299 Clouds 9 1016 76 10000 8.23 40 19:18 14.04.2021
300 Clouds 9 1015 76 10000 8.23 30 18:49 14.04.2021
301 Clouds 8 1015 81 10000 8.23 30 18:18 14.04.2021
302 Clouds 9 1014 87 10000 10.29 40 17:51 14.04.2021
303 Clouds 9 1013 87 10000 10.29 50 17:24 14.04.2021
304 Rain 9 1012 87 10000 10.29 50 16:43 14.04.2021
305 Clouds 9 1012 87 10000 10.29 50 16:22 14.04.2021
306 Clouds 10 1011 87 10000 10.8 50 15:40 14.04.2021
307 Clouds 10 1010 87 10000 12.35 40 15:18 14.04.2021
308 Clouds 11 1010 87 10000 11.32 30 14:42 14.04.2021
309 Clouds 11 1010 87 10000 11.32 30 14:21 14.04.2021
310 Rain 12 1009 94 6000 10.29 40 13:47 14.04.2021
311 Clouds 12 1006 94 10000 11.83 40 12:48 14.04.2021
312 Clouds 13 1006 94 10000 11.83 60 12:24 14.04.2021
313 Clouds 13 1004 94 10000 12.35 60 11:42 14.04.2021
314 Clouds 14 1004 94 10000 12.35 60 11:23 14.04.2021
315 Clouds 15 1003 94 10000 3.09 50 10:35 14.04.2021
316 Mist 16 1002 94 3500 5.66 30 09:56 14.04.2021
317 Mist 17 1002 94 3500 5.66 30 09:38 14.04.2021
318 Mist 17 1002 94 3500 5.66 30 09:18 14.04.2021
319 Clouds 18 1001 88 10000 3.09 10 08:33 14.04.2021
320 Mist 18 1001 100 5000 4.12 330 07:51 14.04.2021
321 Mist 18 1001 94 2000 3.6 310 06:43 14.04.2021
322 Mist 18 1001 100 7000 1.54 340 06:22 14.04.2021
323 Mist 18 1004 100 3500 4.12 200 03:44 14.04.2021
324 Mist 17 1006 100 2000 1.54 340 01:40 14.04.2021
325 Mist 18 1006 100 2000 6.17 210 00:34 14.04.2021
326 Clouds 18 1006 94 8000 4.12 180 23:39 13.04.2021
327 Mist 18 1006 94 7000 6.17 200 22:56 13.04.2021
328 Clouds 18 1007 94 7000 6.17 210 22:37 13.04.2021
329 Clouds 18 1007 94 7000 6.17 210 22:18 13.04.2021
330 Clouds 18 1007 94 7000 7.2 200 21:44 13.04.2021
331 Clouds 18 1007 94 10000 8.23 200 21:23 13.04.2021
332 Clouds 17 1008 100 9000 6.69 190 20:40 13.04.2021
333 Clouds 17 1008 100 9000 6.69 190 20:20 13.04.2021
334 Clouds 17 1009 94 10000 5.66 180 19:27 13.04.2021
335 Clouds 17 1009 94 10000 5.14 190 18:59 13.04.2021
336 Rain 17 1010 94 10000 7.72 190 18:36 13.04.2021
337 Rain 17 1011 94 10000 6.69 200 17:47 13.04.2021
338 Clouds 17 1011 94 10000 6.69 200 17:23 13.04.2021
339 Clouds 17 1011 94 10000 6.69 200 16:59 13.04.2021
340 Clouds 17 1011 94 10000 6.17 190 16:41 13.04.2021
341 Clouds 17 1011 94 10000 6.17 190 16:20 13.04.2021
342 Rain 17 1012 88 10000 6.69 210 15:41 13.04.2021
343 Clouds 17 1013 82 10000 5.66 190 15:18 13.04.2021
344 Clouds 17 1013 88 10000 6.17 200 14:41 13.04.2021
345 Clouds 17 1013 88 10000 6.17 200 14:18 13.04.2021
346 Clouds 17 1013 88 10000 7.2 200 13:45 13.04.2021
347 Clouds 17 1013 88 10000 7.72 200 13:24 13.04.2021
348 Rain 17 1013 88 10000 6.69 200 12:55 13.04.2021
349 Clouds 17 1013 94 10000 7.2 190 12:27 13.04.2021
350 Mist 16 1013 100 4500 7.72 200 11:55 13.04.2021
351 Clouds 16 1013 100 10000 8.23 180 11:29 13.04.2021
352 Rain 16 1014 88 10000 5.14 170 10:47 13.04.2021
353 Rain 17 1014 88 10000 5.14 170 10:21 13.04.2021
354 Rain 16 1015 82 8000 5.66 200 09:56 13.04.2021
355 Clouds 17 1015 82 8000 5.66 200 09:36 13.04.2021
356 Rain 17 1015 82 10000 4.63 190 08:56 13.04.2021
357 Clouds 17 1015 82 10000 4.63 190 08:38 13.04.2021
358 Clouds 17 1015 82 10000 4.63 190 08:20 13.04.2021
359 Clouds 17 1016 77 10000 6.69 210 07:36 13.04.2021
360 Mist 17 1016 82 4000 5.66 180 06:31 13.04.2021
361 Clouds 19 1019 63 10000 6.17 160 04:47 13.04.2021
362 Rain 16 1022 82 10000 2.57 200 02:25 13.04.2021
363 Rain 15 1023 88 10000 8.75 180 00:26 13.04.2021
364 Rain 15 1023 77 10000 4.12 170 23:48 12.04.2021
365 Clouds 15 1023 82 10000 3.09 160 23:25 12.04.2021
366 Rain 14 1024 82 10000 2.06 120 22:38 12.04.2021
367 Rain 14 1024 72 10000 1.54 100 21:58 12.04.2021
368 Clouds 14 1024 77 10000 2.06 90 21:38 12.04.2021
369 Clouds 14 1024 77 10000 2.06 90 21:19 12.04.2021
370 Clouds 14 1025 82 10000 2.06 130 20:38 12.04.2021
371 Rain 14 1025 82 10000 2.06 130 20:20 12.04.2021
372 Clouds 14 1025 77 10000 1.54 170 19:55 12.04.2021
373 Clouds 14 1026 77 10000 1.03 160 19:36 12.04.2021
374 Clouds 14 1026 77 10000 1.03 160 19:18 12.04.2021
375 Clouds 14 1027 77 10000 2.06 130 18:42 12.04.2021
376 Clouds 14 1027 77 10000 2.06 130 18:42 12.04.2021
377 Clouds 14 1027 77 10000 2.06 130 18:24 12.04.2021
378 Clouds 14 1028 67 10000 2.06 140 17:43 12.04.2021
379 Clouds 14 1028 67 10000 2.06 140 17:23 12.04.2021
380 Clouds 14 1028 62 10000 1.54 190 16:47 12.04.2021
381 Clouds 14 1028 71 10000 2.06 150 16:27 12.04.2021
382 Clouds 14 1028 71 10000 2.06 150 16:27 12.04.2021
383 Clouds 14 1029 71 10000 3.09 130 15:48 12.04.2021
384 Clouds 15 1029 67 10000 3.09 130 15:27 12.04.2021
385 Clouds 15 1029 72 10000 4.12 130 14:50 12.04.2021
386 Clouds 15 1029 62 10000 4.12 160 14:30 12.04.2021
387 Clouds 15 1029 58 10000 4.63 150 13:49 12.04.2021
388 Clouds 15 1030 58 10000 5.14 150 13:28 12.04.2021
389 Clouds 15 1029 58 10000 5.66 140 12:49 12.04.2021
390 Clouds 16 1029 55 10000 6.69 150 12:27 12.04.2021
391 Clouds 16 1029 51 10000 7.2 150 11:59 12.04.2021
392 Clouds 16 1029 51 10000 7.2 150 11:59 12.04.2021
393 Clouds 16 1029 48 10000 7.72 160 11:24 12.04.2021
394 Clouds 17 1028 45 10000 6.17 150 10:46 12.04.2021
395 Clouds 17 1028 45 10000 6.17 150 10:26 12.04.2021
396 Clouds 18 1028 48 10000 6.17 160 09:49 12.04.2021
397 Clouds 18 1028 48 10000 6.17 160 09:20 12.04.2021
398 Clouds 19 1029 48 10000 4.63 150 08:36 12.04.2021
399 Clouds 19 1030 48 10000 7.72 130 07:40 12.04.2021
400 Clouds 19 1030 48 10000 7.72 130 07:20 12.04.2021
401 Clouds 19 1030 48 10000 7.72 130 07:20 12.04.2021
402 Clouds 19 1031 45 10000 2.06 130 05:52 12.04.2021
403 Clouds 18 1032 55 10000 2.06 140 04:48 12.04.2021
404 Clouds 14 1034 67 10000 2.57 360 01:31 12.04.2021
405 Clouds 13 1033 71 10000 3.6 10 00:25 12.04.2021
406 Clouds 12 1033 76 10000 3.6 10 23:48 11.04.2021
407 Clouds 11 1033 66 10000 2.76 130 23:29 11.04.2021
408 Clouds 11 1033 76 10000 3.6 360 22:46 11.04.2021
409 Clouds 11 1033 76 10000 3.09 10 22:25 11.04.2021
410 Clouds 12 1033 76 10000 3.09 40 21:50 11.04.2021
411 Clouds 12 1033 76 10000 2.57 30 21:30 11.04.2021
412 Clouds 12 1033 82 10000 2.06 20 20:58 11.04.2021
413 Clouds 12 1033 76 10000 1.54 340 20:31 11.04.2021
414 Clouds 12 1033 76 10000 2.06 340 19:58 11.04.2021
415 Clouds 12 1033 82 10000 2.06 350 19:39 11.04.2021
416 Clouds 12 1033 82 10000 2.06 350 19:19 11.04.2021
417 Clouds 12 1033 76 10000 2.06 100 19:19 11.04.2021
418 Clouds 13 1033 77 10000 3.09 100 18:45 11.04.2021
419 Clouds 13 1033 77 10000 3.09 100 18:26 11.04.2021
420 Clouds 12 1033 76 10000 3.09 110 17:49 11.04.2021
421 Clouds 12 1033 76 10000 3.6 110 17:28 11.04.2021
422 Clouds 13 1033 76 10000 3.6 110 16:52 11.04.2021
423 Clouds 13 1033 72 10000 2.57 110 16:27 11.04.2021
424 Clouds 13 1033 76 10000 3.09 120 15:57 11.04.2021
425 Clouds 13 1034 71 10000 3.09 120 15:38 11.04.2021
426 Clouds 13 1034 71 10000 3.09 120 15:20 11.04.2021
427 Clouds 14 1034 67 10000 3.6 120 14:47 11.04.2021
428 Clouds 14 1034 67 10000 5.14 120 14:18 11.04.2021
429 Clouds 14 1033 62 10000 5.66 120 13:39 11.04.2021
430 Clouds 14 1033 62 10000 5.66 120 13:21 11.04.2021
431 Clouds 14 1032 62 10000 6.69 120 12:23 11.04.2021
432 Clouds 15 1032 58 10000 6.17 120 11:53 11.04.2021
433 Clouds 15 1032 54 10000 3.6 130 11:33 11.04.2021
434 Clouds 16 1031 34 10000 3.6 150 10:56 11.04.2021
435 Clouds 16 1031 34 10000 3.6 150 10:38 11.04.2021
436 Clouds 17 1031 34 10000 3.6 150 10:20 11.04.2021
437 Clouds 17 1031 48 10000 6.17 130 09:38 11.04.2021
438 Clouds 17 1031 48 10000 6.17 130 09:20 11.04.2021
439 Clouds 18 1031 45 10000 3.09 150 08:38 11.04.2021
440 Clouds 17 1032 48 10000 3.09 150 07:38 11.04.2021
441 Clouds 17 1032 48 10000 3.09 150 07:19 11.04.2021
442 Clouds 16 1033 48 10000 3.6 150 05:46 11.04.2021
443 Clouds 16 1033 48 10000 3.6 150 05:22 11.04.2021
444 Clouds 15 1034 47 10000 2.06 160 04:35 11.04.2021
445 Clouds 14 1034 50 10000 2.06 80 03:20 11.04.2021
446 Clouds 11 1034 62 10000 4.12 350 00:51 11.04.2021
447 Clouds 10 1034 66 10000 4.63 360 00:25 11.04.2021
448 Clouds 9 1034 62 10000 4.63 360 23:33 10.04.2021
449 Clouds 9 1033 62 10000 5.14 360 22:55 10.04.2021
450 Clouds 9 1033 62 10000 4.63 360 22:26 10.04.2021
451 Clouds 10 1033 66 10000 5.14 360 21:52 10.04.2021
452 Clouds 9 1033 66 10000 5.14 360 21:24 10.04.2021
453 Clouds 9 1033 62 10000 5.14 10 20:55 10.04.2021
454 Clouds 9 1033 66 10000 4.63 10 20:34 10.04.2021
455 Clouds 10 1033 66 10000 4.63 20 19:58 10.04.2021
456 Clouds 9 1033 66 10000 3.6 20 19:40 10.04.2021
457 Clouds 10 1033 66 10000 3.6 20 19:21 10.04.2021
458 Clouds 10 1033 58 10000 3.6 30 18:41 10.04.2021
459 Clouds 10 1033 58 10000 3.6 30 18:23 10.04.2021
460 Clouds 10 1033 62 10000 4.63 60 17:35 10.04.2021
461 Clouds 11 1033 66 10000 4.63 70 16:37 10.04.2021
462 Clouds 10 1033 66 10000 4.63 70 16:19 10.04.2021
463 Clouds 10 1032 62 10000 5.66 80 15:43 10.04.2021
464 Clouds 11 1033 62 10000 5.66 90 14:52 10.04.2021
465 Clouds 11 1033 62 10000 6.17 110 14:33 10.04.2021
466 Clouds 11 1032 62 10000 6.17 100 13:55 10.04.2021
467 Clouds 11 1032 62 10000 6.17 110 13:36 10.04.2021
468 Clouds 11 1031 62 10000 6.69 100 12:41 10.04.2021
469 Clouds 12 1031 58 10000 7.2 100 12:20 10.04.2021
470 Clouds 12 1031 58 10000 7.2 100 11:45 10.04.2021
471 Clouds 12 1030 58 10000 7.2 110 11:22 10.04.2021
472 Clouds 13 1030 58 10000 7.2 110 10:51 10.04.2021
473 Clear 13 1029 28 10000 4.12 120 10:30 10.04.2021
474 Clouds 14 1029 50 10000 7.2 130 09:37 10.04.2021
475 Clouds 15 1029 50 10000 7.2 130 09:18 10.04.2021
476 Clouds 15 1029 38 10000 5.14 140 08:34 10.04.2021
477 Clouds 14 1029 38 10000 5.14 140 07:56 10.04.2021
478 Clouds 14 1029 38 10000 5.14 140 07:26 10.04.2021
479 Clouds 13 1030 38 10000 4.12 140 06:29 10.04.2021
480 Clouds 12 1030 37 10000 4.12 150 05:34 10.04.2021
481 Clouds 12 1031 32 10000 2.06 0 03:42 10.04.2021
482 Clouds 11 1031 40 10000 3.6 40 02:48 10.04.2021
483 Clouds 9 1030 49 10000 5.66 30 01:28 10.04.2021
484 Clouds 8 1030 53 10000 5.66 20 00:37 10.04.2021
485 Clouds 8 1029 57 10000 6.17 30 23:55 09.04.2021
486 Clouds 8 1029 61 10000 6.17 30 23:34 09.04.2021
487 Clouds 8 1028 57 10000 5.66 50 22:56 09.04.2021
488 Clouds 8 1028 46 10000 5.66 10 22:36 09.04.2021
489 Clouds 8 1026 49 10000 8.75 10 21:41 09.04.2021
490 Clouds 8 1026 49 10000 8.75 10 21:22 09.04.2021
491 Clouds 8 1026 40 10000 8.75 360 20:57 09.04.2021
492 Clouds 8 1026 40 10000 9.77 360 20:39 09.04.2021
493 Clouds 8 1026 40 10000 9.77 360 20:20 09.04.2021
494 Clouds 9 1025 31 10000 8.75 10 19:43 09.04.2021
495 Clouds 9 1025 31 10000 8.75 10 19:22 09.04.2021
496 Clouds 9 1025 43 10000 7.2 10 18:44 09.04.2021
497 Clouds 9 1025 43 10000 7.2 10 18:25 09.04.2021
498 Clouds 9 1025 37 10000 7.72 10 17:49 09.04.2021
499 Clouds 9 1025 57 10000 6.69 30 17:31 09.04.2021
500 Clouds 9 1025 66 10000 6.17 50 16:55 09.04.2021
501 Clouds 9 1025 71 10000 4.12 70 16:30 09.04.2021
502 Clouds 9 1025 66 10000 9.26 40 15:47 09.04.2021
503 Clouds 9 1024 40 10000 9.77 340 15:24 09.04.2021
504 Clouds 9 1024 32 10000 9.26 330 14:47 09.04.2021
505 Clouds 10 1024 32 10000 8.75 330 14:29 09.04.2021
506 Clouds 11 1024 32 10000 9.77 330 13:47 09.04.2021
507 Clouds 12 1023 30 10000 8.75 330 13:22 09.04.2021
508 Clouds 12 1022 32 10000 8.75 330 12:47 09.04.2021
509 Clouds 13 1021 35 10000 9.26 340 12:27 09.04.2021
510 Clouds 14 1020 47 10000 7.2 350 11:44 09.04.2021
511 Clouds 14 1020 47 10000 7.2 350 11:21 09.04.2021
512 Clouds 15 1019 41 10000 3.6 150 10:40 09.04.2021
513 Clouds 15 1018 33 10000 1.54 0 10:18 09.04.2021
514 Clouds 15 1018 33 10000 1.54 0 09:29 09.04.2021
515 Clouds 16 1018 41 10000 3.09 140 08:56 09.04.2021
516 Clouds 16 1018 41 10000 3.09 140 08:34 09.04.2021
517 Clouds 16 1017 39 10000 5.14 170 07:35 09.04.2021
518 Clouds 16 1017 33 10000 3.09 200 06:33 09.04.2021
519 Clouds 15 1018 27 10000 2.57 280 05:45 09.04.2021
520 Clouds 14 1019 38 10000 3.6 40 03:48 09.04.2021
521 Clouds 10 1018 66 10000 4.63 30 00:40 09.04.2021
522 Clouds 10 1018 66 10000 4.63 30 00:22 09.04.2021
523 Clouds 10 1018 71 10000 5.14 30 23:57 08.04.2021
524 Clouds 9 1017 71 10000 6.69 20 22:58 08.04.2021
525 Clouds 9 1017 66 10000 6.69 10 22:40 08.04.2021
526 Clouds 9 1017 66 10000 6.69 10 22:40 08.04.2021
527 Clouds 9 1017 66 10000 6.69 10 22:20 08.04.2021
528 Clouds 9 1016 71 10000 6.69 10 21:54 08.04.2021
529 Clouds 10 1016 71 10000 7.2 20 21:36 08.04.2021
530 Clouds 9 1015 76 10000 7.72 30 21:18 08.04.2021
531 Clouds 10 1015 81 10000 7.72 20 20:45 08.04.2021
532 Clouds 10 1015 81 10000 7.72 20 20:25 08.04.2021
533 Clouds 10 1015 82 10000 6.17 20 19:42 08.04.2021
534 Clouds 10 1015 82 10000 6.17 20 19:19 08.04.2021
535 Clouds 10 1014 82 10000 6.69 20 18:45 08.04.2021
536 Clouds 10 1014 82 10000 6.69 20 18:20 08.04.2021
537 Clouds 11 1013 82 10000 7.72 40 17:49 08.04.2021
538 Clouds 12 1012 76 10000 7.72 20 17:24 08.04.2021
539 Clouds 12 1012 76 10000 7.72 20 16:49 08.04.2021
540 Clouds 13 1012 72 10000 5.14 330 16:28 08.04.2021
541 Clouds 14 1011 55 10000 6.17 250 15:47 08.04.2021
542 Clouds 14 1011 55 10000 6.17 250 15:28 08.04.2021
543 Clouds 14 1011 77 10000 5.14 170 14:45 08.04.2021
544 Clouds 14 1011 77 10000 5.14 170 14:25 08.04.2021
545 Clouds 14 1011 77 10000 4.63 140 13:57 08.04.2021
546 Clouds 15 1011 72 10000 6.17 160 13:39 08.04.2021
547 Rain 15 1011 72 10000 6.17 160 13:21 08.04.2021
548 Clouds 14 1011 72 10000 6.69 180 12:38 08.04.2021
549 Clouds 14 1011 72 10000 6.69 190 12:18 08.04.2021
550 Clouds 15 1011 63 10000 7.2 190 11:42 08.04.2021
551 Clouds 16 1011 63 10000 3.6 180 10:58 08.04.2021
552 Clouds 16 1011 63 10000 3.6 180 10:36 08.04.2021
553 Clouds 16 1011 63 10000 3.6 180 10:18 08.04.2021
554 Clouds 17 1011 59 10000 5.14 180 09:41 08.04.2021
555 Clouds 17 1011 67 10000 4.63 160 08:46 08.04.2021
556 Clouds 17 1011 67 10000 4.63 160 08:28 08.04.2021
557 Clouds 17 1011 59 10000 6.17 130 07:57 08.04.2021
558 Clouds 17 1011 59 10000 6.17 130 07:35 08.04.2021
559 Clouds 15 1015 44 10000 4.12 130 03:48 08.04.2021
560 Clouds 13 1016 54 10000 4.63 50 01:19 08.04.2021
561 Clouds 12 1016 54 10000 5.66 40 23:59 07.04.2021
562 Clouds 12 1015 54 10000 5.66 10 23:39 07.04.2021
563 Clouds 12 1015 54 10000 5.66 10 23:21 07.04.2021
564 Clouds 12 1015 58 10000 5.66 360 22:47 07.04.2021
565 Clouds 12 1015 58 10000 5.66 360 22:29 07.04.2021
566 Clouds 12 1014 76 10000 6.69 360 21:44 07.04.2021
567 Clouds 12 1014 76 10000 6.69 360 21:24 07.04.2021
568 Clouds 12 1014 76 10000 7.2 350 20:45 07.04.2021
569 Clear 12 1014 71 10000 6.17 330 20:21 07.04.2021
570 Clouds 12 1013 62 10000 5.66 340 19:45 07.04.2021
571 Clouds 12 1013 62 10000 5.66 340 19:26 07.04.2021
572 Clouds 12 1013 58 10000 6.17 350 18:48 07.04.2021
573 Clouds 12 1013 62 10000 4.63 330 18:20 07.04.2021
574 Clouds 12 1013 54 10000 3.6 310 17:55 07.04.2021
575 Clouds 13 1013 50 10000 4.12 310 17:37 07.04.2021
576 Clouds 13 1013 54 10000 3.6 300 16:58 07.04.2021
577 Clouds 14 1013 72 10000 2.06 180 16:38 07.04.2021
578 Clouds 14 1013 72 10000 2.06 180 16:19 07.04.2021
579 Clouds 14 1013 72 10000 3.09 170 15:39 07.04.2021
580 Clouds 14 1013 82 10000 3.6 170 14:57 07.04.2021
581 Clouds 14 1013 67 10000 4.63 190 14:32 07.04.2021
582 Clouds 15 1013 67 10000 5.14 190 13:52 07.04.2021
583 Clouds 15 1013 63 10000 5.66 200 13:27 07.04.2021
584 Clouds 15 1012 63 10000 5.66 200 12:56 07.04.2021
585 Clouds 15 1012 55 10000 6.17 200 12:25 07.04.2021
586 Clouds 16 1012 51 10000 5.14 200 11:56 07.04.2021
587 Clouds 16 1011 55 10000 6.17 200 11:28 07.04.2021
588 Clouds 17 1011 48 10000 3.6 180 10:53 07.04.2021
589 Clouds 17 1011 48 10000 3.6 180 10:27 07.04.2021
590 Clouds 18 1010 48 10000 4.12 170 09:44 07.04.2021
591 Clouds 18 1010 48 10000 4.12 170 09:25 07.04.2021
592 Clouds 18 1010 45 10000 4.63 160 08:47 07.04.2021
593 Clouds 18 1010 45 10000 4.63 160 08:22 07.04.2021
594 Clouds 17 1011 51 10000 4.12 150 07:43 07.04.2021
595 Clouds 17 1011 51 10000 4.12 150 07:24 07.04.2021
596 Clouds 16 1012 51 10000 4.12 150 06:32 07.04.2021
597 Clouds 15 1013 48 10000 3.09 60 04:23 07.04.2021
598 Clouds 11 1014 66 10000 5.66 360 00:31 07.04.2021
599 Clouds 10 1015 71 10000 4.63 10 23:47 06.04.2021
600 Clouds 10 1015 71 10000 4.63 10 23:22 06.04.2021
601 Clouds 10 1015 71 10000 3.6 340 22:48 06.04.2021
602 Clouds 10 1014 76 10000 3.09 350 22:19 06.04.2021
603 Clouds 10 1014 76 10000 3.6 10 21:43 06.04.2021
604 Clouds 10 1014 76 10000 3.6 10 21:22 06.04.2021
605 Clouds 10 1015 76 10000 3.09 10 20:54 06.04.2021
606 Clouds 10 1015 76 10000 4.12 30 20:25 06.04.2021
607 Clouds 10 1015 76 10000 3.6 10 19:58 06.04.2021
608 Clouds 10 1015 76 10000 4.12 360 19:38 06.04.2021
609 Clouds 10 1015 76 10000 4.12 360 19:19 06.04.2021
610 Clouds 10 1015 76 10000 4.63 10 18:41 06.04.2021
611 Clouds 11 1015 76 10000 4.63 10 18:19 06.04.2021
612 Clouds 10 1016 76 10000 5.14 10 17:44 06.04.2021
613 Clouds 11 1016 76 10000 5.14 10 17:19 06.04.2021
614 Clouds 11 1016 76 10000 4.12 20 16:46 06.04.2021
615 Clouds 11 1016 76 10000 5.66 50 16:26 06.04.2021
616 Clouds 11 1017 76 10000 5.14 20 15:27 06.04.2021
617 Clouds 11 1017 76 10000 5.14 20 14:45 06.04.2021
618 Clouds 11 1017 76 10000 5.66 40 14:26 06.04.2021
619 Clouds 11 1017 76 10000 6.69 30 13:47 06.04.2021
620 Clouds 11 1017 71 10000 7.72 40 13:27 06.04.2021
621 Clouds 12 1017 71 10000 7.2 50 12:55 06.04.2021
622 Clouds 12 1017 71 10000 6.69 50 12:36 06.04.2021
623 Clouds 12 1017 71 10000 6.69 60 12:18 06.04.2021
624 Clouds 12 1017 71 10000 7.2 60 11:43 06.04.2021
625 Clouds 13 1017 71 10000 7.2 60 11:19 06.04.2021
626 Clear 13 1017 50 10000 3.6 60 10:43 06.04.2021
627 Clear 13 1017 50 10000 3.6 60 10:22 06.04.2021
628 Clouds 14 1017 58 10000 5.66 60 09:45 06.04.2021
629 Clouds 14 1017 58 10000 5.66 60 09:23 06.04.2021
630 Clouds 14 1017 55 10000 4.12 40 08:29 06.04.2021
631 Clouds 14 1018 54 10000 5.66 50 07:32 06.04.2021
632 Clouds 14 1019 54 10000 6.17 40 06:54 06.04.2021
633 Clouds 13 1021 54 10000 4.12 20 04:52 06.04.2021
634 Clouds 10 1022 71 10000 7.2 10 01:34 06.04.2021
635 Clouds 9 1021 66 10000 8.75 10 00:42 06.04.2021
636 Clouds 9 1021 66 10000 8.75 10 00:20 06.04.2021
637 Clouds 9 1020 71 10000 7.2 10 23:42 05.04.2021
638 Clouds 9 1020 71 10000 7.2 10 23:18 05.04.2021
639 Clouds 8 1019 71 10000 7.72 20 22:41 05.04.2021
640 Clouds 8 1019 71 10000 7.72 20 22:22 05.04.2021
641 Clouds 9 1019 71 10000 8.23 20 21:39 05.04.2021
642 Clouds 9 1019 71 10000 8.23 20 21:19 05.04.2021
643 Clouds 9 1019 76 10000 8.75 20 20:42 05.04.2021
644 Clouds 9 1019 76 10000 8.75 20 20:22 05.04.2021
645 Clouds 9 1019 71 10000 8.75 20 19:39 05.04.2021
646 Clouds 9 1019 71 10000 8.75 20 19:19 05.04.2021
647 Clouds 9 1019 71 10000 8.23 20 18:42 05.04.2021
648 Clouds 9 1019 71 10000 8.23 20 18:23 05.04.2021
649 Clouds 10 1019 76 10000 8.75 30 17:47 05.04.2021
650 Clouds 10 1019 76 10000 8.75 30 17:25 05.04.2021
651 Clouds 10 1018 66 10000 8.75 20 16:57 05.04.2021
652 Clouds 10 1018 71 10000 8.23 20 16:38 05.04.2021
653 Clouds 10 1018 71 10000 8.23 20 16:18 05.04.2021
654 Clouds 10 1018 81 10000 8.23 30 15:47 05.04.2021
655 Clouds 10 1018 76 10000 9.26 40 15:22 05.04.2021
656 Clouds 11 1017 82 10000 9.26 30 14:36 05.04.2021
657 Clouds 11 1017 76 10000 8.75 40 13:59 05.04.2021
658 Clouds 11 1017 76 10000 8.75 40 13:31 05.04.2021
659 Clouds 12 1016 76 10000 9.26 40 12:48 05.04.2021
660 Clouds 11 1015 76 10000 10.29 50 12:26 05.04.2021
661 Clouds 11 1015 76 10000 10.29 50 12:26 05.04.2021
662 Clouds 11 1015 82 10000 10.8 50 11:53 05.04.2021
663 Clouds 11 1014 82 10000 10.8 50 11:32 05.04.2021
664 Clouds 11 1014 87 10000 3.6 70 10:57 05.04.2021
665 Clouds 11 1014 87 10000 3.6 70 10:37 05.04.2021
666 Clouds 11 1012 87 10000 8.75 60 09:56 05.04.2021
667 Clouds 11 1012 87 10000 8.75 60 09:37 05.04.2021
668 Clouds 12 1012 93 10000 7.2 50 09:19 05.04.2021
669 Clouds 12 1012 93 10000 7.2 50 08:40 05.04.2021
670 Clouds 12 1012 93 10000 7.2 50 08:19 05.04.2021
671 Mist 12 1011 87 4700 9.26 60 07:34 05.04.2021
672 Mist 14 1009 94 3500 7.2 60 04:23 05.04.2021
673 Clouds 16 1007 77 10000 7.2 340 01:35 05.04.2021
674 Clouds 16 1006 88 9000 4.63 360 00:29 05.04.2021
675 Clouds 16 1006 88 10000 3.6 360 23:43 04.04.2021
676 Clouds 16 1006 94 8000 3.6 10 23:20 04.04.2021
677 Clouds 16 1006 94 6000 2.57 360 22:50 04.04.2021
678 Mist 16 1006 94 4000 1.54 320 22:28 04.04.2021
679 Mist 16 1005 100 5000 3.6 170 21:25 04.04.2021
680 Mist 16 1005 100 5000 2.06 320 20:56 04.04.2021
681 Clouds 17 1005 94 6000 4.63 200 20:29 04.04.2021
682 Clouds 17 1005 94 9000 5.14 200 19:44 04.04.2021
683 Clouds 17 1005 94 9000 7.2 220 19:23 04.04.2021
684 Rain 17 1005 100 8000 6.17 200 18:59 04.04.2021
685 Rain 17 1006 100 8000 5.66 210 18:40 04.04.2021
686 Rain 17 1006 100 8000 5.66 210 18:40 04.04.2021
687 Rain 17 1006 100 4500 5.14 190 18:20 04.04.2021
688 Rain 17 1007 94 8000 3.6 200 17:41 04.04.2021
689 Rain 17 1007 94 8000 3.6 200 17:22 04.04.2021
690 Rain 17 1007 94 10000 4.63 220 16:42 04.04.2021
691 Rain 18 1007 94 8000 4.63 200 16:18 04.04.2021
692 Rain 17 1007 100 4500 6.69 170 15:34 04.04.2021
693 Mist 17 1007 100 4000 6.17 180 14:46 04.04.2021
694 Rain 17 1008 100 3000 4.12 180 14:27 04.04.2021
695 Rain 18 1009 94 2500 4.63 210 13:30 04.04.2021
696 Mist 18 1008 94 4000 3.6 210 12:57 04.04.2021
697 Mist 18 1008 94 4500 6.17 200 12:33 04.04.2021
698 Clouds 19 1008 82 10000 7.2 200 11:59 04.04.2021
699 Clouds 19 1008 82 10000 7.72 190 11:39 04.04.2021
700 Clouds 19 1008 82 10000 7.72 190 11:20 04.04.2021
701 Rain 19 1008 68 10000 3.6 200 10:40 04.04.2021
702 Clouds 20 1009 77 8000 6.69 190 09:54 04.04.2021
703 Rain 20 1009 77 8000 6.69 190 09:25 04.04.2021
704 Clouds 20 1008 60 10000 5.14 180 08:53 04.04.2021
705 Clouds 20 1008 60 10000 5.14 180 08:35 04.04.2021
706 Rain 21 1009 73 10000 5.14 190 07:54 04.04.2021
707 Clouds 21 1010 73 10000 7.2 180 06:37 04.04.2021
708 Clouds 21 1011 68 10000 6.17 180 05:33 04.04.2021
709 Clouds 19 1013 68 10000 6.17 190 01:29 04.04.2021
710 Clouds 18 1014 77 10000 5.66 190 00:20 04.04.2021
711 Clouds 17 1014 77 10000 5.66 190 23:48 03.04.2021
712 Clouds 17 1014 72 10000 5.66 190 23:29 03.04.2021
713 Clouds 17 1014 72 10000 6.17 200 22:52 03.04.2021
714 Clouds 17 1014 72 10000 5.14 190 22:22 03.04.2021
715 Clouds 17 1015 77 10000 5.14 190 21:52 03.04.2021
716 Clouds 17 1015 77 10000 5.66 180 21:25 03.04.2021
717 Clouds 17 1015 82 10000 5.14 180 20:54 03.04.2021
718 Clouds 17 1015 77 10000 4.63 180 20:28 03.04.2021
719 Clouds 17 1015 77 10000 5.66 200 19:51 03.04.2021
720 Clouds 17 1015 77 10000 5.14 190 19:29 03.04.2021
721 Clouds 17 1016 77 10000 4.63 190 18:53 03.04.2021
722 Clouds 16 1016 77 10000 5.66 190 18:34 03.04.2021
723 Clouds 16 1016 77 10000 5.66 190 18:34 03.04.2021
724 Clouds 17 1017 77 10000 5.66 180 17:56 03.04.2021
725 Clouds 17 1017 77 10000 5.66 180 17:27 03.04.2021
726 Clouds 17 1017 77 10000 5.14 190 16:55 03.04.2021
727 Clouds 17 1017 77 10000 4.63 190 16:28 03.04.2021
728 Clouds 17 1018 77 10000 5.14 190 15:52 03.04.2021
729 Clouds 17 1018 77 10000 5.14 190 15:32 03.04.2021
730 Clouds 17 1019 77 10000 5.14 190 14:52 03.04.2021
731 Clouds 17 1019 77 10000 4.12 190 14:27 03.04.2021
732 Clouds 17 1019 72 10000 4.12 200 13:58 03.04.2021
733 Clouds 17 1019 72 10000 4.63 190 13:35 03.04.2021
734 Clouds 17 1019 72 10000 5.66 180 12:59 03.04.2021
735 Clouds 18 1019 63 10000 4.63 180 12:35 03.04.2021
736 Clouds 18 1019 63 10000 5.14 200 11:57 03.04.2021
737 Clouds 19 1019 63 10000 5.66 190 11:32 03.04.2021
738 Clouds 19 1018 49 10000 5.66 170 10:49 03.04.2021
739 Clouds 20 1018 49 10000 5.66 170 10:29 03.04.2021
740 Clouds 20 1018 45 10000 5.14 180 09:50 03.04.2021
741 Clouds 20 1019 55 10000 2.57 160 09:27 03.04.2021
742 Clouds 20 1019 55 10000 2.57 150 08:38 03.04.2021
743 Clouds 20 1019 55 10000 2.57 150 08:19 03.04.2021
744 Clouds 20 1020 52 10000 3.09 130 07:27 03.04.2021
745 Clouds 19 1023 52 10000 2.06 150 04:27 03.04.2021
746 Clouds 18 1024 55 10000 1.54 150 03:18 03.04.2021
747 Clouds 18 1024 63 10000 1.54 0 02:35 03.04.2021
748 Clouds 17 1024 67 10000 3.6 40 01:44 03.04.2021
749 Clouds 15 1024 72 10000 2.06 20 00:19 03.04.2021
750 Clouds 14 1024 72 10000 2.06 360 23:46 02.04.2021
751 Clouds 14 1024 72 10000 2.06 20 23:21 02.04.2021
752 Clouds 14 1024 72 10000 2.06 10 22:50 02.04.2021
753 Clouds 14 1025 72 10000 1.54 10 22:30 02.04.2021
754 Clouds 15 1025 72 10000 2.57 20 21:42 02.04.2021
755 Clouds 15 1025 72 10000 2.57 20 21:20 02.04.2021
756 Clouds 15 1025 72 10000 3.6 70 20:48 02.04.2021
757 Clouds 15 1025 77 10000 4.12 70 20:26 02.04.2021
758 Clouds 15 1026 77 10000 3.09 60 19:43 02.04.2021
759 Clouds 15 1026 77 10000 3.09 60 19:24 02.04.2021
760 Clouds 15 1026 77 10000 3.09 60 18:56 02.04.2021
761 Clouds 15 1026 77 10000 3.09 60 18:38 02.04.2021
762 Clouds 15 1027 77 10000 3.6 60 18:19 02.04.2021
763 Clouds 15 1027 77 10000 4.12 70 17:36 02.04.2021
764 Clouds 15 1027 77 10000 4.12 60 16:48 02.04.2021
765 Clouds 15 1027 77 10000 4.63 60 15:54 02.04.2021
766 Clouds 16 1027 72 10000 5.66 70 15:32 02.04.2021
767 Clouds 16 1027 72 10000 5.66 70 14:45 02.04.2021
768 Clouds 16 1027 72 10000 5.66 70 14:21 02.04.2021
769 Clouds 16 1027 72 10000 6.17 80 13:41 02.04.2021
770 Clouds 16 1027 72 10000 6.17 80 13:19 02.04.2021
771 Clouds 16 1026 72 10000 7.2 90 12:40 02.04.2021
772 Clouds 16 1026 72 10000 7.2 90 12:20 02.04.2021
773 Clouds 17 1026 67 10000 6.69 100 11:53 02.04.2021
774 Clouds 17 1026 72 10000 6.17 90 11:20 02.04.2021
775 Clouds 18 1026 52 10000 3.09 70 10:46 02.04.2021
776 Clouds 18 1026 52 10000 3.09 70 10:28 02.04.2021
777 Clouds 19 1025 59 10000 5.14 80 09:52 02.04.2021
778 Clouds 19 1025 59 10000 5.14 80 09:27 02.04.2021
779 Clouds 19 1025 59 10000 3.6 60 08:51 02.04.2021
780 Clouds 20 1025 59 10000 3.6 60 08:29 02.04.2021
781 Clouds 19 1026 55 10000 3.6 30 07:30 02.04.2021
782 Clouds 19 1026 55 10000 3.6 30 07:30 02.04.2021
783 Clouds 19 1026 55 10000 3.09 20 06:47 02.04.2021
784 Clouds 19 1027 55 10000 2.57 30 05:28 02.04.2021
785 Clouds 16 1028 67 10000 3.6 30 02:30 02.04.2021
786 Clouds 15 1028 72 10000 4.63 30 00:52 02.04.2021
787 Clouds 15 1028 72 10000 5.66 30 00:22 02.04.2021
788 Clouds 14 1027 77 10000 6.69 20 23:39 01.04.2021
789 Clouds 14 1027 72 10000 5.14 10 22:57 01.04.2021
790 Clouds 14 1027 72 10000 5.14 20 22:20 01.04.2021
791 Clouds 15 1026 72 10000 4.63 20 21:50 01.04.2021
792 Clouds 15 1026 72 10000 5.66 30 21:27 01.04.2021
793 Clouds 15 1026 67 10000 5.66 30 20:49 01.04.2021
794 Clouds 15 1025 77 10000 5.14 10 20:26 01.04.2021
795 Clouds 15 1025 72 10000 6.17 40 19:56 01.04.2021
796 Clouds 15 1025 77 10000 7.2 50 19:35 01.04.2021
797 Clouds 15 1025 77 10000 6.17 50 18:46 01.04.2021
798 Clouds 15 1025 77 10000 6.17 50 18:19 01.04.2021
799 Clouds 15 1025 72 10000 6.17 40 17:53 01.04.2021
800 Clouds 15 1024 77 10000 5.14 40 17:33 01.04.2021
801 Clouds 15 1024 77 10000 5.66 50 16:53 01.04.2021
802 Clouds 15 1024 77 10000 5.66 50 16:31 01.04.2021
803 Clouds 15 1024 77 10000 6.17 60 15:48 01.04.2021
804 Clouds 16 1024 82 10000 5.66 60 15:20 01.04.2021
805 Clouds 16 1024 82 10000 5.66 60 14:47 01.04.2021
806 Clouds 16 1024 77 10000 5.66 70 14:27 01.04.2021
807 Clouds 16 1023 77 10000 6.17 80 13:58 01.04.2021
808 Clouds 16 1023 77 10000 5.14 90 13:31 01.04.2021
809 Clouds 16 1022 77 10000 5.66 100 12:54 01.04.2021
810 Clouds 16 1022 77 10000 6.17 100 12:33 01.04.2021
811 Clouds 17 1022 82 10000 6.17 100 11:57 01.04.2021
812 Clouds 17 1021 77 10000 6.69 110 11:38 01.04.2021
813 Clouds 18 1020 55 10000 5.14 130 11:18 01.04.2021
814 Clouds 19 1020 55 10000 5.14 130 10:45 01.04.2021
815 Clouds 19 1020 55 10000 5.14 130 10:22 01.04.2021
816 Clouds 20 1020 63 10000 7.72 120 09:31 01.04.2021
817 Clouds 20 1019 59 10000 4.63 120 08:43 01.04.2021
818 Clouds 21 1019 59 10000 4.63 120 08:24 01.04.2021
819 Clouds 20 1020 56 10000 4.63 120 07:21 01.04.2021
820 Clouds 19 1020 56 10000 4.63 120 06:56 01.04.2021
821 Clouds 19 1020 55 10000 1.54 130 05:33 01.04.2021
822 Clouds 17 1021 55 10000 2.57 20 03:18 01.04.2021
823 Clouds 15 1019 67 10000 6.17 50 23:55 31.03.2021
824 Clouds 15 1018 72 10000 7.2 50 23:37 31.03.2021
825 Clouds 15 1018 67 10000 7.2 60 22:44 31.03.2021
826 Clouds 15 1017 67 10000 7.2 60 22:23 31.03.2021
827 Clouds 15 1017 72 10000 6.69 50 21:57 31.03.2021
828 Clouds 16 1017 72 10000 4.63 70 21:39 31.03.2021
829 Clouds 16 1017 72 10000 4.63 70 21:19 31.03.2021
830 Clouds 16 1016 72 10000 1.54 50 20:40 31.03.2021
831 Clouds 16 1016 72 10000 1.54 30 20:21 31.03.2021
832 Clouds 16 1016 67 10000 1.54 50 19:42 31.03.2021
833 Clouds 16 1016 67 10000 1.54 50 19:20 31.03.2021
834 Clouds 16 1016 67 10000 1.54 70 18:55 31.03.2021
835 Clouds 16 1016 67 10000 1.03 80 18:35 31.03.2021
836 Clouds 16 1016 67 10000 2.06 80 17:44 31.03.2021
837 Clouds 16 1016 67 10000 2.06 80 17:21 31.03.2021
838 Clouds 16 1015 67 10000 2.06 90 16:55 31.03.2021
839 Clouds 17 1015 67 10000 2.06 110 16:35 31.03.2021
840 Clouds 16 1015 67 10000 3.09 150 15:58 31.03.2021
841 Clouds 17 1015 67 10000 3.09 150 15:40 31.03.2021
842 Clouds 17 1014 67 10000 3.6 130 15:18 31.03.2021
843 Clouds 16 1014 67 10000 3.6 140 14:41 31.03.2021
844 Clouds 17 1014 67 10000 3.6 130 14:18 31.03.2021
845 Clouds 17 1014 67 10000 3.6 140 13:24 31.03.2021
846 Clouds 17 1013 67 10000 5.14 140 12:41 31.03.2021
847 Clouds 18 1012 63 10000 5.66 120 12:19 31.03.2021
848 Clouds 18 1012 63 10000 5.14 140 11:39 31.03.2021
849 Clouds 18 1012 63 10000 5.14 140 11:20 31.03.2021
850 Clouds 19 1011 59 10000 5.66 180 10:46 31.03.2021
851 Clouds 19 1010 55 10000 7.72 140 10:24 31.03.2021
852 Clouds 20 1010 55 10000 7.72 140 09:33 31.03.2021
853 Clouds 21 1010 52 10000 4.12 140 08:51 31.03.2021
854 Clouds 22 1010 52 10000 4.12 140 08:32 31.03.2021
855 Clouds 21 1010 56 9000 4.63 140 07:43 31.03.2021
856 Clouds 20 1010 59 9000 4.63 160 06:36 31.03.2021
857 Clouds 20 1011 42 10000 3.6 20 03:46 31.03.2021
858 Clouds 17 1011 51 10000 8.75 360 01:35 31.03.2021
859 Clouds 17 1010 67 10000 6.17 360 00:48 31.03.2021
860 Clouds 17 1010 67 10000 6.17 360 00:18 31.03.2021
861 Clouds 16 1009 82 8000 6.17 350 23:29 30.03.2021
862 Clouds 16 1008 88 8000 6.17 350 22:58 30.03.2021
863 Clouds 16 1008 82 9000 4.63 360 22:39 30.03.2021
864 Clouds 16 1008 82 9000 4.63 360 22:21 30.03.2021
865 Clouds 17 1008 77 9000 2.06 10 21:46 30.03.2021
866 Clouds 17 1008 77 9000 2.06 10 21:19 30.03.2021
867 Clouds 17 1008 77 9000 2.57 40 20:51 30.03.2021
868 Clouds 17 1008 77 9000 2.57 50 20:28 30.03.2021
869 Clouds 17 1008 77 10000 2.57 60 19:50 30.03.2021
870 Clouds 17 1008 72 10000 2.57 40 19:27 30.03.2021
871 Rain 17 1008 77 10000 4.12 30 18:38 30.03.2021
872 Clouds 17 1008 77 10000 4.12 40 17:56 30.03.2021
873 Clouds 17 1009 82 10000 4.12 30 17:38 30.03.2021
874 Clouds 17 1008 82 9000 3.6 30 17:20 30.03.2021
875 Clouds 17 1008 82 9000 3.6 30 16:44 30.03.2021
876 Rain 17 1008 82 9000 3.09 40 16:23 30.03.2021
877 Clouds 17 1008 88 9000 4.12 60 15:20 30.03.2021
878 Rain 18 1008 88 9000 2.06 70 14:56 30.03.2021
879 Clouds 18 1008 88 9000 3.09 40 14:22 30.03.2021
880 Rain 18 1008 88 9000 3.6 90 13:58 30.03.2021
881 Rain 18 1008 88 9000 2.06 60 13:36 30.03.2021
882 Clouds 18 1008 82 9000 1.03 0 12:49 30.03.2021
883 Clouds 18 1008 82 9000 1.03 0 12:49 30.03.2021
884 Clouds 18 1007 88 10000 3.6 140 12:27 30.03.2021
885 Rain 19 1007 82 10000 2.57 110 11:53 30.03.2021
886 Clouds 19 1006 69 10000 4.13 143 11:23 30.03.2021
887 Clouds 20 1006 69 10000 4.13 143 10:46 30.03.2021
888 Clouds 20 1007 82 8000 6.17 120 10:25 30.03.2021
889 Clouds 21 1007 82 8000 6.17 120 09:44 30.03.2021
890 Clouds 21 1007 82 8000 6.17 120 09:26 30.03.2021
891 Clouds 22 1006 60 10000 4.63 90 08:55 30.03.2021
892 Clouds 22 1006 60 10000 4.63 90 08:37 30.03.2021
893 Clouds 22 1006 60 8000 3.6 90 07:51 30.03.2021
894 Clouds 22 1006 60 8000 3.6 90 07:22 30.03.2021
895 Clouds 21 1007 60 7000 2.57 60 05:26 30.03.2021
896 Clouds 21 1008 68 7000 3.09 60 04:58 30.03.2021
897 Clouds 16 1008 82 10000 5.66 20 00:30 30.03.2021
898 Clouds 15 1008 94 10000 4.12 360 23:33 29.03.2021
899 Clouds 15 1007 94 10000 3.6 10 22:51 29.03.2021
900 Clouds 15 1007 94 10000 3.09 360 22:26 29.03.2021
901 Clouds 15 1007 94 10000 1.54 70 21:47 29.03.2021
902 Clouds 15 1007 94 10000 1.54 70 21:27 29.03.2021
903 Clouds 16 1006 88 10000 1.54 300 20:48 29.03.2021
904 Clouds 15 1006 88 10000 2.06 270 20:27 29.03.2021
905 Clouds 16 1006 88 10000 2.06 260 19:49 29.03.2021
906 Clouds 16 1006 88 10000 2.06 270 19:22 29.03.2021
907 Clouds 16 1006 82 10000 3.6 260 18:44 29.03.2021
908 Clouds 16 1006 82 10000 3.6 260 18:26 29.03.2021
909 Clear 17 1005 77 10000 2.57 240 17:50 29.03.2021
910 Clear 17 1005 77 10000 2.06 220 17:31 29.03.2021
911 Clear 17 1005 77 10000 2.06 220 17:30 29.03.2021
912 Clear 17 1005 72 10000 4.63 210 16:42 29.03.2021
913 Clear 17 1005 72 10000 4.63 210 16:23 29.03.2021
914 Clear 17 1004 77 10000 6.17 190 15:36 29.03.2021
915 Clear 17 1004 77 10000 6.17 190 15:18 29.03.2021
916 Clear 18 1004 68 10000 5.14 190 14:45 29.03.2021
917 Clear 18 1003 72 10000 6.17 180 13:55 29.03.2021
918 Clear 18 1003 82 10000 4.63 170 13:31 29.03.2021
919 Clear 18 1002 77 10000 5.14 200 12:54 29.03.2021
920 Clear 18 1002 77 10000 5.66 210 12:35 29.03.2021
921 Clear 19 1002 77 10000 5.14 170 11:43 29.03.2021
922 Clear 19 1002 77 10000 5.14 170 11:24 29.03.2021
923 Clear 20 1001 77 10000 6.69 190 10:43 29.03.2021
924 Clouds 20 1001 77 10000 5.66 180 10:18 29.03.2021
925 Clouds 21 1001 77 10000 5.66 180 09:25 29.03.2021
926 Clouds 22 1001 73 10000 5.66 190 08:30 29.03.2021
927 Clouds 22 1001 73 10000 4.12 150 07:52 29.03.2021
928 Clouds 22 1002 82 10000 2.57 140 06:57 29.03.2021
929 Clouds 20 1002 88 10000 2.57 140 05:45 29.03.2021
930 Clouds 18 1003 77 10000 2.06 110 02:32 29.03.2021
931 Clouds 16 1003 94 10000 3.6 350 00:27 29.03.2021
932 Clouds 15 1003 94 10000 3.6 310 23:57 28.03.2021
933 Clouds 14 1002 94 10000 3.09 320 23:25 28.03.2021
934 Clouds 14 1002 94 10000 4.63 320 22:43 28.03.2021
935 Clouds 14 1002 94 10000 4.63 320 22:25 28.03.2021
936 Clouds 14 1002 100 10000 6.69 310 21:47 28.03.2021
937 Clouds 14 1002 100 8000 7.2 320 21:24 28.03.2021
938 Mist 14 1002 100 3000 7.72 310 20:53 28.03.2021
939 Mist 14 1001 100 1500 12.86 320 20:35 28.03.2021
940 Fog 14 1001 100 1000 3.6 40 19:56 28.03.2021
941 Mist 15 1002 100 2000 3.09 120 19:38 28.03.2021
942 Rain 16 1002 94 2500 4.63 140 19:20 28.03.2021
943 Rain 16 1005 100 3500 6.69 180 18:41 28.03.2021
944 Rain 16 1005 100 3500 6.69 180 18:18 28.03.2021
945 Rain 16 1006 94 3000 5.14 190 17:37 28.03.2021
946 Rain 16 1007 94 10000 3.6 170 16:57 28.03.2021
947 Rain 16 1008 94 10000 4.63 180 16:29 28.03.2021
948 Rain 16 1009 88 10000 6.17 200 15:58 28.03.2021
949 Rain 17 1009 82 10000 7.72 200 15:24 28.03.2021
950 Rain 17 1010 94 5000 6.17 190 14:47 28.03.2021
951 Mist 17 1010 94 5000 6.17 190 14:24 28.03.2021
952 Rain 17 1010 82 10000 6.69 190 13:36 28.03.2021
953 Rain 18 1010 82 10000 5.66 190 12:58 28.03.2021
954 Rain 18 1010 77 10000 5.66 190 12:35 28.03.2021
955 Clouds 18 1011 77 10000 5.66 180 11:59 28.03.2021
956 Rain 18 1011 82 10000 6.69 190 11:37 28.03.2021
957 Rain 18 1011 82 10000 7.72 180 10:54 28.03.2021
958 Rain 18 1012 88 10000 6.69 190 10:31 28.03.2021
959 Clouds 18 1012 88 10000 6.69 190 09:53 28.03.2021
960 Rain 18 1011 63 10000 5.14 180 09:28 28.03.2021
961 Rain 18 1011 68 10000 6.17 180 08:56 28.03.2021
962 Rain 19 1011 68 10000 6.17 180 08:35 28.03.2021
963 Rain 18 1012 72 10000 5.14 180 07:43 28.03.2021
964 Clouds 17 1013 88 10000 5.66 190 06:22 28.03.2021
965 Clouds 18 1016 68 10000 4.12 180 03:50 28.03.2021
966 Clouds 17 1017 82 10000 4.12 170 00:45 28.03.2021
967 Clouds 17 1018 72 10000 7.2 170 23:59 27.03.2021
968 Clouds 17 1018 72 10000 7.72 170 23:36 27.03.2021
969 Clouds 16 1018 72 10000 6.17 180 22:49 27.03.2021
970 Rain 16 1018 72 10000 6.69 180 22:30 27.03.2021
971 Clouds 16 1018 77 10000 7.72 180 21:45 27.03.2021
972 Clouds 16 1018 77 10000 7.72 180 21:21 27.03.2021
973 Clouds 15 1018 77 10000 7.2 190 20:59 27.03.2021
974 Rain 15 1018 82 10000 6.17 180 20:37 27.03.2021
975 Clouds 15 1019 77 10000 5.14 190 19:59 27.03.2021
976 Clouds 15 1019 77 10000 5.66 190 19:40 27.03.2021
977 Rain 15 1019 77 10000 5.66 190 19:22 27.03.2021
978 Clouds 15 1019 77 10000 4.63 180 18:47 27.03.2021
979 Clouds 15 1019 77 10000 5.14 190 18:22 27.03.2021
980 Clouds 15 1020 72 10000 5.14 180 17:37 27.03.2021
981 Clouds 15 1020 77 10000 5.66 170 17:18 27.03.2021
982 Clouds 15 1020 72 10000 4.63 180 16:46 27.03.2021
983 Clouds 15 1020 72 10000 4.63 180 16:25 27.03.2021
984 Clouds 15 1021 72 10000 4.63 170 15:45 27.03.2021
985 Clouds 15 1021 77 10000 4.63 180 15:19 27.03.2021
986 Clouds 15 1021 72 10000 5.14 170 14:42 27.03.2021
987 Clouds 15 1021 72 10000 5.66 170 13:39 27.03.2021
988 Clear 15 1021 67 10000 5.66 170 13:19 27.03.2021
989 Clear 15 1021 67 10000 5.66 170 12:43 27.03.2021
990 Clouds 15 1022 63 10000 5.66 180 11:51 27.03.2021
991 Clouds 15 1021 58 10000 5.66 170 11:32 27.03.2021
992 Clouds 16 1021 59 10000 5.14 190 10:58 27.03.2021
993 Clouds 16 1021 44 10000 6.17 200 10:39 27.03.2021
994 Clouds 16 1021 44 10000 6.69 200 09:58 27.03.2021
995 Clouds 17 1021 48 10000 5.14 200 09:21 27.03.2021
996 Clouds 17 1021 48 10000 5.14 200 08:40 27.03.2021
997 Clouds 18 1021 51 10000 4.12 160 07:54 27.03.2021
998 Clouds 18 1021 51 10000 4.12 160 07:18 27.03.2021
999 Clouds 18 1021 32 10000 4.12 130 06:42 27.03.2021
1000 Clear 16 1024 38 10000 2.57 150 04:42 27.03.2021
1001 Clear 15 1024 44 10000 2.06 140 02:45 27.03.2021
1002 Clear 12 1024 47 10000 1.03 0 00:45 27.03.2021
1003 Clear 12 1023 54 10000 3.6 40 00:25 27.03.2021
1004 Clear 12 1023 54 10000 3.6 40 00:25 27.03.2021
1005 Clear 11 1023 58 10000 2.57 60 23:38 26.03.2021
1006 Clear 11 1022 54 10000 3.09 20 22:45 26.03.2021
1007 Clear 10 1022 54 10000 4.63 20 22:24 26.03.2021
1008 Clear 10 1021 58 10000 7.2 20 21:25 26.03.2021
1009 Clear 10 1021 58 10000 7.2 20 20:58 26.03.2021
1010 Clear 10 1021 54 10000 5.66 10 20:32 26.03.2021
1011 Clear 10 1020 58 10000 7.2 10 19:53 26.03.2021
1012 Clear 11 1020 50 10000 7.2 360 19:35 26.03.2021
1013 Clear 11 1020 50 10000 9.26 350 18:55 26.03.2021
1014 Clear 11 1020 47 10000 8.23 360 18:36 26.03.2021
1015 Clear 11 1020 50 10000 8.75 350 18:18 26.03.2021
1016 Clear 11 1021 50 10000 8.75 350 17:43 26.03.2021
1017 Clear 12 1021 47 10000 8.23 350 16:52 26.03.2021
1018 Clear 12 1021 47 10000 8.23 350 16:23 26.03.2021
1019 Clear 12 1021 40 10000 8.23 330 15:43 26.03.2021
1020 Clear 12 1020 43 10000 9.77 340 14:54 26.03.2021
1021 Clear 13 1020 43 10000 10.8 340 14:20 26.03.2021
1022 Clear 13 1020 41 10000 10.29 340 13:33 26.03.2021
1023 Clear 13 1019 41 10000 11.32 340 12:48 26.03.2021
1024 Clear 14 1018 41 10000 11.32 340 11:50 26.03.2021
1025 Clear 14 1017 35 10000 11.32 330 11:31 26.03.2021
1026 Clouds 15 1016 36 10000 8.75 350 10:46 26.03.2021
1027 Clouds 15 1016 36 10000 8.75 350 10:27 26.03.2021
1028 Clouds 16 1015 41 10000 13.89 350 09:41 26.03.2021
1029 Clouds 17 1014 31 10000 5.14 330 08:59 26.03.2021
1030 Clouds 17 1014 31 10000 5.14 330 08:35 26.03.2021
1031 Clouds 18 1012 45 10000 3.6 160 07:58 26.03.2021
1032 Clouds 19 1012 45 10000 3.6 160 07:22 26.03.2021
1033 Clouds 20 1012 34 10000 5.14 170 06:57 26.03.2021
1034 Clouds 19 1012 34 10000 5.14 170 06:26 26.03.2021
1035 Clouds 18 1012 48 10000 3.6 140 05:21 26.03.2021
1036 Clear 16 1014 33 10000 3.6 330 01:50 26.03.2021
1037 Clear 14 1014 47 10000 2.57 320 00:23 26.03.2021
1038 Clear 13 1014 58 10000 2.06 290 23:44 25.03.2021
1039 Clear 12 1014 62 10000 3.09 270 22:51 25.03.2021
1040 Clear 11 1014 50 10000 4.12 320 22:28 25.03.2021
1041 Clear 11 1014 54 10000 4.12 340 21:49 25.03.2021
1042 Clear 12 1014 50 10000 4.63 340 21:31 25.03.2021
1043 Clear 12 1013 54 10000 5.14 330 20:43 25.03.2021
1044 Clear 12 1013 54 10000 5.14 330 20:25 25.03.2021
1045 Clear 12 1013 62 10000 5.14 330 19:45 25.03.2021
1046 Clear 11 1013 62 10000 5.14 330 19:26 25.03.2021
1047 Clouds 13 1013 71 10000 1.54 350 18:46 25.03.2021
1048 Clouds 13 1013 71 10000 1.54 350 18:26 25.03.2021
1049 Clouds 12 1013 71 10000 1.54 350 18:26 25.03.2021
1050 Clouds 13 1013 71 10000 1.54 350 18:26 25.03.2021
1051 Clouds 12 1014 100 10000 1.03 320 17:45 25.03.2021
1052 Clouds 12 1014 100 10000 1.03 320 17:27 25.03.2021
1053 Clouds 13 1014 94 10000 1.03 360 16:50 25.03.2021
1054 Clouds 13 1014 88 10000 0.51 40 16:29 25.03.2021
1055 Clouds 13 1014 94 10000 1.03 100 15:43 25.03.2021
1056 Clouds 13 1014 94 10000 1.03 100 15:20 25.03.2021
1057 Clouds 13 1014 94 10000 1.54 90 14:46 25.03.2021
1058 Clouds 14 1015 94 10000 1.54 100 13:49 25.03.2021
1059 Clouds 14 1015 88 10000 1.54 110 13:24 25.03.2021
1060 Clouds 14 1015 88 10000 4.63 170 12:44 25.03.2021
1061 Rain 14 1015 88 10000 4.63 170 12:20 25.03.2021
1062 Rain 14 1015 88 10000 5.14 170 11:52 25.03.2021
1063 Rain 14 1015 82 10000 5.14 170 11:30 25.03.2021
1064 Rain 14 1015 82 10000 4.63 170 10:55 25.03.2021
1065 Rain 15 1015 82 10000 5.14 170 10:26 25.03.2021
1066 Rain 15 1015 77 10000 5.14 180 09:57 25.03.2021
1067 Rain 15 1015 77 10000 6.17 180 09:38 25.03.2021
1068 Rain 15 1016 94 10000 3.6 170 08:57 25.03.2021
1069 Rain 15 1015 77 10000 4.63 150 08:29 25.03.2021
1070 Clouds 15 1016 88 10000 3.6 170 07:24 25.03.2021
1071 Rain 16 1016 82 10000 4.12 190 06:27 25.03.2021
1072 Clouds 17 1017 72 10000 4.12 190 05:49 25.03.2021
1073 Clouds 17 1017 72 10000 4.12 190 05:49 25.03.2021
1074 Rain 17 1018 67 10000 4.12 180 04:33 25.03.2021
1075 Clouds 16 1021 67 10000 5.14 180 00:44 25.03.2021
1076 Clouds 15 1021 59 10000 5.66 200 00:18 25.03.2021
1077 Clouds 15 1020 58 10000 5.14 200 23:33 24.03.2021
1078 Clouds 14 1020 58 10000 4.63 200 22:51 24.03.2021
1079 Clouds 14 1020 67 10000 4.12 220 22:32 24.03.2021
1080 Clouds 14 1021 67 10000 5.66 200 21:47 24.03.2021
1081 Clouds 14 1021 67 10000 5.66 200 21:47 24.03.2021
1082 Clouds 14 1021 67 10000 5.14 210 21:25 24.03.2021
1083 Clouds 14 1020 67 10000 6.17 190 20:55 24.03.2021
1084 Clouds 14 1020 67 10000 4.63 190 20:37 24.03.2021
1085 Clouds 14 1020 67 10000 4.63 190 20:18 24.03.2021
1086 Clouds 14 1021 72 10000 5.66 200 19:31 24.03.2021
1087 Clouds 14 1021 72 10000 6.17 200 18:52 24.03.2021
1088 Clouds 14 1021 72 10000 6.17 200 18:24 24.03.2021
1089 Clouds 14 1022 72 10000 6.17 190 17:53 24.03.2021
1090 Clouds 14 1022 72 10000 6.69 200 17:32 24.03.2021
1091 Clouds 15 1022 67 10000 6.17 200 16:54 24.03.2021
1092 Clouds 15 1022 67 10000 7.72 200 16:32 24.03.2021
1093 Clouds 15 1022 67 10000 6.69 200 15:58 24.03.2021
1094 Clouds 15 1022 72 10000 6.69 210 15:33 24.03.2021
1095 Clouds 15 1022 72 10000 7.2 200 14:59 24.03.2021
1096 Clouds 15 1023 72 10000 7.72 200 14:29 24.03.2021
1097 Clouds 15 1023 72 10000 8.23 200 13:58 24.03.2021
1098 Clouds 15 1022 72 10000 7.72 200 13:28 24.03.2021
1099 Clouds 15 1022 72 10000 8.23 200 12:50 24.03.2021
1100 Clouds 16 1022 67 10000 9.26 190 12:29 24.03.2021
1101 Clouds 16 1022 67 10000 9.26 200 11:54 24.03.2021
1102 Clouds 16 1022 67 10000 8.23 190 11:35 24.03.2021
1103 Clouds 16 1022 67 10000 8.23 190 11:35 24.03.2021
1104 Clouds 16 1022 67 10000 8.23 190 10:48 24.03.2021
1105 Clouds 16 1022 67 10000 7.72 190 10:28 24.03.2021
1106 Clouds 17 1022 63 10000 8.75 190 09:54 24.03.2021
1107 Clouds 17 1022 67 10000 6.17 180 09:25 24.03.2021
1108 Clouds 18 1022 67 10000 6.17 180 08:57 24.03.2021
1109 Clouds 18 1021 48 10000 5.66 170 08:32 24.03.2021
1110 Clouds 18 1022 63 10000 6.69 180 07:44 24.03.2021
1111 Clouds 19 1022 63 10000 6.69 180 07:18 24.03.2021
1112 Clouds 19 1022 52 10000 5.66 180 06:41 24.03.2021
1113 Clouds 13 1025 54 10000 2.06 90 01:24 24.03.2021
1114 Clouds 12 1025 58 10000 1.54 40 00:36 24.03.2021
1115 Clouds 11 1025 62 10000 2.06 310 23:43 23.03.2021
1116 Clouds 9 1025 71 10000 2.06 310 23:19 23.03.2021
1117 Clouds 9 1024 71 10000 2.57 300 22:44 23.03.2021
1118 Clouds 9 1024 71 10000 2.57 300 22:24 23.03.2021
1119 Clouds 9 1023 66 10000 1.54 290 21:41 23.03.2021
1120 Clouds 9 1023 66 10000 1.54 290 21:22 23.03.2021
1121 Clouds 10 1023 66 10000 1.03 0 20:44 23.03.2021
1122 Clouds 10 1023 66 10000 2.57 300 20:25 23.03.2021
1123 Clouds 10 1023 66 10000 2.57 300 19:47 23.03.2021
1124 Clouds 11 1022 71 10000 3.6 200 19:25 23.03.2021
1125 Clouds 12 1023 66 10000 3.6 170 18:43 23.03.2021
1126 Clouds 12 1023 66 10000 3.6 170 18:22 23.03.2021
1127 Clouds 11 1023 81 10000 4.12 150 17:45 23.03.2021
1128 Clouds 11 1023 81 10000 4.12 150 17:21 23.03.2021
1129 Clear 12 1022 66 10000 5.14 170 16:42 23.03.2021
1130 Clear 12 1022 66 10000 5.14 170 16:19 23.03.2021
1131 Clear 12 1022 58 10000 5.14 200 15:40 23.03.2021
1132 Clouds 12 1022 58 10000 5.14 200 14:55 23.03.2021
1133 Clouds 12 1022 58 10000 5.66 190 14:37 23.03.2021
1134 Clouds 12 1022 58 10000 5.66 190 14:18 23.03.2021
1135 Clouds 13 1022 54 10000 7.2 200 13:41 23.03.2021
1136 Clouds 13 1022 54 10000 7.2 200 13:20 23.03.2021
1137 Clouds 13 1022 54 10000 6.17 190 12:43 23.03.2021
1138 Clouds 13 1022 50 10000 7.2 200 12:20 23.03.2021
1139 Clouds 13 1022 50 10000 6.17 200 11:45 23.03.2021
1140 Clouds 13 1021 44 10000 5.66 200 10:45 23.03.2021
1141 Clouds 13 1021 44 10000 6.17 200 10:26 23.03.2021
1142 Clouds 14 1021 41 10000 6.17 200 09:58 23.03.2021
1143 Clouds 14 1020 38 10000 5.14 200 09:39 23.03.2021
1144 Clouds 14 1020 33 10000 2.57 180 09:19 23.03.2021
1145 Clouds 15 1020 33 10000 2.57 180 08:40 23.03.2021
1146 Clouds 15 1020 33 10000 2.57 180 08:22 23.03.2021
1147 Clouds 15 1020 35 10000 3.6 160 07:40 23.03.2021
1148 Clouds 15 1020 35 10000 3.6 160 07:19 23.03.2021
1149 Clouds 14 1020 35 10000 4.12 160 06:33 23.03.2021
1150 Clouds 13 1021 43 10000 4.63 140 03:23 23.03.2021
1151 Clouds 11 1021 37 10000 3.09 50 02:18 23.03.2021
1152 Clouds 8 1020 49 10000 3.09 10 23:44 22.03.2021
1153 Clouds 8 1019 49 10000 3.09 360 22:56 22.03.2021
1154 Clouds 7 1019 56 10000 2.57 320 22:38 22.03.2021
1155 Clouds 7 1019 56 10000 2.57 320 22:20 22.03.2021
1156 Clouds 7 1018 56 10000 3.09 330 21:41 22.03.2021
1157 Clouds 7 1018 56 10000 3.09 330 21:22 22.03.2021
1158 Clouds 7 1017 53 10000 4.12 350 20:41 22.03.2021
1159 Clouds 8 1017 53 10000 4.12 350 20:22 22.03.2021
1160 Clouds 8 1017 49 10000 5.66 350 19:54 22.03.2021
1161 Clouds 8 1017 49 10000 6.17 350 19:34 22.03.2021
1162 Clouds 8 1016 49 10000 5.66 350 18:58 22.03.2021
1163 Clouds 9 1016 46 10000 7.2 340 18:39 22.03.2021
1164 Clouds 9 1016 46 10000 7.2 340 18:20 22.03.2021
1165 Clouds 9 1016 53 10000 4.12 310 17:42 22.03.2021
1166 Clouds 9 1016 53 10000 4.12 310 17:20 22.03.2021
1167 Clouds 9 1015 61 10000 3.6 10 16:45 22.03.2021
1168 Clouds 9 1015 76 10000 4.12 10 16:19 22.03.2021
1169 Clouds 9 1015 66 10000 2.06 360 15:38 22.03.2021
1170 Clouds 9 1015 66 10000 2.06 360 15:18 22.03.2021
1171 Clouds 9 1015 76 10000 4.63 20 14:53 22.03.2021
1172 Clouds 9 1015 76 10000 5.66 30 14:34 22.03.2021
1173 Clouds 9 1014 71 10000 8.75 340 13:48 22.03.2021
1174 Clouds 9 1014 71 10000 8.75 340 13:27 22.03.2021
1175 Clouds 10 1013 66 10000 6.17 340 12:55 22.03.2021
1176 Clouds 10 1013 66 10000 6.17 340 12:26 22.03.2021
1177 Clouds 11 1011 54 10000 5.66 340 11:49 22.03.2021
1178 Clouds 11 1011 54 10000 5.66 340 11:29 22.03.2021
1179 Clouds 12 1010 44 10000 6.69 340 10:46 22.03.2021
1180 Clouds 12 1010 44 10000 6.69 340 10:25 22.03.2021
1181 Clouds 13 1009 38 10000 7.2 340 09:49 22.03.2021
1182 Clouds 13 1009 38 10000 5.66 340 09:30 22.03.2021
1183 Clouds 13 1008 28 10000 4.12 340 08:46 22.03.2021
1184 Clouds 14 1008 28 10000 4.12 340 08:27 22.03.2021
1185 Clouds 14 1007 28 10000 3.6 310 07:50 22.03.2021
1186 Clouds 14 1007 28 10000 3.6 310 07:31 22.03.2021
1187 Clouds 14 1007 31 10000 3.6 360 06:51 22.03.2021
1188 Clouds 14 1007 31 10000 3.6 360 06:51 22.03.2021
1189 Clouds 14 1007 35 10000 6.17 330 02:47 22.03.2021
1190 Clouds 12 1006 40 10000 5.66 340 00:48 22.03.2021
1191 Clouds 12 1005 54 10000 10.29 360 23:59 21.03.2021
1192 Clouds 12 1005 50 10000 9.26 350 23:39 21.03.2021
1193 Clouds 12 1005 50 10000 9.26 350 23:18 21.03.2021
1194 Clouds 12 1003 54 10000 10.29 350 22:43 21.03.2021
1195 Clouds 13 1002 58 10000 7.72 360 21:43 21.03.2021
1196 Clouds 13 1002 58 10000 7.72 10 21:25 21.03.2021
1197 Rain 13 1001 62 10000 7.2 340 20:57 21.03.2021
1198 Clouds 13 1000 62 10000 5.66 350 20:38 21.03.2021
1199 Clouds 14 1000 62 10000 5.66 350 20:19 21.03.2021
1200 Clouds 14 999 63 10000 6.17 340 19:40 21.03.2021
1201 Clouds 14 999 63 10000 6.17 340 19:19 21.03.2021
1202 Clouds 14 999 67 10000 3.6 340 18:41 21.03.2021
1203 Clouds 15 999 72 10000 2.57 40 18:18 21.03.2021
1204 Clouds 15 999 77 10000 2.57 30 17:42 21.03.2021
1205 Rain 15 999 77 10000 2.57 30 17:18 21.03.2021
1206 Rain 15 999 77 10000 2.57 30 17:18 21.03.2021
1207 Rain 15 999 88 10000 4.12 20 16:50 21.03.2021
1208 Clouds 16 999 77 10000 6.69 210 16:26 21.03.2021
1209 Clouds 16 998 82 10000 7.72 210 15:48 21.03.2021
1210 Clouds 16 998 82 10000 9.26 200 15:22 21.03.2021
1211 Clouds 17 997 88 10000 11.32 200 14:56 21.03.2021
1212 Clouds 18 998 94 10000 11.32 200 14:38 21.03.2021
1213 Clouds 19 998 94 10000 12.35 200 14:19 21.03.2021
1214 Clouds 19 998 94 10000 12.35 200 13:51 21.03.2021
1215 Rain 19 999 94 4500 10.8 200 12:45 21.03.2021
1216 Rain 19 998 94 6000 10.8 190 12:25 21.03.2021
1217 Clouds 19 999 88 10000 13.89 200 11:44 21.03.2021
1218 Clouds 19 999 88 10000 13.89 200 11:44 21.03.2021
1219 Clouds 19 999 88 10000 11.83 200 11:26 21.03.2021
1220 Rain 19 1000 94 8000 11.32 200 10:50 21.03.2021
1221 Rain 19 1000 94 6000 10.8 200 10:32 21.03.2021
1222 Rain 19 1001 94 3500 11.32 190 09:56 21.03.2021
1223 Rain 18 1001 94 3500 8.23 180 09:37 21.03.2021
1224 Mist 18 1001 94 3500 8.23 180 09:19 21.03.2021
1225 Rain 19 1001 94 3500 8.23 180 08:38 21.03.2021
1226 Rain 19 1002 94 7000 9.26 190 08:19 21.03.2021
1227 Rain 18 1003 94 4500 9.77 190 07:31 21.03.2021
1228 Rain 18 1003 94 6000 8.23 180 06:30 21.03.2021
1229 Rain 18 1005 94 7000 10.8 170 04:58 21.03.2021
1230 Mist 16 1010 94 3500 5.14 170 00:59 21.03.2021
1231 Mist 16 1011 94 4500 7.72 170 00:39 21.03.2021
1232 Rain 16 1011 100 6000 7.2 170 00:21 21.03.2021
1233 Mist 16 1011 94 4500 5.66 160 23:47 20.03.2021
1234 Mist 16 1011 100 5000 6.69 180 23:20 20.03.2021
1235 Rain 16 1012 94 4000 6.69 180 22:50 20.03.2021
1236 Rain 16 1012 94 10000 5.14 180 22:21 20.03.2021
1237 Rain 15 1012 88 10000 5.14 170 21:45 20.03.2021
1238 Clouds 15 1012 82 8000 4.12 190 21:24 20.03.2021
1239 Rain 15 1013 88 6000 1.54 150 20:44 20.03.2021
1240 Rain 15 1013 88 6000 1.54 150 20:22 20.03.2021
1241 Rain 16 1013 88 10000 3.09 190 19:48 20.03.2021
1242 Rain 15 1013 94 10000 3.6 190 19:26 20.03.2021
1243 Rain 15 1014 88 10000 3.6 180 18:49 20.03.2021
1244 Rain 16 1014 82 10000 4.63 200 18:26 20.03.2021
1245 Rain 16 1015 88 10000 3.09 190 17:54 20.03.2021
1246 Clouds 16 1015 82 10000 3.6 190 17:32 20.03.2021
1247 Rain 16 1016 77 10000 3.09 200 16:46 20.03.2021
1248 Rain 16 1016 77 10000 3.09 200 16:21 20.03.2021
1249 Rain 16 1016 77 10000 3.09 200 16:21 20.03.2021
1250 Rain 16 1016 82 10000 4.12 170 15:59 20.03.2021
1251 Rain 16 1016 88 10000 3.09 170 15:39 20.03.2021
1252 Clouds 16 1017 82 10000 3.09 150 14:48 20.03.2021
1253 Clouds 16 1017 77 10000 3.09 170 14:28 20.03.2021
1254 Rain 16 1017 88 10000 3.6 140 13:40 20.03.2021
1255 Rain 16 1017 88 10000 3.09 130 12:59 20.03.2021
1256 Clouds 16 1017 82 10000 2.57 150 12:27 20.03.2021
1257 Clouds 16 1017 82 10000 2.57 150 12:27 20.03.2021
1258 Clouds 16 1017 82 10000 3.09 170 11:50 20.03.2021
1259 Clouds 16 1017 77 10000 3.09 180 11:29 20.03.2021
1260 Clouds 16 1017 72 10000 4.12 190 10:56 20.03.2021
1261 Clouds 16 1017 63 10000 3.09 190 10:37 20.03.2021
1262 Clouds 16 1017 63 10000 3.09 190 10:18 20.03.2021
1263 Clouds 17 1017 67 10000 3.6 120 09:29 20.03.2021
1264 Clouds 17 1017 67 10000 3.6 120 08:58 20.03.2021
1265 Clouds 17 1017 67 10000 3.6 120 08:39 20.03.2021
1266 Clouds 17 1018 63 10000 2.57 130 07:54 20.03.2021
1267 Clouds 17 1018 63 10000 2.57 130 07:32 20.03.2021
1268 Clouds 17 1018 63 10000 2.06 130 06:55 20.03.2021
1269 Clouds 17 1018 63 10000 2.06 130 06:27 20.03.2021
1270 Clouds 16 1020 59 10000 1.03 0 04:24 20.03.2021
1271 Clouds 15 1021 58 10000 2.06 30 03:42 20.03.2021
1272 Clouds 12 1022 71 10000 5.14 20 00:36 20.03.2021
1273 Clouds 12 1022 76 10000 5.14 10 23:32 19.03.2021
1274 Clouds 12 1022 71 10000 5.14 10 22:59 19.03.2021
1275 Clouds 12 1022 71 10000 5.66 10 22:40 19.03.2021
1276 Clouds 12 1022 71 10000 5.66 10 22:22 19.03.2021
1277 Clouds 12 1022 71 10000 5.66 10 22:22 19.03.2021
1278 Clouds 11 1022 71 10000 5.14 10 21:37 19.03.2021
1279 Clouds 11 1022 71 10000 5.14 10 21:18 19.03.2021
1280 Clouds 12 1021 71 10000 5.14 10 20:42 19.03.2021
1281 Clouds 11 1021 71 10000 5.14 10 20:24 19.03.2021
1282 Clouds 11 1021 66 10000 4.63 360 19:47 19.03.2021
1283 Clouds 11 1021 66 10000 5.14 350 19:22 19.03.2021
1284 Clouds 12 1021 71 10000 5.14 10 18:46 19.03.2021
1285 Clouds 12 1021 71 10000 5.14 10 18:21 19.03.2021
1286 Clouds 12 1020 71 10000 3.6 10 17:56 19.03.2021
1287 Clouds 12 1020 71 10000 4.63 10 17:36 19.03.2021
1288 Clouds 12 1021 71 10000 3.09 20 16:59 19.03.2021
1289 Clouds 12 1021 71 10000 4.63 10 16:40 19.03.2021
1290 Clouds 12 1021 71 10000 4.12 10 16:21 19.03.2021
1291 Clouds 12 1021 76 10000 3.6 30 15:33 19.03.2021
1292 Clouds 12 1021 76 10000 3.6 50 14:51 19.03.2021
1293 Clouds 12 1021 82 10000 4.63 50 14:32 19.03.2021
1294 Clouds 12 1021 82 10000 5.66 70 13:48 19.03.2021
1295 Clouds 12 1021 76 10000 6.17 70 13:18 19.03.2021
1296 Clouds 13 1021 71 10000 5.66 70 12:40 19.03.2021
1297 Clouds 13 1021 71 10000 5.66 70 12:18 19.03.2021
1298 Clouds 13 1020 71 10000 6.69 70 11:26 19.03.2021
1299 Clouds 14 1019 76 10000 5.66 100 10:42 19.03.2021
1300 Clouds 14 1019 76 10000 5.66 100 10:21 19.03.2021
1301 Clouds 15 1019 72 10000 5.14 90 09:44 19.03.2021
1302 Clouds 15 1019 55 10000 6.17 110 09:24 19.03.2021
1303 Clouds 16 1019 55 10000 6.17 110 08:51 19.03.2021
1304 Clouds 16 1019 55 10000 6.17 110 08:26 19.03.2021
1305 Clouds 17 1018 55 10000 6.17 80 07:44 19.03.2021
1306 Clouds 17 1018 55 10000 6.17 80 07:24 19.03.2021
1307 Clouds 17 1018 55 10000 5.14 100 05:28 19.03.2021
1308 Clouds 14 1020 58 10000 4.63 20 01:58 19.03.2021
1309 Clouds 12 1019 50 10000 5.66 350 23:55 18.03.2021
1310 Clouds 11 1019 54 10000 5.66 350 23:29 18.03.2021
1311 Clouds 11 1019 62 10000 5.66 360 22:46 18.03.2021
1312 Clouds 11 1018 62 10000 5.66 360 22:25 18.03.2021
1313 Clouds 11 1018 66 10000 5.66 360 21:48 18.03.2021
1314 Clouds 11 1018 66 10000 5.66 360 21:30 18.03.2021
1315 Clouds 11 1018 71 10000 5.66 360 20:42 18.03.2021
1316 Clouds 11 1018 71 10000 5.66 360 20:22 18.03.2021
1317 Clouds 11 1018 71 10000 5.66 360 19:43 18.03.2021
1318 Clouds 11 1018 71 10000 5.66 360 19:23 18.03.2021
1319 Clouds 11 1018 66 10000 5.14 360 18:47 18.03.2021
1320 Clouds 12 1018 71 10000 6.69 10 17:58 18.03.2021
1321 Clouds 12 1018 72 10000 5.14 10 17:27 18.03.2021
1322 Clouds 13 1018 82 10000 2.57 340 16:59 18.03.2021
1323 Clouds 13 1018 82 10000 2.06 10 16:41 18.03.2021
1324 Clouds 13 1018 82 10000 2.06 10 16:23 18.03.2021
1325 Clouds 14 1018 88 10000 2.06 60 15:41 18.03.2021
1326 Clouds 14 1018 88 10000 2.06 60 15:21 18.03.2021
1327 Clouds 14 1018 88 10000 1.03 0 14:49 18.03.2021
1328 Clouds 14 1017 82 10000 1.54 110 14:23 18.03.2021
1329 Clouds 14 1017 82 10000 2.57 110 13:43 18.03.2021
1330 Clouds 14 1017 82 10000 2.57 110 13:25 18.03.2021
1331 Clouds 14 1017 82 10000 3.6 130 12:40 18.03.2021
1332 Clouds 15 1014 70 10000 1.34 166 12:22 18.03.2021
1333 Clouds 15 1017 72 10000 4.12 150 11:46 18.03.2021
1334 Clouds 15 1017 72 10000 4.12 150 11:25 18.03.2021
1335 Clouds 15 1017 67 10000 5.66 200 10:42 18.03.2021
1336 Clouds 15 1017 67 10000 5.66 200 10:23 18.03.2021
1337 Clouds 16 1016 67 10000 6.69 190 09:54 18.03.2021
1338 Clouds 16 1016 55 10000 3.09 170 09:28 18.03.2021
1339 Clouds 16 1016 55 10000 3.09 170 08:46 18.03.2021
1340 Clouds 17 1016 55 10000 3.09 170 08:27 18.03.2021
1341 Clouds 17 1016 47 10000 4.63 150 07:50 18.03.2021
1342 Clouds 17 1016 31 10000 3.09 180 06:54 18.03.2021
1343 Clouds 16 1017 41 10000 3.09 140 06:27 18.03.2021
1344 Clouds 16 1018 35 10000 3.09 160 05:42 18.03.2021
1345 Clear 10 1020 37 10000 1.54 70 00:57 18.03.2021
1346 Clouds 9 1020 46 10000 3.09 20 23:58 17.03.2021
1347 Clouds 8 1019 49 10000 4.63 30 22:44 17.03.2021
1348 Clouds 8 1019 49 10000 4.63 30 22:25 17.03.2021
1349 Clouds 8 1019 46 10000 4.63 20 21:55 17.03.2021
1350 Clear 8 1019 53 10000 4.63 30 21:34 17.03.2021
1351 Clear 9 1018 46 10000 5.14 40 20:59 17.03.2021
1352 Clear 8 1018 46 10000 6.17 20 20:40 17.03.2021
1353 Clear 8 1018 46 10000 6.17 20 20:40 17.03.2021
1354 Clear 9 1018 46 10000 6.17 20 20:22 17.03.2021
1355 Clear 9 1017 46 10000 5.14 40 19:44 17.03.2021
1356 Clear 9 1017 46 10000 6.17 30 19:21 17.03.2021
1357 Clear 9 1017 49 10000 5.66 30 18:54 17.03.2021
1358 Clear 9 1017 40 10000 4.12 20 18:36 17.03.2021
1359 Clear 10 1017 40 10000 4.63 10 17:48 17.03.2021
1360 Clear 10 1017 40 10000 6.69 340 17:25 17.03.2021
1361 Clear 10 1016 40 10000 5.66 340 16:46 17.03.2021
1362 Clear 10 1016 43 10000 7.72 350 16:25 17.03.2021
1363 Clouds 10 1016 40 10000 4.63 10 15:53 17.03.2021
1364 Clouds 10 1016 35 10000 4.63 10 15:35 17.03.2021
1365 Clouds 11 1016 35 10000 5.14 10 14:45 17.03.2021
1366 Clouds 11 1016 35 10000 5.14 10 14:27 17.03.2021
1367 Clouds 12 1016 37 10000 6.69 360 13:55 17.03.2021
1368 Clouds 12 1016 37 10000 5.66 360 13:30 17.03.2021
1369 Clouds 12 1015 35 10000 6.17 350 12:51 17.03.2021
1370 Clouds 13 1015 38 10000 5.66 350 12:33 17.03.2021
1371 Clouds 13 1014 41 10000 6.17 360 11:51 17.03.2021
1372 Clouds 14 1014 35 10000 5.66 340 11:23 17.03.2021
1373 Clouds 14 1013 38 10000 7.2 350 10:55 17.03.2021
1374 Clouds 15 1013 33 10000 6.69 350 10:28 17.03.2021
1375 Clouds 16 1012 33 10000 7.72 340 09:49 17.03.2021
1376 Clouds 17 1010 27 10000 2.06 10 09:26 17.03.2021
1377 Clouds 18 1010 27 10000 2.06 10 08:59 17.03.2021
1378 Clouds 18 1010 27 10000 2.06 10 08:39 17.03.2021
1379 Clouds 18 1010 29 10000 2.57 60 07:50 17.03.2021
1380 Clouds 18 1010 29 10000 2.57 60 07:32 17.03.2021
1381 Clouds 18 1009 22 10000 3.09 20 06:47 17.03.2021
1382 Clouds 17 1010 22 10000 3.6 360 04:26 17.03.2021
1383 Clouds 16 1010 25 10000 4.12 360 03:25 17.03.2021
1384 Clouds 13 1010 44 10000 4.63 360 00:40 17.03.2021
1385 Clouds 12 1010 54 10000 5.66 10 23:38 16.03.2021
1386 Clouds 12 1010 50 10000 5.66 350 23:18 16.03.2021
1387 Clouds 11 1009 54 10000 7.72 350 22:43 16.03.2021
1388 Clouds 12 1009 54 10000 7.72 350 22:24 16.03.2021
1389 Clouds 11 1009 54 10000 3.09 20 21:40 16.03.2021
1390 Clouds 11 1009 54 10000 3.09 20 21:21 16.03.2021
1391 Clouds 12 1008 54 10000 7.72 360 20:46 16.03.2021
1392 Clouds 12 1008 54 10000 7.72 360 20:19 16.03.2021
1393 Clouds 13 1008 51 10000 4.63 350 19:43 16.03.2021
1394 Clouds 13 1008 51 10000 4.63 350 19:24 16.03.2021
1395 Clouds 13 1008 54 10000 5.14 330 18:50 16.03.2021
1396 Clouds 13 1008 58 10000 5.14 310 18:29 16.03.2021
1397 Clouds 14 1007 58 10000 4.12 310 17:51 16.03.2021
1398 Clouds 14 1007 58 10000 4.12 310 17:33 16.03.2021
1399 Clouds 14 1007 51 10000 4.12 310 16:54 16.03.2021
1400 Clouds 14 1007 51 10000 4.12 310 16:54 16.03.2021
1401 Clouds 14 1007 51 10000 4.12 310 16:54 16.03.2021
1402 Clouds 14 1007 51 10000 4.12 310 16:54 16.03.2021
1403 Clouds 14 1007 51 10000 4.12 310 16:54 16.03.2021
1404 Clouds 15 1007 54 10000 5.14 300 16:31 16.03.2021
1405 Clouds 15 1006 67 10000 3.09 270 15:58 16.03.2021
1406 Clouds 15 1006 72 10000 3.6 260 15:37 16.03.2021
1407 Clouds 15 1006 72 10000 3.6 260 15:19 16.03.2021
1408 Clouds 15 1006 72 10000 3.6 260 15:19 16.03.2021
1409 Clouds 16 1006 67 10000 3.6 230 14:41 16.03.2021
1410 Clouds 16 1006 67 10000 3.6 230 14:22 16.03.2021
1411 Clouds 17 1005 63 10000 2.57 220 13:58 16.03.2021
1412 Clouds 17 1005 59 10000 7.72 250 13:29 16.03.2021
1413 Clouds 17 1005 59 10000 7.72 230 12:56 16.03.2021
1414 Clouds 18 1004 59 10000 9.77 220 12:37 16.03.2021
1415 Clouds 18 1004 55 10000 9.77 230 11:56 16.03.2021
1416 Clouds 18 1004 55 10000 9.26 230 11:34 16.03.2021
1417 Clouds 19 1004 55 10000 9.77 220 10:49 16.03.2021
1418 Clouds 19 1004 55 10000 10.29 210 10:21 16.03.2021
1419 Clouds 20 1003 59 10000 11.83 210 09:40 16.03.2021
1420 Clouds 20 1003 43 10000 6.17 210 09:21 16.03.2021
1421 Clouds 21 1003 43 10000 6.17 210 08:56 16.03.2021
1422 Clouds 21 1003 43 10000 6.17 210 08:37 16.03.2021
1423 Clouds 21 1004 40 10000 5.66 230 07:55 16.03.2021
1424 Clouds 21 1004 40 10000 5.66 230 07:27 16.03.2021
1425 Clouds 22 1004 35 10000 5.66 220 06:38 16.03.2021
1426 Clouds 20 1005 34 10000 6.17 210 05:37 16.03.2021
1427 Clear 20 1007 34 10000 6.69 210 04:28 16.03.2021
1428 Clouds 13 1011 43 10000 3.09 40 02:27 16.03.2021
1429 Clouds 13 1012 43 10000 2.57 20 01:23 16.03.2021
1430 Clouds 11 1011 43 10000 1.03 0 23:54 15.03.2021
1431 Clouds 10 1011 46 10000 1.03 0 23:27 15.03.2021
1432 Clouds 9 1012 46 10000 1.03 0 22:49 15.03.2021
1433 Clouds 10 1012 49 10000 0.51 0 22:29 15.03.2021
1434 Clouds 10 1012 49 10000 0.51 0 22:29 15.03.2021
1435 Clouds 10 1013 57 10000 2.06 20 21:52 15.03.2021
1436 Clouds 10 1013 53 10000 3.09 30 21:32 15.03.2021
1437 Clouds 11 1013 54 10000 3.09 40 20:57 15.03.2021
1438 Clouds 11 1013 54 10000 3.6 50 20:38 15.03.2021
1439 Clouds 11 1013 54 10000 3.6 50 20:38 15.03.2021
1440 Clouds 11 1013 54 10000 3.6 50 20:20 15.03.2021
1441 Clouds 11 1013 50 10000 1.54 40 19:49 15.03.2021
1442 Clouds 11 1014 62 10000 1.03 0 19:30 15.03.2021
1443 Clouds 11 1014 58 10000 1.03 90 18:49 15.03.2021
1444 Clouds 11 1014 66 10000 1.03 0 18:26 15.03.2021
1445 Clear 12 1014 76 10000 2.06 80 17:55 15.03.2021
1446 Clear 11 1015 71 10000 2.57 110 17:30 15.03.2021
1447 Clear 12 1015 32 10000 1.03 0 16:50 15.03.2021
1448 Clear 12 1015 32 10000 1.54 210 16:32 15.03.2021
1449 Clear 12 1015 35 10000 2.06 330 15:45 15.03.2021
1450 Clear 12 1015 35 10000 2.06 330 15:26 15.03.2021
1451 Clouds 12 1016 32 10000 2.06 330 14:44 15.03.2021
1452 Clouds 12 1016 32 10000 2.06 330 14:23 15.03.2021
1453 Clouds 13 1016 30 10000 4.12 330 13:47 15.03.2021
1454 Clear 13 1016 26 10000 4.63 290 13:25 15.03.2021
1455 Clouds 14 1016 35 10000 5.14 280 12:49 15.03.2021
1456 Clouds 14 1015 62 10000 4.12 260 12:20 15.03.2021
1457 Clouds 14 1015 54 10000 4.12 260 11:52 15.03.2021
1458 Clouds 14 1015 51 10000 3.09 260 11:33 15.03.2021
1459 Clouds 15 1014 47 10000 2.57 270 10:55 15.03.2021
1460 Clouds 16 1014 41 10000 2.57 240 10:31 15.03.2021
1461 Clouds 16 1014 41 10000 5.66 220 09:53 15.03.2021
1462 Clouds 17 1013 42 10000 5.66 210 09:35 15.03.2021
1463 Clear 18 1013 20 10000 4.12 330 08:59 15.03.2021
1464 Clear 18 1013 20 10000 4.12 330 08:40 15.03.2021
1465 Clouds 19 1013 24 10000 4.12 320 07:56 15.03.2021
1466 Clouds 19 1013 24 10000 4.12 320 07:32 15.03.2021
1467 Clouds 18 1012 25 10000 4.63 330 06:41 15.03.2021
1468 Clouds 17 1012 31 10000 5.14 310 05:34 15.03.2021
1469 Clouds 14 1014 41 10000 5.66 310 01:47 15.03.2021
1470 Clouds 12 1013 37 10000 8.75 340 00:21 15.03.2021
1471 Clouds 10 1013 40 10000 7.72 340 23:21 14.03.2021
1472 Clouds 10 1012 46 10000 8.23 350 22:48 14.03.2021
1473 Clouds 9 1012 43 10000 9.26 340 22:23 14.03.2021
1474 Clouds 9 1012 43 10000 9.26 340 22:23 14.03.2021
1475 Clouds 9 1012 37 10000 9.26 340 21:50 14.03.2021
1476 Clear 9 1012 46 10000 7.2 340 21:21 14.03.2021
1477 Clear 9 1012 43 10000 7.72 330 20:50 14.03.2021
1478 Clear 9 1011 43 10000 7.72 330 20:27 14.03.2021
1479 Clear 9 1011 43 10000 6.69 330 19:50 14.03.2021
1480 Clear 9 1011 37 10000 8.75 330 19:27 14.03.2021
1481 Clear 9 1011 37 10000 7.72 330 18:58 14.03.2021
1482 Clear 10 1011 40 10000 9.77 340 18:28 14.03.2021
1483 Clear 10 1011 37 10000 8.23 330 17:41 14.03.2021
1484 Clear 10 1011 37 10000 8.23 330 17:23 14.03.2021
1485 Clear 10 1011 37 10000 8.23 330 17:23 14.03.2021
1486 Clear 9 1011 46 10000 9.77 340 16:52 14.03.2021
1487 Clear 10 1011 46 10000 9.26 350 16:33 14.03.2021
1488 Clear 10 1011 34 10000 6.69 320 15:57 14.03.2021
1489 Clear 10 1011 37 10000 8.75 340 15:39 14.03.2021
1490 Clear 10 1010 40 10000 11.32 350 14:45 14.03.2021
1491 Clear 10 1010 35 10000 11.83 340 14:26 14.03.2021
1492 Clouds 10 1010 32 10000 8.75 330 13:50 14.03.2021
1493 Clouds 10 1010 37 10000 8.75 330 13:31 14.03.2021
1494 Clouds 11 1010 32 10000 8.23 320 12:48 14.03.2021
1495 Clouds 11 1010 32 10000 9.77 320 12:29 14.03.2021
1496 Clouds 11 1009 32 10000 11.32 330 11:59 14.03.2021
1497 Clouds 11 1009 30 10000 8.23 330 11:37 14.03.2021
1498 Clouds 12 1009 28 10000 6.69 330 10:59 14.03.2021
1499 Clouds 13 1008 28 10000 7.72 310 10:38 14.03.2021
1500 Clouds 13 1008 28 10000 7.72 310 10:38 14.03.2021
1501 Clouds 13 1008 28 10000 8.75 310 10:19 14.03.2021
1502 Clouds 14 1008 33 10000 8.23 330 09:44 14.03.2021
1503 Clouds 14 1008 33 10000 8.23 330 09:23 14.03.2021
1504 Clouds 15 1006 25 10000 7.72 320 08:51 14.03.2021
1505 Clouds 16 1006 25 10000 7.72 320 08:32 14.03.2021
1506 Clouds 17 1006 22 10000 7.2 310 07:48 14.03.2021
1507 Clouds 17 1006 22 10000 7.2 310 07:48 14.03.2021
1508 Clouds 17 1006 22 10000 7.2 310 07:20 14.03.2021
1509 Clouds 18 1006 27 10000 9.77 300 05:33 14.03.2021
1510 Clouds 18 1006 27 10000 9.77 300 05:33 14.03.2021
1511 Clouds 15 1006 36 10000 8.75 290 00:59 14.03.2021
1512 Clouds 14 1005 38 10000 11.32 310 00:20 14.03.2021
1513 Clouds 14 1006 36 10000 12.35 310 00:20 14.03.2021
1514 Clouds 13 1005 38 10000 11.83 310 23:57 13.03.2021
1515 Clouds 12 1004 44 10000 9.77 300 23:36 13.03.2021
1516 Clouds 12 1004 44 10000 11.32 310 22:58 13.03.2021
1517 Clouds 12 1003 44 10000 10.29 310 22:40 13.03.2021
1518 Clouds 12 1003 50 10000 11.83 320 21:50 13.03.2021
1519 Clear 11 1003 54 10000 10.8 320 21:27 13.03.2021
1520 Clear 11 1002 54 10000 8.75 320 20:55 13.03.2021
1521 Clear 11 1002 66 10000 5.14 310 20:32 13.03.2021
1522 Clouds 11 1002 82 10000 3.6 350 19:56 13.03.2021
1523 Clouds 11 1002 93 10000 3.6 350 19:36 13.03.2021
1524 Clouds 11 1002 93 10000 3.6 350 19:18 13.03.2021
1525 Clouds 10 1002 87 10000 3.09 330 18:40 13.03.2021
1526 Clouds 10 1002 87 10000 3.09 330 18:19 13.03.2021
1527 Clouds 10 1002 93 10000 1.54 280 17:44 13.03.2021
1528 Clouds 10 1002 93 10000 2.57 240 17:25 13.03.2021
1529 Clouds 10 1002 87 10000 2.06 230 16:50 13.03.2021
1530 Clouds 10 1002 87 10000 1.54 220 16:29 13.03.2021
1531 Clouds 10 1002 82 10000 1.54 280 15:47 13.03.2021
1532 Clouds 10 1002 87 10000 2.06 260 14:54 13.03.2021
1533 Clouds 11 1002 82 10000 3.6 260 14:36 13.03.2021
1534 Clouds 11 1002 82 10000 4.12 290 13:55 13.03.2021
1535 Clouds 11 1002 76 10000 5.66 310 13:25 13.03.2021
1536 Clouds 11 1002 82 10000 6.69 310 12:48 13.03.2021
1537 Clouds 11 1002 82 10000 6.69 300 12:28 13.03.2021
1538 Clouds 11 1002 87 10000 8.23 310 11:51 13.03.2021
1539 Clouds 11 1002 93 10000 9.77 310 11:31 13.03.2021
1540 Clouds 11 1001 87 10000 9.77 320 10:51 13.03.2021
1541 Clouds 11 1001 93 10000 10.8 310 10:30 13.03.2021
1542 Mist 11 1000 94 2500 9.26 280 09:48 13.03.2021
1543 Rain 11 1000 94 2500 9.26 280 09:24 13.03.2021
1544 Rain 11 1000 94 2500 9.26 280 08:44 13.03.2021
1545 Mist 11 999 94 1500 14.4 250 08:20 13.03.2021
1546 Clouds 12 999 94 10000 9.26 30 07:55 13.03.2021
1547 Rain 13 1000 94 2000 10.8 40 06:54 13.03.2021
1548 Clouds 12 1010 94 6000 4.12 70 02:56 13.03.2021
1549 Mist 11 1012 94 3500 4.12 20 01:21 13.03.2021
1550 Rain 11 1013 94 8000 3.09 360 00:20 13.03.2021
1551 Mist 11 1014 94 4000 8.75 50 23:33 12.03.2021
1552 Mist 11 1013 100 3500 9.77 50 22:50 12.03.2021
1553 Rain 11 1014 100 4000 7.72 50 22:29 12.03.2021
1554 Mist 11 1014 93 5000 8.23 30 21:54 12.03.2021
1555 Clouds 11 1015 93 6000 7.72 40 21:36 12.03.2021
1556 Rain 11 1015 93 6000 7.72 40 21:18 12.03.2021
1557 Rain 11 1016 93 7000 6.17 40 20:41 12.03.2021
1558 Clouds 11 1017 87 10000 4.63 50 20:19 12.03.2021
1559 Rain 12 1017 87 10000 4.63 50 19:43 12.03.2021
1560 Rain 12 1017 87 10000 5.14 60 19:24 12.03.2021
1561 Clouds 12 1019 87 10000 4.12 50 18:43 12.03.2021
1562 Clouds 12 1019 87 10000 4.12 50 18:24 12.03.2021
1563 Clouds 12 1020 94 10000 2.57 30 17:41 12.03.2021
1564 Clouds 12 1020 94 10000 2.57 30 17:23 12.03.2021
1565 Clouds 12 1021 87 10000 3.09 140 16:43 12.03.2021
1566 Clouds 12 1021 87 10000 3.09 140 16:23 12.03.2021
1567 Rain 13 1022 87 10000 4.12 140 15:38 12.03.2021
1568 Clouds 13 1021 75 10000 3.12 176 14:52 12.03.2021
1569 Rain 14 1021 75 10000 2.98 183 14:22 12.03.2021
1570 Rain 14 1021 75 10000 2.98 183 14:22 12.03.2021
1571 Rain 14 1022 72 10000 4.12 210 13:55 12.03.2021
1572 Rain 14 1022 82 10000 5.66 170 13:37 12.03.2021
1573 Clouds 14 1022 77 10000 5.66 170 13:18 12.03.2021
1574 Rain 15 1022 72 10000 4.12 160 12:43 12.03.2021
1575 Rain 15 1022 72 10000 4.12 160 12:25 12.03.2021
1576 Rain 15 1022 72 10000 3.09 210 11:53 12.03.2021
1577 Rain 15 1022 72 10000 4.12 200 11:24 12.03.2021
1578 Rain 15 1022 72 10000 3.6 190 10:55 12.03.2021
1579 Rain 15 1021 72 10000 3.6 180 10:27 12.03.2021
1580 Clouds 15 1021 72 10000 3.6 190 09:57 12.03.2021
1581 Clouds 15 1021 82 7000 1.54 160 09:26 12.03.2021
1582 Clouds 16 1021 82 7000 1.54 160 08:47 12.03.2021
1583 Clouds 16 1021 82 7000 1.54 160 08:26 12.03.2021
1584 Rain 17 1021 72 7000 3.09 160 07:40 12.03.2021
1585 Rain 16 1021 82 7000 3.6 150 06:57 12.03.2021
1586 Clouds 16 1021 82 7000 3.6 150 06:29 12.03.2021
1587 Clouds 14 1025 47 7000 2.57 40 02:58 12.03.2021
1588 Clouds 12 1026 47 10000 1.03 0 00:51 12.03.2021
1589 Clouds 10 1025 57 10000 2.57 20 23:40 11.03.2021
1590 Clouds 9 1025 62 10000 4.12 20 22:52 11.03.2021
1591 Clouds 9 1025 62 10000 3.6 30 22:32 11.03.2021
1592 Clouds 9 1025 76 10000 3.09 20 21:58 11.03.2021
1593 Clouds 9 1025 62 10000 2.06 320 21:39 11.03.2021
1594 Clouds 10 1025 62 10000 2.06 320 21:20 11.03.2021
1595 Clouds 9 1025 71 10000 2.06 320 20:44 11.03.2021
1596 Clouds 10 1025 76 10000 2.57 320 20:21 11.03.2021
1597 Clouds 10 1025 76 10000 2.06 310 19:47 11.03.2021
1598 Clouds 10 1025 76 10000 2.06 300 19:28 11.03.2021
1599 Clouds 10 1025 76 10000 2.06 290 18:49 11.03.2021
1600 Clouds 10 1025 76 10000 2.57 290 18:31 11.03.2021
1601 Clouds 10 1025 82 10000 2.57 290 17:45 11.03.2021
1602 Clouds 11 1025 82 10000 2.57 290 17:27 11.03.2021
1603 Clouds 11 1025 87 10000 2.57 170 16:31 11.03.2021
1604 Clouds 11 1026 93 10000 3.09 160 15:49 11.03.2021
1605 Clouds 11 1026 87 10000 2.57 140 15:26 11.03.2021
1606 Clouds 11 1026 87 10000 3.09 140 14:57 11.03.2021
1607 Clouds 11 1027 82 10000 3.6 140 14:37 11.03.2021
1608 Clouds 12 1027 82 10000 3.09 130 14:18 11.03.2021
1609 Clouds 12 1027 82 10000 2.57 140 13:42 11.03.2021
1610 Clouds 12 1027 82 10000 2.57 140 13:20 11.03.2021
1611 Clouds 12 1027 76 10000 3.6 150 12:44 11.03.2021
1612 Clouds 12 1027 76 10000 4.63 150 12:26 11.03.2021
1613 Clouds 13 1027 71 10000 6.17 160 11:45 11.03.2021
1614 Clouds 13 1027 67 10000 5.14 170 11:27 11.03.2021
1615 Clouds 13 1026 62 10000 5.66 200 10:44 11.03.2021
1616 Clouds 13 1026 62 10000 5.66 200 10:21 11.03.2021
1617 Clouds 13 1026 62 10000 6.69 190 09:45 11.03.2021
1618 Clouds 14 1026 58 10000 4.63 170 09:24 11.03.2021
1619 Clouds 14 1026 58 10000 4.63 170 08:47 11.03.2021
1620 Clouds 14 1026 58 10000 4.63 170 08:20 11.03.2021
1621 Clouds 15 1026 50 10000 4.63 160 07:34 11.03.2021
1622 Clouds 15 1026 36 10000 3.09 160 06:50 11.03.2021
1623 Clouds 15 1026 47 10000 3.09 140 06:50 11.03.2021
1624 Clouds 15 1026 47 10000 3.09 140 06:30 11.03.2021
1625 Clear 12 1028 43 10000 2.57 140 04:44 11.03.2021
1626 Clear 9 1030 49 10000 2.06 60 01:23 11.03.2021
1627 Clouds 7 1029 49 10000 3.09 20 23:52 10.03.2021
1628 Clouds 7 1029 49 10000 3.09 20 23:51 10.03.2021
1629 Clouds 7 1029 49 10000 3.09 30 23:21 10.03.2021
1630 Clouds 7 1029 39 10000 2.06 10 22:39 10.03.2021
1631 Clouds 7 1028 53 10000 2.57 360 21:47 10.03.2021
1632 Clouds 7 1028 53 10000 3.09 360 21:26 10.03.2021
1633 Clouds 6 1027 53 10000 3.09 10 20:58 10.03.2021
1634 Clouds 6 1027 49 10000 2.06 20 20:39 10.03.2021
1635 Clouds 7 1027 49 10000 2.06 20 20:20 10.03.2021
1636 Clouds 6 1026 45 10000 1.54 30 19:40 10.03.2021
1637 Clouds 7 1026 45 10000 1.54 30 19:20 10.03.2021
1638 Clouds 7 1027 45 10000 3.09 40 18:38 10.03.2021
1639 Clouds 7 1027 53 10000 4.63 50 18:19 10.03.2021
1640 Clouds 8 1026 49 10000 5.14 40 17:42 10.03.2021
1641 Clouds 8 1026 49 10000 6.17 60 17:20 10.03.2021
1642 Clouds 8 1026 49 10000 6.17 60 16:55 10.03.2021
1643 Clouds 8 1026 46 10000 5.66 50 16:37 10.03.2021
1644 Clouds 8 1026 46 10000 5.66 50 16:18 10.03.2021
1645 Clear 9 1025 46 10000 7.2 30 15:39 10.03.2021
1646 Clear 9 1025 46 10000 7.2 30 15:21 10.03.2021
1647 Clear 9 1025 46 10000 7.2 30 15:21 10.03.2021
1648 Clear 9 1025 34 10000 7.2 20 14:40 10.03.2021
1649 Clear 10 1025 34 10000 7.2 20 14:19 10.03.2021
1650 Clear 10 1024 32 10000 8.23 10 13:43 10.03.2021
1651 Clear 10 1024 32 10000 8.23 10 13:18 10.03.2021
1652 Clear 10 1023 35 10000 10.29 360 12:41 10.03.2021
1653 Clouds 11 1022 32 10000 11.32 360 11:59 10.03.2021
1654 Clear 11 1022 35 10000 9.26 360 11:31 10.03.2021
1655 Clear 12 1021 28 10000 6.17 340 10:57 10.03.2021
1656 Clear 12 1021 26 10000 7.2 330 10:34 10.03.2021
1657 Clear 13 1020 24 10000 9.26 330 09:58 10.03.2021
1658 Clear 14 1019 26 10000 10.29 340 09:40 10.03.2021
1659 Clear 14 1019 26 10000 10.29 340 09:20 10.03.2021
1660 Clear 15 1019 20 10000 4.63 340 08:46 10.03.2021
1661 Clear 16 1019 20 10000 4.63 340 08:28 10.03.2021
1662 Clear 17 1017 20 10000 5.14 320 07:55 10.03.2021
1663 Clear 17 1017 20 10000 5.14 320 07:29 10.03.2021
1664 Clouds 18 1016 25 10000 6.17 320 06:54 10.03.2021
1665 Clouds 18 1016 24 10000 5.66 310 05:59 10.03.2021
1666 Clear 12 1018 41 10000 4.12 310 00:48 10.03.2021
1667 Clouds 11 1018 76 10000 1.03 0 23:49 09.03.2021
1668 Clouds 10 1018 76 10000 2.06 310 22:59 09.03.2021
1669 Clouds 9 1018 76 10000 2.06 350 22:38 09.03.2021
1670 Clouds 9 1018 76 10000 2.57 360 22:18 09.03.2021
1671 Clouds 9 1017 76 10000 4.12 360 21:45 09.03.2021
1672 Clouds 9 1017 76 10000 4.12 360 21:24 09.03.2021
1673 Clouds 10 1017 81 10000 2.06 310 20:58 09.03.2021
1674 Clouds 10 1017 81 10000 0.51 0 20:39 09.03.2021
1675 Clouds 9 1017 81 10000 0.51 0 20:19 09.03.2021
1676 Clouds 9 1017 87 10000 2.57 330 19:46 09.03.2021
1677 Clouds 9 1017 87 10000 2.57 330 19:25 09.03.2021
1678 Clouds 9 1018 87 10000 3.09 310 18:43 09.03.2021
1679 Clouds 10 1018 87 10000 3.09 310 18:25 09.03.2021
1680 Clouds 10 1018 87 10000 2.06 180 17:50 09.03.2021
1681 Clouds 10 1018 87 10000 0.51 0 17:28 09.03.2021
1682 Clouds 10 1019 87 10000 3.09 160 16:44 09.03.2021
1683 Clouds 10 1019 87 10000 3.09 160 16:26 09.03.2021
1684 Clouds 11 1019 87 10000 3.6 170 15:59 09.03.2021
1685 Clouds 11 1019 87 10000 4.12 170 15:36 09.03.2021
1686 Clouds 11 1019 87 10000 4.12 170 15:18 09.03.2021
1687 Clouds 11 1020 87 10000 3.09 160 14:28 09.03.2021
1688 Clouds 11 1019 82 10000 3.28 196 13:47 09.03.2021
1689 Clouds 12 1020 82 10000 3.09 150 13:22 09.03.2021
1690 Clouds 12 1020 76 10000 3.09 150 12:59 09.03.2021
1691 Clouds 12 1021 82 10000 2.57 130 12:38 09.03.2021
1692 Clouds 12 1020 80 10000 3.68 165 12:18 09.03.2021
1693 Clouds 12 1021 82 10000 3.09 120 11:41 09.03.2021
1694 Clouds 12 1021 82 10000 3.09 120 11:20 09.03.2021
1695 Clouds 12 1021 76 10000 2.06 60 10:47 09.03.2021
1696 Clouds 12 1021 76 10000 2.06 60 10:23 09.03.2021
1697 Clouds 13 1021 76 10000 2.57 50 09:58 09.03.2021
1698 Clouds 13 1021 71 10000 1.03 0 09:40 09.03.2021
1699 Clouds 13 1022 62 10000 1.54 130 09:22 09.03.2021
1700 Clouds 13 1022 62 10000 1.54 130 08:36 09.03.2021
1701 Clouds 13 1022 58 10000 2.06 150 07:52 09.03.2021
1702 Clouds 14 1022 58 10000 2.06 150 07:31 09.03.2021
1703 Clouds 13 1022 54 10000 1.54 30 06:59 09.03.2021
1704 Clouds 13 1023 58 10000 2.57 30 05:54 09.03.2021
1705 Clouds 12 1023 58 10000 2.57 30 05:34 09.03.2021
1706 Clouds 7 1027 76 10000 5.66 360 00:21 09.03.2021
1707 Clouds 7 1026 76 10000 6.17 10 23:42 08.03.2021
1708 Clouds 7 1026 76 10000 5.66 360 23:23 08.03.2021
1709 Clouds 6 1026 76 10000 5.66 360 22:44 08.03.2021
1710 Clouds 6 1026 76 10000 6.17 10 22:26 08.03.2021
1711 Clouds 6 1025 76 10000 6.17 10 21:54 08.03.2021
1712 Clouds 6 1025 76 10000 7.2 30 21:35 08.03.2021
1713 Clouds 6 1025 76 10000 5.66 20 20:45 08.03.2021
1714 Clouds 7 1025 76 10000 6.69 20 20:25 08.03.2021
1715 Clouds 7 1025 76 10000 6.69 20 19:58 08.03.2021
1716 Clouds 7 1025 76 10000 6.69 30 19:28 08.03.2021
1717 Clouds 7 1025 71 10000 6.17 20 18:42 08.03.2021
1718 Clouds 7 1025 71 10000 6.17 20 18:20 08.03.2021
1719 Clouds 7 1026 71 10000 6.69 20 17:51 08.03.2021
1720 Clouds 7 1025 71 10000 6.69 30 17:26 08.03.2021
1721 Clouds 7 1025 76 10000 6.17 20 16:48 08.03.2021
1722 Clouds 7 1025 81 10000 6.69 30 16:29 08.03.2021
1723 Clouds 7 1025 81 10000 7.2 30 15:49 08.03.2021
1724 Clouds 7 1025 81 10000 7.72 30 15:28 08.03.2021
1725 Clouds 8 1025 76 10000 7.2 10 14:46 08.03.2021
1726 Clouds 8 1025 76 10000 7.2 20 14:20 08.03.2021
1727 Clouds 8 1025 81 10000 6.69 20 13:40 08.03.2021
1728 Clouds 8 1025 81 10000 6.69 20 13:19 08.03.2021
1729 Clouds 8 1025 81 10000 6.69 20 12:45 08.03.2021
1730 Clouds 8 1025 81 10000 6.69 20 12:26 08.03.2021
1731 Clouds 8 1024 81 10000 7.2 20 11:40 08.03.2021
1732 Clouds 8 1024 81 10000 7.2 20 11:19 08.03.2021
1733 Clouds 8 1024 81 10000 6.69 30 10:43 08.03.2021
1734 Clouds 8 1024 81 10000 6.17 20 10:25 08.03.2021
1735 Clouds 8 1023 87 10000 7.2 40 09:41 08.03.2021
1736 Clouds 8 1023 81 10000 5.14 30 09:23 08.03.2021
1737 Clouds 8 1023 81 10000 5.14 30 09:23 08.03.2021
1738 Clouds 8 1023 81 10000 5.14 30 08:29 08.03.2021
1739 Clouds 8 1022 87 7000 5.14 40 07:24 08.03.2021
1740 Rain 8 1022 87 3500 3.09 10 06:44 08.03.2021
1741 Rain 7 1024 87 4000 2.57 360 03:39 08.03.2021
1742 Clouds 7 1024 87 8000 2.57 360 00:45 08.03.2021
1743 Clouds 7 1024 87 10000 4.12 350 00:20 08.03.2021
1744 Clouds 7 1024 93 6000 3.6 330 23:39 07.03.2021
1745 Clouds 7 1024 93 6000 3.6 330 23:20 07.03.2021
1746 Clouds 7 1023 93 6000 4.12 340 22:44 07.03.2021
1747 Clouds 7 1023 93 6000 4.12 340 22:26 07.03.2021
1748 Clouds 7 1024 93 7000 4.12 330 21:45 07.03.2021
1749 Mist 6 1024 93 4900 3.6 340 21:26 07.03.2021
1750 Rain 7 1024 93 6000 4.12 340 20:49 07.03.2021
1751 Clouds 7 1023 93 6000 3.6 340 20:31 07.03.2021
1752 Clouds 7 1023 93 6000 4.12 350 19:57 07.03.2021
1753 Clouds 7 1024 93 6000 4.63 350 19:39 07.03.2021
1754 Rain 7 1024 93 4900 4.63 350 19:20 07.03.2021
1755 Clouds 7 1024 93 7000 6.17 360 18:44 07.03.2021
1756 Clouds 8 1023 72 10000 2.38 57 18:20 07.03.2021
1757 Clouds 7 1024 81 10000 6.17 360 17:44 07.03.2021
1758 Rain 8 1024 71 10000 5.66 360 17:21 07.03.2021
1759 Rain 8 1025 66 10000 5.14 10 16:59 07.03.2021
1760 Rain 8 1025 66 10000 4.12 10 16:38 07.03.2021
1761 Rain 8 1025 66 10000 4.12 10 16:19 07.03.2021
1762 Rain 8 1025 66 10000 4.12 10 16:19 07.03.2021
1763 Clouds 8 1025 66 10000 4.12 20 15:45 07.03.2021
1764 Clouds 8 1025 66 10000 4.12 20 15:23 07.03.2021
1765 Clouds 8 1026 61 10000 3.6 10 14:39 07.03.2021
1766 Clouds 8 1026 61 10000 3.6 10 14:20 07.03.2021
1767 Clouds 8 1026 66 10000 4.12 30 13:41 07.03.2021
1768 Clouds 8 1026 66 10000 4.12 30 13:21 07.03.2021
1769 Rain 8 1027 66 10000 4.63 40 12:47 07.03.2021
1770 Clouds 8 1027 66 10000 4.63 50 12:28 07.03.2021
1771 Clouds 8 1027 66 10000 4.63 50 11:49 07.03.2021
1772 Clouds 8 1026 71 10000 5.14 50 11:22 07.03.2021
1773 Clouds 8 1026 66 10000 4.63 60 10:44 07.03.2021
1774 Clouds 8 1026 66 10000 4.63 60 10:26 07.03.2021
1775 Clouds 8 1026 66 10000 4.12 70 09:44 07.03.2021
1776 Clouds 8 1026 57 10000 4.63 90 09:25 07.03.2021
1777 Clouds 9 1026 57 10000 4.63 90 08:46 07.03.2021
1778 Clouds 9 1026 57 10000 4.63 90 08:24 07.03.2021
1779 Clouds 9 1026 57 10000 4.63 100 07:51 07.03.2021
1780 Rain 8 1028 57 10000 5.14 70 02:43 07.03.2021
1781 Clouds 8 1029 57 10000 6.69 50 01:19 07.03.2021
1782 Clouds 7 1028 61 10000 9.26 50 23:50 06.03.2021
1783 Clouds 7 1028 65 10000 8.75 50 23:30 06.03.2021
1784 Clouds 7 1027 61 10000 9.77 50 22:48 06.03.2021
1785 Clouds 7 1026 61 10000 9.77 60 22:29 06.03.2021
1786 Clouds 7 1026 65 10000 9.77 50 21:59 06.03.2021
1787 Clouds 7 1025 70 10000 10.29 50 21:24 06.03.2021
1788 Clouds 8 1025 61 10000 9.77 50 20:54 06.03.2021
1789 Clouds 8 1024 71 10000 9.77 60 20:34 06.03.2021
1790 Clouds 8 1024 71 10000 8.75 60 19:50 06.03.2021
1791 Clouds 9 1023 66 10000 8.75 60 19:23 06.03.2021
1792 Clouds 9 1023 71 10000 8.75 70 18:57 06.03.2021
1793 Clouds 10 1023 71 10000 8.23 70 18:38 06.03.2021
1794 Clouds 10 1023 71 10000 8.23 70 18:18 06.03.2021
1795 Clouds 10 1023 71 10000 8.23 70 17:45 06.03.2021
1796 Clouds 10 1023 71 10000 6.17 60 17:25 06.03.2021
1797 Clouds 11 1022 62 10000 6.69 50 16:52 06.03.2021
1798 Clouds 11 1022 62 10000 6.17 50 16:29 06.03.2021
1799 Clouds 11 1022 62 10000 6.69 40 15:54 06.03.2021
1800 Clouds 11 1022 66 10000 7.2 50 15:32 06.03.2021
1801 Clouds 11 1021 71 10000 8.23 60 14:54 06.03.2021
1802 Clouds 12 1021 71 10000 7.2 40 14:30 06.03.2021
1803 Clouds 12 1021 71 10000 7.2 60 13:44 06.03.2021
1804 Clouds 13 1020 82 10000 8.23 60 13:23 06.03.2021
1805 Clouds 13 1020 76 10000 7.72 50 12:46 06.03.2021
1806 Clouds 14 1019 76 10000 8.23 50 12:20 06.03.2021
1807 Clouds 14 1019 76 10000 8.23 50 12:20 06.03.2021
1808 Clouds 14 1018 72 10000 7.72 50 11:57 06.03.2021
1809 Clouds 15 1018 72 10000 7.72 50 11:22 06.03.2021
1810 Rain 16 1017 72 10000 8.23 50 10:54 06.03.2021
1811 Rain 16 1016 72 10000 7.2 20 10:35 06.03.2021
1812 Clouds 17 1015 72 10000 6.69 60 09:51 06.03.2021
1813 Clouds 19 1014 48 10000 5.14 30 09:21 06.03.2021
1814 Clouds 19 1014 48 10000 5.14 30 08:53 06.03.2021
1815 Clouds 19 1014 48 10000 5.14 30 08:29 06.03.2021
1816 Clouds 17 1014 77 10000 2.06 160 07:43 06.03.2021
1817 Clouds 18 1014 77 10000 2.06 160 07:21 06.03.2021
1818 Clouds 17 1014 77 10000 3.09 160 05:40 06.03.2021
1819 Clouds 16 1016 67 10000 1.54 330 03:36 06.03.2021
1820 Clouds 13 1017 71 8000 1.03 0 01:32 06.03.2021
1821 Clouds 12 1017 82 10000 3.6 10 00:45 06.03.2021
1822 Clouds 12 1016 82 10000 3.09 20 23:41 05.03.2021
1823 Clouds 11 1016 82 10000 3.09 20 23:19 05.03.2021
1824 Clouds 11 1017 87 7000 2.57 30 22:43 05.03.2021
1825 Clouds 11 1017 87 7000 2.57 30 22:20 05.03.2021
1826 Mist 11 1017 87 6000 2.57 20 21:43 05.03.2021
1827 Mist 11 1017 87 6000 2.57 20 21:23 05.03.2021
1828 Rain 11 1017 93 6000 3.6 20 20:47 05.03.2021
1829 Mist 11 1017 93 6000 2.06 80 20:24 05.03.2021
1830 Mist 11 1017 87 6000 2.06 50 19:48 05.03.2021
1831 Mist 11 1017 94 4500 2.06 40 19:22 05.03.2021
1832 Mist 11 1018 94 5000 3.6 10 18:45 05.03.2021
1833 Mist 11 1018 94 5000 3.6 10 18:26 05.03.2021
1834 Mist 11 1018 94 5000 3.6 10 18:26 05.03.2021
1835 Rain 11 1019 94 5000 3.09 20 17:51 05.03.2021
1836 Mist 11 1019 93 5000 1.54 340 17:33 05.03.2021
1837 Mist 12 1019 94 5000 1.54 320 16:44 05.03.2021
1838 Mist 12 1019 94 5000 2.06 360 16:24 05.03.2021
1839 Mist 12 1019 94 5000 2.57 10 15:55 05.03.2021
1840 Mist 12 1020 94 5000 2.57 10 15:27 05.03.2021
1841 Mist 12 1020 94 5000 1.54 20 14:52 05.03.2021
1842 Rain 12 1020 94 6000 1.54 10 14:34 05.03.2021
1843 Clouds 12 1020 94 9000 2.57 360 13:45 05.03.2021
1844 Clouds 12 1020 94 9000 2.57 360 13:21 05.03.2021
1845 Rain 12 1021 94 10000 3.6 360 12:46 05.03.2021
1846 Clouds 12 1021 88 10000 1.54 350 11:40 05.03.2021
1847 Clouds 12 1021 88 10000 1.54 350 11:40 05.03.2021
1848 Clouds 12 1021 88 10000 1.54 350 11:21 05.03.2021
1849 Clouds 13 1021 82 10000 3.09 330 10:57 05.03.2021
1850 Rain 13 1021 82 10000 3.6 340 10:37 05.03.2021
1851 Rain 13 1021 82 10000 3.6 340 10:19 05.03.2021
1852 Rain 14 1021 82 10000 3.09 310 09:42 05.03.2021
1853 Clouds 14 1020 72 10000 1.54 130 09:23 05.03.2021
1854 Clouds 15 1020 72 10000 1.54 130 08:39 05.03.2021
1855 Clouds 15 1020 72 10000 1.54 130 08:20 05.03.2021
1856 Rain 15 1020 67 10000 2.57 140 07:35 05.03.2021
1857 Clouds 15 1021 58 10000 0.51 0 06:43 05.03.2021
1858 Rain 15 1021 58 10000 0.51 0 06:25 05.03.2021
1859 Clouds 12 1025 66 10000 3.09 310 01:40 05.03.2021
1860 Clouds 10 1026 76 10000 3.09 360 23:55 04.03.2021
1861 Clouds 10 1026 81 10000 3.6 330 23:25 04.03.2021
1862 Clouds 10 1026 87 10000 2.57 360 22:31 04.03.2021
1863 Clouds 10 1026 82 10000 2.06 40 21:55 04.03.2021
1864 Clouds 10 1026 82 10000 2.06 40 21:33 04.03.2021
1865 Clouds 10 1026 82 10000 0.51 0 20:59 04.03.2021
1866 Clouds 10 1027 82 10000 0.51 0 20:40 04.03.2021
1867 Clouds 10 1027 82 10000 0.51 0 20:21 04.03.2021
1868 Clouds 10 1027 82 10000 0.51 0 19:51 04.03.2021
1869 Rain 10 1027 82 10000 0.51 0 19:26 04.03.2021
1870 Clouds 10 1028 76 10000 0.51 0 18:52 04.03.2021
1871 Rain 11 1027 82 10000 0.51 0 18:30 04.03.2021
1872 Clouds 11 1028 82 10000 1.03 120 17:57 04.03.2021
1873 Clouds 11 1028 82 10000 1.54 90 17:39 04.03.2021
1874 Clouds 11 1028 82 10000 1.54 70 17:18 04.03.2021
1875 Clouds 11 1028 82 10000 1.54 40 16:42 04.03.2021
1876 Clouds 11 1028 82 10000 1.54 40 16:23 04.03.2021
1877 Rain 11 1028 71 10000 2.06 60 15:45 04.03.2021
1878 Clouds 11 1028 76 10000 1.54 80 15:25 04.03.2021
1879 Clouds 12 1029 82 10000 2.06 130 14:42 04.03.2021
1880 Rain 12 1029 82 10000 2.06 130 14:18 04.03.2021
1881 Clouds 12 1029 76 10000 2.57 120 13:40 04.03.2021
1882 Clouds 12 1029 76 10000 2.57 120 13:19 04.03.2021
1883 Clouds 12 1030 71 10000 1.54 140 12:42 04.03.2021
1884 Clouds 12 1030 66 10000 2.57 140 11:52 04.03.2021
1885 Clouds 12 1030 62 10000 3.6 160 11:32 04.03.2021
1886 Clouds 12 1030 66 10000 4.12 150 10:58 04.03.2021
1887 Clouds 12 1029 66 10000 4.63 140 10:36 04.03.2021
1888 Clouds 12 1029 71 10000 4.12 140 09:53 04.03.2021
1889 Clouds 13 1029 62 10000 2.06 130 09:28 04.03.2021
1890 Clouds 13 1029 62 10000 2.06 130 08:51 04.03.2021
1891 Clouds 13 1029 62 10000 2.06 130 08:25 04.03.2021
1892 Clouds 13 1030 58 10000 2.06 150 07:37 04.03.2021
1893 Clouds 13 1030 50 10000 2.06 160 06:41 04.03.2021
1894 Clouds 13 1030 50 10000 2.06 160 06:21 04.03.2021
1895 Clouds 9 1033 49 10000 2.57 40 02:38 04.03.2021
1896 Clouds 6 1034 57 10000 4.12 20 00:20 04.03.2021
1897 Clouds 5 1033 65 10000 5.14 10 22:39 03.03.2021
1898 Clouds 6 1033 65 10000 5.14 10 22:20 03.03.2021
1899 Clear 6 1033 65 10000 4.63 10 21:41 03.03.2021
1900 Clear 6 1033 65 10000 4.63 10 21:23 03.03.2021
1901 Clouds 5 1033 65 10000 4.12 20 20:54 03.03.2021
1902 Clouds 6 1032 65 10000 4.12 20 20:35 03.03.2021
1903 Clouds 6 1032 70 10000 4.12 10 19:51 03.03.2021
1904 Clouds 6 1032 65 10000 4.12 10 19:30 03.03.2021
1905 Clouds 6 1033 61 10000 4.12 10 18:58 03.03.2021
1906 Clouds 6 1032 61 10000 4.12 50 18:39 03.03.2021
1907 Clouds 6 1032 61 10000 4.12 60 17:58 03.03.2021
1908 Clouds 7 1032 65 10000 4.63 60 17:22 03.03.2021
1909 Clouds 7 1032 65 10000 4.63 70 16:58 03.03.2021
1910 Clouds 7 1032 61 10000 4.63 80 16:28 03.03.2021
1911 Clouds 7 1032 65 10000 6.69 90 15:59 03.03.2021
1912 Clouds 7 1032 65 10000 6.17 90 15:33 03.03.2021
1913 Clouds 7 1032 70 10000 6.69 80 14:51 03.03.2021
1914 Clouds 7 1032 70 10000 6.69 80 14:28 03.03.2021
1915 Clouds 7 1031 65 10000 7.72 90 13:48 03.03.2021
1916 Clouds 7 1031 66 10000 8.23 80 13:29 03.03.2021
1917 Clear 7 1030 57 10000 7.2 80 12:43 03.03.2021
1918 Clear 8 1030 57 10000 7.2 80 12:24 03.03.2021
1919 Clear 8 1030 53 10000 7.72 80 11:46 03.03.2021
1920 Clear 8 1030 53 10000 7.72 80 11:27 03.03.2021
1921 Clear 9 1029 53 10000 7.2 80 10:47 03.03.2021
1922 Clear 9 1029 53 10000 6.69 80 10:25 03.03.2021
1923 Clouds 10 1028 43 10000 4.63 100 09:46 03.03.2021
1924 Clouds 11 1026 32 10000 4.63 70 08:59 03.03.2021
1925 Clouds 11 1026 32 10000 4.63 70 08:39 03.03.2021
1926 Clouds 11 1026 32 10000 4.63 70 08:20 03.03.2021
1927 Clouds 11 1026 32 10000 4.63 30 07:39 03.03.2021
1928 Clouds 11 1025 32 10000 6.17 40 06:50 03.03.2021
1929 Clouds 10 1025 32 10000 3.6 340 05:46 03.03.2021
1930 Clear 10 1025 32 10000 4.12 360 04:57 03.03.2021
1931 Clear 10 1025 32 10000 4.12 360 04:25 03.03.2021
1932 Clouds 7 1026 33 10000 5.14 330 01:46 03.03.2021
1933 Clouds 5 1024 42 10000 12.35 350 23:55 02.03.2021
1934 Clouds 5 1023 48 10000 11.32 340 23:22 02.03.2021
1935 Clouds 5 1021 48 10000 12.35 340 22:41 02.03.2021
1936 Clouds 5 1021 48 10000 12.35 340 22:18 02.03.2021
1937 Clear 5 1020 45 10000 12.35 340 21:40 02.03.2021
1938 Clear 5 1020 45 10000 12.35 340 21:21 02.03.2021
1939 Clear 5 1019 45 10000 11.83 330 20:46 02.03.2021
1940 Clear 6 1018 45 10000 12.35 330 20:22 02.03.2021
1941 Clear 6 1017 45 10000 13.89 330 19:53 02.03.2021
1942 Clouds 7 1016 42 10000 12.35 330 19:33 02.03.2021
1943 Clouds 7 1015 45 10000 13.89 330 18:58 02.03.2021
1944 Clouds 7 1014 42 10000 15.95 340 18:40 02.03.2021
1945 Clouds 7 1014 42 10000 15.95 340 18:21 02.03.2021
1946 Clouds 8 1014 46 10000 14.92 350 17:49 02.03.2021
1947 Clouds 8 1013 49 10000 15.43 340 17:29 02.03.2021
1948 Clouds 8 1012 46 10000 15.95 340 16:49 02.03.2021
1949 Clouds 8 1011 46 10000 15.43 340 16:20 02.03.2021
1950 Clouds 8 1011 46 10000 15.43 340 16:20 02.03.2021
1951 Clouds 9 1010 46 10000 16.46 340 15:48 02.03.2021
1952 Clouds 9 1010 46 10000 16.46 340 15:22 02.03.2021
1953 Clouds 9 1008 53 10000 17.49 340 14:22 02.03.2021
1954 Clouds 9 1008 50 10000 15.95 340 13:49 02.03.2021
1955 Clouds 9 1007 57 10000 13.89 350 13:30 02.03.2021
1956 Clouds 9 1007 61 10000 13.38 350 12:51 02.03.2021
1957 Clouds 9 1006 62 10000 13.38 350 12:29 02.03.2021
1958 Clouds 9 1005 71 10000 13.89 350 11:53 02.03.2021
1959 Rain 9 1005 76 10000 12.35 350 11:32 02.03.2021
1960 Rain 9 1004 76 10000 12.86 350 10:58 02.03.2021
1961 Rain 10 1004 87 10000 10.8 340 10:32 02.03.2021
1962 Rain 11 1003 82 10000 9.77 350 09:57 02.03.2021
1963 Rain 12 1000 100 2000 9.26 200 09:39 02.03.2021
1964 Rain 12 1000 100 2000 9.26 200 09:39 02.03.2021
1965 Clouds 13 1002 88 10000 10.29 360 09:18 02.03.2021
1966 Rain 17 1000 94 4000 9.77 200 08:36 02.03.2021
1967 Rain 18 1001 94 4000 7.72 190 07:53 02.03.2021
1968 Clouds 18 1000 94 6000 8.23 180 07:26 02.03.2021
1969 Rain 18 1000 82 5000 9.26 180 06:32 02.03.2021
1970 Clouds 19 1003 88 10000 7.2 180 05:44 02.03.2021
1971 Clouds 19 1002 73 8000 10.29 190 05:24 02.03.2021
1972 Clouds 16 1010 94 7000 6.17 190 01:44 02.03.2021
1973 Clouds 16 1010 94 7000 6.17 190 01:23 02.03.2021
1974 Mist 15 1011 94 10000 6.69 200 23:55 01.03.2021
1975 Mist 15 1011 94 3500 6.17 200 23:22 01.03.2021
1976 Mist 15 1011 94 3500 6.17 200 23:22 01.03.2021
1977 Clouds 14 1012 94 10000 3.09 180 22:40 01.03.2021
1978 Clouds 14 1012 94 10000 3.09 180 22:21 01.03.2021
1979 Mist 14 1012 100 3500 7.2 200 21:45 01.03.2021
1980 Mist 14 1012 100 3000 7.72 200 21:23 01.03.2021
1981 Clouds 14 1013 94 10000 6.17 220 20:46 01.03.2021
1982 Clouds 14 1013 94 10000 6.17 220 20:27 01.03.2021
1983 Clouds 14 1013 88 7000 4.63 220 19:51 01.03.2021
1984 Clouds 14 1014 94 10000 6.69 210 19:32 01.03.2021
1985 Clouds 13 1015 88 10000 4.63 150 18:45 01.03.2021
1986 Clouds 13 1015 88 10000 4.63 150 18:24 01.03.2021
1987 Clouds 13 1016 94 10000 4.12 180 17:49 01.03.2021
1988 Clouds 13 1017 94 10000 4.12 230 17:25 01.03.2021
1989 Mist 14 1017 94 5000 5.14 240 16:57 01.03.2021
1990 Clouds 14 1017 88 10000 6.17 200 16:38 01.03.2021
1991 Clouds 14 1017 88 10000 6.17 200 16:20 01.03.2021
1992 Mist 14 1018 94 5000 9.26 220 15:38 01.03.2021
1993 Clouds 14 1018 88 10000 7.72 180 15:18 01.03.2021
1994 Clouds 14 1018 88 10000 7.72 180 15:18 01.03.2021
1995 Clouds 15 1019 88 10000 6.17 190 14:43 01.03.2021
1996 Clouds 14 1019 88 10000 6.17 190 14:25 01.03.2021
1997 Clouds 15 1019 77 10000 6.17 190 13:39 01.03.2021
1998 Clouds 15 1019 77 10000 6.17 190 13:20 01.03.2021
1999 Clouds 15 1020 82 10000 4.63 170 12:44 01.03.2021
2000 Clouds 14 1020 82 10000 6.69 170 12:25 01.03.2021
2001 Clouds 15 1020 77 10000 6.69 180 11:57 01.03.2021
2002 Clouds 15 1020 77 10000 4.63 190 11:32 01.03.2021
2003 Clouds 15 1021 72 10000 6.17 190 10:44 01.03.2021
2004 Clouds 15 1021 72 10000 6.17 190 10:22 01.03.2021
2005 Clouds 16 1021 72 10000 6.69 190 09:56 01.03.2021
2006 Clouds 16 1021 67 10000 8.75 180 09:37 01.03.2021
2007 Clouds 16 1022 63 10000 5.66 190 09:19 01.03.2021
2008 Clouds 17 1022 63 10000 5.66 190 08:41 01.03.2021
2009 Clouds 17 1022 55 10000 6.69 200 07:34 01.03.2021
2010 Clouds 18 1021 42 10000 8.23 170 06:31 01.03.2021
2011 Clouds 12 1027 46 10000 2.06 40 02:40 01.03.2021
2012 Clouds 7 1028 57 10000 3.09 20 23:58 28.02.2021
2013 Clouds 8 1028 61 10000 2.57 20 23:22 28.02.2021
2014 Clouds 7 1028 61 10000 2.57 20 22:45 28.02.2021
2015 Clouds 7 1028 61 10000 2.57 20 22:21 28.02.2021
2016 Clouds 7 1028 66 10000 2.06 20 21:47 28.02.2021
2017 Clouds 7 1028 66 10000 2.57 30 21:24 28.02.2021
2018 Clouds 7 1027 66 10000 2.57 10 20:52 28.02.2021
2019 Clouds 8 1027 61 10000 2.57 50 20:34 28.02.2021
2020 Clouds 8 1027 71 10000 1.54 70 19:47 28.02.2021
2021 Clouds 7 1027 71 10000 0.51 60 19:28 28.02.2021
2022 Clouds 8 1029 76 10000 1.54 310 18:47 28.02.2021
2023 Clouds 8 1029 66 10000 2.06 290 18:28 28.02.2021
2024 Clouds 8 1030 76 10000 3.09 300 17:59 28.02.2021
2025 Clouds 8 1029 87 10000 2.06 130 17:40 28.02.2021
2026 Clouds 8 1029 87 10000 2.06 130 17:21 28.02.2021
2027 Clouds 9 1030 62 10000 1.54 140 16:48 28.02.2021
2028 Clouds 9 1030 66 10000 1.03 0 16:30 28.02.2021
2029 Clouds 9 1030 71 10000 1.03 0 15:52 28.02.2021
2030 Clouds 9 1030 71 10000 1.03 0 15:28 28.02.2021
2031 Clouds 9 1031 76 10000 1.54 170 14:58 28.02.2021
2032 Clouds 9 1031 71 10000 3.09 190 14:39 28.02.2021
2033 Clouds 9 1031 71 10000 3.09 190 14:19 28.02.2021
2034 Clouds 10 1032 71 10000 2.57 180 13:39 28.02.2021
2035 Clouds 9 1032 71 10000 2.57 180 13:19 28.02.2021
2036 Clouds 10 1032 76 10000 4.63 160 12:54 28.02.2021
2037 Clear 10 1032 71 10000 4.12 160 12:35 28.02.2021
2038 Clear 10 1032 66 10000 4.63 150 11:59 28.02.2021
2039 Clear 10 1032 66 10000 4.63 160 11:41 28.02.2021
2040 Clear 10 1032 66 10000 4.63 160 11:22 28.02.2021
2041 Clear 11 1032 62 10000 4.63 170 10:45 28.02.2021
2042 Clear 11 1032 58 10000 4.63 190 10:25 28.02.2021
2043 Clouds 11 1031 54 10000 4.12 190 09:40 28.02.2021
2044 Clouds 11 1031 54 10000 3.09 150 09:22 28.02.2021
2045 Clear 12 1030 43 10000 5.14 190 08:46 28.02.2021
2046 Clouds 12 1031 54 10000 3.09 150 08:28 28.02.2021
2047 Clear 13 1031 38 10000 5.66 180 07:50 28.02.2021
2048 Clear 13 1031 38 10000 5.66 180 07:28 28.02.2021
2049 Clear 11 1032 46 10000 3.09 130 06:27 28.02.2021
2050 Clear 10 1033 49 10000 1.54 100 05:24 28.02.2021
2051 Clear 8 1035 45 10000 1.03 0 03:24 28.02.2021
2052 Clear 5 1036 42 10000 2.06 300 01:41 28.02.2021
2053 Clouds 4 1036 41 10000 2.06 310 00:49 28.02.2021
2054 Clouds 3 1035 48 10000 4.12 350 00:25 28.02.2021
2055 Clouds 3 1035 48 10000 4.63 340 23:44 27.02.2021
2056 Clouds 2 1035 55 10000 3.6 360 23:19 27.02.2021
2057 Clouds 2 1035 55 10000 3.6 360 22:44 27.02.2021
2058 Clouds 3 1034 56 10000 3.6 350 22:19 27.02.2021
2059 Clouds 2 1034 60 10000 4.12 330 21:42 27.02.2021
2060 Clouds 2 1034 60 10000 4.12 330 21:42 27.02.2021
2061 Clouds 3 1034 60 10000 4.12 330 21:24 27.02.2021
2062 Clouds 3 1034 55 10000 3.09 310 20:49 27.02.2021
2063 Clouds 3 1034 51 10000 3.09 340 20:27 27.02.2021
2064 Clouds 2 1034 55 10000 3.6 320 19:46 27.02.2021
2065 Clouds 3 1033 60 10000 3.09 350 19:27 27.02.2021
2066 Clouds 3 1033 48 10000 4.12 360 18:46 27.02.2021
2067 Clouds 4 1033 48 10000 4.12 360 18:22 27.02.2021
2068 Clouds 4 1033 48 10000 4.12 10 17:58 27.02.2021
2069 Clouds 4 1034 48 10000 3.6 20 17:38 27.02.2021
2070 Clouds 4 1034 48 10000 3.6 20 17:19 27.02.2021
2071 Clouds 4 1034 52 10000 4.63 20 16:49 27.02.2021
2072 Clouds 4 1034 52 10000 4.63 10 16:27 27.02.2021
2073 Clouds 5 1034 52 10000 5.14 20 15:44 27.02.2021
2074 Clouds 4 1034 52 10000 5.14 20 15:19 27.02.2021
2075 Clouds 5 1033 60 10000 6.17 40 14:40 27.02.2021
2076 Clouds 5 1033 60 10000 6.17 40 14:21 27.02.2021
2077 Clouds 5 1033 56 10000 6.17 50 13:43 27.02.2021
2078 Clouds 5 1033 56 10000 6.17 50 13:19 27.02.2021
2079 Clouds 5 1033 61 10000 7.2 70 12:45 27.02.2021
2080 Clouds 5 1033 61 10000 7.2 70 12:24 27.02.2021
2081 Clouds 6 1032 56 10000 8.23 70 11:51 27.02.2021
2082 Clouds 6 1032 56 10000 9.26 80 11:31 27.02.2021
2083 Clouds 6 1031 49 10000 9.26 60 10:53 27.02.2021
2084 Clouds 7 1030 49 10000 9.77 70 10:34 27.02.2021
2085 Clouds 7 1029 39 10000 8.75 50 09:54 27.02.2021
2086 Clouds 8 1029 39 10000 8.23 40 09:32 27.02.2021
2087 Clouds 8 1028 29 10000 5.66 30 08:44 27.02.2021
2088 Clouds 8 1028 29 10000 5.66 30 08:24 27.02.2021
2089 Clouds 9 1028 23 10000 2.06 10 07:58 27.02.2021
2090 Clouds 9 1028 23 10000 2.06 10 07:25 27.02.2021
2091 Clouds 6 1026 36 10000 6.69 30 01:30 27.02.2021
2092 Clouds 5 1025 48 10000 9.77 20 00:32 27.02.2021
2093 Clouds 5 1023 45 10000 10.29 360 23:41 26.02.2021
2094 Clouds 5 1023 45 10000 10.29 360 23:23 26.02.2021
2095 Clouds 5 1022 45 10000 9.26 350 22:38 26.02.2021
2096 Clouds 5 1022 45 10000 9.26 360 22:19 26.02.2021
2097 Clear 5 1021 49 10000 9.77 360 21:36 26.02.2021
2098 Clear 5 1021 49 10000 9.26 350 20:56 26.02.2021
2099 Clear 5 1021 42 10000 9.26 350 20:37 26.02.2021
2100 Clear 6 1020 45 10000 11.83 350 20:19 26.02.2021
2101 Clear 6 1019 45 10000 10.8 360 19:27 26.02.2021
2102 Clear 6 1019 45 10000 8.75 10 18:57 26.02.2021
2103 Clear 6 1019 42 10000 8.75 10 18:36 26.02.2021
2104 Clear 6 1019 42 10000 8.23 360 18:18 26.02.2021
2105 Clear 6 1020 42 10000 8.75 360 17:38 26.02.2021
2106 Clear 7 1020 42 10000 8.23 360 17:19 26.02.2021
2107 Clear 7 1020 42 10000 8.23 360 16:48 26.02.2021
2108 Clear 7 1020 36 10000 8.75 360 16:30 26.02.2021
2109 Clear 7 1020 36 10000 10.29 350 15:48 26.02.2021
2110 Clear 8 1020 31 10000 9.77 350 15:29 26.02.2021
2111 Clear 8 1020 25 10000 7.72 350 14:59 26.02.2021
2112 Clear 8 1020 25 10000 6.17 350 14:37 26.02.2021
2113 Clear 8 1020 29 10000 5.66 340 14:18 26.02.2021
2114 Clear 8 1019 37 10000 6.17 10 13:39 26.02.2021
2115 Clear 9 1019 37 10000 6.17 10 13:20 26.02.2021
2116 Clear 9 1019 40 10000 6.69 10 12:33 26.02.2021
2117 Clear 9 1019 40 10000 6.17 360 11:49 26.02.2021
2118 Clear 9 1019 43 10000 7.2 10 11:28 26.02.2021
2119 Clouds 10 1019 46 10000 5.14 350 10:45 26.02.2021
2120 Clouds 11 1019 46 10000 5.14 360 09:49 26.02.2021
2121 Clouds 11 1018 46 10000 1.03 0 09:29 26.02.2021
2122 Clouds 11 1018 37 10000 2.06 310 08:51 26.02.2021
2123 Clouds 12 1018 37 10000 2.06 310 08:18 26.02.2021
2124 Clouds 12 1018 43 10000 3.09 70 07:41 26.02.2021
2125 Clouds 11 1018 40 10000 2.57 40 06:36 26.02.2021
2126 Rain 11 1018 40 10000 3.6 30 05:26 26.02.2021
2127 Clouds 11 1020 35 10000 2.57 300 03:28 26.02.2021
2128 Clouds 9 1020 34 10000 2.06 340 01:29 26.02.2021
2129 Clouds 8 1021 40 10000 3.6 330 23:49 25.02.2021
2130 Clouds 8 1021 46 10000 0.51 0 23:28 25.02.2021
2131 Clouds 8 1021 49 10000 1.54 10 22:49 25.02.2021
2132 Clouds 7 1021 57 10000 2.06 30 21:59 25.02.2021
2133 Rain 7 1021 66 10000 2.57 20 21:38 25.02.2021
2134 Clouds 7 1021 66 10000 2.57 20 21:19 25.02.2021
2135 Clouds 7 1020 66 10000 2.57 10 20:40 25.02.2021
2136 Clouds 7 1020 66 10000 2.57 10 20:22 25.02.2021
2137 Clouds 7 1020 66 10000 3.6 10 19:51 25.02.2021
2138 Clouds 7 1020 66 10000 4.12 20 19:21 25.02.2021
2139 Clouds 8 1021 66 10000 4.63 340 18:56 25.02.2021
2140 Clouds 8 1021 66 10000 4.12 330 18:20 25.02.2021
2141 Clouds 8 1020 66 10000 4.63 10 17:47 25.02.2021
2142 Clouds 8 1021 71 10000 2.57 10 17:25 25.02.2021
2143 Clouds 9 1021 66 10000 2.06 320 16:43 25.02.2021
2144 Clouds 9 1021 66 10000 2.06 320 16:25 25.02.2021
2145 Clouds 9 1021 66 10000 1.03 0 15:30 25.02.2021
2146 Clouds 9 1022 66 10000 1.03 0 14:57 25.02.2021
2147 Clouds 9 1022 66 10000 1.03 100 14:22 25.02.2021
2148 Clouds 10 1022 66 10000 1.54 130 13:53 25.02.2021
2149 Clouds 10 1022 71 10000 2.06 130 13:26 25.02.2021
2150 Rain 10 1023 66 10000 2.57 140 12:53 25.02.2021
2151 Clouds 10 1022 62 10000 2.06 140 12:21 25.02.2021
2152 Clouds 10 1023 62 10000 3.6 100 11:47 25.02.2021
2153 Clouds 10 1023 62 10000 3.6 100 11:20 25.02.2021
2154 Clouds 10 1022 61 10000 4.12 100 10:45 25.02.2021
2155 Clouds 10 1022 62 10000 3.6 100 10:26 25.02.2021
2156 Clouds 10 1022 49 10000 3.09 160 09:43 25.02.2021
2157 Clouds 11 1022 32 10000 2.06 200 08:56 25.02.2021
2158 Clouds 11 1022 32 10000 2.06 200 08:25 25.02.2021
2159 Clouds 11 1022 32 10000 2.06 200 08:25 25.02.2021
2160 Clouds 11 1022 29 10000 3.09 140 07:56 25.02.2021
2161 Clouds 11 1022 29 10000 3.09 140 07:34 25.02.2021
2162 Clouds 10 1022 23 10000 1.54 0 06:55 25.02.2021
2163 Clouds 6 1025 33 10000 2.06 90 02:39 25.02.2021
2164 Clouds 5 1026 36 10000 2.57 20 01:38 25.02.2021
2165 Clouds 4 1025 48 10000 6.69 10 00:42 25.02.2021
2166 Clouds 3 1025 52 10000 5.66 20 23:53 24.02.2021
2167 Clouds 3 1024 48 10000 5.66 30 23:28 24.02.2021
2168 Clouds 3 1024 48 10000 7.2 340 22:45 24.02.2021
2169 Clouds 3 1023 45 10000 7.2 350 22:26 24.02.2021
2170 Clouds 3 1024 48 10000 8.23 350 21:46 24.02.2021
2171 Clouds 3 1023 52 10000 7.2 350 21:19 24.02.2021
2172 Clouds 3 1023 45 10000 7.72 350 20:41 24.02.2021
2173 Clouds 3 1023 45 10000 7.72 350 20:22 24.02.2021
2174 Clouds 3 1022 48 10000 8.75 330 19:36 24.02.2021
2175 Clouds 3 1022 48 10000 8.75 330 19:18 24.02.2021
2176 Clouds 3 1023 44 10000 10.29 330 18:42 24.02.2021
2177 Clouds 4 1023 44 10000 10.29 330 18:22 24.02.2021
2178 Clouds 4 1022 41 10000 9.77 330 17:38 24.02.2021
2179 Clouds 4 1022 41 10000 9.77 330 17:19 24.02.2021
2180 Clouds 4 1022 42 10000 11.32 340 16:44 24.02.2021
2181 Clouds 5 1022 38 10000 12.35 340 16:19 24.02.2021
2182 Clouds 5 1022 42 10000 10.8 340 15:47 24.02.2021
2183 Clouds 5 1022 38 10000 10.8 340 15:25 24.02.2021
2184 Clouds 5 1022 36 10000 9.77 340 14:35 24.02.2021
2185 Clouds 6 1022 42 10000 11.83 340 13:59 24.02.2021
2186 Clouds 6 1021 36 10000 10.8 350 13:40 24.02.2021
2187 Clouds 6 1021 36 10000 10.8 350 13:22 24.02.2021
2188 Clouds 6 1021 36 10000 11.83 340 12:45 24.02.2021
2189 Clouds 7 1021 36 10000 10.8 350 12:27 24.02.2021
2190 Clouds 7 1021 31 10000 9.26 340 11:50 24.02.2021
2191 Clouds 7 1021 34 10000 8.75 350 11:24 24.02.2021
2192 Clouds 8 1020 31 10000 6.17 330 10:32 24.02.2021
2193 Clouds 8 1020 31 10000 8.23 340 09:56 24.02.2021
2194 Clouds 9 1019 22 10000 4.12 340 09:22 24.02.2021
2195 Clouds 9 1019 22 10000 4.12 340 09:22 24.02.2021
2196 Clouds 10 1019 22 10000 4.12 340 08:41 24.02.2021
2197 Clouds 10 1019 22 10000 4.12 340 08:22 24.02.2021
2198 Clouds 11 1018 20 10000 3.09 350 07:21 24.02.2021
2199 Clouds 11 1018 23 10000 3.6 320 06:52 24.02.2021
2200 Clouds 10 1019 25 10000 5.14 310 04:23 24.02.2021
2201 Clouds 6 1020 42 10000 9.26 350 00:44 24.02.2021
2202 Clouds 4 1019 48 10000 9.77 350 23:32 23.02.2021
2203 Clouds 4 1018 45 10000 10.29 350 22:42 23.02.2021
2204 Clouds 4 1018 45 10000 10.29 350 22:21 23.02.2021
2205 Clouds 4 1018 48 10000 10.8 350 21:47 23.02.2021
2206 Clouds 5 1018 48 10000 11.32 350 21:24 23.02.2021
2207 Clouds 5 1017 48 10000 11.32 350 20:50 23.02.2021
2208 Clouds 5 1017 45 10000 10.8 350 20:30 23.02.2021
2209 Clouds 5 1017 42 10000 10.29 340 19:57 23.02.2021
2210 Clouds 5 1017 42 10000 10.8 340 19:38 23.02.2021
2211 Clouds 5 1017 42 10000 10.8 340 19:19 23.02.2021
2212 Clouds 5 1016 42 10000 9.77 340 18:43 23.02.2021
2213 Clouds 5 1016 45 10000 8.75 340 18:21 23.02.2021
2214 Clouds 5 1016 42 10000 10.29 350 17:48 23.02.2021
2215 Clouds 5 1016 42 10000 9.26 340 17:25 23.02.2021
2216 Clouds 6 1015 42 10000 10.29 350 16:43 23.02.2021
2217 Clouds 6 1015 42 10000 10.29 350 16:21 23.02.2021
2218 Clouds 6 1015 42 10000 10.29 350 16:21 23.02.2021
2219 Clouds 6 1015 42 10000 6.17 360 15:44 23.02.2021
2220 Clouds 6 1015 42 10000 6.17 360 15:25 23.02.2021
2221 Clouds 6 1015 39 10000 9.26 360 14:46 23.02.2021
2222 Clouds 6 1015 39 10000 9.26 360 14:27 23.02.2021
2223 Clouds 7 1015 45 10000 7.72 350 13:56 23.02.2021
2224 Clouds 7 1015 42 10000 9.26 350 13:34 23.02.2021
2225 Clouds 7 1014 42 10000 9.77 350 12:56 23.02.2021
2226 Clouds 7 1014 46 10000 9.77 350 12:23 23.02.2021
2227 Clouds 8 1014 42 10000 8.75 350 11:52 23.02.2021
2228 Clouds 9 1014 43 10000 8.75 360 11:25 23.02.2021
2229 Clouds 9 1013 43 10000 9.77 350 10:54 23.02.2021
2230 Clouds 9 1013 40 10000 8.75 360 10:36 23.02.2021
2231 Clouds 10 1012 37 10000 8.75 360 09:55 23.02.2021
2232 Clouds 11 1011 40 10000 7.72 10 09:36 23.02.2021
2233 Clouds 11 1010 28 10000 4.12 350 09:18 23.02.2021
2234 Clouds 12 1010 28 10000 4.12 350 08:40 23.02.2021
2235 Clouds 12 1010 28 10000 4.12 350 08:20 23.02.2021
2236 Clouds 14 1009 26 10000 4.63 310 06:50 23.02.2021
2237 Clouds 15 1008 26 10000 6.17 310 05:22 23.02.2021
2238 Clouds 14 1009 30 10000 5.14 330 02:36 23.02.2021
2239 Clear 13 1009 38 10000 5.66 340 01:42 23.02.2021
2240 Clouds 12 1008 44 10000 8.75 340 00:18 23.02.2021
2241 Clouds 12 1008 47 10000 5.66 340 23:25 22.02.2021
2242 Clouds 12 1007 54 10000 4.63 330 22:42 22.02.2021
2243 Clouds 12 1007 54 10000 4.63 330 22:21 22.02.2021
2244 Clouds 13 1006 54 10000 3.6 340 21:54 22.02.2021
2245 Clear 13 1005 58 10000 1.03 0 21:36 22.02.2021
2246 Clear 13 1005 54 10000 4.63 340 21:18 22.02.2021
2247 Clear 13 1003 47 10000 6.17 230 20:42 22.02.2021
2248 Clear 13 1003 47 10000 6.17 230 20:42 22.02.2021
2249 Clear 14 1003 47 10000 6.17 230 20:22 22.02.2021
2250 Clear 14 1003 48 10000 9.26 210 19:38 22.02.2021
2251 Clear 15 1003 48 10000 10.29 210 19:20 22.02.2021
2252 Clear 14 1004 51 10000 2.57 240 18:46 22.02.2021
2253 Clear 14 1004 51 10000 2.57 240 18:22 22.02.2021
2254 Clear 14 1004 41 10000 2.06 200 17:43 22.02.2021
2255 Clear 14 1005 38 10000 2.06 260 17:18 22.02.2021
2256 Clear 13 1005 41 10000 2.57 260 16:47 22.02.2021
2257 Clear 14 1005 41 10000 2.57 260 16:25 22.02.2021
2258 Clear 15 1005 39 10000 4.12 260 15:31 22.02.2021
2259 Clear 16 1005 41 10000 4.63 240 14:49 22.02.2021
2260 Clear 16 1005 41 10000 4.63 240 14:30 22.02.2021
2261 Clear 16 1005 41 10000 6.17 230 13:51 22.02.2021
2262 Clear 17 1005 42 10000 6.69 230 13:29 22.02.2021
2263 Clear 17 1005 36 10000 8.75 220 12:45 22.02.2021
2264 Clear 17 1005 36 10000 8.75 220 12:22 22.02.2021
2265 Clear 18 1005 39 10000 8.75 210 11:48 22.02.2021
2266 Clear 18 1005 51 10000 8.75 210 11:28 22.02.2021
2267 Clear 18 1005 30 10000 8.75 190 10:50 22.02.2021
2268 Clear 19 1005 30 10000 8.75 190 10:32 22.02.2021
2269 Clear 19 1005 30 10000 7.72 210 09:57 22.02.2021
2270 Clear 19 1005 34 10000 8.75 210 09:36 22.02.2021
2271 Clear 19 1005 45 10000 5.14 190 09:18 22.02.2021
2272 Clear 21 1005 26 10000 6.17 190 08:40 22.02.2021
2273 Clear 21 1005 26 10000 6.17 190 08:19 22.02.2021
2274 Clear 21 1006 48 10000 5.14 180 07:28 22.02.2021
2275 Clear 21 1006 40 10000 4.12 200 06:47 22.02.2021
2276 Clear 21 1006 40 10000 4.12 200 06:24 22.02.2021
2277 Clear 16 1010 72 6000 1.54 130 03:49 22.02.2021
2278 Clear 15 1010 72 6000 1.54 130 03:20 22.02.2021
2279 Clear 12 1012 87 6000 0.51 0 00:53 22.02.2021
2280 Clear 11 1012 71 9000 1.03 0 00:28 22.02.2021
2281 Clear 10 1012 81 9000 0.51 0 23:50 21.02.2021
2282 Clear 9 1012 93 9000 1.54 150 22:55 21.02.2021
2283 Clear 10 1012 87 10000 1.03 120 22:25 21.02.2021
2284 Clear 10 1012 76 10000 0.51 0 21:51 21.02.2021
2285 Clear 10 1012 76 10000 1.03 0 21:32 21.02.2021
2286 Clear 10 1012 66 10000 1.03 250 20:55 21.02.2021
2287 Clear 10 1011 71 10000 1.54 320 20:22 21.02.2021
2288 Clear 10 1011 71 10000 2.06 310 19:59 21.02.2021
2289 Clear 10 1011 76 10000 3.6 300 19:39 21.02.2021
2290 Clear 11 1011 76 10000 3.6 300 19:21 21.02.2021
2291 Clear 11 1012 71 10000 3.09 280 18:28 21.02.2021
2292 Clear 11 1011 71 10000 2.57 290 17:57 21.02.2021
2293 Clear 12 1011 57 10000 2.88 343 17:25 21.02.2021
2294 Clear 12 1011 62 10000 2.57 270 16:53 21.02.2021
2295 Clear 12 1011 62 10000 2.57 270 16:31 21.02.2021
2296 Clear 13 1011 58 10000 2.57 270 15:43 21.02.2021
2297 Clear 13 1011 58 10000 2.57 270 15:19 21.02.2021
2298 Clear 14 1010 55 10000 3.6 240 14:40 21.02.2021
2299 Clear 14 1010 55 10000 3.6 240 14:19 21.02.2021
2300 Clear 15 1010 55 10000 5.14 210 13:43 21.02.2021
2301 Clear 15 1010 55 10000 5.14 210 13:22 21.02.2021
2302 Clear 16 1010 55 10000 6.17 200 12:29 21.02.2021
2303 Clear 16 1010 67 10000 6.69 160 11:43 21.02.2021
2304 Clear 16 1010 67 10000 7.2 150 10:58 21.02.2021
2305 Clear 17 1010 63 10000 7.2 160 10:23 21.02.2021
2306 Clear 17 1009 63 10000 8.23 160 09:55 21.02.2021
2307 Clear 18 1009 59 10000 8.23 170 09:29 21.02.2021
2308 Clear 19 1009 59 10000 5.14 180 08:54 21.02.2021
2309 Clear 19 1009 59 10000 5.14 180 08:20 21.02.2021
2310 Clear 20 1009 55 10000 4.63 180 07:35 21.02.2021
2311 Clear 20 1009 52 10000 3.6 170 06:53 21.02.2021
2312 Clear 18 1011 63 10000 2.06 130 03:36 21.02.2021
2313 Clear 15 1010 67 10000 2.06 130 02:29 21.02.2021
2314 Clouds 12 1010 76 10000 2.06 170 00:44 21.02.2021
2315 Clouds 11 1010 71 10000 3.6 220 00:19 21.02.2021
2316 Clouds 9 1010 66 10000 5.66 210 23:25 20.02.2021
2317 Clouds 8 1010 76 10000 4.12 200 22:46 20.02.2021
2318 Clear 9 1010 76 10000 5.14 170 22:27 20.02.2021
2319 Clear 9 1009 66 10000 3.6 180 21:45 20.02.2021
2320 Clear 9 1010 62 10000 2.06 150 21:26 20.02.2021
2321 Clear 10 1010 71 10000 1.54 140 20:48 20.02.2021
2322 Clear 10 1009 54 10000 1.54 270 20:24 20.02.2021
2323 Clear 10 1009 54 10000 2.57 290 19:52 20.02.2021
2324 Clear 10 1009 54 10000 3.6 330 19:31 20.02.2021
2325 Clear 11 1009 54 10000 4.63 250 18:45 20.02.2021
2326 Clear 11 1009 54 10000 4.63 250 18:24 20.02.2021
2327 Clear 12 1008 50 10000 8.23 230 17:41 20.02.2021
2328 Clear 11 1008 50 10000 8.23 230 17:22 20.02.2021
2329 Clear 12 1007 50 10000 7.2 230 16:43 20.02.2021
2330 Clear 12 1007 47 10000 7.72 230 16:22 20.02.2021
2331 Clear 12 1007 47 10000 7.2 230 15:37 20.02.2021
2332 Clear 13 1007 44 10000 8.75 230 14:49 20.02.2021
2333 Clear 13 1007 41 10000 8.23 230 14:24 20.02.2021
2334 Clear 13 1007 41 10000 8.23 230 13:51 20.02.2021
2335 Clear 13 1006 41 10000 5.66 230 13:27 20.02.2021
2336 Clear 13 1006 44 10000 8.75 230 12:52 20.02.2021
2337 Clear 14 1006 41 10000 9.26 230 12:32 20.02.2021
2338 Clear 14 1005 41 10000 8.75 230 11:48 20.02.2021
2339 Clear 14 1005 41 10000 11.83 230 11:30 20.02.2021
2340 Clear 14 1005 41 10000 10.8 230 10:50 20.02.2021
2341 Clear 15 1004 38 10000 10.8 220 10:21 20.02.2021
2342 Clear 15 1004 36 10000 11.83 220 09:41 20.02.2021
2343 Clear 16 1003 33 10000 5.66 230 08:51 20.02.2021
2344 Clear 17 1003 33 10000 5.66 230 08:23 20.02.2021
2345 Clear 15 1006 31 10000 6.17 250 04:37 20.02.2021
2346 Clear 11 1008 43 10000 1.54 0 02:32 20.02.2021
2347 Clear 9 1009 57 10000 1.54 0 01:55 20.02.2021
2348 Clear 6 1009 56 10000 1.03 0 00:55 20.02.2021
2349 Clouds 6 1009 61 10000 3.09 350 00:36 20.02.2021
2350 Clouds 4 1009 65 10000 1.03 0 23:27 19.02.2021
2351 Clouds 4 1009 70 10000 2.06 290 22:45 19.02.2021
2352 Clouds 4 1010 65 10000 2.06 280 22:20 19.02.2021
2353 Clouds 4 1010 60 10000 3.09 290 21:44 19.02.2021
2354 Clouds 4 1010 60 10000 3.09 290 21:23 19.02.2021
2355 Clouds 5 1009 56 10000 2.57 300 20:42 19.02.2021
2356 Clouds 5 1009 56 10000 2.57 300 20:24 19.02.2021
2357 Clouds 5 1009 60 10000 3.6 300 19:47 19.02.2021
2358 Clouds 5 1010 65 10000 3.09 300 19:20 19.02.2021
2359 Clouds 5 1010 60 10000 2.57 290 18:50 19.02.2021
2360 Clouds 5 1010 60 10000 5.14 260 18:26 19.02.2021
2361 Clouds 6 1011 57 10000 8.23 230 17:43 19.02.2021
2362 Clouds 7 1011 57 10000 7.72 240 16:44 19.02.2021
2363 Clouds 7 1011 57 10000 8.75 240 16:22 19.02.2021
2364 Clouds 7 1011 57 10000 8.23 240 15:55 19.02.2021
2365 Clouds 7 1011 53 10000 10.29 230 15:30 19.02.2021
2366 Clouds 8 1011 53 10000 7.72 230 14:52 19.02.2021
2367 Clouds 8 1012 46 10000 7.2 230 14:33 19.02.2021
2368 Clouds 8 1012 46 10000 5.66 200 13:56 19.02.2021
2369 Clouds 8 1012 61 10000 5.14 190 13:36 19.02.2021
2370 Clouds 8 1012 61 10000 5.14 190 13:36 19.02.2021
2371 Clouds 8 1012 61 10000 5.14 190 12:55 19.02.2021
2372 Clouds 9 1012 57 10000 5.14 180 12:36 19.02.2021
2373 Clouds 9 1012 57 10000 5.66 200 12:18 19.02.2021
2374 Clouds 9 1012 61 10000 7.2 180 11:35 19.02.2021
2375 Clouds 9 1012 61 10000 6.69 190 10:55 19.02.2021
2376 Clouds 9 1012 57 10000 7.72 190 10:34 19.02.2021
2377 Clouds 10 1012 57 10000 6.69 200 09:59 19.02.2021
2378 Clouds 10 1012 46 10000 6.17 190 09:29 19.02.2021
2379 Clouds 11 1012 46 10000 6.17 190 08:58 19.02.2021
2380 Clouds 11 1012 46 10000 6.17 190 08:40 19.02.2021
2381 Clouds 11 1012 46 10000 6.17 190 08:21 19.02.2021
2382 Clouds 11 1012 46 10000 6.17 190 08:21 19.02.2021
2383 Clouds 11 1012 43 10000 5.14 180 07:43 19.02.2021
2384 Clouds 11 1012 43 10000 5.14 180 07:25 19.02.2021
2385 Clouds 11 1012 40 10000 5.14 170 06:41 19.02.2021
2386 Clear 10 1013 27 10000 5.66 160 04:42 19.02.2021
2387 Clouds 9 1014 21 10000 4.63 280 02:50 19.02.2021
2388 Clouds 7 1014 24 10000 3.09 270 01:46 19.02.2021
2389 Clouds 5 1013 33 10000 3.6 290 00:36 19.02.2021
2390 Clouds 4 1013 35 10000 3.09 280 23:48 18.02.2021
2391 Clouds 3 1012 44 10000 3.09 270 23:30 18.02.2021
2392 Clouds 3 1012 44 10000 2.06 290 22:42 18.02.2021
2393 Clouds 3 1012 44 10000 2.06 290 22:24 18.02.2021
2394 Clear 3 1012 41 10000 3.6 300 21:42 18.02.2021
2395 Clear 3 1012 41 10000 3.6 300 21:24 18.02.2021
2396 Clear 3 1011 41 10000 2.57 290 20:40 18.02.2021
2397 Clear 3 1011 41 10000 2.57 290 20:21 18.02.2021
2398 Clear 3 1011 38 10000 2.57 290 19:46 18.02.2021
2399 Clear 3 1010 35 10000 5.66 320 19:22 18.02.2021
2400 Clear 4 1010 35 10000 6.69 330 18:51 18.02.2021
2401 Clear 3 1010 33 10000 6.69 320 18:27 18.02.2021
2402 Clear 3 1010 38 10000 5.14 310 17:52 18.02.2021
2403 Clear 3 1009 38 10000 3.6 290 17:25 18.02.2021
2404 Clear 3 1009 41 10000 4.12 300 16:52 18.02.2021
2405 Clear 3 1009 38 10000 5.14 320 16:33 18.02.2021
2406 Clear 4 1009 38 10000 4.63 320 15:44 18.02.2021
2407 Clear 4 1009 38 10000 4.63 320 15:24 18.02.2021
2408 Clear 4 1008 38 10000 7.2 330 14:58 18.02.2021
2409 Clouds 4 1008 41 10000 7.2 330 14:36 18.02.2021
2410 Clouds 5 1008 38 10000 8.23 330 13:50 18.02.2021
2411 Clouds 5 1007 36 10000 8.75 340 13:23 18.02.2021
2412 Clouds 5 1007 38 10000 8.75 340 12:57 18.02.2021
2413 Clouds 6 1006 36 10000 3.6 20 12:36 18.02.2021
2414 Clouds 6 1006 49 10000 6.69 10 12:18 18.02.2021
2415 Clouds 6 1006 49 10000 6.69 10 11:46 18.02.2021
2416 Rain 6 1006 38 10000 1.54 140 11:25 18.02.2021
2417 Clouds 6 1005 42 10000 3.6 150 10:44 18.02.2021
2418 Clouds 6 1005 42 10000 3.6 150 10:25 18.02.2021
2419 Clouds 7 1004 36 10000 5.14 200 09:39 18.02.2021
2420 Clouds 7 1003 36 10000 4.63 190 09:20 18.02.2021
2421 Clouds 7 1003 36 10000 4.63 190 08:39 18.02.2021
2422 Clouds 7 1003 36 10000 4.63 190 08:20 18.02.2021
2423 Clouds 7 1003 39 10000 5.14 180 07:31 18.02.2021
2424 Clouds 7 1002 31 10000 5.14 200 06:41 18.02.2021
2425 Clouds 7 1004 19 10000 3.6 260 02:29 18.02.2021
2426 Clouds 3 1004 32 10000 4.63 260 23:51 17.02.2021
2427 Clouds 2 1004 35 10000 5.14 260 23:22 17.02.2021
2428 Clouds 2 1003 37 10000 4.63 260 22:51 17.02.2021
2429 Clouds 2 1003 40 10000 5.14 260 22:26 17.02.2021
2430 Clouds 2 1003 37 10000 3.6 270 21:50 17.02.2021
2431 Clouds 2 1003 40 10000 3.6 260 21:22 17.02.2021
2432 Clouds 2 1003 40 10000 2.57 270 20:48 17.02.2021
2433 Clouds 2 1003 37 10000 3.6 280 20:29 17.02.2021
2434 Clouds 2 1002 37 10000 4.12 270 19:49 17.02.2021
2435 Clouds 2 1002 37 10000 3.6 290 19:31 17.02.2021
2436 Clouds 2 1002 35 10000 5.14 260 18:45 17.02.2021
2437 Clouds 2 1002 35 10000 6.69 270 18:25 17.02.2021
2438 Clouds 2 1001 32 10000 7.72 260 17:42 17.02.2021
2439 Clouds 2 1001 32 10000 7.72 260 17:20 17.02.2021
2440 Clouds 3 1001 30 10000 7.2 250 16:46 17.02.2021
2441 Clouds 3 1001 28 10000 7.2 250 16:27 17.02.2021
2442 Clouds 4 1000 28 10000 6.17 270 15:44 17.02.2021
2443 Clouds 4 1000 28 10000 6.17 270 15:26 17.02.2021
2444 Clouds 4 1000 28 10000 6.69 260 14:49 17.02.2021
2445 Clouds 4 1000 28 10000 7.2 270 14:29 17.02.2021
2446 Clouds 5 1000 24 10000 6.17 270 13:48 17.02.2021
2447 Clouds 5 1000 24 10000 6.17 270 13:30 17.02.2021
2448 Clouds 5 999 20 10000 7.72 260 12:49 17.02.2021
2449 Clouds 5 999 20 10000 7.72 270 12:24 17.02.2021
2450 Clouds 5 998 17 10000 6.17 290 11:45 17.02.2021
2451 Clouds 5 998 22 10000 8.75 310 11:25 17.02.2021
2452 Clouds 5 998 33 10000 7.2 330 10:49 17.02.2021
2453 Clouds 6 997 26 10000 8.23 310 10:31 17.02.2021
2454 Clouds 7 996 17 10000 6.69 300 09:56 17.02.2021
2455 Clouds 8 996 39 10000 5.66 310 09:36 17.02.2021
2456 Clouds 9 994 29 10000 4.12 10 08:45 17.02.2021
2457 Clouds 10 994 29 10000 4.12 10 08:23 17.02.2021
2458 Rain 11 993 30 10000 4.63 20 07:37 17.02.2021
2459 Clouds 12 992 32 10000 5.66 60 06:37 17.02.2021
2460 Clouds 13 995 28 10000 9.26 240 03:52 17.02.2021
2461 Clouds 12 996 28 10000 7.72 250 02:31 17.02.2021
2462 Clouds 11 997 37 10000 10.29 240 01:35 17.02.2021
2463 Clouds 9 997 37 10000 11.32 230 00:28 17.02.2021
2464 Clouds 8 998 43 10000 10.29 240 23:39 16.02.2021
2465 Clouds 8 998 46 10000 12.35 240 22:58 16.02.2021
2466 Clouds 8 998 49 10000 11.32 240 22:39 16.02.2021
2467 Clouds 8 998 49 10000 11.32 240 22:21 16.02.2021
2468 Clear 8 999 46 10000 11.32 240 21:39 16.02.2021
2469 Clear 8 999 46 10000 11.32 240 21:21 16.02.2021
2470 Clear 7 999 46 10000 11.83 240 20:56 16.02.2021
2471 Clear 7 999 42 10000 12.86 240 20:37 16.02.2021
2472 Clear 7 999 42 10000 11.32 240 20:18 16.02.2021
2473 Clear 8 1000 39 10000 10.29 240 19:39 16.02.2021
2474 Clear 8 1000 39 10000 10.29 240 19:19 16.02.2021
2475 Clear 8 1000 36 10000 7.72 240 18:37 16.02.2021
2476 Clear 7 1001 36 10000 7.72 250 18:18 16.02.2021
2477 Clear 8 1001 36 10000 7.72 250 17:47 16.02.2021
2478 Clear 8 1001 36 10000 9.26 250 17:23 16.02.2021
2479 Clear 8 1002 39 10000 10.8 240 16:45 16.02.2021
2480 Clear 8 1002 39 10000 10.29 240 16:22 16.02.2021
2481 Clear 8 1002 42 10000 9.77 230 15:43 16.02.2021
2482 Clear 8 1002 42 10000 9.77 230 15:25 16.02.2021
2483 Clear 8 1002 34 10000 7.72 230 14:44 16.02.2021
2484 Clear 9 1002 34 10000 8.75 240 14:25 16.02.2021
2485 Clear 9 1002 37 10000 9.77 250 13:48 16.02.2021
2486 Clear 9 1002 37 10000 9.26 250 13:25 16.02.2021
2487 Clear 10 1002 34 10000 8.75 230 12:43 16.02.2021
2488 Clouds 10 1002 32 10000 8.23 230 12:20 16.02.2021
2489 Clouds 10 1002 34 10000 8.23 230 11:48 16.02.2021
2490 Clouds 11 1001 20 10000 5.14 250 11:23 16.02.2021
2491 Clouds 11 1001 28 10000 6.17 260 10:51 16.02.2021
2492 Clouds 12 1000 32 10000 6.69 240 10:32 16.02.2021
2493 Clouds 12 1000 37 10000 8.23 230 09:56 16.02.2021
2494 Clouds 13 999 38 10000 9.77 230 09:36 16.02.2021
2495 Clouds 13 999 38 10000 4.63 230 09:18 16.02.2021
2496 Clouds 14 999 38 10000 4.63 230 08:39 16.02.2021
2497 Clouds 14 999 38 10000 4.63 230 08:18 16.02.2021
2498 Clouds 15 998 14 10000 9.26 290 07:20 16.02.2021
2499 Clouds 15 998 35 10000 3.6 30 04:39 16.02.2021
2500 Clouds 11 999 50 10000 2.06 70 00:45 16.02.2021
2501 Clouds 10 998 46 10000 6.69 230 23:32 15.02.2021
2502 Clouds 9 997 46 10000 3.09 250 22:59 15.02.2021
2503 Clouds 9 997 57 10000 1.03 0 22:41 15.02.2021
2504 Clouds 9 997 57 10000 1.03 0 22:20 15.02.2021
2505 Clear 10 996 47 10000 2.06 310 21:38 15.02.2021
2506 Clear 10 996 47 10000 2.06 310 21:20 15.02.2021
2507 Clear 10 995 54 10000 3.6 340 20:45 15.02.2021
2508 Clear 10 994 50 10000 8.23 250 20:25 15.02.2021
2509 Clear 11 993 54 10000 9.26 240 19:44 15.02.2021
2510 Clear 11 992 54 10000 10.8 240 19:23 15.02.2021
2511 Clear 11 992 54 10000 10.8 230 18:46 15.02.2021
2512 Clear 11 992 54 10000 9.26 230 18:26 15.02.2021
2513 Clouds 12 991 50 10000 8.75 230 17:42 15.02.2021
2514 Clouds 12 991 50 10000 8.75 230 17:24 15.02.2021
2515 Clouds 12 991 54 10000 8.23 230 16:55 15.02.2021
2516 Clear 12 990 58 10000 7.2 230 16:27 15.02.2021
2517 Clear 12 990 62 10000 8.23 240 15:51 15.02.2021
2518 Clouds 12 989 67 10000 8.23 240 15:23 15.02.2021
2519 Clouds 12 989 71 10000 7.72 260 14:59 15.02.2021
2520 Clouds 12 989 76 10000 5.66 250 14:36 15.02.2021
2521 Clouds 12 989 76 10000 5.66 250 14:18 15.02.2021
2522 Clouds 13 988 82 10000 1.54 180 13:45 15.02.2021
2523 Clouds 12 988 82 10000 1.54 180 13:19 15.02.2021
2524 Clouds 12 987 76 10000 1.03 0 12:44 15.02.2021
2525 Clouds 12 987 76 10000 1.03 0 12:20 15.02.2021
2526 Clouds 12 987 71 10000 1.03 0 11:42 15.02.2021
2527 Clouds 12 987 71 10000 1.03 0 11:19 15.02.2021
2528 Clouds 12 986 82 10000 3.09 230 10:47 15.02.2021
2529 Clouds 12 985 76 10000 5.66 310 10:24 15.02.2021
2530 Clouds 12 984 71 10000 6.17 280 09:55 15.02.2021
2531 Clouds 13 984 76 10000 8.23 300 09:33 15.02.2021
2532 Mist 12 982 94 5000 9.26 280 08:50 15.02.2021
2533 Clouds 13 980 94 8000 8.23 300 07:40 15.02.2021
2534 Clouds 13 980 94 8000 8.23 300 07:40 15.02.2021
2535 Rain 12 978 100 6000 8.23 300 06:59 15.02.2021
2536 Rain 12 981 94 10000 6.69 320 06:39 15.02.2021
2537 Rain 11 1000 100 3000 4.63 90 02:30 15.02.2021
2538 Rain 11 1004 88 10000 1.54 30 00:46 15.02.2021
2539 Rain 12 1005 94 10000 2.57 40 23:41 14.02.2021
2540 Rain 12 1005 94 10000 2.57 40 23:22 14.02.2021
2541 Rain 11 1007 94 10000 1.54 40 22:38 14.02.2021
2542 Clouds 12 1007 94 10000 1.54 40 22:19 14.02.2021
2543 Clouds 12 1008 94 10000 1.54 340 21:47 14.02.2021
2544 Rain 13 1009 94 10000 2.06 250 21:28 14.02.2021
2545 Rain 13 1010 94 10000 4.12 130 20:44 14.02.2021
2546 Rain 13 1010 94 10000 4.12 130 20:26 14.02.2021
2547 Rain 13 1008 76 10000 3.41 184 19:46 14.02.2021
2548 Rain 13 1012 87 10000 2.57 110 18:51 14.02.2021
2549 Rain 13 1012 87 10000 2.57 110 18:51 14.02.2021
2550 Clouds 13 1013 82 10000 2.06 140 18:29 14.02.2021
2551 Rain 13 1013 82 10000 4.12 140 17:56 14.02.2021
2552 Clouds 14 1012 67 10000 5 198 17:35 14.02.2021
2553 Rain 14 1011 69 10000 0.45 157 16:52 14.02.2021
2554 Rain 13 1015 71 10000 3.09 180 16:27 14.02.2021
2555 Clouds 13 1015 82 10000 2.57 180 15:49 14.02.2021
2556 Clouds 13 1015 82 10000 3.6 160 15:30 14.02.2021
2557 Clouds 14 1016 76 10000 4.12 170 14:48 14.02.2021
2558 Clouds 14 1017 82 10000 5.14 160 14:27 14.02.2021
2559 Clouds 14 1017 72 10000 4.12 180 13:49 14.02.2021
2560 Clouds 14 1017 72 10000 4.12 190 13:27 14.02.2021
2561 Clouds 14 1017 67 10000 5.14 190 12:38 14.02.2021
2562 Clouds 14 1017 72 10000 5.14 180 12:19 14.02.2021
2563 Clouds 15 1017 72 10000 5.14 180 11:49 14.02.2021
2564 Clouds 15 1018 63 10000 5.14 190 11:21 14.02.2021
2565 Clouds 15 1018 63 10000 5.66 180 10:37 14.02.2021
2566 Clouds 16 1018 59 10000 5.14 190 09:55 14.02.2021
2567 Clouds 16 1018 55 10000 6.17 190 09:37 14.02.2021
2568 Clouds 16 1018 63 10000 5.14 190 09:19 14.02.2021
2569 Clouds 16 1018 63 10000 5.14 190 08:35 14.02.2021
2570 Clouds 17 1019 59 10000 6.17 180 07:55 14.02.2021
2571 Clouds 18 1018 48 10000 5.66 190 06:49 14.02.2021
2572 Clouds 16 1020 67 10000 2.06 140 05:37 14.02.2021
2573 Clouds 14 1022 54 10000 1.54 0 03:23 14.02.2021
2574 Clouds 11 1023 54 10000 1.03 0 01:54 14.02.2021
2575 Clouds 9 1023 62 10000 3.09 20 00:47 14.02.2021
2576 Clouds 9 1023 62 10000 3.09 20 00:18 14.02.2021
2577 Clouds 9 1023 66 10000 2.57 20 23:40 13.02.2021
2578 Clouds 9 1023 66 10000 2.57 20 23:20 13.02.2021
2579 Clouds 9 1022 66 10000 2.06 30 22:34 13.02.2021
2580 Clouds 9 1023 66 10000 3.6 10 21:59 13.02.2021
2581 Clouds 9 1023 66 10000 3.6 20 21:40 13.02.2021
2582 Clouds 9 1023 71 10000 3.09 10 20:53 13.02.2021
2583 Clouds 9 1023 76 10000 2.57 10 20:28 13.02.2021
2584 Clouds 9 1023 81 10000 3.09 360 19:51 13.02.2021
2585 Clouds 9 1023 76 10000 1.54 360 19:25 13.02.2021
2586 Clouds 9 1023 81 10000 2.06 310 18:54 13.02.2021
2587 Clouds 9 1023 76 10000 2.06 300 18:34 13.02.2021
2588 Clouds 10 1024 82 10000 2.57 260 17:55 13.02.2021
2589 Clouds 10 1024 82 10000 4.63 150 17:36 13.02.2021
2590 Clouds 10 1024 81 10000 4.63 150 17:18 13.02.2021
2591 Clouds 10 1024 87 10000 4.63 150 16:42 13.02.2021
2592 Clouds 11 1024 71 10000 5.14 170 15:58 13.02.2021
2593 Clouds 11 1024 71 10000 5.66 170 15:27 13.02.2021
2594 Clouds 12 1024 71 10000 6.69 170 14:50 13.02.2021
2595 Clouds 12 1024 67 10000 6.17 180 14:30 13.02.2021
2596 Clouds 12 1025 71 10000 6.69 170 13:44 13.02.2021
2597 Clouds 12 1025 71 10000 6.69 170 13:24 13.02.2021
2598 Clouds 12 1025 66 10000 5.66 170 12:41 13.02.2021
2599 Clouds 12 1025 66 10000 5.66 170 12:18 13.02.2021
2600 Clouds 13 1025 66 10000 4.63 180 11:41 13.02.2021
2601 Clouds 13 1025 66 10000 4.63 180 11:19 13.02.2021
2602 Clouds 13 1025 62 10000 5.14 190 10:44 13.02.2021
2603 Clouds 13 1025 62 10000 5.14 190 10:24 13.02.2021
2604 Clouds 14 1025 58 10000 5.66 190 09:53 13.02.2021
2605 Clouds 14 1025 58 10000 6.17 180 09:30 13.02.2021
2606 Clouds 15 1025 62 10000 5.14 190 08:54 13.02.2021
2607 Clouds 15 1025 62 10000 5.14 190 08:31 13.02.2021
2608 Clouds 15 1025 62 10000 3.6 160 07:46 13.02.2021
2609 Clouds 15 1025 58 10000 3.09 140 06:37 13.02.2021
2610 Clouds 13 1026 58 10000 2.06 130 05:20 13.02.2021
2611 Clouds 11 1028 54 10000 1.54 130 03:58 13.02.2021
2612 Clouds 9 1029 53 10000 2.06 20 01:33 13.02.2021
2613 Clouds 8 1029 66 10000 1.54 30 00:36 13.02.2021
2614 Clouds 7 1029 66 10000 1.54 360 23:53 12.02.2021
2615 Clouds 7 1029 70 10000 2.57 20 23:20 12.02.2021
2616 Clouds 7 1029 71 10000 2.57 330 22:42 12.02.2021
2617 Clouds 7 1029 71 10000 2.57 330 22:21 12.02.2021
2618 Clouds 7 1028 76 10000 3.6 10 21:45 12.02.2021
2619 Clouds 7 1028 76 10000 3.6 10 21:26 12.02.2021
2620 Clouds 7 1028 71 10000 3.09 20 20:46 12.02.2021
2621 Clouds 8 1028 66 10000 2.57 10 20:27 12.02.2021
2622 Clouds 8 1028 66 10000 3.6 10 19:57 12.02.2021
2623 Clouds 8 1028 66 10000 2.57 10 19:37 12.02.2021
2624 Clouds 9 1029 66 10000 3.09 10 18:55 12.02.2021
2625 Clouds 9 1029 66 10000 3.09 360 18:29 12.02.2021
2626 Clouds 9 1028 66 10000 3.09 40 17:44 12.02.2021
2627 Clouds 8 1029 66 10000 3.09 40 17:21 12.02.2021
2628 Clouds 8 1029 71 10000 4.12 60 16:27 12.02.2021
2629 Clouds 9 1029 71 10000 3.6 60 15:46 12.02.2021
2630 Clouds 9 1029 71 10000 4.12 60 15:21 12.02.2021
2631 Clouds 9 1029 71 10000 4.12 60 15:21 12.02.2021
2632 Clouds 9 1029 76 10000 5.14 70 14:42 12.02.2021
2633 Clouds 9 1029 76 10000 5.14 70 14:23 12.02.2021
2634 Clouds 9 1029 71 10000 4.63 70 13:40 12.02.2021
2635 Rain 9 1029 76 10000 5.66 70 12:56 12.02.2021
2636 Clouds 9 1029 71 10000 5.14 100 12:37 12.02.2021
2637 Rain 10 1029 71 10000 4.63 100 12:18 12.02.2021
2638 Clouds 10 1028 71 10000 5.14 100 11:38 12.02.2021
2639 Clouds 10 1028 71 10000 5.14 100 11:19 12.02.2021
2640 Clear 10 1028 71 10000 4.63 100 10:41 12.02.2021
2641 Clear 11 1027 62 10000 2.57 70 09:49 12.02.2021
2642 Clouds 11 1027 50 10000 1.54 280 09:25 12.02.2021
2643 Clouds 11 1027 50 10000 1.54 280 08:49 12.02.2021
2644 Clouds 12 1027 50 10000 1.54 280 08:28 12.02.2021
2645 Clouds 12 1026 46 10000 1.03 0 07:57 12.02.2021
2646 Clouds 12 1026 46 10000 1.03 0 07:32 12.02.2021
2647 Clouds 12 1026 47 10000 1.54 90 06:55 12.02.2021
2648 Clouds 12 1026 47 10000 1.54 90 06:55 12.02.2021
2649 Clouds 12 1026 47 10000 1.54 90 06:55 12.02.2021
2650 Clouds 11 1026 53 10000 2.57 90 05:47 12.02.2021
2651 Clouds 10 1027 50 10000 2.06 60 04:31 12.02.2021
2652 Clouds 7 1028 49 10000 2.57 300 01:35 12.02.2021
2653 Clear 5 1026 56 10000 3.6 10 23:41 11.02.2021
2654 Clear 5 1026 56 10000 3.6 10 23:22 11.02.2021
2655 Clear 5 1026 57 10000 4.63 20 22:57 11.02.2021
2656 Clear 5 1025 57 10000 3.6 10 22:38 11.02.2021
2657 Clear 6 1025 57 10000 3.6 10 22:20 11.02.2021
2658 Clear 6 1025 53 10000 4.12 10 21:38 11.02.2021
2659 Clear 6 1024 53 10000 2.57 350 21:19 11.02.2021
2660 Clear 6 1024 53 10000 3.6 350 20:42 11.02.2021
2661 Clear 6 1024 53 10000 3.6 350 20:22 11.02.2021
2662 Clear 6 1024 57 10000 4.12 20 19:48 11.02.2021
2663 Clear 6 1024 61 10000 3.6 40 19:29 11.02.2021
2664 Clear 6 1024 53 10000 3.6 30 18:53 11.02.2021
2665 Clear 7 1023 49 10000 2.57 40 18:29 11.02.2021
2666 Clear 7 1024 53 10000 3.09 50 17:54 11.02.2021
2667 Clear 8 1023 46 10000 3.09 340 17:22 11.02.2021
2668 Clear 8 1023 46 10000 3.09 340 17:22 11.02.2021
2669 Clear 8 1023 46 10000 3.6 350 16:58 11.02.2021
2670 Clear 8 1023 49 10000 4.12 340 16:40 11.02.2021
2671 Clear 8 1023 49 10000 4.12 340 16:21 11.02.2021
2672 Clear 8 1023 49 10000 5.14 350 15:42 11.02.2021
2673 Clear 8 1023 49 10000 5.14 350 15:24 11.02.2021
2674 Clear 8 1023 49 10000 5.14 350 14:47 11.02.2021
2675 Clear 8 1023 49 10000 5.14 350 14:28 11.02.2021
2676 Clear 9 1022 49 10000 6.17 350 13:41 11.02.2021
2677 Clear 9 1022 49 10000 6.17 350 13:19 11.02.2021
2678 Clear 9 1022 46 10000 5.66 350 12:51 11.02.2021
2679 Clear 9 1022 43 10000 5.14 330 12:26 11.02.2021
2680 Clear 9 1022 40 10000 6.17 320 11:46 11.02.2021
2681 Clear 9 1022 37 10000 6.69 330 11:22 11.02.2021
2682 Clouds 10 1022 37 10000 6.69 320 10:45 11.02.2021
2683 Clear 10 1021 32 10000 7.72 300 10:26 11.02.2021
2684 Clouds 10 1020 34 10000 5.14 330 09:53 11.02.2021
2685 Clear 11 1019 32 10000 6.69 330 09:22 11.02.2021
2686 Clouds 12 1019 30 10000 7.72 360 08:53 11.02.2021
2687 Clear 13 1018 28 10000 6.17 320 08:24 11.02.2021
2688 Clear 13 1018 28 10000 5.66 320 07:38 11.02.2021
2689 Clear 13 1018 28 10000 8.75 310 06:41 11.02.2021
2690 Clouds 13 1018 28 10000 6.17 320 05:33 11.02.2021
2691 Clouds 10 1020 37 10000 4.63 310 02:29 11.02.2021
2692 Clear 9 1020 40 10000 5.66 300 01:29 11.02.2021
2693 Clouds 8 1019 49 10000 9.77 340 00:22 11.02.2021
2694 Clouds 8 1018 40 10000 11.83 340 23:45 10.02.2021
2695 Clouds 6 1017 43 10000 8.75 340 22:53 10.02.2021
2696 Clouds 6 1017 49 10000 4.12 340 22:31 10.02.2021
2697 Clear 5 1016 52 10000 4.63 330 21:59 10.02.2021
2698 Clear 6 1016 52 10000 6.17 330 21:38 10.02.2021
2699 Clear 5 1016 52 10000 6.17 330 21:19 10.02.2021
2700 Clear 5 1016 49 10000 4.63 330 20:42 10.02.2021
2701 Clear 6 1016 49 10000 4.63 330 20:24 10.02.2021
2702 Clouds 6 1015 57 10000 4.63 360 19:47 10.02.2021
2703 Clouds 6 1015 66 10000 4.12 10 19:26 10.02.2021
2704 Clouds 5 1015 75 10000 4.12 330 18:47 10.02.2021
2705 Clouds 5 1015 75 10000 4.12 330 18:24 10.02.2021
2706 Clouds 5 1015 70 10000 3.09 290 17:57 10.02.2021
2707 Clouds 6 1015 75 10000 2.57 270 17:24 10.02.2021
2708 Clouds 6 1015 70 10000 2.57 260 16:57 10.02.2021
2709 Clouds 6 1015 75 10000 1.54 290 16:37 10.02.2021
2710 Clouds 8 1015 75 10000 1.54 290 16:19 10.02.2021
2711 Clouds 7 1015 70 10000 2.57 300 15:24 10.02.2021
2712 Clouds 8 1015 70 10000 2.57 300 15:24 10.02.2021
2713 Clouds 7 1015 70 10000 2.57 290 14:52 10.02.2021
2714 Clouds 8 1015 71 10000 1.54 270 14:34 10.02.2021
2715 Clouds 8 1015 66 10000 1.03 0 13:53 10.02.2021
2716 Clouds 8 1015 61 10000 1.03 0 13:30 10.02.2021
2717 Clouds 8 1015 61 10000 1.03 0 12:53 10.02.2021
2718 Clouds 8 1015 61 10000 2.06 220 12:30 10.02.2021
2719 Clouds 8 1016 66 10000 1.03 0 11:57 10.02.2021
2720 Clouds 9 1016 62 10000 3.09 190 11:39 10.02.2021
2721 Clouds 9 1016 62 10000 3.09 190 11:20 10.02.2021
2722 Clouds 10 1015 57 10000 4.12 180 10:24 10.02.2021
2723 Clouds 10 1015 57 10000 3.6 190 09:56 10.02.2021
2724 Clouds 10 1015 53 10000 3.6 170 09:32 10.02.2021
2725 Clouds 10 1015 53 10000 3.6 170 08:56 10.02.2021
2726 Clouds 10 1015 53 10000 3.6 170 08:35 10.02.2021
2727 Clouds 11 1016 50 10000 4.12 160 07:39 10.02.2021
2728 Clouds 11 1016 40 10000 4.12 150 06:22 10.02.2021
2729 Clouds 7 1019 33 10000 3.6 290 01:56 10.02.2021
2730 Clouds 5 1019 38 10000 3.09 310 00:23 10.02.2021
2731 Clouds 5 1019 38 10000 3.09 310 00:23 10.02.2021
2732 Clouds 4 1019 44 10000 4.12 300 23:34 09.02.2021
2733 Clouds 4 1019 38 10000 3.6 310 22:53 09.02.2021
2734 Clear 4 1018 38 10000 5.14 320 22:24 09.02.2021
2735 Clouds 4 1018 38 10000 4.12 320 21:52 09.02.2021
2736 Clouds 4 1018 38 10000 5.14 320 21:27 09.02.2021
2737 Clouds 4 1018 38 10000 5.14 320 20:49 09.02.2021
2738 Clouds 4 1018 38 10000 5.66 340 20:26 09.02.2021
2739 Clouds 4 1018 36 10000 5.14 340 19:58 09.02.2021
2740 Clouds 3 1018 41 10000 4.12 320 19:35 09.02.2021
2741 Clouds 4 1018 42 10000 5.66 340 18:58 09.02.2021
2742 Clouds 4 1018 42 10000 5.66 340 18:58 09.02.2021
2743 Clouds 4 1018 42 10000 5.66 340 18:58 09.02.2021
2744 Clouds 4 1018 42 10000 5.66 340 18:58 09.02.2021
2745 Clouds 4 1018 42 10000 6.69 350 18:36 09.02.2021
2746 Clouds 4 1019 42 10000 5.66 340 17:57 09.02.2021
2747 Clouds 4 1019 41 10000 5.14 330 17:37 09.02.2021
2748 Clouds 3 1019 44 10000 4.63 340 17:18 09.02.2021
2749 Clouds 3 1018 45 10000 5.66 350 16:41 09.02.2021
2750 Clouds 4 1018 45 10000 5.66 350 16:18 09.02.2021
2751 Clouds 4 1018 45 10000 6.17 350 15:48 09.02.2021
2752 Clouds 4 1018 38 10000 5.14 340 15:25 09.02.2021
2753 Clouds 4 1018 42 10000 6.17 350 14:53 09.02.2021
2754 Clouds 4 1018 42 10000 5.66 350 14:27 09.02.2021
2755 Clouds 5 1018 42 10000 5.66 340 13:51 09.02.2021
2756 Clouds 5 1018 39 10000 5.66 350 13:25 09.02.2021
2757 Clouds 5 1018 42 10000 6.69 350 12:51 09.02.2021
2758 Clouds 6 1018 39 10000 6.69 350 12:32 09.02.2021
2759 Clouds 6 1018 33 10000 5.14 340 11:56 09.02.2021
2760 Clouds 6 1018 36 10000 5.14 340 11:38 09.02.2021
2761 Clouds 6 1018 36 10000 4.12 190 11:20 09.02.2021
2762 Clouds 7 1018 36 10000 4.12 190 10:49 09.02.2021
2763 Clouds 7 1017 33 10000 4.12 200 10:18 09.02.2021
2764 Clouds 7 1017 29 10000 5.14 180 09:43 09.02.2021
2765 Clouds 7 1016 25 10000 4.12 170 09:24 09.02.2021
2766 Clouds 8 1016 25 10000 4.12 170 08:44 09.02.2021
2767 Clouds 8 1016 25 10000 4.12 170 08:25 09.02.2021
2768 Clouds 9 1016 17 10000 5.14 310 06:20 09.02.2021
2769 Clouds 7 1018 21 10000 5.66 300 04:18 09.02.2021
2770 Clouds 7 1018 21 10000 5.66 300 03:34 09.02.2021
2771 Clouds 3 1018 26 10000 7.72 330 00:34 09.02.2021
2772 Clouds 3 1018 30 10000 7.72 330 23:57 08.02.2021
2773 Clouds 2 1017 35 10000 7.72 330 23:21 08.02.2021
2774 Clouds 2 1016 32 10000 9.26 340 22:44 08.02.2021
2775 Clouds 2 1016 32 10000 9.26 340 22:25 08.02.2021
2776 Clouds 2 1015 38 10000 11.32 340 21:57 08.02.2021
2777 Clouds 2 1015 38 10000 10.29 340 21:33 08.02.2021
2778 Clouds 2 1015 41 10000 10.8 340 20:59 08.02.2021
2779 Clouds 2 1014 41 10000 11.32 340 20:39 08.02.2021
2780 Clouds 2 1014 41 10000 11.32 340 20:21 08.02.2021
2781 Clouds 2 1014 41 10000 11.32 330 19:44 08.02.2021
2782 Clouds 2 1014 41 10000 11.32 330 19:25 08.02.2021
2783 Clouds 2 1013 41 10000 11.32 340 18:49 08.02.2021
2784 Clear 3 1014 41 10000 9.77 330 18:24 08.02.2021
2785 Clouds 3 1013 41 10000 10.29 330 17:47 08.02.2021
2786 Clouds 3 1013 41 10000 9.26 330 17:26 08.02.2021
2787 Clear 3 1013 44 10000 9.77 330 16:47 08.02.2021
2788 Clouds 3 1012 44 10000 10.29 330 16:23 08.02.2021
2789 Clouds 3 1012 45 10000 9.77 340 15:49 08.02.2021
2790 Clouds 4 1012 41 10000 9.77 340 15:21 08.02.2021
2791 Clouds 4 1012 41 10000 10.29 330 14:59 08.02.2021
2792 Clouds 4 1012 36 10000 10.8 340 14:41 08.02.2021
2793 Clouds 4 1012 38 10000 11.83 340 14:22 08.02.2021
2794 Clouds 5 1011 33 10000 8.75 350 13:42 08.02.2021
2795 Clouds 5 1011 33 10000 8.75 350 13:23 08.02.2021
2796 Rain 6 1010 31 10000 6.69 340 12:38 08.02.2021
2797 Rain 6 1010 33 10000 8.23 350 11:58 08.02.2021
2798 Clouds 6 1010 33 10000 7.72 350 11:26 08.02.2021
2799 Clouds 6 1009 39 10000 6.69 10 10:46 08.02.2021
2800 Clouds 7 1009 39 10000 6.69 10 10:25 08.02.2021
2801 Clouds 7 1009 34 10000 6.69 10 09:55 08.02.2021
2802 Rain 7 1009 39 10000 7.72 350 09:36 08.02.2021
2803 Clouds 8 1009 29 10000 2.57 360 08:54 08.02.2021
2804 Clouds 9 1009 29 10000 2.57 360 08:24 08.02.2021
2805 Clouds 9 1009 29 10000 2.57 350 07:40 08.02.2021
2806 Clouds 10 1009 37 10000 3.6 30 06:33 08.02.2021
2807 Clouds 8 1010 34 10000 3.6 10 04:56 08.02.2021
2808 Clouds 7 1011 42 10000 3.6 10 02:26 08.02.2021
2809 Clouds 6 1011 45 10000 7.2 350 00:25 08.02.2021
2810 Clouds 6 1011 49 10000 6.17 350 23:53 07.02.2021
2811 Clouds 6 1011 49 10000 5.66 350 23:28 07.02.2021
2812 Clouds 5 1010 49 10000 4.63 350 22:57 07.02.2021
2813 Clouds 5 1010 49 10000 4.12 350 22:38 07.02.2021
2814 Clouds 6 1010 49 10000 4.12 350 22:20 07.02.2021
2815 Clouds 5 1010 52 10000 1.54 20 21:49 07.02.2021
2816 Clouds 6 1010 52 10000 0.51 0 21:24 07.02.2021
2817 Clouds 6 1010 52 10000 0.51 0 21:24 07.02.2021
2818 Clear 6 1010 56 10000 1.03 0 20:50 07.02.2021
2819 Clear 6 1010 57 10000 4.12 30 20:29 07.02.2021
2820 Clear 6 1010 57 10000 3.6 20 19:49 07.02.2021
2821 Clear 6 1010 53 10000 3.6 30 19:29 07.02.2021
2822 Clear 6 1010 53 10000 5.66 360 18:48 07.02.2021
2823 Clear 6 1011 53 10000 6.69 350 18:27 07.02.2021
2824 Clear 7 1011 49 10000 8.23 350 17:58 07.02.2021
2825 Clear 7 1011 53 10000 7.2 360 17:39 07.02.2021
2826 Clear 7 1011 57 10000 7.72 350 17:18 07.02.2021
2827 Clear 7 1011 46 10000 10.29 340 16:42 07.02.2021
2828 Clear 8 1011 46 10000 10.29 340 16:21 07.02.2021
2829 Clouds 8 1011 46 10000 10.29 340 15:44 07.02.2021
2830 Clouds 8 1011 46 10000 10.29 340 15:22 07.02.2021
2831 Clouds 8 1011 49 10000 8.23 340 14:46 07.02.2021
2832 Clouds 8 1011 49 10000 6.17 340 14:27 07.02.2021
2833 Clouds 9 1010 50 10000 8.75 350 13:52 07.02.2021
2834 Clouds 9 1011 43 10000 8.75 340 13:33 07.02.2021
2835 Clouds 10 1010 46 10000 7.72 340 12:44 07.02.2021
2836 Clouds 10 1010 46 10000 7.72 340 12:22 07.02.2021
2837 Clouds 10 1010 50 10000 7.2 350 11:49 07.02.2021
2838 Clouds 11 1010 50 10000 7.72 360 11:27 07.02.2021
2839 Clouds 12 1009 47 10000 8.23 10 10:49 07.02.2021
2840 Clouds 12 1009 47 10000 8.23 10 10:49 07.02.2021
2841 Clouds 12 1009 82 10000 2.57 50 10:25 07.02.2021
2842 Clear 14 1006 39 10000 3.13 334 09:48 07.02.2021
2843 Clouds 14 1007 54 10000 3.09 190 09:21 07.02.2021
2844 Clouds 14 1007 54 10000 3.09 190 09:21 07.02.2021
2845 Clouds 15 1007 54 10000 3.09 190 08:26 07.02.2021
2846 Clouds 16 1007 36 10000 4.12 190 07:32 07.02.2021
2847 Clear 16 1007 31 10000 4.63 190 05:57 07.02.2021
2848 Clear 14 1009 62 10000 4.12 150 03:52 07.02.2021
2849 Clear 11 1011 40 10000 0.51 0 01:37 07.02.2021
2850 Clear 9 1012 61 10000 2.06 280 00:35 07.02.2021
2851 Clear 7 1012 65 10000 1.54 280 23:46 06.02.2021
2852 Clear 7 1011 65 10000 3.09 290 22:42 06.02.2021
2853 Clear 7 1010 65 10000 3.09 300 21:43 06.02.2021
2854 Clear 7 1010 65 10000 3.09 300 21:23 06.02.2021
2855 Clear 7 1010 65 10000 3.6 300 20:52 06.02.2021
2856 Clear 7 1010 65 10000 2.06 290 20:26 06.02.2021
2857 Clear 7 1010 65 10000 3.09 300 19:57 06.02.2021
2858 Clear 7 1010 65 10000 3.6 280 19:34 06.02.2021
2859 Clear 8 1010 61 10000 2.06 280 18:54 06.02.2021
2860 Clear 7 1010 61 10000 2.06 310 18:34 06.02.2021
2861 Clear 8 1010 61 10000 3.09 350 17:56 06.02.2021
2862 Clear 8 1010 61 10000 4.12 340 17:38 06.02.2021
2863 Clear 8 1010 61 10000 4.12 340 17:19 06.02.2021
2864 Clear 9 1010 57 10000 4.63 340 16:42 06.02.2021
2865 Clear 9 1010 57 10000 4.63 340 16:24 06.02.2021
2866 Clear 9 1010 57 10000 4.63 330 15:48 06.02.2021
2867 Clear 9 1010 71 10000 2.57 360 15:26 06.02.2021
2868 Clear 9 1010 76 10000 2.06 10 14:46 06.02.2021
2869 Clear 9 1010 76 10000 2.06 360 14:28 06.02.2021
2870 Clear 10 1010 76 10000 2.57 10 13:53 06.02.2021
2871 Clear 10 1010 71 10000 2.06 30 13:34 06.02.2021
2872 Clear 10 1010 71 10000 1.54 20 12:23 06.02.2021
2873 Clear 11 1010 71 10000 1.03 0 11:58 06.02.2021
2874 Clear 11 1010 71 10000 1.54 80 11:39 06.02.2021
2875 Clear 11 1010 71 10000 1.54 80 11:19 06.02.2021
2876 Clear 11 1010 76 10000 1.54 30 10:47 06.02.2021
2877 Clear 12 1010 76 10000 1.54 30 10:25 06.02.2021
2878 Clear 13 1010 66 10000 1.03 60 09:38 06.02.2021
2879 Clouds 13 1010 47 10000 1.03 0 09:18 06.02.2021
2880 Clouds 13 1010 47 10000 1.03 0 08:56 06.02.2021
2881 Clouds 13 1010 47 10000 1.03 0 08:29 06.02.2021
2882 Clouds 14 1011 58 10000 2.06 130 06:50 06.02.2021
2883 Clouds 13 1011 62 10000 3.09 130 05:39 06.02.2021
2884 Clouds 10 1014 46 10000 2.57 60 02:44 06.02.2021
2885 Clouds 7 1015 46 10000 1.54 330 00:56 06.02.2021
2886 Clouds 6 1015 57 10000 1.03 0 00:37 06.02.2021
2887 Clouds 5 1015 56 10000 1.54 350 00:18 06.02.2021
2888 Clouds 5 1015 60 10000 2.06 10 23:30 05.02.2021
2889 Clouds 5 1015 61 10000 2.57 30 22:51 05.02.2021
2890 Rain 6 1015 57 10000 4.63 340 22:25 05.02.2021
2891 Clouds 5 1015 70 10000 1.54 310 21:57 05.02.2021
2892 Clouds 5 1015 65 10000 4.12 320 21:37 05.02.2021
2893 Clouds 6 1015 70 10000 3.6 340 20:56 05.02.2021
2894 Clouds 6 1015 75 10000 5.14 340 20:34 05.02.2021
2895 Clouds 5 1015 81 10000 3.09 300 19:46 05.02.2021
2896 Clouds 6 1014 81 10000 3.09 310 19:18 05.02.2021
2897 Clouds 7 1015 76 10000 3.09 310 18:43 05.02.2021
2898 Clouds 7 1015 76 10000 2.57 300 18:19 05.02.2021
2899 Clouds 7 1015 81 10000 1.03 340 17:42 05.02.2021
2900 Clouds 7 1015 81 10000 1.03 340 17:20 05.02.2021
2901 Clouds 8 1016 81 10000 1.03 110 16:43 05.02.2021
2902 Clouds 8 1016 81 10000 1.03 110 16:21 05.02.2021
2903 Clouds 8 1016 81 10000 2.06 120 15:50 05.02.2021
2904 Clouds 8 1016 87 10000 2.57 100 15:23 05.02.2021
2905 Clouds 8 1016 81 10000 3.09 80 14:40 05.02.2021
2906 Clouds 8 1016 81 10000 3.09 80 14:21 05.02.2021
2907 Clouds 9 1016 81 10000 2.57 90 13:53 05.02.2021
2908 Clouds 9 1017 81 10000 3.09 100 13:33 05.02.2021
2909 Clouds 9 1017 76 10000 4.12 120 12:46 05.02.2021
2910 Clouds 9 1017 76 10000 4.12 120 12:25 05.02.2021
2911 Clouds 9 1017 71 10000 4.12 130 11:40 05.02.2021
2912 Clouds 9 1017 71 10000 4.12 130 11:21 05.02.2021
2913 Clouds 9 1017 71 10000 4.63 140 10:54 05.02.2021
2914 Clouds 10 1017 66 10000 4.63 140 10:26 05.02.2021
2915 Clouds 10 1017 50 10000 6.17 200 09:45 05.02.2021
2916 Clouds 10 1017 62 10000 3.6 120 09:26 05.02.2021
2917 Clouds 11 1017 62 10000 3.6 120 08:51 05.02.2021
2918 Clouds 11 1017 57 10000 3.6 120 07:53 05.02.2021
2919 Clouds 12 1017 43 10000 3.6 170 07:34 05.02.2021
2920 Clouds 11 1017 46 10000 2.57 130 06:48 05.02.2021
2921 Clouds 10 1018 42 10000 3.09 130 05:36 05.02.2021
2922 Clouds 8 1020 34 10000 3.09 300 02:52 05.02.2021
2923 Clouds 7 1020 34 10000 3.09 300 02:24 05.02.2021
2924 Clouds 6 1020 49 10000 8.23 360 00:39 05.02.2021
2925 Clouds 5 1020 49 10000 8.23 360 00:19 05.02.2021
2926 Clouds 5 1020 45 10000 7.72 340 23:55 04.02.2021
2927 Clouds 5 1019 52 10000 7.72 350 23:36 04.02.2021
2928 Clouds 5 1019 48 10000 8.23 350 23:18 04.02.2021
2929 Clouds 5 1019 48 10000 8.23 350 22:46 04.02.2021
2930 Clouds 5 1019 48 10000 8.23 350 22:25 04.02.2021
2931 Clear 5 1018 48 10000 6.69 330 21:42 04.02.2021
2932 Clear 5 1018 48 10000 6.69 330 21:19 04.02.2021
2933 Clear 5 1017 45 10000 5.66 320 20:46 04.02.2021
2934 Clouds 5 1017 48 10000 4.63 320 20:28 04.02.2021
2935 Clouds 4 1017 48 10000 4.63 320 19:42 04.02.2021
2936 Clouds 4 1017 48 10000 3.6 320 18:56 04.02.2021
2937 Clouds 4 1017 48 10000 3.6 310 18:25 04.02.2021
2938 Clouds 4 1016 45 10000 2.57 310 17:53 04.02.2021
2939 Clouds 5 1016 45 10000 3.6 330 17:26 04.02.2021
2940 Clouds 5 1016 42 10000 4.63 340 16:56 04.02.2021
2941 Clouds 5 1016 45 10000 5.66 350 16:38 04.02.2021
2942 Clouds 5 1016 45 10000 5.66 350 16:18 04.02.2021
2943 Clouds 6 1015 42 10000 5.14 330 15:39 04.02.2021
2944 Clouds 5 1015 42 10000 5.14 330 15:20 04.02.2021
2945 Clouds 6 1015 39 10000 6.17 340 14:47 04.02.2021
2946 Clouds 6 1015 39 10000 6.17 340 14:20 04.02.2021
2947 Clouds 6 1015 42 10000 6.17 330 13:45 04.02.2021
2948 Clouds 7 1015 42 10000 5.66 360 13:26 04.02.2021
2949 Clouds 7 1014 46 10000 6.69 10 12:54 04.02.2021
2950 Clouds 8 1013 46 10000 5.14 30 11:57 04.02.2021
2951 Clouds 8 1013 40 10000 4.63 360 11:37 04.02.2021
2952 Clouds 8 1012 37 10000 5.66 340 11:18 04.02.2021
2953 Clouds 9 1012 29 10000 4.63 300 10:35 04.02.2021
2954 Clouds 11 1011 28 10000 6.17 330 09:46 04.02.2021
2955 Clouds 11 1009 35 10000 1.54 240 09:23 04.02.2021
2956 Clouds 12 1009 35 10000 1.54 240 08:57 04.02.2021
2957 Clouds 13 1009 35 10000 1.54 240 08:26 04.02.2021
2958 Clouds 13 1009 41 10000 4.12 230 07:57 04.02.2021
2959 Clouds 13 1009 41 10000 4.12 230 07:34 04.02.2021
2960 Clouds 13 1008 40 10000 6.17 220 06:53 04.02.2021
2961 Clouds 13 1008 40 10000 6.17 220 06:34 04.02.2021
2962 Clouds 10 1013 37 10000 5.66 200 02:41 04.02.2021
2963 Clouds 10 1013 37 10000 5.66 200 02:23 04.02.2021
2964 Clouds 6 1015 52 10000 4.12 150 00:29 04.02.2021
2965 Clouds 4 1015 52 10000 1.03 0 23:39 03.02.2021
2966 Clouds 4 1015 45 10000 0.23 263 22:41 03.02.2021
2967 Clouds 4 1015 45 10000 0.51 0 22:21 03.02.2021
2968 Clouds 4 1015 45 10000 0.51 0 21:55 03.02.2021
2969 Clouds 4 1015 48 10000 0.51 0 21:25 03.02.2021
2970 Clouds 4 1015 48 10000 0.51 270 20:58 03.02.2021
2971 Clouds 4 1015 45 10000 1.54 280 20:37 03.02.2021
2972 Clouds 4 1015 48 10000 2.06 280 19:57 03.02.2021
2973 Clouds 4 1015 45 10000 2.06 270 19:36 03.02.2021
2974 Clouds 4 1015 45 10000 2.06 270 19:18 03.02.2021
2975 Clouds 5 1015 38 10000 3.6 300 18:41 03.02.2021
2976 Clouds 5 1015 38 10000 4.12 310 18:19 03.02.2021
2977 Clouds 5 1015 38 10000 4.12 310 17:48 03.02.2021
2978 Clouds 5 1015 39 10000 5.14 340 17:30 03.02.2021
2979 Clouds 6 1015 39 10000 5.14 350 16:52 03.02.2021
2980 Clouds 6 1015 45 10000 4.63 10 16:27 03.02.2021
2981 Clouds 6 1016 49 10000 4.63 10 15:45 03.02.2021
2982 Clouds 6 1016 49 10000 4.63 10 15:25 03.02.2021
2983 Clouds 7 1016 42 10000 4.12 10 14:53 03.02.2021
2984 Clouds 7 1016 39 10000 4.12 360 14:25 03.02.2021
2985 Clouds 7 1016 39 10000 4.63 10 13:54 03.02.2021
2986 Clouds 7 1016 39 10000 5.14 30 13:26 03.02.2021
2987 Clouds 7 1016 39 10000 5.66 40 12:47 03.02.2021
2988 Clouds 8 1016 42 10000 5.14 20 12:27 03.02.2021
2989 Clouds 8 1016 40 10000 5.14 20 11:54 03.02.2021
2990 Clouds 8 1016 40 10000 4.63 40 11:34 03.02.2021
2991 Clouds 9 1016 43 10000 4.63 50 10:54 03.02.2021
2992 Clouds 9 1015 46 10000 2.57 70 10:22 03.02.2021
2993 Clouds 9 1015 40 10000 2.57 80 09:47 03.02.2021
2994 Clouds 9 1015 32 10000 2.57 160 09:28 03.02.2021
2995 Clouds 10 1015 32 10000 2.57 160 08:53 03.02.2021
2996 Clouds 10 1015 32 10000 2.57 160 08:28 03.02.2021
2997 Clouds 10 1014 34 10000 4.12 140 07:39 03.02.2021
2998 Clouds 10 1013 37 10000 2.06 170 06:41 03.02.2021
2999 Clouds 10 1014 29 10000 3.6 30 04:54 03.02.2021
3000 Clouds 9 1014 29 10000 3.6 30 04:31 03.02.2021
3001 Clouds 9 1014 34 10000 4.12 40 03:24 03.02.2021
3002 Clouds 8 1015 34 10000 1.54 360 02:37 03.02.2021
3003 Clouds 6 1014 42 10000 2.57 310 00:46 03.02.2021
3004 Clouds 4 1013 60 10000 2.57 310 23:56 02.02.2021
3005 Clouds 4 1013 60 10000 1.54 330 23:36 02.02.2021
3006 Clouds 4 1013 60 10000 1.54 330 23:18 02.02.2021
3007 Clouds 4 1013 56 10000 2.06 20 22:36 02.02.2021
3008 Clouds 4 1013 56 10000 2.06 20 22:18 02.02.2021
3009 Clear 6 1012 49 10000 3.09 30 21:39 02.02.2021
3010 Clear 6 1012 49 10000 3.09 30 21:19 02.02.2021
3011 Clear 6 1011 49 10000 2.06 10 20:44 02.02.2021
3012 Clear 6 1011 49 10000 2.06 10 20:20 02.02.2021
3013 Clear 6 1011 45 10000 2.57 20 19:48 02.02.2021
3014 Clear 6 1011 48 10000 3.6 360 19:30 02.02.2021
3015 Clouds 5 1011 45 10000 4.63 360 18:46 02.02.2021
3016 Clouds 5 1011 49 10000 4.63 360 18:26 02.02.2021
3017 Clouds 5 1011 45 10000 5.66 10 17:52 02.02.2021
3018 Clouds 6 1011 49 10000 5.66 10 17:24 02.02.2021
3019 Clouds 6 1011 49 10000 6.69 360 16:58 02.02.2021
3020 Clouds 5 1011 49 10000 7.72 10 16:38 02.02.2021
3021 Clouds 5 1011 49 10000 7.72 10 16:18 02.02.2021
3022 Clouds 5 1011 42 10000 5.66 10 15:42 02.02.2021
3023 Clouds 6 1011 42 10000 5.66 10 15:21 02.02.2021
3024 Clouds 6 1010 42 10000 7.2 360 14:41 02.02.2021
3025 Clouds 6 1010 42 10000 7.2 360 14:20 02.02.2021
3026 Clouds 7 1010 45 10000 5.66 360 13:54 02.02.2021
3027 Clouds 7 1010 45 10000 7.2 350 13:36 02.02.2021
3028 Clouds 7 1010 45 10000 7.2 350 13:18 02.02.2021
3029 Clouds 7 1009 46 10000 9.26 360 12:36 02.02.2021
3030 Clouds 8 1008 40 10000 10.8 350 11:45 02.02.2021
3031 Clouds 8 1008 40 10000 10.8 350 11:22 02.02.2021
3032 Clouds 9 1008 43 10000 13.89 350 10:55 02.02.2021
3033 Clouds 9 1007 37 10000 11.32 340 10:27 02.02.2021
3034 Clouds 9 1006 37 10000 9.26 330 09:47 02.02.2021
3035 Clouds 10 1006 46 10000 8.75 350 09:25 02.02.2021
3036 Clouds 12 1004 47 10000 3.09 340 08:55 02.02.2021
3037 Clouds 12 1004 47 10000 3.09 340 08:28 02.02.2021
3038 Clouds 14 1003 71 10000 1.03 140 07:31 02.02.2021
3039 Clouds 14 1003 76 10000 3.6 140 06:43 02.02.2021
3040 Clouds 13 1003 82 10000 2.57 140 05:53 02.02.2021
3041 Clouds 12 1004 81 8000 2.06 150 04:57 02.02.2021
3042 Clouds 9 1005 87 10000 2.06 110 02:44 02.02.2021
3043 Clouds 9 1005 87 10000 2.06 110 02:23 02.02.2021
3044 Rain 7 1006 87 10000 5.66 350 00:36 02.02.2021
3045 Rain 7 1006 87 6000 8.23 330 23:30 01.02.2021
3046 Rain 7 1006 93 5000 7.72 340 22:51 01.02.2021
3047 Mist 7 1005 93 4500 4.63 320 22:33 01.02.2021
3048 Rain 11 1004 88 7000 11.32 210 21:53 01.02.2021
3049 Rain 11 1004 88 8000 12.86 210 21:34 01.02.2021
3050 Rain 11 1005 88 9000 9.26 210 20:57 01.02.2021
3051 Rain 13 1006 82 10000 10.8 210 20:38 01.02.2021
3052 Rain 13 1006 82 10000 10.29 220 20:19 01.02.2021
3053 Rain 13 1007 77 10000 11.83 210 19:39 01.02.2021
3054 Rain 15 1007 77 10000 11.83 210 19:20 01.02.2021
3055 Clouds 15 1008 77 10000 10.29 220 18:49 01.02.2021
3056 Clouds 16 1009 77 10000 11.83 210 18:27 01.02.2021
3057 Clouds 16 1010 72 10000 12.35 220 17:47 01.02.2021
3058 Clouds 15 1010 72 10000 9.77 210 17:24 01.02.2021
3059 Clouds 15 1010 72 10000 9.77 210 16:56 01.02.2021
3060 Clouds 15 1011 67 10000 8.75 200 16:29 01.02.2021
3061 Clouds 12 1013 63 10000 8.75 210 15:44 01.02.2021
3062 Clouds 14 1013 63 10000 7.72 210 15:19 01.02.2021
3063 Clouds 14 1014 58 10000 6.17 190 14:52 01.02.2021
3064 Clouds 14 1015 58 10000 7.72 210 14:33 01.02.2021
3065 Clouds 13 1015 58 10000 10.29 210 13:50 01.02.2021
3066 Clouds 13 1015 67 10000 11.32 220 13:27 01.02.2021
3067 Clouds 11 1016 67 10000 11.83 220 12:58 01.02.2021
3068 Clouds 11 1016 62 10000 12.35 220 12:40 01.02.2021
3069 Clouds 11 1016 62 10000 12.35 220 12:21 01.02.2021
3070 Clear 12 1017 58 10000 12.35 220 11:40 01.02.2021
3071 Clear 13 1017 58 10000 12.35 220 11:19 01.02.2021
3072 Clear 12 1017 54 10000 10.29 210 10:44 01.02.2021
3073 Clouds 11 1018 54 10000 9.26 210 10:19 01.02.2021
3074 Clouds 10 1018 76 10000 4.63 190 09:43 01.02.2021
3075 Clouds 10 1019 61 10000 2.06 160 09:20 01.02.2021
3076 Clouds 11 1019 61 10000 2.06 160 08:44 01.02.2021
3077 Clouds 11 1020 53 10000 2.06 150 07:37 01.02.2021
3078 Clouds 8 1023 46 10000 1.03 0 05:59 01.02.2021
3079 Clouds 5 1028 45 10000 2.57 350 02:49 01.02.2021
3080 Clouds 3 1029 48 10000 3.09 310 00:58 01.02.2021
3081 Clouds 4 1028 52 10000 4.63 340 23:42 31.01.2021
3082 Clouds 3 1029 48 10000 3.6 320 22:43 31.01.2021
3083 Clouds 3 1029 48 10000 3.6 320 22:24 31.01.2021
3084 Clouds 3 1028 48 10000 3.6 320 21:52 31.01.2021
3085 Clouds 3 1029 45 10000 2.57 350 21:25 31.01.2021
3086 Clouds 4 1029 48 10000 3.09 360 20:57 31.01.2021
3087 Clouds 4 1028 49 10000 4.12 30 20:37 31.01.2021
3088 Clouds 4 1028 45 10000 3.6 10 20:18 31.01.2021
3089 Clouds 4 1028 42 10000 3.6 360 19:37 31.01.2021
3090 Clouds 4 1028 42 10000 3.6 360 19:19 31.01.2021
3091 Clouds 5 1029 42 10000 3.6 360 18:41 31.01.2021
3092 Clouds 5 1029 42 10000 3.6 360 18:41 31.01.2021
3093 Clouds 5 1029 42 10000 3.6 360 18:21 31.01.2021
3094 Clouds 4 1029 42 10000 3.09 10 17:47 31.01.2021
3095 Clouds 5 1029 48 10000 3.6 350 17:23 31.01.2021
3096 Clouds 4 1029 48 10000 3.6 10 16:52 31.01.2021
3097 Clouds 5 1029 45 10000 3.09 10 16:33 31.01.2021
3098 Clouds 5 1029 45 10000 3.6 10 15:54 31.01.2021
3099 Clouds 5 1029 45 10000 2.57 20 15:35 31.01.2021
3100 Clouds 5 1029 42 10000 3.6 40 14:50 31.01.2021
3101 Clouds 5 1029 42 10000 4.12 20 14:26 31.01.2021
3102 Clouds 5 1029 42 10000 4.63 10 13:57 31.01.2021
3103 Clouds 6 1029 42 10000 6.17 10 13:38 31.01.2021
3104 Clouds 6 1029 42 10000 6.17 350 12:56 31.01.2021
3105 Clouds 6 1029 42 10000 6.69 350 12:37 31.01.2021
3106 Clouds 6 1029 42 10000 6.69 350 12:19 31.01.2021
3107 Clouds 6 1028 36 10000 7.2 340 11:38 31.01.2021
3108 Clouds 6 1028 36 10000 7.2 340 11:19 31.01.2021
3109 Clouds 7 1027 34 10000 5.66 340 10:44 31.01.2021
3110 Clouds 7 1027 34 10000 5.66 340 10:25 31.01.2021
3111 Clouds 8 1026 40 10000 6.17 340 09:33 31.01.2021
3112 Clouds 10 1025 27 10000 4.63 320 08:34 31.01.2021
3113 Clouds 11 1024 28 10000 5.14 310 07:50 31.01.2021
3114 Clouds 11 1024 30 10000 4.12 330 06:25 31.01.2021
3115 Clear 7 1024 45 10000 3.09 30 01:55 31.01.2021
3116 Clouds 4 1023 56 10000 3.6 280 00:28 31.01.2021
3117 Clouds 3 1022 51 10000 1.03 300 23:42 30.01.2021
3118 Clouds 3 1022 51 10000 1.03 300 23:20 30.01.2021
3119 Clouds 3 1022 55 10000 2.57 310 22:37 30.01.2021
3120 Clouds 2 1021 60 10000 2.06 290 21:45 30.01.2021
3121 Clouds 3 1021 60 10000 2.06 290 21:24 30.01.2021
3122 Clouds 3 1021 60 10000 1.54 290 20:58 30.01.2021
3123 Clouds 4 1020 56 10000 3.09 10 20:38 30.01.2021
3124 Clouds 5 1020 56 10000 2.57 20 19:59 30.01.2021
3125 Clouds 3 1020 56 10000 2.06 350 19:40 30.01.2021
3126 Clouds 4 1020 56 10000 2.06 350 19:19 30.01.2021
3127 Clouds 4 1020 56 10000 2.06 350 19:19 30.01.2021
3128 Clouds 4 1020 45 10000 0.51 0 18:40 30.01.2021
3129 Clouds 5 1020 45 10000 0.51 0 18:20 30.01.2021
3130 Clouds 5 1020 48 10000 1.03 0 17:47 30.01.2021
3131 Clouds 5 1020 48 10000 1.54 150 17:19 30.01.2021
3132 Clouds 5 1020 48 10000 3.09 150 16:41 30.01.2021
3133 Clouds 5 1020 48 10000 3.09 150 16:22 30.01.2021
3134 Clouds 5 1020 45 10000 1.54 160 15:49 30.01.2021
3135 Clouds 4 1020 56 10000 3.6 150 15:24 30.01.2021
3136 Clouds 5 1021 52 10000 2.57 140 14:58 30.01.2021
3137 Clouds 5 1021 36 10000 2.06 100 14:38 30.01.2021
3138 Clouds 6 1021 36 10000 1.54 50 14:18 30.01.2021
3139 Clouds 6 1021 33 10000 3.09 30 13:23 30.01.2021
3140 Clouds 5 1020 36 10000 3.6 20 12:46 30.01.2021
3141 Clouds 5 1020 36 10000 3.6 20 12:27 30.01.2021
3142 Clouds 6 1020 33 10000 4.63 10 11:47 30.01.2021
3143 Clouds 6 1020 36 10000 4.12 40 10:57 30.01.2021
3144 Clouds 6 1019 36 10000 4.63 40 10:29 30.01.2021
3145 Clouds 7 1019 31 10000 4.12 30 09:43 30.01.2021
3146 Clouds 7 1018 21 10000 1.54 320 09:24 30.01.2021
3147 Clouds 8 1018 21 10000 1.54 320 08:45 30.01.2021
3148 Clouds 8 1018 19 10000 3.6 310 07:44 30.01.2021
3149 Clouds 8 1017 19 10000 3.6 340 06:33 30.01.2021
3150 Clouds 7 1018 18 10000 7.2 290 03:57 30.01.2021
3151 Clouds 7 1018 18 10000 7.2 290 03:33 30.01.2021
3152 Clear 6 1018 24 10000 4.63 300 02:23 30.01.2021
3153 Clear 4 1017 35 10000 3.6 310 00:58 30.01.2021
3154 Clouds 4 1017 41 10000 5.14 330 00:34 30.01.2021
3155 Clouds 3 1016 41 10000 6.17 330 23:55 29.01.2021
3156 Clouds 2 1016 48 10000 7.72 330 23:28 29.01.2021
3157 Clouds 2 1016 48 10000 8.75 330 22:52 29.01.2021
3158 Clouds 2 1015 48 10000 8.23 340 22:32 29.01.2021
3159 Clear 2 1014 48 10000 8.23 330 21:59 29.01.2021
3160 Clear 2 1014 48 10000 7.72 330 21:28 29.01.2021
3161 Clear 2 1013 48 10000 8.23 330 20:43 29.01.2021
3162 Clear 2 1013 48 10000 8.23 330 20:24 29.01.2021
3163 Clear 3 1012 41 10000 5.66 320 19:40 29.01.2021
3164 Clear 2 1012 41 10000 5.66 320 19:22 29.01.2021
3165 Clear 2 1012 41 10000 4.63 320 18:57 29.01.2021
3166 Clouds 3 1011 35 10000 6.17 330 17:59 29.01.2021
3167 Clouds 3 1010 35 10000 5.66 330 17:37 29.01.2021
3168 Clouds 3 1010 38 10000 5.14 330 17:18 29.01.2021
3169 Clouds 3 1010 38 10000 6.17 330 16:39 29.01.2021
3170 Clouds 3 1010 38 10000 6.17 330 16:21 29.01.2021
3171 Clear 3 1009 35 10000 4.63 310 15:41 29.01.2021
3172 Clear 3 1009 35 10000 4.63 310 15:22 29.01.2021
3173 Clouds 4 1009 33 10000 5.66 330 14:30 29.01.2021
3174 Clear 4 1005 37 10000 3.13 248 13:58 29.01.2021
3175 Clouds 4 1008 33 10000 6.69 330 13:34 29.01.2021
3176 Clouds 5 1008 30 10000 7.2 330 12:48 29.01.2021
3177 Clouds 5 1008 30 10000 8.75 330 12:20 29.01.2021
3178 Clouds 5 1007 33 10000 7.72 330 11:46 29.01.2021
3179 Clouds 5 1006 31 10000 7.72 330 11:18 29.01.2021
3180 Clouds 5 1006 31 10000 7.72 330 10:47 29.01.2021
3181 Clouds 6 1006 31 10000 9.26 340 10:26 29.01.2021
3182 Clouds 7 1004 34 10000 9.26 350 09:44 29.01.2021
3183 Clouds 8 1003 21 10000 4.12 320 08:52 29.01.2021
3184 Clouds 9 1003 21 10000 4.12 320 08:28 29.01.2021
3185 Clouds 10 1002 17 10000 3.6 330 07:58 29.01.2021
3186 Clouds 10 1002 17 10000 3.6 330 07:39 29.01.2021
3187 Clouds 10 1002 17 10000 3.6 330 07:39 29.01.2021
3188 Clouds 10 1002 17 10000 3.09 300 06:58 29.01.2021
3189 Clouds 10 1001 20 10000 6.17 290 05:20 29.01.2021
3190 Clouds 9 1002 31 10000 6.17 300 02:53 29.01.2021
3191 Clouds 6 1000 75 10000 1.54 230 00:39 29.01.2021
3192 Clouds 5 1000 75 10000 1.54 230 00:20 29.01.2021
3193 Clouds 4 1000 81 10000 1.54 290 23:43 28.01.2021
3194 Clouds 4 1000 75 10000 3.6 310 23:24 28.01.2021
3195 Clouds 4 999 81 10000 4.12 350 22:46 28.01.2021
3196 Clouds 4 999 81 10000 8.23 340 22:26 28.01.2021
3197 Clouds 4 999 93 10000 5.14 360 21:56 28.01.2021
3198 Clouds 4 996 88 10000 2.24 358 21:34 28.01.2021
3199 Clouds 4 995 89 10000 0.89 349 20:59 28.01.2021
3200 Clouds 4 998 87 10000 1.54 100 20:39 28.01.2021
3201 Clouds 4 998 93 10000 3.09 140 20:18 28.01.2021
3202 Clouds 4 1000 87 10000 3.6 170 19:41 28.01.2021
3203 Clouds 4 1000 87 10000 3.6 170 19:23 28.01.2021
3204 Clouds 4 1001 81 10000 0.51 0 18:43 28.01.2021
3205 Clouds 4 1001 81 10000 0.51 0 18:20 28.01.2021
3206 Clouds 4 1001 87 10000 1.03 0 17:46 28.01.2021
3207 Clouds 4 1002 87 10000 0.51 0 17:27 28.01.2021
3208 Clouds 4 1003 81 10000 2.06 310 16:45 28.01.2021
3209 Clouds 4 1003 81 10000 2.06 310 16:24 28.01.2021
3210 Clouds 4 1005 81 10000 2.06 320 15:44 28.01.2021
3211 Clouds 4 1005 81 10000 2.06 320 15:19 28.01.2021
3212 Clouds 3 1006 87 10000 3.6 310 14:42 28.01.2021
3213 Clouds 3 1006 87 10000 3.6 310 14:23 28.01.2021
3214 Clouds 3 1006 87 10000 3.09 340 13:48 28.01.2021
3215 Clouds 3 1006 87 10000 3.09 340 13:19 28.01.2021
3216 Clouds 3 1007 93 10000 4.12 330 12:45 28.01.2021
3217 Clouds 3 1008 93 10000 4.12 320 12:21 28.01.2021
3218 Clouds 3 1008 87 10000 7.72 360 11:44 28.01.2021
3219 Rain 3 1009 93 8000 8.75 350 11:20 28.01.2021
3220 Rain 2 1009 93 7000 8.23 350 10:54 28.01.2021
3221 Clouds 2 1009 93 7000 5.14 350 10:35 28.01.2021
3222 Rain 2 1010 93 10000 6.69 330 09:59 28.01.2021
3223 Clouds 2 1010 93 4500 3.09 310 09:30 28.01.2021
3224 Snow 2 1010 93 4500 3.09 310 08:57 28.01.2021
3225 Clouds 2 1010 93 4500 3.09 310 08:39 28.01.2021
3226 Rain 2 1010 93 6000 3.6 350 07:46 28.01.2021
3227 Rain 4 1011 81 7000 5.14 10 06:51 28.01.2021
3228 Snow 5 1011 93 2500 3.6 340 06:31 28.01.2021
3229 Rain 7 1012 65 10000 5.14 20 04:30 28.01.2021
3230 Rain 7 1016 61 10000 3.6 20 01:41 28.01.2021
3231 Clouds 6 1016 65 10000 6.69 20 23:56 27.01.2021
3232 Clouds 6 1016 65 10000 6.69 10 23:24 27.01.2021
3233 Clouds 6 1016 65 10000 6.17 10 22:44 27.01.2021
3234 Clouds 6 1016 61 10000 5.66 10 22:25 27.01.2021
3235 Clouds 6 1016 65 10000 4.63 360 21:55 27.01.2021
3236 Clouds 6 1016 65 10000 4.12 360 21:37 27.01.2021
3237 Clouds 6 1015 65 10000 4.12 10 21:19 27.01.2021
3238 Clouds 6 1015 61 10000 5.14 10 20:39 27.01.2021
3239 Clouds 6 1015 57 10000 4.63 360 19:57 27.01.2021
3240 Clear 6 1015 65 10000 4.63 20 19:38 27.01.2021
3241 Clear 7 1015 65 10000 4.63 20 19:20 27.01.2021
3242 Clear 6 1015 70 10000 4.63 40 18:41 27.01.2021
3243 Clear 7 1015 70 10000 4.63 40 18:22 27.01.2021
3244 Clouds 7 1015 66 10000 6.17 40 17:45 27.01.2021
3245 Clouds 8 1016 71 10000 5.14 40 17:21 27.01.2021
3246 Clouds 8 1016 49 10000 3.6 20 16:48 27.01.2021
3247 Clouds 8 1016 49 10000 3.6 20 16:28 27.01.2021
3248 Clouds 9 1016 46 10000 4.63 20 15:50 27.01.2021
3249 Clouds 9 1016 43 10000 4.63 360 15:31 27.01.2021
3250 Clear 9 1016 50 10000 9.26 360 14:43 27.01.2021
3251 Clear 10 1016 50 10000 9.26 360 14:22 27.01.2021
3252 Clear 10 1016 46 10000 9.77 350 13:45 27.01.2021
3253 Clear 10 1016 46 10000 9.77 350 13:45 27.01.2021
3254 Clear 10 1015 43 10000 8.75 350 12:58 27.01.2021
3255 Clear 10 1014 50 10000 9.26 360 12:39 27.01.2021
3256 Clear 11 1014 50 10000 9.26 360 12:18 27.01.2021
3257 Clouds 11 1013 50 10000 7.72 350 11:44 27.01.2021
3258 Clouds 12 1013 50 10000 7.72 350 11:21 27.01.2021
3259 Clouds 13 1011 47 10000 7.2 10 10:39 27.01.2021
3260 Clouds 13 1011 62 10000 3.09 20 10:19 27.01.2021
3261 Clouds 13 1011 82 10000 2.57 20 09:41 27.01.2021
3262 Clouds 14 1010 47 10000 2.06 350 08:57 27.01.2021
3263 Clouds 15 1010 47 10000 2.06 350 08:31 27.01.2021
3264 Clouds 16 1008 51 10000 2.06 10 07:43 27.01.2021
3265 Clouds 16 1008 51 10000 2.06 10 07:19 27.01.2021
3266 Clouds 14 1008 67 10000 2.57 20 06:19 27.01.2021
3267 Clouds 15 1008 67 10000 2.57 20 05:43 27.01.2021
3268 Rain 11 1010 71 8000 1.54 0 03:34 27.01.2021
3269 Clouds 10 1011 76 6000 2.06 320 02:23 27.01.2021
3270 Clouds 9 1011 76 7000 1.03 0 01:50 27.01.2021
3271 Clouds 9 1011 81 9000 1.54 30 00:34 27.01.2021
3272 Clouds 8 1011 93 8000 2.06 10 23:49 26.01.2021
3273 Clouds 8 1012 93 6000 1.54 30 23:30 26.01.2021
3274 Clouds 7 1012 93 6000 1.54 350 22:50 26.01.2021
3275 Clouds 7 1012 93 6000 2.06 310 22:24 26.01.2021
3276 Clouds 7 1012 93 6000 1.03 320 21:54 26.01.2021
3277 Rain 7 1012 87 4900 2.57 310 21:34 26.01.2021
3278 Rain 7 1012 87 9000 2.06 320 20:59 26.01.2021
3279 Rain 7 1012 87 8000 2.57 310 20:40 26.01.2021
3280 Rain 7 1012 87 7000 3.09 310 20:21 26.01.2021
3281 Rain 8 1013 81 9000 2.57 340 19:46 26.01.2021
3282 Rain 8 1013 81 9000 2.57 10 19:24 26.01.2021
3283 Rain 9 1014 81 8000 3.09 20 18:49 26.01.2021
3284 Clouds 9 1014 76 10000 2.57 30 18:28 26.01.2021
3285 Clouds 9 1015 71 10000 3.09 30 17:55 26.01.2021
3286 Rain 9 1015 76 10000 2.06 10 17:37 26.01.2021
3287 Rain 9 1016 76 10000 2.06 40 16:56 26.01.2021
3288 Rain 9 1016 76 10000 1.54 20 16:37 26.01.2021
3289 Rain 9 1016 76 10000 1.54 20 16:19 26.01.2021
3290 Rain 9 1017 71 10000 2.57 10 15:46 26.01.2021
3291 Clouds 9 1017 71 10000 2.57 10 15:26 26.01.2021
3292 Clouds 9 1017 71 10000 2.57 50 14:48 26.01.2021
3293 Rain 9 1018 76 10000 1.54 50 14:29 26.01.2021
3294 Clouds 9 1019 76 10000 3.6 20 13:37 26.01.2021
3295 Rain 9 1019 76 10000 2.57 30 13:18 26.01.2021
3296 Rain 10 1020 71 10000 1.54 30 12:43 26.01.2021
3297 Clouds 10 1020 71 10000 1.54 30 12:24 26.01.2021
3298 Clouds 10 1020 66 10000 2.57 330 11:54 26.01.2021
3299 Clouds 10 1021 76 10000 2.57 330 11:33 26.01.2021
3300 Rain 10 1021 76 10000 1.54 30 10:45 26.01.2021
3301 Clouds 10 1021 76 10000 1.54 30 10:27 26.01.2021
3302 Clouds 10 1021 71 10000 2.06 350 09:42 26.01.2021
3303 Clouds 11 1021 66 9000 1.03 0 09:23 26.01.2021
3304 Clouds 11 1021 66 9000 1.03 0 08:52 26.01.2021
3305 Clouds 11 1021 66 9000 1.03 0 08:24 26.01.2021
3306 Clouds 11 1022 62 10000 1.54 10 07:39 26.01.2021
3307 Clouds 11 1022 62 10000 1.54 0 06:21 26.01.2021
3308 Clouds 10 1023 62 10000 2.06 40 05:42 26.01.2021
3309 Clouds 10 1024 57 10000 1.54 0 04:23 26.01.2021
3310 Clouds 8 1026 61 10000 3.09 320 02:21 26.01.2021
3311 Clouds 6 1027 65 10000 2.57 320 00:54 26.01.2021
3312 Clouds 5 1026 81 10000 3.6 340 23:36 25.01.2021
3313 Clouds 4 1026 81 10000 4.12 320 22:57 25.01.2021
3314 Clouds 4 1026 75 10000 3.09 300 22:38 25.01.2021
3315 Clouds 5 1026 75 10000 3.6 310 21:50 25.01.2021
3316 Clouds 6 1026 75 10000 4.63 340 21:28 25.01.2021
3317 Clouds 5 1026 81 10000 3.6 320 20:52 25.01.2021
3318 Clouds 5 1026 87 10000 4.12 320 20:33 25.01.2021
3319 Clear 5 1026 87 10000 4.12 320 19:52 25.01.2021
3320 Clear 5 1026 81 10000 3.6 310 19:31 25.01.2021
3321 Clear 6 1026 75 10000 2.06 310 18:49 25.01.2021
3322 Clear 6 1027 75 10000 3.09 280 18:28 25.01.2021
3323 Clear 7 1027 75 10000 3.09 310 17:59 25.01.2021
3324 Clear 7 1026 75 10000 3.09 310 17:41 25.01.2021
3325 Clear 7 1026 75 10000 3.09 310 17:23 25.01.2021
3326 Clear 8 1027 76 10000 1.03 300 16:41 25.01.2021
3327 Clear 8 1027 76 10000 1.03 300 16:22 25.01.2021
3328 Clear 8 1027 76 10000 3.09 340 15:50 25.01.2021
3329 Clear 8 1027 76 10000 3.09 340 15:50 25.01.2021
3330 Clear 9 1027 76 10000 1.54 320 15:31 25.01.2021
3331 Clear 7 1027 81 10000 0.51 90 14:50 25.01.2021
3332 Clear 10 1026 81 10000 3.09 110 14:20 25.01.2021
3333 Clear 10 1026 81 10000 3.09 110 14:20 25.01.2021
3334 Clear 10 1026 87 10000 2.06 100 13:54 25.01.2021
3335 Clear 8 1026 81 10000 2.57 100 13:35 25.01.2021
3336 Clear 8 1026 81 10000 1.54 110 12:49 25.01.2021
3337 Clouds 9 1026 81 10000 2.06 100 12:24 25.01.2021
3338 Clouds 9 1026 76 10000 2.57 110 11:57 25.01.2021
3339 Clouds 10 1026 71 10000 2.57 110 11:22 25.01.2021
3340 Clouds 10 1026 71 10000 3.09 90 10:44 25.01.2021
3341 Clouds 10 1026 71 10000 3.09 90 10:21 25.01.2021
3342 Clouds 11 1025 66 10000 3.6 90 09:47 25.01.2021
3343 Clouds 11 1024 50 10000 3.09 50 09:28 25.01.2021
3344 Clouds 12 1024 50 10000 3.09 50 08:33 25.01.2021
3345 Clouds 13 1024 44 10000 3.09 20 07:46 25.01.2021
3346 Clouds 13 1024 44 10000 3.09 20 07:27 25.01.2021
3347 Clouds 13 1024 47 10000 3.6 20 06:23 25.01.2021
3348 Clouds 8 1026 76 10000 3.09 360 01:37 25.01.2021
3349 Clouds 7 1026 76 10000 7.2 360 00:35 25.01.2021
3350 Clouds 5 1022 93 10000 0.89 320 23:20 24.01.2021
3351 Clouds 5 1025 87 10000 6.17 350 22:47 24.01.2021
3352 Clouds 5 1024 87 10000 5.66 340 22:28 24.01.2021
3353 Clouds 5 1024 87 10000 5.66 340 22:27 24.01.2021
3354 Clouds 5 1024 87 10000 5.66 340 22:27 24.01.2021
3355 Clouds 5 1024 87 10000 5.66 340 22:27 24.01.2021
3356 Clouds 5 1024 87 10000 4.12 330 21:55 24.01.2021
3357 Clouds 6 1023 81 10000 5.66 340 21:27 24.01.2021
3358 Rain 6 1022 81 10000 6.69 360 20:47 24.01.2021
3359 Clouds 6 1022 81 10000 6.69 360 20:23 24.01.2021
3360 Clouds 6 1022 81 10000 6.69 360 20:23 24.01.2021
3361 Rain 6 1022 81 10000 6.17 360 19:57 24.01.2021
3362 Clouds 6 1022 81 10000 6.69 10 19:38 24.01.2021
3363 Rain 6 1022 81 10000 6.69 10 19:19 24.01.2021
3364 Rain 6 1022 81 10000 5.66 360 18:54 24.01.2021
3365 Clouds 6 1023 81 10000 6.17 10 18:36 24.01.2021
3366 Rain 6 1023 81 10000 6.17 10 18:18 24.01.2021
3367 Rain 6 1023 87 10000 6.69 360 17:42 24.01.2021
3368 Rain 6 1023 87 10000 6.69 360 17:18 24.01.2021
3369 Rain 6 1023 87 10000 7.72 350 16:41 24.01.2021
3370 Rain 6 1023 87 10000 7.72 350 16:21 24.01.2021
3371 Rain 6 1023 87 10000 8.23 350 15:46 24.01.2021
3372 Rain 6 1022 81 10000 7.72 350 15:21 24.01.2021
3373 Rain 6 1022 93 10000 8.75 350 14:56 24.01.2021
3374 Rain 6 1022 93 10000 8.75 350 14:32 24.01.2021
3375 Rain 6 1021 87 10000 7.72 350 13:36 24.01.2021
3376 Rain 6 1021 87 10000 8.75 350 12:56 24.01.2021
3377 Rain 6 1021 87 10000 8.23 350 12:36 24.01.2021
3378 Rain 6 1021 87 10000 8.23 350 12:18 24.01.2021
3379 Rain 6 1021 87 10000 8.23 350 11:45 24.01.2021
3380 Rain 6 1020 87 10000 8.23 350 11:22 24.01.2021
3381 Rain 7 1020 87 10000 9.77 350 10:42 24.01.2021
3382 Rain 7 1019 87 10000 9.77 350 09:57 24.01.2021
3383 Rain 7 1019 76 10000 3.09 340 09:22 24.01.2021
3384 Rain 7 1019 76 10000 3.09 340 08:52 24.01.2021
3385 Clouds 7 1018 81 10000 4.12 350 07:22 24.01.2021
3386 Rain 3 1021 93 6000 5.66 330 02:39 24.01.2021
3387 Rain 3 1021 93 6000 5.14 320 01:00 24.01.2021
3388 Rain 3 1020 100 10000 9.26 340 00:24 24.01.2021
3389 Rain 3 1020 93 10000 10.29 350 23:47 23.01.2021
3390 Rain 3 1020 93 10000 10.29 350 23:25 23.01.2021
3391 Rain 3 1020 93 10000 10.29 350 22:51 23.01.2021
3392 Rain 3 1019 93 10000 10.29 360 22:32 23.01.2021
3393 Clouds 3 1020 93 10000 9.77 350 21:51 23.01.2021
3394 Rain 4 1020 87 10000 10.29 350 21:22 23.01.2021
3395 Rain 3 1020 93 9000 10.8 350 20:47 23.01.2021
3396 Rain 3 1019 93 8000 10.29 350 20:24 23.01.2021
3397 Rain 3 1019 93 8000 10.29 350 19:47 23.01.2021
3398 Rain 4 1020 93 8000 9.77 350 19:23 23.01.2021
3399 Rain 4 1020 93 8000 10.8 350 18:49 23.01.2021
3400 Rain 4 1020 93 8000 10.8 350 18:26 23.01.2021
3401 Rain 4 1020 93 8000 10.8 350 17:54 23.01.2021
3402 Rain 4 1020 93 8000 10.29 350 17:27 23.01.2021
3403 Rain 4 1020 93 8000 10.8 350 16:50 23.01.2021
3404 Rain 3 1020 93 9000 10.8 350 16:30 23.01.2021
3405 Rain 4 1020 93 7000 12.35 360 15:42 23.01.2021
3406 Rain 3 1020 93 7000 12.35 360 15:24 23.01.2021
3407 Rain 5 1020 93 8000 11.83 350 14:34 23.01.2021
3408 Rain 4 1021 93 7000 10.29 350 13:56 23.01.2021
3409 Rain 4 1021 87 8000 10.8 350 13:36 23.01.2021
3410 Rain 4 1021 93 7000 10.8 350 12:57 23.01.2021
3411 Rain 5 1021 93 8000 10.8 360 12:37 23.01.2021
3412 Rain 5 1021 87 9000 9.77 360 12:18 23.01.2021
3413 Rain 4 1021 93 7000 9.77 360 11:33 23.01.2021
3414 Rain 5 1021 87 8000 9.77 360 10:52 23.01.2021
3415 Rain 5 1020 87 8000 9.26 10 10:22 23.01.2021
3416 Rain 5 1020 87 7000 8.75 10 09:49 23.01.2021
3417 Rain 5 1021 93 6000 5.14 10 08:57 23.01.2021
3418 Rain 5 1021 93 6000 5.14 10 08:37 23.01.2021
3419 Rain 5 1021 93 6000 5.14 10 07:37 23.01.2021
3420 Rain 6 1020 93 7000 5.66 30 05:44 23.01.2021
3421 Rain 9 1021 76 10000 5.66 50 00:56 23.01.2021
3422 Clouds 9 1020 76 10000 8.75 50 23:53 22.01.2021
3423 Clouds 9 1020 76 10000 8.75 50 23:34 22.01.2021
3424 Rain 10 1019 81 10000 7.72 50 22:40 22.01.2021
3425 Rain 9 1019 76 10000 5.14 20 21:51 22.01.2021
3426 Clouds 9 1019 76 10000 5.14 20 21:32 22.01.2021
3427 Rain 9 1019 71 10000 6.17 10 20:59 22.01.2021
3428 Clouds 9 1019 71 10000 6.69 10 20:39 22.01.2021
3429 Rain 9 1018 66 10000 5.66 10 19:59 22.01.2021
3430 Clouds 9 1018 66 10000 5.66 10 19:26 22.01.2021
3431 Clouds 9 1018 71 10000 5.66 10 18:59 22.01.2021
3432 Clouds 10 1019 66 10000 4.63 10 18:41 22.01.2021
3433 Clouds 10 1018 71 10000 5.14 20 18:22 22.01.2021
3434 Clouds 10 1018 66 10000 5.14 10 17:43 22.01.2021
3435 Clouds 10 1018 66 10000 5.14 10 17:24 22.01.2021
3436 Clouds 10 1017 62 10000 3.09 10 16:44 22.01.2021
3437 Rain 10 1017 62 10000 3.09 10 16:23 22.01.2021
3438 Rain 10 1017 71 10000 3.09 360 15:30 22.01.2021
3439 Clear 10 1017 66 10000 2.57 360 14:58 22.01.2021
3440 Clear 10 1017 66 10000 2.57 360 14:30 22.01.2021
3441 Clear 11 1017 62 10000 2.06 350 13:50 22.01.2021
3442 Clouds 11 1017 54 10000 3.09 10 13:31 22.01.2021
3443 Clouds 11 1017 50 10000 3.09 40 12:48 22.01.2021
3444 Clouds 11 1017 58 10000 4.12 360 12:23 22.01.2021
3445 Clouds 11 1017 62 10000 2.57 10 11:47 22.01.2021
3446 Clouds 12 1016 66 10000 2.57 20 11:22 22.01.2021
3447 Clouds 12 1016 66 10000 2.57 20 10:45 22.01.2021
3448 Clouds 12 1015 54 10000 2.06 10 09:59 22.01.2021
3449 Clouds 13 1015 35 10000 0.51 0 09:31 22.01.2021
3450 Clouds 14 1015 35 10000 0.51 0 08:51 22.01.2021
3451 Clouds 14 1015 35 10000 0.51 0 08:30 22.01.2021
3452 Clouds 13 1015 41 8000 1.03 0 07:36 22.01.2021
3453 Clouds 11 1017 40 10000 3.09 50 03:40 22.01.2021
3454 Clouds 5 1018 56 10000 2.06 300 00:41 22.01.2021
3455 Clouds 4 1018 56 10000 2.57 270 23:56 21.01.2021
3456 Clouds 4 1018 60 10000 1.54 260 23:38 21.01.2021
3457 Clouds 4 1018 56 10000 2.06 320 22:57 21.01.2021
3458 Clouds 4 1018 56 10000 2.57 20 22:38 21.01.2021
3459 Clouds 5 1018 60 10000 2.57 340 21:44 21.01.2021
3460 Clouds 5 1018 60 10000 3.09 10 21:22 21.01.2021
3461 Clouds 6 1018 52 10000 3.6 10 20:55 21.01.2021
3462 Clouds 5 1018 60 10000 3.6 20 20:36 21.01.2021
3463 Clouds 6 1018 61 10000 3.6 20 20:18 21.01.2021
3464 Clouds 6 1018 65 10000 3.6 10 19:43 21.01.2021
3465 Clouds 6 1018 65 10000 3.6 10 19:23 21.01.2021
3466 Clouds 6 1019 60 10000 1.54 310 18:41 21.01.2021
3467 Clouds 6 1019 60 10000 1.54 310 18:21 21.01.2021
3468 Clouds 6 1019 60 10000 1.54 270 17:57 21.01.2021
3469 Clouds 6 1020 65 10000 2.57 270 17:21 21.01.2021
3470 Clouds 6 1020 60 10000 2.57 280 16:55 21.01.2021
3471 Clouds 6 1020 65 10000 1.54 270 16:37 21.01.2021
3472 Clouds 6 1020 56 10000 1.54 300 16:18 21.01.2021
3473 Clouds 6 1020 56 10000 0.51 0 15:45 21.01.2021
3474 Clouds 7 1020 56 10000 0.51 0 15:22 21.01.2021
3475 Clouds 7 1021 57 10000 1.03 270 14:44 21.01.2021
3476 Clouds 8 1021 57 10000 1.03 270 14:23 21.01.2021
3477 Clouds 7 1021 66 10000 2.06 360 13:43 21.01.2021
3478 Clouds 9 1021 66 10000 2.06 360 13:23 21.01.2021
3479 Clouds 8 1021 53 10000 1.03 350 12:42 21.01.2021
3480 Clouds 8 1021 53 10000 1.03 350 12:24 21.01.2021
3481 Clouds 8 1021 76 10000 1.05 330 11:51 21.01.2021
3482 Clouds 7 1021 76 10000 1.03 110 11:30 21.01.2021
3483 Clear 8 1022 71 10000 0.51 0 10:52 21.01.2021
3484 Clear 8 1022 57 10000 0.51 0 10:33 21.01.2021
3485 Clear 8 1022 57 10000 1.54 150 09:45 21.01.2021
3486 Clear 9 1022 61 10000 1.03 0 09:25 21.01.2021
3487 Clear 10 1022 61 10000 1.03 0 08:48 21.01.2021
3488 Clear 10 1022 61 10000 1.03 0 08:27 21.01.2021
3489 Clear 10 1022 57 10000 2.06 140 07:43 21.01.2021
3490 Clear 10 1022 57 10000 2.06 140 07:20 21.01.2021
3491 Clouds 9 1024 43 10000 2.06 50 05:24 21.01.2021
3492 Clouds 6 1028 42 10000 2.06 310 02:59 21.01.2021
3493 Clouds 3 1028 48 10000 1.03 0 01:25 21.01.2021
3494 Clouds 3 1028 56 10000 5.14 350 00:40 21.01.2021
3495 Clouds 2 1028 64 10000 4.12 10 23:39 20.01.2021
3496 Clouds 1 1028 64 10000 4.12 10 23:21 20.01.2021
3497 Clouds 2 1028 64 10000 2.57 330 22:48 20.01.2021
3498 Clouds 2 1028 64 10000 2.57 330 22:28 20.01.2021
3499 Clouds 2 1027 64 10000 2.06 340 21:48 20.01.2021
3500 Clouds 2 1027 64 10000 2.57 340 21:22 20.01.2021
3501 Clouds 2 1027 64 10000 4.12 360 20:50 20.01.2021
3502 Clouds 2 1027 65 10000 4.12 10 20:21 20.01.2021
3503 Clouds 2 1027 64 10000 4.12 10 19:47 20.01.2021
3504 Clouds 2 1027 60 10000 2.57 310 19:27 20.01.2021
3505 Clouds 3 1027 56 10000 3.09 300 18:42 20.01.2021
3506 Clouds 3 1027 56 10000 3.09 300 18:20 20.01.2021
3507 Clouds 4 1027 65 10000 2.57 360 17:43 20.01.2021
3508 Clouds 5 1027 65 10000 2.57 360 17:24 20.01.2021
3509 Clouds 6 1027 65 10000 2.06 100 16:45 20.01.2021
3510 Clouds 6 1028 65 10000 3.09 90 16:20 20.01.2021
3511 Clouds 7 1028 65 10000 4.12 90 15:38 20.01.2021
3512 Clouds 6 1028 65 10000 3.6 110 14:57 20.01.2021
3513 Clouds 6 1028 61 10000 3.6 120 14:38 20.01.2021
3514 Clouds 5 1028 57 10000 3.6 110 14:18 20.01.2021
3515 Clouds 5 1029 56 10000 3.09 120 13:37 20.01.2021
3516 Clouds 5 1029 56 10000 3.09 120 12:55 20.01.2021
3517 Clouds 5 1029 56 10000 3.6 120 12:22 20.01.2021
3518 Clouds 5 1029 49 10000 2.57 90 11:40 20.01.2021
3519 Clouds 6 1029 45 10000 1.54 110 11:20 20.01.2021
3520 Clouds 6 1029 45 10000 1.54 110 10:46 20.01.2021
3521 Clouds 6 1029 45 10000 1.54 120 10:25 20.01.2021
3522 Clouds 7 1028 45 10000 2.57 120 09:38 20.01.2021
3523 Clouds 7 1028 39 10000 4.12 140 09:19 20.01.2021
3524 Clouds 8 1028 39 10000 4.12 140 08:43 20.01.2021
3525 Clouds 8 1028 39 10000 4.12 140 08:22 20.01.2021
3526 Clouds 8 1027 29 10000 1.54 0 07:48 20.01.2021
3527 Clouds 8 1027 29 10000 3.09 50 07:20 20.01.2021
3528 Clouds 7 1028 31 10000 2.57 330 04:33 20.01.2021
3529 Clouds 5 1030 36 10000 3.09 10 02:34 20.01.2021
3530 Clouds 3 1029 38 10000 4.12 340 00:58 20.01.2021
3531 Clouds 2 1029 48 10000 8.75 350 23:57 19.01.2021
3532 Clouds 1 1029 44 10000 10.29 340 23:38 19.01.2021
3533 Clouds 1 1028 48 10000 9.77 340 22:59 19.01.2021
3534 Clouds 1 1028 41 10000 9.77 340 22:40 19.01.2021
3535 Clouds 1 1027 41 10000 8.75 330 22:21 19.01.2021
3536 Clouds 1 1027 41 10000 8.75 330 21:55 19.01.2021
3537 Clouds 1 1027 41 10000 10.8 330 21:35 19.01.2021
3538 Clouds 1 1026 41 10000 10.29 330 20:50 19.01.2021
3539 Clouds 1 1026 38 10000 9.26 330 20:30 19.01.2021
3540 Clouds 1 1026 41 10000 10.29 340 19:56 19.01.2021
3541 Clouds 1 1026 41 10000 10.29 330 19:37 19.01.2021
3542 Clouds 1 1026 41 10000 10.29 340 19:19 19.01.2021
3543 Clouds 1 1025 41 10000 9.77 330 18:39 19.01.2021
3544 Clouds 1 1025 41 10000 9.77 330 18:20 19.01.2021
3545 Clouds 1 1025 41 10000 10.29 340 17:44 19.01.2021
3546 Clouds 1 1025 41 10000 10.29 340 17:22 19.01.2021
3547 Clouds 1 1025 44 10000 9.77 330 16:41 19.01.2021
3548 Clouds 1 1025 44 10000 9.77 330 16:23 19.01.2021
3549 Clouds 1 1025 41 10000 9.26 330 15:52 19.01.2021
3550 Clouds 1 1024 44 10000 9.77 330 15:33 19.01.2021
3551 Clouds 1 1024 44 10000 10.8 350 14:49 19.01.2021
3552 Clouds 1 1024 44 10000 10.29 340 14:28 19.01.2021
3553 Clouds 2 1024 38 10000 10.29 340 13:52 19.01.2021
3554 Clouds 2 1024 38 10000 10.8 340 13:28 19.01.2021
3555 Clouds 2 1023 35 10000 10.29 340 12:58 19.01.2021
3556 Clear 2 1023 38 10000 10.29 340 12:34 19.01.2021
3557 Clear 2 1023 41 10000 11.32 350 11:57 19.01.2021
3558 Clear 3 1023 38 10000 11.83 340 11:37 19.01.2021
3559 Clear 3 1023 38 10000 11.83 340 11:37 19.01.2021
3560 Clear 3 1023 38 10000 11.83 340 11:19 19.01.2021
3561 Clouds 3 1022 38 10000 9.26 350 10:41 19.01.2021
3562 Clouds 3 1022 38 10000 9.26 350 10:19 19.01.2021
3563 Clouds 4 1021 33 10000 9.26 350 09:51 19.01.2021
3564 Clouds 4 1019 28 10000 4.63 360 09:20 19.01.2021
3565 Clouds 5 1019 28 10000 4.63 360 08:35 19.01.2021
3566 Clouds 6 1018 24 10000 6.69 320 07:53 19.01.2021
3567 Clouds 7 1018 24 10000 6.69 320 07:18 19.01.2021
3568 Clouds 8 1015 25 10000 5.14 320 04:48 19.01.2021
3569 Clouds 7 1016 29 10000 5.66 320 02:23 19.01.2021
3570 Clouds 5 1014 36 10000 4.12 320 00:45 19.01.2021
3571 Clouds 5 1013 56 10000 8.75 350 23:57 18.01.2021
3572 Clouds 4 1013 48 10000 8.23 330 23:28 18.01.2021
3573 Clouds 3 1011 60 10000 3.09 320 22:44 18.01.2021
3574 Clouds 2 1011 60 10000 3.09 320 22:23 18.01.2021
3575 Clouds 4 1010 48 10000 4.12 290 21:48 18.01.2021
3576 Clouds 4 1010 48 10000 4.12 290 21:23 18.01.2021
3577 Clouds 4 1009 52 10000 5.66 300 20:57 18.01.2021
3578 Clouds 4 1009 52 10000 6.69 250 20:34 18.01.2021
3579 Clouds 5 1008 49 10000 8.23 230 19:54 18.01.2021
3580 Clouds 5 1008 49 10000 8.23 230 19:54 18.01.2021
3581 Clouds 5 1008 52 10000 6.17 230 19:35 18.01.2021
3582 Clouds 5 1008 52 10000 6.69 240 18:57 18.01.2021
3583 Clouds 5 1008 56 10000 7.2 250 18:38 18.01.2021
3584 Clouds 5 1008 56 10000 7.2 250 18:19 18.01.2021
3585 Clear 5 1008 49 10000 9.77 230 17:39 18.01.2021
3586 Clear 5 1007 45 10000 11.32 230 16:55 18.01.2021
3587 Clear 5 1008 45 10000 10.8 230 16:36 18.01.2021
3588 Clear 5 1008 42 10000 11.32 230 15:59 18.01.2021
3589 Clouds 6 1007 42 10000 11.83 230 15:41 18.01.2021
3590 Clouds 5 1007 42 10000 11.83 230 15:19 18.01.2021
3591 Clouds 5 1009 39 10000 9.77 250 14:42 18.01.2021
3592 Clouds 5 1009 39 10000 9.77 250 14:24 18.01.2021
3593 Clear 5 1009 60 10000 6.17 260 13:45 18.01.2021
3594 Clear 5 1009 49 10000 6.17 260 13:26 18.01.2021
3595 Clouds 5 1008 42 10000 6.69 240 12:51 18.01.2021
3596 Clouds 5 1009 53 10000 5.14 260 12:20 18.01.2021
3597 Clouds 6 1009 53 10000 5.14 260 11:53 18.01.2021
3598 Clouds 6 1009 65 10000 3.09 230 11:29 18.01.2021
3599 Clouds 6 1009 66 10000 1.54 0 10:57 18.01.2021
3600 Clouds 6 1009 70 10000 1.54 210 10:39 18.01.2021
3601 Clouds 6 1010 70 10000 2.06 140 09:43 18.01.2021
3602 Clouds 7 1010 57 10000 1.54 160 09:24 18.01.2021
3603 Clouds 8 1010 57 10000 1.54 160 08:48 18.01.2021
3604 Clouds 8 1011 57 10000 2.57 130 07:55 18.01.2021
3605 Clouds 8 1011 57 10000 2.57 130 07:27 18.01.2021
3606 Clouds 7 1014 53 10000 2.57 20 04:59 18.01.2021
3607 Clouds 6 1014 53 10000 2.57 20 04:33 18.01.2021
3608 Clouds 6 1015 56 10000 3.09 20 03:59 18.01.2021
3609 Clouds 6 1015 56 10000 3.09 20 03:41 18.01.2021
3610 Clouds 5 1015 56 10000 3.09 20 03:19 18.01.2021
3611 Clouds 5 1016 60 10000 2.57 360 02:37 18.01.2021
3612 Clouds 3 1016 65 10000 3.09 10 00:49 18.01.2021
3613 Clouds 3 1016 65 10000 5.14 10 00:30 18.01.2021
3614 Clouds 2 1016 70 10000 5.14 10 23:48 17.01.2021
3615 Clouds 2 1016 70 10000 5.66 360 23:20 17.01.2021
3616 Clouds 2 1016 70 10000 4.63 360 22:39 17.01.2021
3617 Clouds 3 1016 70 10000 4.63 360 22:20 17.01.2021
3618 Clouds 2 1015 70 10000 4.63 40 21:40 17.01.2021
3619 Clouds 3 1015 70 10000 4.63 40 21:22 17.01.2021
3620 Clouds 3 1015 70 10000 4.63 30 20:48 17.01.2021
3621 Clear 3 1015 70 10000 4.63 20 20:28 17.01.2021
3622 Clear 3 1015 65 10000 4.63 20 19:42 17.01.2021
3623 Clear 3 1015 65 10000 4.63 20 19:24 17.01.2021
3624 Clouds 3 1016 70 10000 4.12 20 18:44 17.01.2021
3625 Clouds 3 1016 70 10000 4.12 20 18:26 17.01.2021
3626 Clouds 4 1016 70 10000 4.63 30 17:48 17.01.2021
3627 Clouds 4 1016 70 10000 4.63 30 17:26 17.01.2021
3628 Clouds 4 1015 70 10000 5.14 20 16:44 17.01.2021
3629 Clouds 4 1015 70 10000 5.14 20 16:24 17.01.2021
3630 Clouds 4 1015 65 10000 4.12 20 15:43 17.01.2021
3631 Clouds 5 1015 65 10000 4.12 20 15:25 17.01.2021
3632 Clouds 5 1015 65 10000 5.66 30 14:49 17.01.2021
3633 Clouds 5 1015 65 10000 6.17 30 14:26 17.01.2021
3634 Clouds 5 1015 70 10000 5.14 20 13:47 17.01.2021
3635 Clouds 5 1015 70 10000 5.66 40 13:29 17.01.2021
3636 Clouds 5 1014 70 10000 4.63 30 12:55 17.01.2021
3637 Clouds 5 1014 65 10000 5.66 360 12:32 17.01.2021
3638 Clouds 6 1014 65 10000 5.66 360 11:59 17.01.2021
3639 Clouds 6 1014 57 10000 5.66 10 11:24 17.01.2021
3640 Clouds 6 1014 61 10000 5.14 10 10:49 17.01.2021
3641 Clouds 6 1013 57 10000 5.66 20 10:21 17.01.2021
3642 Clouds 7 1013 61 10000 5.14 30 09:46 17.01.2021
3643 Clouds 7 1013 53 10000 3.09 50 08:47 17.01.2021
3644 Clouds 8 1013 53 10000 4.63 50 07:51 17.01.2021
3645 Clouds 8 1014 49 10000 3.09 30 04:29 17.01.2021
3646 Clouds 7 1016 45 10000 2.57 30 02:49 17.01.2021
3647 Clouds 7 1016 52 10000 3.6 70 00:52 17.01.2021
3648 Clouds 6 1016 61 10000 2.57 40 00:20 17.01.2021
3649 Clouds 5 1016 61 10000 3.09 30 23:52 16.01.2021
3650 Clouds 5 1016 65 10000 2.57 40 23:20 16.01.2021
3651 Clouds 5 1016 70 10000 3.09 50 22:52 16.01.2021
3652 Clouds 6 1015 53 10000 3.09 20 22:18 16.01.2021
3653 Clouds 6 1015 49 10000 4.12 10 21:43 16.01.2021
3654 Clouds 6 1015 49 10000 4.12 10 21:22 16.01.2021
3655 Clouds 6 1015 49 10000 3.6 10 20:47 16.01.2021
3656 Clouds 6 1015 49 10000 3.6 10 20:23 16.01.2021
3657 Clouds 6 1014 49 10000 5.14 360 19:48 16.01.2021
3658 Clouds 6 1014 49 10000 5.14 30 19:29 16.01.2021
3659 Clouds 6 1014 49 10000 5.14 20 18:45 16.01.2021
3660 Clouds 7 1014 53 10000 5.14 20 18:26 16.01.2021
3661 Clouds 7 1014 46 10000 6.17 10 17:50 16.01.2021
3662 Clouds 7 1014 49 10000 7.2 360 17:30 16.01.2021
3663 Clouds 7 1013 46 10000 7.2 360 16:50 16.01.2021
3664 Clouds 7 1013 49 10000 7.72 10 16:31 16.01.2021
3665 Clouds 8 1013 49 10000 8.75 10 15:55 16.01.2021
3666 Clouds 8 1013 46 10000 8.75 10 15:36 16.01.2021
3667 Clouds 8 1012 46 10000 8.75 340 14:31 16.01.2021
3668 Clouds 8 1011 49 10000 10.29 340 13:52 16.01.2021
3669 Clouds 8 1011 49 10000 8.23 350 13:30 16.01.2021
3670 Clouds 9 1011 50 10000 10.29 350 12:47 16.01.2021
3671 Clouds 9 1011 53 10000 6.69 340 12:23 16.01.2021
3672 Clouds 9 1010 62 10000 7.72 350 11:55 16.01.2021
3673 Clouds 10 1010 62 10000 6.69 340 11:26 16.01.2021
3674 Clouds 11 1010 58 10000 6.69 330 10:54 16.01.2021
3675 Clouds 11 1009 47 10000 6.17 330 10:35 16.01.2021
3676 Clouds 13 1008 50 10000 8.75 350 09:54 16.01.2021
3677 Clouds 15 1007 45 10000 6.17 300 09:19 16.01.2021
3678 Clouds 16 1007 45 10000 6.17 300 08:19 16.01.2021
3679 Clouds 18 1005 48 10000 5.14 230 06:49 16.01.2021
3680 Clouds 18 1007 48 10000 6.17 210 04:53 16.01.2021
3681 Clouds 15 1009 67 8000 1.03 0 03:38 16.01.2021
3682 Clouds 11 1011 76 6000 2.06 140 02:42 16.01.2021
3683 Clouds 8 1013 87 9000 2.06 330 00:46 16.01.2021
3684 Clouds 7 1013 87 9000 2.06 330 00:23 16.01.2021
3685 Clouds 5 1013 93 10000 3.6 330 23:37 15.01.2021
3686 Clouds 6 1013 87 10000 1.54 320 22:41 15.01.2021
3687 Clouds 7 1013 87 10000 1.54 320 22:21 15.01.2021
3688 Clouds 7 1014 81 10000 0.51 0 21:43 15.01.2021
3689 Clouds 5 1014 81 10000 2.06 170 20:49 15.01.2021
3690 Clouds 6 1014 81 10000 0.51 0 20:24 15.01.2021
3691 Clouds 6 1015 81 10000 1.03 0 19:58 15.01.2021
3692 Clouds 6 1015 76 10000 0.51 0 19:39 15.01.2021
3693 Clouds 6 1015 76 10000 0.51 0 19:21 15.01.2021
3694 Clouds 7 1016 76 10000 0.51 0 18:42 15.01.2021
3695 Clouds 7 1016 76 10000 0.51 0 18:18 15.01.2021
3696 Clouds 7 1017 76 10000 1.54 260 17:41 15.01.2021
3697 Clouds 7 1017 76 10000 1.54 260 17:21 15.01.2021
3698 Clouds 7 1017 81 10000 1.54 290 16:46 15.01.2021
3699 Clouds 7 1017 81 10000 1.54 290 16:24 15.01.2021
3700 Clouds 7 1018 81 10000 1.54 320 15:41 15.01.2021
3701 Clouds 7 1018 81 10000 1.54 320 15:21 15.01.2021
3702 Clouds 7 1018 81 10000 3.09 310 14:46 15.01.2021
3703 Clouds 7 1019 81 10000 4.63 310 14:27 15.01.2021
3704 Clouds 7 1019 81 10000 4.63 340 13:43 15.01.2021
3705 Clouds 7 1019 81 10000 4.63 340 13:22 15.01.2021
3706 Clouds 7 1019 81 10000 4.63 360 12:57 15.01.2021
3707 Clouds 7 1020 81 10000 4.63 350 12:32 15.01.2021
3708 Clouds 7 1020 81 10000 5.14 350 11:56 15.01.2021
3709 Clouds 7 1020 81 10000 5.14 350 11:36 15.01.2021
3710 Clouds 7 1020 81 10000 5.66 360 10:57 15.01.2021
3711 Clouds 7 1020 81 10000 5.66 360 10:39 15.01.2021
3712 Clouds 7 1020 81 10000 5.66 360 10:19 15.01.2021
3713 Clouds 7 1020 81 10000 5.66 40 09:41 15.01.2021
3714 Clouds 7 1021 81 10000 3.09 40 09:20 15.01.2021
3715 Clouds 7 1021 81 10000 3.09 40 08:25 15.01.2021
3716 Clouds 8 1021 76 10000 3.09 20 07:41 15.01.2021
3717 Clouds 7 1021 76 10000 3.09 20 07:20 15.01.2021
3718 Clouds 7 1022 65 10000 2.57 350 05:36 15.01.2021
3719 Rain 6 1025 57 10000 3.6 360 02:19 15.01.2021
3720 Rain 6 1024 65 10000 4.12 10 23:55 14.01.2021
3721 Clouds 6 1024 61 10000 4.63 20 23:29 14.01.2021
3722 Clouds 6 1024 65 10000 4.63 10 22:50 14.01.2021
3723 Clouds 6 1024 61 10000 4.12 10 22:27 14.01.2021
3724 Clouds 6 1023 61 10000 4.12 360 21:56 14.01.2021
3725 Clouds 6 1023 61 10000 5.14 30 21:37 14.01.2021
3726 Clouds 6 1023 57 10000 4.63 20 21:19 14.01.2021
3727 Clouds 6 1023 53 10000 5.14 10 20:42 14.01.2021
3728 Clouds 6 1022 53 10000 5.66 20 19:57 14.01.2021
3729 Clouds 6 1022 57 10000 6.17 30 19:36 14.01.2021
3730 Clear 7 1022 57 10000 7.2 350 18:57 14.01.2021
3731 Clear 7 1022 53 10000 7.2 350 18:36 14.01.2021
3732 Clear 7 1022 53 10000 6.17 350 17:55 14.01.2021
3733 Clear 8 1022 53 10000 6.17 350 17:29 14.01.2021
3734 Clouds 8 1022 49 10000 7.2 350 16:54 14.01.2021
3735 Clouds 8 1022 50 10000 7.72 350 16:30 14.01.2021
3736 Clouds 8 1022 50 10000 7.72 360 15:54 14.01.2021
3737 Clear 9 1021 50 10000 6.69 10 15:30 14.01.2021
3738 Clear 9 1021 50 10000 7.2 360 14:44 14.01.2021
3739 Clear 9 1021 46 10000 7.72 350 14:24 14.01.2021
3740 Clear 9 1021 50 10000 6.69 340 13:55 14.01.2021
3741 Clear 9 1020 46 10000 6.17 330 13:24 14.01.2021
3742 Clear 10 1020 46 10000 7.2 340 12:57 14.01.2021
3743 Clear 10 1019 47 10000 5.14 350 12:22 14.01.2021
3744 Clear 10 1019 71 10000 2.06 360 11:58 14.01.2021
3745 Clear 11 1019 62 10000 1.03 80 11:38 14.01.2021
3746 Clear 10 1018 76 10000 1.54 30 11:19 14.01.2021
3747 Clear 10 1018 76 10000 1.54 40 10:40 14.01.2021
3748 Clear 11 1018 76 10000 1.54 40 10:19 14.01.2021
3749 Clouds 11 1017 87 10000 2.06 110 09:42 14.01.2021
3750 Clear 12 1016 71 10000 1.54 110 09:21 14.01.2021
3751 Clouds 14 1016 30 10000 1.54 160 08:34 14.01.2021
3752 Clouds 14 1015 33 10000 3.6 150 07:58 14.01.2021
3753 Clear 13 1016 66 10000 2.06 140 07:39 14.01.2021
3754 Clear 13 1015 66 10000 2.57 150 06:37 14.01.2021
3755 Clear 13 1015 62 10000 3.6 150 04:57 14.01.2021
3756 Clouds 6 1016 61 10000 1.54 0 00:34 14.01.2021
3757 Clouds 4 1016 65 10000 2.57 270 23:33 13.01.2021
3758 Clouds 4 1016 60 10000 3.09 290 22:51 13.01.2021
3759 Clouds 4 1016 60 10000 3.09 300 22:26 13.01.2021
3760 Clouds 4 1015 65 10000 3.09 310 21:48 13.01.2021
3761 Clouds 4 1015 56 10000 3.09 310 21:24 13.01.2021
3762 Clouds 5 1015 56 10000 4.12 330 20:51 13.01.2021
3763 Clouds 5 1015 61 10000 5.14 330 20:28 13.01.2021
3764 Clouds 5 1015 56 10000 4.63 310 19:56 13.01.2021
3765 Clouds 5 1015 65 10000 3.6 310 19:31 13.01.2021
3766 Clouds 5 1015 60 10000 2.57 300 18:53 13.01.2021
3767 Clouds 5 1015 60 10000 2.57 300 18:53 13.01.2021
3768 Clouds 5 1015 65 10000 3.09 310 18:34 13.01.2021
3769 Clouds 5 1015 70 10000 2.57 310 17:51 13.01.2021
3770 Clouds 5 1015 65 10000 3.09 280 17:19 13.01.2021
3771 Clouds 6 1015 65 10000 3.09 280 16:50 13.01.2021
3772 Clouds 7 1016 65 10000 3.09 280 16:21 13.01.2021
3773 Clouds 7 1016 70 10000 2.06 270 15:51 13.01.2021
3774 Clouds 8 1016 61 10000 1.54 320 15:32 13.01.2021
3775 Clouds 8 1016 61 10000 2.06 320 14:43 13.01.2021
3776 Clouds 8 1016 53 10000 2.06 120 13:51 13.01.2021
3777 Clouds 7 1016 71 10000 2.57 130 13:27 13.01.2021
3778 Clouds 8 1016 66 10000 2.06 110 12:46 13.01.2021
3779 Clouds 8 1016 66 10000 2.06 110 12:28 13.01.2021
3780 Clouds 8 1016 66 10000 2.06 110 12:28 13.01.2021
3781 Clouds 8 1016 66 10000 2.57 130 11:53 13.01.2021
3782 Clouds 8 1015 57 10000 2.06 140 11:35 13.01.2021
3783 Clouds 8 1015 46 10000 2.06 150 10:55 13.01.2021
3784 Clouds 8 1015 40 10000 1.03 0 10:37 13.01.2021
3785 Clouds 9 1015 37 10000 1.03 0 09:55 13.01.2021
3786 Clouds 9 1014 57 10000 3.09 140 09:30 13.01.2021
3787 Clouds 10 1014 57 10000 3.09 140 08:51 13.01.2021
3788 Clouds 10 1014 57 10000 3.09 140 08:31 13.01.2021
3789 Clouds 11 1013 57 10000 3.09 160 07:35 13.01.2021
3790 Clear 11 1013 57 10000 3.6 150 06:54 13.01.2021
3791 Clouds 10 1013 43 10000 1.54 310 04:20 13.01.2021
3792 Clouds 10 1014 46 10000 3.09 300 03:45 13.01.2021
3793 Clouds 9 1014 46 10000 3.09 300 03:27 13.01.2021
3794 Clear 6 1014 75 10000 2.05 338 01:19 13.01.2021
3795 Clouds 4 1014 81 10000 1.54 300 00:29 13.01.2021
3796 Clouds 1 1013 93 10000 1.03 0 23:22 12.01.2021
3797 Clear 2 1012 86 10000 1.54 270 22:46 12.01.2021
3798 Clear 2 1012 86 10000 1.54 270 22:46 12.01.2021
3799 Clear 2 1012 86 10000 1.54 270 22:24 12.01.2021
3800 Clear 2 1012 93 10000 1.54 270 21:51 12.01.2021
3801 Clear 2 1012 93 10000 2.06 260 21:30 12.01.2021
3802 Clouds 2 1012 93 10000 2.57 270 20:49 12.01.2021
3803 Clear 2 1012 87 10000 2.57 280 20:27 12.01.2021
3804 Clear 2 1011 87 10000 2.57 270 19:55 12.01.2021
3805 Clear 3 1011 87 10000 2.57 290 19:35 12.01.2021
3806 Clouds 3 1011 87 10000 2.06 280 18:46 12.01.2021
3807 Clouds 3 1011 87 10000 2.06 260 18:24 12.01.2021
3808 Clouds 3 1011 81 10000 2.57 270 17:44 12.01.2021
3809 Clouds 3 1011 81 10000 2.06 310 17:25 12.01.2021
3810 Clouds 3 1011 81 10000 3.09 320 16:44 12.01.2021
3811 Clouds 3 1011 81 10000 3.09 320 16:24 12.01.2021
3812 Clouds 4 1011 81 10000 3.6 310 15:45 12.01.2021
3813 Clouds 4 1012 75 10000 3.09 300 15:21 12.01.2021
3814 Clouds 4 1011 75 10000 3.09 310 14:44 12.01.2021
3815 Clouds 4 1011 75 10000 4.63 310 14:25 12.01.2021
3816 Clouds 4 1011 81 10000 4.12 320 13:52 12.01.2021
3817 Clouds 4 1012 81 10000 4.63 320 13:22 12.01.2021
3818 Clouds 4 1011 81 10000 3.6 310 12:26 12.01.2021
3819 Rain 4 1010 81 10000 3.6 350 11:41 12.01.2021
3820 Rain 4 1011 87 10000 5.66 350 10:55 12.01.2021
3821 Rain 4 1011 87 10000 5.66 350 10:55 12.01.2021
3822 Rain 4 1011 87 10000 4.12 10 10:26 12.01.2021
3823 Rain 4 1011 81 10000 4.12 20 09:58 12.01.2021
3824 Rain 4 1012 81 10000 3.6 340 09:38 12.01.2021
3825 Rain 4 1011 75 10000 3.09 330 09:18 12.01.2021
3826 Rain 4 1011 75 10000 3.09 330 08:26 12.01.2021
3827 Rain 4 1012 75 10000 3.09 310 07:37 12.01.2021
3828 Rain 4 1013 81 7000 1.54 350 06:50 12.01.2021
3829 Rain 5 1014 70 8000 2.57 10 05:35 12.01.2021
3830 Rain 5 1015 56 10000 2.06 10 03:33 12.01.2021
3831 Clouds 5 1016 56 10000 4.63 320 02:21 12.01.2021
3832 Clouds 4 1018 52 10000 4.12 300 01:31 12.01.2021
3833 Clouds 3 1017 60 10000 4.12 320 00:19 12.01.2021
3834 Clouds 2 1018 69 10000 2.57 320 23:39 11.01.2021
3835 Clouds 2 1018 69 10000 2.57 320 23:18 11.01.2021
3836 Clouds 2 1018 70 10000 4.12 350 22:45 11.01.2021
3837 Clouds 3 1018 70 10000 4.12 350 22:27 11.01.2021
3838 Clouds 3 1018 60 10000 4.63 350 21:44 11.01.2021
3839 Clouds 3 1018 60 10000 4.63 350 21:25 11.01.2021
3840 Clouds 3 1018 56 10000 4.63 360 20:50 11.01.2021
3841 Clouds 3 1019 48 10000 3.09 330 20:31 11.01.2021
3842 Clouds 3 1020 48 10000 4.12 320 19:59 11.01.2021
3843 Clouds 3 1020 52 10000 4.63 360 19:37 11.01.2021
3844 Clouds 3 1020 52 10000 4.63 360 19:19 11.01.2021
3845 Clouds 3 1020 48 10000 5.14 360 18:41 11.01.2021
3846 Clouds 3 1020 48 10000 5.14 360 18:22 11.01.2021
3847 Clouds 3 1021 48 10000 5.66 10 17:42 11.01.2021
3848 Clouds 4 1021 48 10000 5.66 10 17:23 11.01.2021
3849 Clouds 4 1021 56 10000 5.14 30 16:47 11.01.2021
3850 Clouds 4 1021 49 10000 4.63 20 16:28 11.01.2021
3851 Clouds 4 1022 52 10000 4.12 320 15:53 11.01.2021
3852 Clouds 3 1023 56 10000 4.12 300 15:33 11.01.2021
3853 Clouds 3 1023 56 10000 2.06 300 14:45 11.01.2021
3854 Clouds 4 1024 52 10000 1.03 0 14:26 11.01.2021
3855 Clouds 4 1024 45 10000 3.6 90 13:45 11.01.2021
3856 Clouds 4 1024 45 10000 3.6 90 13:22 11.01.2021
3857 Clouds 4 1024 48 10000 3.09 60 12:42 11.01.2021
3858 Clouds 4 1024 48 10000 3.09 60 12:23 11.01.2021
3859 Clouds 4 1023 48 10000 3.09 80 11:45 11.01.2021
3860 Clouds 4 1023 45 10000 3.6 60 10:58 11.01.2021
3861 Clouds 5 1023 39 10000 3.6 70 10:38 11.01.2021
3862 Clouds 5 1023 39 10000 3.09 50 09:54 11.01.2021
3863 Clouds 5 1023 42 10000 5.14 50 09:36 11.01.2021
3864 Clouds 6 1023 33 10000 4.12 40 08:52 11.01.2021
3865 Clouds 6 1023 33 10000 4.12 40 08:33 11.01.2021
3866 Clouds 6 1024 33 10000 2.06 60 07:48 11.01.2021
3867 Clouds 6 1024 33 10000 2.06 60 07:25 11.01.2021
3868 Clouds 7 1024 36 10000 2.57 30 06:49 11.01.2021
3869 Clouds 3 1024 48 10000 2.06 360 02:31 11.01.2021
3870 Clouds 1 1023 55 10000 1.54 10 00:57 11.01.2021
3871 Clouds 1 1021 55 10000 7.2 10 23:48 10.01.2021
3872 Clouds 0 1021 55 10000 5.66 350 23:23 10.01.2021
3873 Clouds 0 1020 55 10000 4.63 340 22:44 10.01.2021
3874 Clouds 1 1020 59 10000 3.6 330 22:20 10.01.2021
3875 Clear 1 1019 55 10000 4.63 360 21:41 10.01.2021
3876 Clear 1 1019 55 10000 4.63 360 21:20 10.01.2021
3877 Clear 1 1018 55 10000 5.14 10 20:50 10.01.2021
3878 Clear 1 1018 60 10000 4.12 10 20:29 10.01.2021
3879 Clouds 0 1018 51 10000 2.06 320 19:42 10.01.2021
3880 Clouds 1 1018 51 10000 2.06 320 19:24 10.01.2021
3881 Clouds 1 1018 51 10000 3.6 300 18:46 10.01.2021
3882 Clouds 2 1018 44 10000 3.6 290 18:21 10.01.2021
3883 Clouds 2 1018 44 10000 2.57 280 17:27 10.01.2021
3884 Clouds 3 1018 41 10000 3.09 290 16:58 10.01.2021
3885 Clouds 3 1018 41 10000 3.6 320 16:32 10.01.2021
3886 Clouds 4 1018 45 10000 4.63 340 15:48 10.01.2021
3887 Clouds 5 1018 45 10000 4.63 340 15:25 10.01.2021
3888 Clouds 5 1018 42 10000 2.06 40 14:44 10.01.2021
3889 Clouds 5 1018 42 10000 2.06 40 14:25 10.01.2021
3890 Clouds 5 1018 36 10000 3.09 80 13:54 10.01.2021
3891 Clouds 5 1018 39 10000 3.09 100 13:36 10.01.2021
3892 Clouds 5 1018 39 10000 3.09 100 13:36 10.01.2021
3893 Clouds 5 1018 39 10000 3.09 110 13:18 10.01.2021
3894 Clouds 5 1018 33 10000 3.09 110 12:42 10.01.2021
3895 Clouds 5 1018 33 10000 2.06 110 11:58 10.01.2021
3896 Clouds 5 1018 33 10000 2.06 110 11:22 10.01.2021
3897 Clouds 5 1018 36 10000 2.06 120 10:58 10.01.2021
3898 Clouds 5 1017 36 10000 1.54 110 10:30 10.01.2021
3899 Clouds 5 1017 30 10000 2.06 120 09:58 10.01.2021
3900 Clouds 6 1016 39 10000 2.06 170 09:24 10.01.2021
3901 Clouds 7 1016 39 10000 2.06 170 08:20 10.01.2021
3902 Clouds 7 1016 33 10000 3.09 160 07:28 10.01.2021
3903 Clouds 7 1015 26 10000 3.09 40 06:19 10.01.2021
3904 Clouds 6 1015 26 10000 0.51 0 05:35 10.01.2021
3905 Clouds 5 1017 35 10000 4.12 310 02:56 10.01.2021
3906 Clouds 2 1016 51 10000 3.09 300 00:48 10.01.2021
3907 Clouds 1 1015 60 10000 2.57 340 23:48 09.01.2021
3908 Clouds -1 1015 64 10000 3.6 310 23:29 09.01.2021
3909 Clouds 0 1014 64 10000 5.14 360 22:47 09.01.2021
3910 Clear -1 1013 59 10000 2.06 280 22:18 09.01.2021
3911 Clear -1 1013 59 10000 2.06 280 21:56 09.01.2021
3912 Clear -1 1012 59 10000 2.57 280 21:38 09.01.2021
3913 Clear -1 1012 59 10000 2.57 280 21:18 09.01.2021
3914 Clear 0 1012 59 10000 3.09 270 20:39 09.01.2021
3915 Clear 0 1012 55 10000 2.57 290 19:45 09.01.2021
3916 Clear 1 1011 51 10000 2.57 300 19:22 09.01.2021
3917 Clear 1 1012 55 10000 2.57 280 18:44 09.01.2021
3918 Clouds 1 1011 47 10000 2.06 300 18:26 09.01.2021
3919 Clouds 2 1011 44 10000 2.57 330 17:47 09.01.2021
3920 Clouds 2 1011 38 10000 2.06 300 17:27 09.01.2021
3921 Clouds 2 1011 44 10000 1.03 0 16:36 09.01.2021
3922 Clouds 3 1011 35 10000 2.06 310 15:52 09.01.2021
3923 Clouds 2 1011 41 10000 3.09 300 15:32 09.01.2021
3924 Clear 3 1010 38 10000 3.09 310 14:41 09.01.2021
3925 Clear 3 1010 38 10000 3.09 310 14:20 09.01.2021
3926 Clear 2 1010 38 10000 3.09 310 13:49 09.01.2021
3927 Clear 3 1010 35 10000 2.06 290 13:30 09.01.2021
3928 Clouds 4 1010 30 10000 3.09 310 12:50 09.01.2021
3929 Clouds 4 1010 32 10000 3.09 310 12:24 09.01.2021
3930 Clouds 4 1010 32 10000 3.6 320 11:56 09.01.2021
3931 Clouds 5 1010 31 10000 4.63 360 11:33 09.01.2021
3932 Clouds 5 1010 31 10000 4.63 360 11:33 09.01.2021
3933 Clouds 5 1009 31 10000 5.14 20 10:55 09.01.2021
3934 Clouds 4 1008 26 10000 5.66 360 10:36 09.01.2021
3935 Clouds 5 1008 28 10000 3.09 350 09:54 09.01.2021
3936 Clouds 6 1007 33 10000 5.14 10 09:29 09.01.2021
3937 Clouds 7 1007 33 10000 3.6 100 08:59 09.01.2021
3938 Clouds 7 1007 29 10000 4.63 150 07:38 09.01.2021
3939 Clouds 7 1007 29 10000 4.63 150 07:38 09.01.2021
3940 Clouds 7 1006 16 10000 3.09 250 06:40 09.01.2021
3941 Clouds 7 1007 16 10000 5.14 280 04:54 09.01.2021
3942 Clouds 7 1008 21 10000 4.63 250 03:25 09.01.2021
3943 Clouds 6 1009 22 10000 5.14 260 02:38 09.01.2021
3944 Clouds 6 1009 22 10000 5.14 260 02:19 09.01.2021
3945 Clouds 3 1010 30 10000 4.12 250 00:37 09.01.2021
3946 Clouds 2 1010 30 10000 4.12 250 00:19 09.01.2021
3947 Clouds 1 1009 37 10000 1.54 270 23:26 08.01.2021
3948 Clouds 0 1009 43 10000 4.12 260 22:38 08.01.2021
3949 Clouds 1 1009 43 10000 4.12 270 21:46 08.01.2021
3950 Clouds 1 1009 43 10000 4.12 270 20:57 08.01.2021
3951 Clouds 1 1008 40 10000 5.66 270 20:27 08.01.2021
3952 Clouds 1 1008 47 10000 3.09 250 19:56 08.01.2021
3953 Clouds 1 1008 43 10000 3.6 260 19:23 08.01.2021
3954 Clouds 2 1009 47 10000 3.09 260 18:50 08.01.2021
3955 Clouds 2 1009 40 10000 4.63 270 18:30 08.01.2021
3956 Clouds 2 1008 44 10000 4.12 270 17:50 08.01.2021
3957 Clouds 2 1008 55 10000 3.09 260 17:22 08.01.2021
3958 Clouds 2 1008 51 10000 2.06 250 16:44 08.01.2021
3959 Clouds 3 1008 44 10000 1.03 210 15:45 08.01.2021
3960 Clouds 3 1008 44 10000 1.03 210 15:25 08.01.2021
3961 Clouds 2 1008 48 10000 2.57 310 14:36 08.01.2021
3962 Clouds 3 1008 44 10000 3.6 340 13:47 08.01.2021
3963 Clouds 3 1008 44 10000 5.14 320 13:21 08.01.2021
3964 Clouds 3 1008 44 10000 5.14 320 13:21 08.01.2021
3965 Clouds 4 1008 48 10000 6.69 10 12:50 08.01.2021
3966 Clouds 4 1007 38 10000 6.17 10 12:20 08.01.2021
3967 Rain 5 1007 52 10000 3.6 290 11:46 08.01.2021
3968 Clouds 5 1007 38 10000 2.06 300 11:28 08.01.2021
3969 Clouds 4 1007 48 10000 3.6 300 10:53 08.01.2021
3970 Clouds 5 1007 42 10000 2.06 0 10:35 08.01.2021
3971 Clouds 5 1006 45 10000 2.57 0 09:53 08.01.2021
3972 Clouds 5 1006 36 10000 1.54 50 09:31 08.01.2021
3973 Clouds 5 1006 36 10000 1.54 50 08:39 08.01.2021
3974 Rain 6 1006 38 10000 3.6 30 07:29 08.01.2021
3975 Clouds 5 1006 36 10000 1.54 80 06:21 08.01.2021
3976 Clouds 2 1008 44 10000 1.03 0 00:24 08.01.2021
3977 Clouds 1 1008 48 10000 3.09 10 23:41 07.01.2021
3978 Clouds 1 1007 48 10000 2.06 30 22:47 07.01.2021
3979 Clouds 1 1007 44 10000 4.12 10 22:26 07.01.2021
3980 Clouds 1 1007 40 10000 3.09 330 21:49 07.01.2021
3981 Clouds 1 1007 40 10000 2.57 320 21:27 07.01.2021
3982 Clouds 1 1007 43 10000 2.06 320 20:48 07.01.2021
3983 Clouds 1 1007 37 10000 2.57 310 20:29 07.01.2021
3984 Clouds 1 1007 37 10000 3.09 300 19:47 07.01.2021
3985 Clouds 2 1006 35 10000 5.14 320 19:23 07.01.2021
3986 Clear 2 1007 32 10000 5.14 320 18:40 07.01.2021
3987 Clear 2 1007 32 10000 5.14 320 18:19 07.01.2021
3988 Clear 3 1006 28 10000 6.69 320 17:31 07.01.2021
3989 Clear 3 1006 30 10000 7.2 330 16:55 07.01.2021
3990 Clear 3 1006 28 10000 8.75 330 16:32 07.01.2021
3991 Clear 4 1005 24 10000 6.69 310 15:48 07.01.2021
3992 Clear 4 1005 24 10000 6.69 310 15:48 07.01.2021
3993 Clear 4 1005 24 10000 6.17 310 15:30 07.01.2021
3994 Clear 4 1004 22 10000 6.17 310 14:28 07.01.2021
3995 Clear 5 1004 20 10000 6.17 310 13:50 07.01.2021
3996 Clear 5 1004 17 10000 6.69 310 13:28 07.01.2021
3997 Clouds 5 1000 18 10000 4.02 300 12:55 07.01.2021
3998 Clear 6 1002 26 10000 7.2 310 12:23 07.01.2021
3999 Clear 7 1001 36 10000 8.7 250 11:39 07.01.2021
4000 Clear 8 999 33 10000 10.3 250 10:56 07.01.2021
4001 Clouds 8 999 33 10000 11.3 250 10:37 07.01.2021
4002 Clouds 8 998 31 10000 12.3 240 09:57 07.01.2021
4003 Clouds 9 998 31 10000 12.3 240 09:38 07.01.2021
4004 Clouds 10 998 31 10000 13.4 250 08:40 07.01.2021
4005 Clouds 10 997 32 10000 10.3 230 08:21 07.01.2021
4006 Clouds 10 997 32 10000 10.3 230 07:42 07.01.2021
4007 Clouds 11 997 32 10000 10.8 230 06:46 07.01.2021
4008 Clouds 8 1004 65 10000 1.5 250 02:18 07.01.2021
4009 Clouds 4 1006 70 10000 2.6 330 23:58 06.01.2021
4010 Clouds 3 1007 69 10000 1.5 0 23:25 06.01.2021
4011 Clouds 3 1007 74 10000 2.6 350 22:23 06.01.2021
4012 Clouds 4 1007 75 10000 4.1 20 21:41 06.01.2021
4013 Clouds 4 1008 75 10000 2.6 10 21:22 06.01.2021
4014 Clouds 4 1008 75 10000 1.5 30 20:47 06.01.2021
4015 Clouds 4 1008 79 10000 1.5 20 20:22 06.01.2021
4016 Clouds 4 1009 75 10000 1 0 19:48 06.01.2021
4017 Clouds 4 1009 75 10000 1 0 19:28 06.01.2021
4018 Clouds 4 1009 75 10000 1 0 18:50 06.01.2021
4019 Clouds 4 1010 80 10000 1.5 30 18:31 06.01.2021
4020 Clouds 4 1010 75 10000 2.6 20 17:47 06.01.2021
4021 Clouds 4 1010 75 10000 2.6 20 17:28 06.01.2021
4022 Clouds 5 1011 70 10000 1.5 20 16:57 06.01.2021
4023 Clouds 5 1011 70 10000 2.1 10 16:21 06.01.2021
4024 Clouds 5 1011 70 10000 2.1 10 15:59 06.01.2021
4025 Clouds 5 1012 70 10000 2.1 20 15:39 06.01.2021
4026 Clouds 5 1012 70 10000 3.1 10 15:21 06.01.2021
4027 Clouds 5 1013 70 10000 3.6 10 14:31 06.01.2021
4028 Clouds 5 1013 70 10000 3.1 20 13:55 06.01.2021
4029 Clouds 5 1013 70 10000 3.6 30 13:27 06.01.2021
4030 Clouds 5 1013 70 10000 3.6 30 12:58 06.01.2021
4031 Clouds 6 1014 70 10000 4.6 40 12:30 06.01.2021
4032 Clouds 6 1014 70 10000 6.2 40 11:44 06.01.2021
4033 Clouds 6 1014 75 10000 5.7 50 11:21 06.01.2021
4034 Clouds 6 1014 70 10000 5.7 40 10:39 06.01.2021
4035 Clouds 6 1014 75 10000 6.7 40 09:52 06.01.2021
4036 Clouds 6 1014 75 10000 6.7 40 09:31 06.01.2021
4037 Clouds 6 1014 70 10000 4.1 60 08:52 06.01.2021
4038 Clouds 6 1013 70 10000 4.1 60 08:19 06.01.2021
4039 Clouds 6 1013 70 10000 4.1 60 07:51 06.01.2021
4040 Clouds 6 1013 60 10000 5.1 40 06:44 06.01.2021
4041 Clouds 6 1013 65 10000 3.6 30 05:29 06.01.2021
4042 Clouds 6 1014 65 10000 5.1 30 03:21 06.01.2021
4043 Clouds 6 1014 65 10000 5.1 30 02:42 06.01.2021
4044 Clouds 6 1014 70 10000 5.7 20 02:20 06.01.2021
4045 Clouds 5 1014 81 10000 7.7 20 23:51 05.01.2021
4046 Clouds 5 1013 81 10000 5.7 360 22:57 05.01.2021
4047 Clouds 5 1013 81 10000 5.7 360 22:38 05.01.2021
4048 Clouds 5 1013 70 10000 6.2 360 22:19 05.01.2021
4049 Clouds 5 1012 70 10000 5.7 360 21:26 05.01.2021
4050 Clouds 6 1012 75 10000 4.6 350 20:31 05.01.2021
4051 Clouds 6 1013 81 10000 5.1 330 19:57 05.01.2021
4052 Clouds 6 1013 81 10000 5.1 330 19:38 05.01.2021
4053 Clouds 6 1013 81 10000 6.2 350 19:20 05.01.2021
4054 Clouds 6 1012 81 10000 4.1 360 18:42 05.01.2021
4055 Clouds 6 1013 81 10000 3.6 20 18:19 05.01.2021
4056 Clouds 6 1013 81 10000 4.1 10 17:42 05.01.2021
4057 Rain 6 1013 81 10000 3.6 20 17:21 05.01.2021
4058 Clouds 6 1013 81 10000 2.6 360 16:45 05.01.2021
4059 Clouds 6 1013 81 10000 3.6 360 16:21 05.01.2021
4060 Clouds 6 1013 81 10000 4.1 10 15:49 05.01.2021
4061 Clouds 6 1014 81 10000 3.6 10 14:49 05.01.2021
4062 Rain 7 1015 81 10000 3.6 360 14:20 05.01.2021
4063 Clouds 7 1015 81 10000 2.6 360 13:44 05.01.2021
4064 Clouds 7 1014 81 10000 3.6 30 13:21 05.01.2021
4065 Rain 7 1015 81 10000 4.6 20 12:47 05.01.2021
4066 Clouds 7 1015 81 10000 5.7 30 12:22 05.01.2021
4067 Clouds 8 1016 81 10000 5.7 20 11:39 05.01.2021
4068 Clouds 8 1016 66 10000 3.6 60 10:46 05.01.2021
4069 Clouds 9 1016 66 10000 3.6 60 10:27 05.01.2021
4070 Clouds 9 1016 70 10000 3.6 70 09:49 05.01.2021
4071 Clouds 9 1016 70 10000 3.6 70 09:49 05.01.2021
4072 Clouds 9 1017 70 10000 2.6 80 09:28 05.01.2021
4073 Clouds 9 1017 70 10000 2.6 80 08:27 05.01.2021
4074 Clouds 10 1016 70 10000 3.1 110 06:47 05.01.2021
4075 Clouds 9 1018 61 10000 1.5 50 04:55 05.01.2021
4076 Clouds 5 1021 60 10000 2.6 350 00:51 05.01.2021
4077 Clouds 5 1021 65 10000 2.6 20 23:46 04.01.2021
4078 Clouds 4 1021 65 10000 2.6 20 23:26 04.01.2021
4079 Clouds 4 1021 60 10000 2.6 50 22:54 04.01.2021
4080 Clouds 4 1021 60 10000 2.6 50 22:34 04.01.2021
4081 Clouds 4 1021 56 10000 1.5 330 21:52 04.01.2021
4082 Clouds 4 1021 56 10000 1.5 330 21:34 04.01.2021
4083 Clouds 4 1021 56 10000 2.6 310 20:48 04.01.2021
4084 Clouds 4 1022 56 10000 2.6 310 20:29 04.01.2021
4085 Clouds 5 1021 56 10000 3.6 320 19:52 04.01.2021
4086 Clouds 5 1021 60 10000 4.1 320 19:28 04.01.2021
4087 Clear 5 1021 56 10000 3.6 310 18:58 04.01.2021
4088 Clear 5 1021 56 10000 4.6 310 18:25 04.01.2021
4089 Clear 5 1022 60 10000 5.1 320 17:44 04.01.2021
4090 Clear 5 1021 58 10000 3.6 310 17:25 04.01.2021
4091 Clear 5 1022 58 10000 4.1 290 16:48 04.01.2021
4092 Clear 6 1022 75 10000 2.6 290 16:27 04.01.2021
4093 Rain 7 1021 70 10000 0.5 0 15:50 04.01.2021
4094 Clouds 7 1022 70 10000 2.6 140 15:31 04.01.2021
4095 Clouds 6 1022 70 10000 3.6 140 14:46 04.01.2021
4096 Clouds 7 1023 65 10000 4.1 130 13:48 04.01.2021
4097 Clouds 7 1023 70 10000 3.1 130 13:25 04.01.2021
4098 Clouds 7 1023 61 10000 4.1 130 12:44 04.01.2021
4099 Clouds 8 1024 49 10000 1.5 80 11:59 04.01.2021
4100 Clouds 8 1024 42 10000 0.5 0 11:29 04.01.2021
4101 Clouds 8 1024 45 10000 3.1 340 10:54 04.01.2021
4102 Clouds 8 1024 45 10000 3.1 340 10:29 04.01.2021
4103 Clouds 8 1023 49 10000 2.6 20 09:58 04.01.2021
4104 Clear 9 1022 45 10000 1 0 09:22 04.01.2021
4105 Clouds 10 1022 39 10000 1.5 110 08:48 04.01.2021
4106 Clear 10 1022 45 10000 1 0 08:18 04.01.2021
4107 Clear 11 1022 45 10000 1 0 07:44 04.01.2021
4108 Clouds 10 1022 45 10000 2.6 100 05:34 04.01.2021
4109 Clouds 10 1022 39 10000 1.5 100 04:44 04.01.2021
4110 Clouds 5 1024 48 10000 1 310 01:26 04.01.2021
4111 Clouds 3 1024 55 10000 2.6 330 23:51 03.01.2021
4112 Clouds 3 1023 55 10000 3.1 320 23:26 03.01.2021
4113 Clouds 3 1023 55 10000 3.1 320 22:57 03.01.2021
4114 Clouds 3 1023 55 10000 3.1 310 22:38 03.01.2021
4115 Clouds 3 1023 55 10000 3.1 310 22:18 03.01.2021
4116 Clouds 3 1023 59 10000 4.6 330 21:34 03.01.2021
4117 Clouds 3 1023 55 10000 4.1 350 20:56 03.01.2021
4118 Clouds 4 1023 56 10000 4.1 320 20:38 03.01.2021
4119 Clouds 4 1023 60 10000 3.1 300 19:59 03.01.2021
4120 Clouds 4 1023 60 10000 2.6 290 19:37 03.01.2021
4121 Clouds 4 1023 52 10000 2.1 280 19:19 03.01.2021
4122 Clouds 4 1023 52 10000 2.6 280 18:42 03.01.2021
4123 Clouds 5 1023 56 10000 3.1 300 18:21 03.01.2021
4124 Clouds 4 1022 60 10000 2.1 270 17:49 03.01.2021
4125 Clouds 5 1023 52 10000 2.1 300 17:26 03.01.2021
4126 Clouds 5 1023 60 10000 3.1 300 16:44 03.01.2021
4127 Clouds 5 1023 56 10000 2.6 320 16:20 03.01.2021
4128 Clouds 5 1024 56 10000 3.6 300 15:52 03.01.2021
4129 Clouds 5 1024 56 10000 3.6 300 15:34 03.01.2021
4130 Clouds 5 1024 60 10000 2.6 290 14:58 03.01.2021
4131 Clouds 6 1024 56 10000 1.5 330 14:31 03.01.2021
4132 Clouds 6 1023 48 10000 1 0 13:47 03.01.2021
4133 Clouds 6 1023 48 10000 2.6 50 13:23 03.01.2021
4134 Clouds 6 1023 48 10000 2.6 50 13:23 03.01.2021
4135 Clouds 5 1024 48 10000 3.1 30 12:51 03.01.2021
4136 Clouds 6 1023 48 10000 3.1 60 11:44 03.01.2021
4137 Clouds 6 1023 48 10000 3.1 60 11:25 03.01.2021
4138 Clouds 6 1023 48 10000 3.6 20 10:55 03.01.2021
4139 Clouds 6 1023 48 10000 3.6 20 10:30 03.01.2021
4140 Clouds 6 1022 45 10000 3.6 10 09:41 03.01.2021
4141 Clouds 7 1022 42 10000 2.1 10 09:23 03.01.2021
4142 Clouds 8 1021 39 10000 2.1 30 07:58 03.01.2021
4143 Clouds 7 1020 42 10000 1.5 0 05:59 03.01.2021
4144 Clouds 4 1022 48 10000 2.1 70 02:29 03.01.2021
4145 Clouds 4 1022 51 10000 1.5 50 01:48 03.01.2021
4146 Clouds 2 1022 59 10000 3.6 20 00:24 03.01.2021
4147 Clouds 2 1022 64 10000 2.1 30 23:30 02.01.2021
4148 Clouds 2 1022 59 10000 3.1 40 22:59 02.01.2021
4149 Clouds 3 1021 48 10000 2.6 30 22:33 02.01.2021
4150 Clouds 3 1021 51 10000 3.6 20 21:59 02.01.2021
4151 Clouds 3 1021 55 10000 2.6 350 21:37 02.01.2021
4152 Clouds 2 1021 55 10000 1.5 300 21:19 02.01.2021
4153 Clouds 2 1021 59 10000 3.1 20 20:40 02.01.2021
4154 Clouds 2 1020 64 10000 3.1 20 20:20 02.01.2021
4155 Clouds 2 1020 69 10000 4.1 30 19:43 02.01.2021
4156 Clouds 2 1020 69 10000 4.1 30 19:43 02.01.2021
4157 Clouds 2 1020 69 10000 4.1 30 19:19 02.01.2021
4158 Clouds 2 1020 69 10000 4.1 40 18:43 02.01.2021
4159 Clouds 2 1020 69 10000 4.1 40 18:25 02.01.2021
4160 Clouds 3 1020 69 10000 4.1 30 17:46 02.01.2021
4161 Clouds 3 1020 69 10000 5.1 20 17:26 02.01.2021
4162 Clouds 3 1020 63 10000 4.6 30 16:41 02.01.2021
4163 Clouds 3 1020 63 10000 5.1 20 16:20 02.01.2021
4164 Clouds 3 1020 63 10000 5.1 10 15:43 02.01.2021
4165 Clouds 4 1019 63 10000 6.2 10 15:25 02.01.2021
4166 Clouds 4 1019 63 10000 6.7 20 14:37 02.01.2021
4167 Clouds 4 1019 75 10000 7.2 20 14:18 02.01.2021
4168 Clouds 5 1018 80 10000 8.7 20 13:39 02.01.2021
4169 Clouds 5 1017 81 10000 8.2 20 12:54 02.01.2021
4170 Clouds 5 1017 81 10000 8.2 20 12:32 02.01.2021
4171 Clouds 6 1017 75 10000 8.7 30 11:57 02.01.2021
4172 Clouds 7 1015 52 10000 7.2 20 11:22 02.01.2021
4173 Clouds 8 1015 52 10000 7.2 20 10:58 02.01.2021
4174 Clouds 8 1015 57 10000 4.1 50 10:33 02.01.2021
4175 Clouds 9 1014 53 10000 3.6 60 09:54 02.01.2021
4176 Clouds 9 1014 43 10000 2.1 60 09:29 02.01.2021
4177 Clouds 9 1014 43 10000 2.1 60 08:53 02.01.2021
4178 Clouds 10 1014 43 10000 2.1 60 08:34 02.01.2021
4179 Clouds 10 1013 46 10000 2.1 130 07:55 02.01.2021
4180 Clouds 10 1013 49 10000 1.5 80 07:22 02.01.2021
4181 Clouds 10 1013 49 10000 1.5 80 06:56 02.01.2021
4182 Clouds 9 1013 52 10000 2.1 110 05:54 02.01.2021
4183 Clouds 6 1016 41 10000 1 0 01:37 02.01.2021
4184 Clouds 4 1016 51 10000 3.1 310 00:38 02.01.2021
4185 Clouds 4 1016 55 10000 2.1 280 23:58 01.01.2021
4186 Clouds 2 1016 59 10000 2.6 260 23:24 01.01.2021
4187 Clouds 3 1016 69 10000 2.1 290 22:52 01.01.2021
4188 Clouds 3 1016 69 10000 2.1 290 22:27 01.01.2021
4189 Clouds 3 1015 59 10000 2.1 280 21:59 01.01.2021
4190 Clouds 3 1015 55 10000 1.5 290 21:41 01.01.2021
4191 Clouds 3 1015 55 10000 2.1 270 21:19 01.01.2021
4192 Clouds 4 1015 48 10000 3.1 290 20:48 01.01.2021
4193 Clouds 3 1015 51 10000 3.6 300 20:18 01.01.2021
4194 Clouds 3 1015 55 10000 2.6 290 19:42 01.01.2021
4195 Clouds 4 1016 44 10000 3.6 300 19:22 01.01.2021
4196 Clouds 4 1016 47 10000 4.6 320 18:45 01.01.2021
4197 Clouds 4 1016 44 10000 4.1 310 18:27 01.01.2021
4198 Clouds 4 1015 44 10000 2.6 310 17:48 01.01.2021
4199 Clouds 4 1015 44 10000 4.6 340 17:23 01.01.2021
4200 Clouds 5 1015 38 10000 5.1 350 16:51 01.01.2021
4201 Clouds 5 1015 38 10000 5.1 350 16:28 01.01.2021
4202 Clouds 5 1015 38 10000 4.1 360 15:42 01.01.2021
4203 Clouds 5 1016 42 10000 5.7 10 14:50 01.01.2021
4204 Clouds 6 1016 42 10000 5.7 10 14:31 01.01.2021
4205 Clouds 6 1015 39 10000 5.7 10 13:42 01.01.2021
4206 Clouds 6 1015 36 10000 5.1 10 13:23 01.01.2021
4207 Clouds 7 1015 39 10000 5.7 20 12:37 01.01.2021
4208 Clouds 7 1015 42 10000 6.2 10 12:18 01.01.2021
4209 Clouds 7 1015 39 10000 6.2 10 11:39 01.01.2021
4210 Clouds 7 1014 42 10000 6.2 20 11:18 01.01.2021
4211 Clouds 8 1014 34 10000 3.6 30 10:34 01.01.2021
4212 Clouds 8 1014 36 10000 4.1 40 09:46 01.01.2021
4213 Clouds 9 1013 26 10000 3.1 80 09:20 01.01.2021
4214 Clouds 9 1012 27 10000 2.6 100 08:25 01.01.2021
4215 Clouds 9 1012 36 10000 2.1 120 04:53 01.01.2021
4216 Clouds 7 1013 45 10000 2.1 40 02:39 01.01.2021
4217 Clouds 5 1012 48 10000 1 0 01:35 01.01.2021
4218 Clouds 5 1012 55 10000 4.1 280 00:28 01.01.2021
4219 Clouds 2 1011 55 10000 3.6 310 23:36 31.12.2020
4220 Clouds 0 1011 51 10000 2.6 340 23:18 31.12.2020
4221 Clouds 0 1011 55 10000 2.6 240 22:38 31.12.2020
4222 Clouds 2 1010 51 10000 2.6 260 22:19 31.12.2020
4223 Clouds 2 1010 51 10000 3.6 260 21:47 31.12.2020
4224 Clouds 2 1010 51 10000 4.6 260 21:24 31.12.2020
4225 Clouds 2 1010 55 10000 3.1 260 20:54 31.12.2020
4226 Clouds 2 1010 55 10000 4.1 270 20:18 31.12.2020
4227 Clouds 2 1011 50 10000 4.6 250 19:47 31.12.2020
4228 Clouds 2 1011 50 10000 4.6 250 19:28 31.12.2020
4229 Clouds 3 1011 35 10000 2.1 280 18:50 31.12.2020
4230 Clouds 3 1011 43 10000 2.1 300 18:24 31.12.2020
4231 Clouds 3 1011 40 10000 2.1 280 17:44 31.12.2020
4232 Clouds 3 1010 40 10000 2.1 300 17:23 31.12.2020
4233 Clouds 3 1011 37 10000 1 0 16:43 31.12.2020
4234 Clouds 3 1011 34 10000 1 290 16:25 31.12.2020
4235 Clouds 4 1011 32 10000 1 270 15:50 31.12.2020
4236 Clouds 4 1011 32 10000 2.1 310 15:23 31.12.2020
4237 Clouds 4 1011 32 10000 2.1 310 15:23 31.12.2020
4238 Clouds 4 1011 32 10000 2.1 310 14:58 31.12.2020
4239 Clouds 3 1011 37 10000 2.1 10 14:39 31.12.2020
4240 Clouds 4 1011 32 10000 1.5 20 14:21 31.12.2020
4241 Clouds 5 1011 32 10000 3.6 20 13:39 31.12.2020
4242 Clouds 5 1011 35 10000 5.1 360 13:21 31.12.2020
4243 Clouds 4 1011 35 10000 5.1 360 12:55 31.12.2020
4244 Clouds 5 1011 38 10000 5.1 20 12:36 31.12.2020
4245 Clouds 5 1010 38 10000 5.7 20 11:53 31.12.2020
4246 Clouds 5 1010 38 10000 5.7 20 11:32 31.12.2020
4247 Clouds 6 1010 35 10000 3.6 50 10:50 31.12.2020
4248 Clouds 5 1010 35 10000 3.6 50 10:30 31.12.2020
4249 Clouds 6 1010 35 10000 3.1 10 09:58 31.12.2020
4250 Clouds 6 1010 33 10000 1.5 70 09:39 31.12.2020
4251 Clouds 6 1009 24 10000 1 0 09:21 31.12.2020
4252 Clouds 6 1009 24 10000 1 0 08:46 31.12.2020
4253 Clouds 6 1009 24 10000 1 0 08:27 31.12.2020
4254 Clouds 7 1009 28 10000 3.1 130 07:52 31.12.2020
4255 Clouds 7 1009 22 10000 2.1 240 06:50 31.12.2020
4256 Clouds 6 1009 22 10000 3.1 340 05:30 31.12.2020
4257 Clouds 6 1009 22 10000 3.1 340 05:30 31.12.2020
4258 Clouds 6 1010 22 10000 6.7 300 03:24 31.12.2020
4259 Clouds 5 1010 25 10000 5.1 300 02:26 31.12.2020
4260 Clouds 4 1010 25 10000 6.2 310 01:53 31.12.2020
4261 Clouds 4 1009 29 10000 6.2 310 01:33 31.12.2020
4262 Clouds 3 1009 29 10000 6.2 310 00:55 31.12.2020
4263 Clouds 3 1009 29 10000 8.2 330 00:24 31.12.2020
4264 Clouds 2 1008 34 10000 7.7 330 23:21 30.12.2020
4265 Clouds 2 1007 37 10000 9.8 330 22:59 30.12.2020
4266 Clouds 2 1007 37 10000 9.8 330 22:34 30.12.2020
4267 Clouds 2 1006 37 10000 11.3 330 21:52 30.12.2020
4268 Clouds 2 1006 37 10000 11.3 330 21:27 30.12.2020
4269 Clouds 2 1004 43 10000 11.8 330 20:53 30.12.2020
4270 Clouds 2 1004 37 10000 11.3 320 20:28 30.12.2020
4271 Clouds 2 1004 37 10000 11.8 330 19:58 30.12.2020
4272 Clouds 3 1004 37 10000 11.8 330 19:37 30.12.2020
4273 Clouds 3 1003 40 10000 12.3 330 19:18 30.12.2020
4274 Clouds 3 1002 37 10000 11.8 330 18:39 30.12.2020
4275 Clouds 3 1002 35 10000 10.3 330 18:20 30.12.2020
4276 Clouds 3 1002 35 10000 9.3 330 17:48 30.12.2020
4277 Clouds 3 1001 38 10000 10.3 330 17:29 30.12.2020
4278 Clouds 4 1000 38 10000 9.8 320 16:44 30.12.2020
4279 Clouds 4 999 41 10000 12.3 340 16:20 30.12.2020
4280 Clear 4 999 41 10000 11.8 340 15:42 30.12.2020
4281 Clear 4 999 35 10000 10.8 330 15:24 30.12.2020
4282 Clear 5 998 38 10000 11.3 340 14:42 30.12.2020
4283 Clear 5 997 41 10000 14.9 340 14:19 30.12.2020
4284 Clouds 5 995 41 10000 17.5 340 13:19 30.12.2020
4285 Clear 6 991 40 10000 5.36 305 12:27 30.12.2020
4286 Clouds 6 993 42 10000 14.4 340 11:48 30.12.2020
4287 Clouds 7 990 46 10000 5.36 340 11:22 30.12.2020
4288 Clouds 7 992 45 10000 13.4 340 10:58 30.12.2020
4289 Clouds 8 990 93 10000 7.7 10 10:38 30.12.2020
4290 Clouds 10 988 93 9000 4.1 50 10:18 30.12.2020
4291 Clouds 10 988 87 9000 3.6 80 09:42 30.12.2020
4292 Clouds 10 987 87 6000 3.6 90 08:54 30.12.2020
4293 Mist 11 986 81 5000 1.5 70 07:53 30.12.2020
4294 Rain 11 986 81 5000 1.5 70 07:27 30.12.2020
4295 Clouds 12 986 71 10000 2.6 60 06:40 30.12.2020
4296 Clouds 11 987 71 10000 3.1 50 05:49 30.12.2020
4297 Rain 11 987 71 10000 3.1 50 05:30 30.12.2020
4298 Clouds 7 990 87 7000 5.1 310 03:44 30.12.2020
4299 Rain 7 991 93 4500 4.1 310 03:24 30.12.2020
4300 Mist 6 991 93 4500 4.1 310 02:36 30.12.2020
4301 Rain 6 993 87 4000 2.1 10 01:47 30.12.2020
4302 Rain 6 993 87 4000 2.1 10 01:29 30.12.2020
4303 Rain 5 992 83 1894 0.89 163 00:46 30.12.2020
4304 Rain 8 995 82 10000 8.2 210 00:26 30.12.2020
4305 Rain 9 996 67 10000 9.8 210 23:52 29.12.2020
4306 Clouds 11 996 67 10000 9.8 210 23:34 29.12.2020
4307 Rain 11 997 72 10000 8.2 200 22:50 29.12.2020
4308 Clouds 13 997 72 10000 8.2 200 22:31 29.12.2020
4309 Rain 13 999 67 10000 11.3 210 21:56 29.12.2020
4310 Clouds 12 1000 67 10000 10.8 220 21:38 29.12.2020
4311 Clouds 11 1000 63 10000 9.8 220 21:20 29.12.2020
4312 Clouds 12 1000 62 10000 7.2 220 20:43 29.12.2020
4313 Rain 11 1002 62 10000 8.7 220 20:25 29.12.2020
4314 Rain 12 1003 58 10000 11.3 220 19:45 29.12.2020
4315 Rain 11 1004 62 10000 8.7 230 19:21 29.12.2020
4316 Clouds 10 1004 58 10000 11.8 220 18:53 29.12.2020
4317 Clouds 12 1004 58 10000 11.8 220 18:28 29.12.2020
4318 Clouds 12 1005 58 10000 6.7 210 17:47 29.12.2020
4319 Clouds 12 1006 62 10000 4.6 200 17:23 29.12.2020
4320 Clouds 13 1006 62 10000 4.6 200 16:56 29.12.2020
4321 Clouds 13 1007 67 10000 6.7 200 16:27 29.12.2020
4322 Clouds 13 1009 76 10000 5.1 200 15:51 29.12.2020
4323 Clouds 11 1009 76 10000 5.1 200 15:33 29.12.2020
4324 Clouds 9 1011 76 10000 4.6 180 14:45 29.12.2020
4325 Clouds 9 1011 76 10000 3.6 200 14:27 29.12.2020
4326 Clouds 9 1011 76 10000 3.6 200 13:59 29.12.2020
4327 Clouds 10 1012 71 10000 2.1 170 13:25 29.12.2020
4328 Clouds 10 1013 71 10000 1 0 12:56 29.12.2020
4329 Clouds 10 1013 71 10000 1 0 12:36 29.12.2020
4330 Clouds 10 1014 71 10000 2.1 30 12:18 29.12.2020
4331 Clouds 10 1014 66 10000 3.1 360 11:45 29.12.2020
4332 Clouds 11 1014 62 10000 2.1 360 11:24 29.12.2020
4333 Clouds 11 1014 62 10000 1.5 20 10:20 29.12.2020
4334 Clouds 11 1015 66 10000 1.5 30 09:41 29.12.2020
4335 Clouds 12 1014 58 10000 2.6 90 09:19 29.12.2020
4336 Clouds 12 1014 58 10000 2.6 90 08:49 29.12.2020
4337 Clouds 12 1016 54 8000 3.1 60 07:40 29.12.2020
4338 Clouds 12 1017 54 8000 2.1 30 07:18 29.12.2020
4339 Clouds 12 1017 57 8000 3.1 10 05:50 29.12.2020
4340 Clouds 11 1021 71 10000 2.1 100 02:33 29.12.2020
4341 Clear 10 1022 75 10000 2.6 270 00:43 29.12.2020
4342 Clear 7 1020 81 10000 1 0 23:39 28.12.2020
4343 Clear 7 1019 81 10000 1.5 330 22:56 28.12.2020
4344 Clear 7 1019 75 10000 1 330 22:22 28.12.2020
4345 Clear 7 1019 81 10000 1 270 21:42 28.12.2020
4346 Clear 7 1020 75 10000 2.1 260 21:21 28.12.2020
4347 Clear 7 1020 70 10000 1.5 250 20:40 28.12.2020
4348 Clear 8 1019 70 10000 1 260 20:21 28.12.2020
4349 Clear 8 1020 65 10000 1 280 19:42 28.12.2020
4350 Clear 8 1020 75 10000 2.1 310 19:23 28.12.2020
4351 Clear 8 1020 75 10000 2.1 290 18:50 28.12.2020
4352 Clear 8 1019 87 10000 2.6 320 18:28 28.12.2020
4353 Clear 8 1019 76 10000 2.1 30 17:42 28.12.2020
4354 Clear 8 1019 76 10000 2.1 30 17:42 28.12.2020
4355 Clear 9 1019 81 10000 2.1 30 17:23 28.12.2020
4356 Clear 8 1019 81 10000 3.6 10 16:43 28.12.2020
4357 Clear 9 1019 76 10000 2.1 10 16:23 28.12.2020
4358 Clear 9 1020 76 10000 1.5 50 15:46 28.12.2020
4359 Clear 9 1020 81 10000 1 70 14:58 28.12.2020
4360 Clear 9 1019 81 10000 2.1 40 13:59 28.12.2020
4361 Clear 9 1019 81 9000 2.1 10 13:35 28.12.2020
4362 Clear 9 1018 81 9000 1.5 20 12:57 28.12.2020
4363 Clear 9 1018 76 8000 2.1 30 12:24 28.12.2020
4364 Clear 10 1018 76 8000 2.1 40 11:47 28.12.2020
4365 Clear 10 1018 76 8000 2.1 40 11:47 28.12.2020
4366 Clouds 10 1017 76 9000 2.1 50 11:26 28.12.2020
4367 Clouds 10 1017 76 10000 2.1 50 10:52 28.12.2020
4368 Clouds 10 1017 76 10000 2.1 50 10:28 28.12.2020
4369 Clouds 10 1016 76 8000 1.5 0 09:52 28.12.2020
4370 Clear 11 1016 76 10000 1.5 170 09:21 28.12.2020
4371 Clear 11 1016 76 10000 1.5 170 08:55 28.12.2020
4372 Clouds 12 1015 62 10000 3.1 150 06:51 28.12.2020
4373 Clouds 11 1017 62 10000 1 0 04:56 28.12.2020
4374 Clouds 10 1018 66 10000 1.5 320 03:21 28.12.2020
4375 Clouds 9 1019 70 10000 1 0 01:52 28.12.2020
4376 Rain 7 1019 70 10000 5.7 350 23:52 27.12.2020
4377 Rain 7 1019 65 10000 3.6 330 23:20 27.12.2020
4378 Rain 7 1019 75 10000 5.1 340 22:28 27.12.2020
4379 Clouds 7 1019 75 10000 3.6 340 21:47 27.12.2020
4380 Rain 7 1019 75 10000 3.6 360 21:20 27.12.2020
4381 Clouds 7 1020 75 10000 4.1 10 19:59 27.12.2020
4382 Rain 7 1021 75 10000 3.6 360 19:24 27.12.2020
4383 Clouds 7 1021 75 10000 3.6 340 18:49 27.12.2020
4384 Rain 7 1021 75 10000 3.6 320 18:20 27.12.2020
4385 Clouds 7 1021 75 10000 3.1 330 17:56 27.12.2020
4386 Clouds 7 1021 75 10000 3.1 330 17:35 27.12.2020
4387 Rain 8 1021 81 10000 4.1 20 16:56 27.12.2020
4388 Clouds 7 1022 81 10000 4.1 350 16:22 27.12.2020
4389 Clouds 7 1022 81 10000 2.6 350 15:34 27.12.2020
4390 Clouds 8 1022 76 10000 4.1 50 14:53 27.12.2020
4391 Clouds 8 1022 76 10000 4.1 50 14:35 27.12.2020
4392 Clouds 8 1023 76 10000 4.1 70 13:36 27.12.2020
4393 Clouds 9 1022 76 10000 6.2 60 12:56 27.12.2020
4394 Clouds 9 1022 76 10000 5.7 50 12:25 27.12.2020
4395 Clouds 9 1022 76 10000 6.2 70 11:42 27.12.2020
4396 Clouds 10 1022 76 10000 3.6 80 11:20 27.12.2020
4397 Clouds 10 1022 76 10000 3.6 80 11:20 27.12.2020
4398 Clouds 10 1023 76 10000 1.5 110 10:45 27.12.2020
4399 Clouds 10 1023 57 10000 1 100 10:19 27.12.2020
4400 Clouds 11 1022 54 10000 0.5 0 09:39 27.12.2020
4401 Clouds 12 1022 40 10000 1.5 140 08:28 27.12.2020
4402 Clouds 12 1021 40 10000 1.5 150 07:29 27.12.2020
4403 Clouds 12 1021 30 10000 0.5 0 06:48 27.12.2020
4404 Clouds 11 1022 34 10000 1 0 05:38 27.12.2020
4405 Clouds 9 1024 45 10000 1.5 0 03:26 27.12.2020
4406 Clouds 8 1024 45 10000 1.5 0 02:30 27.12.2020
4407 Clouds 6 1023 52 10000 2.6 10 00:58 27.12.2020
4408 Clouds 6 1022 56 10000 5.1 360 23:44 26.12.2020
4409 Clouds 6 1022 52 10000 4.1 340 23:25 26.12.2020
4410 Clouds 6 1022 56 10000 3.1 320 22:46 26.12.2020
4411 Clouds 6 1022 59 10000 3.6 10 22:20 26.12.2020
4412 Clouds 6 1021 56 10000 2.6 350 21:54 26.12.2020
4413 Clouds 6 1021 56 10000 2.6 350 21:31 26.12.2020
4414 Clouds 5 1021 60 10000 2.6 30 20:46 26.12.2020
4415 Clouds 6 1021 60 10000 2.1 30 20:26 26.12.2020
4416 Clouds 6 1021 58 10000 3.6 10 19:57 26.12.2020
4417 Clouds 6 1021 58 10000 3.6 10 19:24 26.12.2020
4418 Clouds 7 1021 52 10000 5.1 340 18:37 26.12.2020
4419 Clouds 6 1021 56 10000 5.7 340 17:59 26.12.2020
4420 Clouds 6 1021 52 10000 6.2 330 17:39 26.12.2020
4421 Clouds 7 1021 56 10000 6.7 350 17:18 26.12.2020
4422 Clouds 7 1021 52 10000 6.2 340 16:31 26.12.2020
4423 Clouds 7 1021 52 10000 3.6 320 15:25 26.12.2020
4424 Clouds 9 1021 54 10000 2.6 10 14:46 26.12.2020
4425 Clouds 9 1021 46 10000 2.6 20 14:27 26.12.2020
4426 Clouds 9 1021 46 10000 2.6 20 13:43 26.12.2020
4427 Clouds 9 1021 45 10000 1.5 20 13:25 26.12.2020
4428 Clouds 9 1020 39 10000 1 70 12:44 26.12.2020
4429 Clouds 9 1020 39 10000 0.5 100 12:22 26.12.2020
4430 Clouds 8 1020 52 10000 1 110 11:51 26.12.2020
4431 Clouds 8 1020 45 10000 1 120 11:22 26.12.2020
4432 Clouds 9 1019 39 10000 1.5 100 10:54 26.12.2020
4433 Clouds 9 1019 46 10000 1.5 120 10:27 26.12.2020
4434 Clouds 9 1019 42 10000 0.5 0 09:50 26.12.2020
4435 Clouds 9 1018 39 10000 2.1 140 09:25 26.12.2020
4436 Clouds 10 1018 39 10000 2.1 140 08:33 26.12.2020
4437 Clouds 11 1018 39 10000 2.6 140 07:52 26.12.2020
4438 Clouds 11 1018 39 10000 2.1 110 06:31 26.12.2020
4439 Clouds 9 1019 49 10000 2.1 30 03:19 26.12.2020
4440 Clouds 7 1019 52 10000 2.1 20 01:35 26.12.2020
4441 Clouds 6 1018 60 10000 2.6 10 00:26 26.12.2020
4442 Clouds 6 1018 56 10000 1.5 20 23:40 25.12.2020
4443 Clouds 5 1017 56 10000 2.1 30 23:22 25.12.2020
4444 Clouds 5 1017 56 10000 2.6 20 22:45 25.12.2020
4445 Clear 5 1016 56 10000 2.6 20 21:58 25.12.2020
4446 Clear 5 1016 56 10000 1.5 0 21:58 25.12.2020
4447 Clear 5 1016 56 10000 1.5 0 21:34 25.12.2020
4448 Clear 4 1015 52 10000 2.6 20 20:57 25.12.2020
4449 Clear 5 1015 52 10000 2.6 20 20:37 25.12.2020
4450 Clouds 5 1015 56 10000 3.1 40 19:49 25.12.2020
4451 Clouds 5 1015 56 10000 3.1 40 19:26 25.12.2020
4452 Clear 6 1014 48 10000 3.6 20 18:39 25.12.2020
4453 Clear 6 1014 52 10000 5.7 20 17:53 25.12.2020
4454 Clear 6 1014 52 10000 5.7 20 17:34 25.12.2020
4455 Clouds 6 1014 42 10000 6.7 350 16:38 25.12.2020
4456 Clouds 6 1013 45 10000 6.7 330 16:19 25.12.2020
4457 Clouds 6 1013 45 10000 7.7 340 15:36 25.12.2020
4458 Clouds 7 1013 42 10000 8.2 350 14:58 25.12.2020
4459 Clouds 9 1013 42 10000 8.2 350 14:30 25.12.2020
4460 Clouds 9 1012 39 10000 5.7 360 13:46 25.12.2020
4461 Clouds 9 1012 39 10000 5.7 360 13:26 25.12.2020
4462 Clouds 9 1011 43 10000 7.7 10 12:47 25.12.2020
4463 Clouds 9 1010 40 10000 7.2 10 12:25 25.12.2020
4464 Clouds 9 1010 40 10000 8.2 360 11:46 25.12.2020
4465 Clouds 9 1009 40 10000 7.2 360 11:21 25.12.2020
4466 Clouds 10 1009 40 10000 5.1 20 10:32 25.12.2020
4467 Clouds 10 1007 57 10000 2.1 70 09:49 25.12.2020
4468 Clouds 11 1007 50 10000 2.1 160 08:51 25.12.2020
4469 Clouds 11 1007 50 10000 2.1 160 08:32 25.12.2020
4470 Clouds 12 1005 43 10000 3.6 160 06:51 25.12.2020
4471 Clouds 13 1005 40 10000 2.6 60 05:31 25.12.2020
4472 Clouds 10 1007 48 10000 3.6 30 02:21 25.12.2020
4473 Clouds 9 1005 46 10000 8.2 330 00:25 25.12.2020
4474 Clouds 8 1004 49 10000 5.1 320 23:31 24.12.2020
4475 Clouds 8 1004 53 10000 4.1 310 22:54 24.12.2020
4476 Clear 8 1003 61 10000 3.1 10 22:25 24.12.2020
4477 Clear 8 1003 57 10000 4.1 360 21:47 24.12.2020
4478 Clear 8 1003 66 10000 3.6 10 20:59 24.12.2020
4479 Clear 8 1004 61 10000 1 0 19:48 24.12.2020
4480 Clouds 8 1005 61 10000 3.1 280 18:22 24.12.2020
4481 Clouds 8 1005 61 10000 2.1 300 17:39 24.12.2020
4482 Clouds 9 1005 47 10000 4.1 300 17:21 24.12.2020
4483 Clouds 9 1006 54 10000 7.2 240 16:25 24.12.2020
4484 Clouds 10 1006 47 10000 6.2 220 15:49 24.12.2020
4485 Clouds 11 1006 54 10000 7.7 230 15:26 24.12.2020
4486 Clouds 11 1006 54 10000 7.7 230 14:57 24.12.2020
4487 Clouds 11 1006 54 10000 7.7 230 14:57 24.12.2020
4488 Clouds 11 1007 54 10000 8.7 220 14:38 24.12.2020
4489 Rain 10 1007 54 10000 5.7 230 14:20 24.12.2020
4490 Clouds 10 1007 47 10000 3.6 260 13:39 24.12.2020
4491 Clouds 11 1008 50 10000 6.7 250 13:19 24.12.2020
4492 Clouds 11 1008 50 10000 8.2 220 12:40 24.12.2020
4493 Clouds 12 1008 47 10000 9.8 220 12:19 24.12.2020
4494 Rain 12 1008 44 10000 8.2 210 11:38 24.12.2020
4495 Clouds 13 1008 40 10000 8.7 220 11:19 24.12.2020
4496 Clouds 13 1009 35 10000 5.1 210 10:46 24.12.2020
4497 Clouds 12 1009 35 10000 7.2 230 10:28 24.12.2020
4498 Rain 13 1009 33 10000 9.3 210 09:51 24.12.2020
4499 Clouds 12 1009 28 10000 3.6 220 09:23 24.12.2020
4500 Clouds 12 1009 32 10000 2.6 230 07:59 24.12.2020
4501 Clouds 12 1009 32 10000 2.6 230 07:38 24.12.2020
4502 Rain 12 1010 39 10000 2.1 50 06:52 24.12.2020
4503 Rain 10 1013 43 10000 2.1 20 04:24 24.12.2020
4504 Clouds 9 1015 52 10000 2.1 340 01:53 24.12.2020
4505 Clouds 8 1015 50 10000 3.1 30 01:30 24.12.2020
4506 Clouds 6 1015 51 10000 3.1 30 00:56 24.12.2020
4507 Clouds 6 1015 54 10000 2.6 270 00:20 24.12.2020
4508 Clouds 6 1015 60 10000 1 0 23:40 23.12.2020
4509 Clouds 5 1015 65 10000 3.6 300 23:22 23.12.2020
4510 Clear 5 1016 65 10000 1.5 270 22:52 23.12.2020
4511 Clear 6 1016 65 10000 4.6 300 22:29 23.12.2020
4512 Clouds 6 1015 65 10000 4.1 290 21:49 23.12.2020
4513 Clear 6 1015 55 10000 3.1 290 21:24 23.12.2020
4514 Clouds 6 1016 65 10000 4.1 260 20:49 23.12.2020
4515 Clouds 6 1016 65 10000 4.1 260 20:49 23.12.2020
4516 Clouds 6 1016 55 10000 2.6 280 20:31 23.12.2020
4517 Clouds 6 1016 55 10000 2.6 280 19:59 23.12.2020
4518 Clouds 6 1016 70 10000 1 0 19:38 23.12.2020
4519 Clouds 7 1016 65 10000 2.6 290 19:19 23.12.2020
4520 Clouds 7 1017 70 10000 0.5 0 18:46 23.12.2020
4521 Clouds 8 1017 66 10000 1 0 18:21 23.12.2020
4522 Clouds 8 1017 66 10000 2.1 310 17:39 23.12.2020
4523 Clouds 9 1018 70 10000 2.1 300 17:20 23.12.2020
4524 Clouds 8 1018 70 10000 2.1 310 16:43 23.12.2020
4525 Clouds 10 1019 70 10000 3.6 190 16:25 23.12.2020
4526 Clouds 10 1019 70 10000 5.1 150 15:54 23.12.2020
4527 Clouds 10 1019 71 10000 4.1 140 15:28 23.12.2020
4528 Clouds 10 1019 71 10000 4.1 140 14:59 23.12.2020
4529 Clouds 10 1019 70 10000 4.6 140 14:39 23.12.2020
4530 Clouds 10 1020 70 10000 5.1 150 14:20 23.12.2020
4531 Clouds 9 1020 70 10000 3.6 140 13:43 23.12.2020
4532 Clouds 9 1020 70 10000 3.6 150 13:19 23.12.2020
4533 Clear 10 1019 62 10000 2.6 120 12:52 23.12.2020
4534 Clear 10 1019 62 10000 2.6 120 12:28 23.12.2020
4535 Clear 9 1020 57 10000 3.1 120 11:49 23.12.2020
4536 Clear 10 1020 61 10000 2.6 120 11:21 23.12.2020
4537 Clear 9 1020 66 10000 2.6 140 10:50 23.12.2020
4538 Clear 9 1020 66 10000 2.6 140 10:32 23.12.2020
4539 Clouds 10 1020 45 10000 2.1 150 09:36 23.12.2020
4540 Clear 11 1020 53 10000 2.1 170 08:51 23.12.2020
4541 Clear 12 1020 50 10000 3.6 170 08:22 23.12.2020
4542 Clear 13 1020 50 10000 3.6 170 07:37 23.12.2020
4543 Clear 13 1020 57 10000 4.1 150 06:41 23.12.2020
4544 Clear 12 1020 54 10000 1.5 140 05:54 23.12.2020
4545 Clear 12 1021 53 10000 1.5 230 05:19 23.12.2020
4546 Clear 7 1022 52 10000 2.1 40 01:38 23.12.2020
4547 Clouds 5 1022 60 10000 0.5 0 00:30 23.12.2020
4548 Clouds 4 1021 64 10000 0.5 0 23:39 22.12.2020
4549 Clouds 4 1021 59 10000 2.63 346 23:21 22.12.2020
4550 Clouds 4 1021 60 10000 1 270 22:42 22.12.2020
4551 Clouds 4 1020 60 10000 1.5 280 22:22 22.12.2020
4552 Clouds 4 1020 60 10000 1.5 310 21:48 22.12.2020
4553 Clouds 4 1019 64 10000 2.1 290 21:20 22.12.2020
4554 Clouds 4 1019 64 10000 2.1 290 20:53 22.12.2020
4555 Clouds 4 1019 64 10000 3.1 320 20:35 22.12.2020
4556 Clouds 5 1019 65 10000 3.6 350 19:54 22.12.2020
4557 Clouds 4 1019 69 10000 3.6 320 19:29 22.12.2020
4558 Clouds 5 1019 58 10000 4.1 320 18:59 22.12.2020
4559 Clouds 5 1019 58 10000 4.1 320 18:38 22.12.2020
4560 Clouds 5 1019 70 10000 3.6 330 18:20 22.12.2020
4561 Clouds 5 1019 75 10000 3.1 310 17:38 22.12.2020
4562 Clouds 5 1019 75 10000 3.6 280 17:18 22.12.2020
4563 Clouds 5 1019 70 10000 2.6 290 16:47 22.12.2020
4564 Clouds 6 1019 75 10000 3.1 300 16:21 22.12.2020
4565 Clouds 6 1019 75 10000 3.1 280 15:47 22.12.2020
4566 Clouds 7 1019 75 10000 3.1 280 15:29 22.12.2020
4567 Clouds 7 1019 65 10000 4.1 300 14:57 22.12.2020
4568 Clouds 7 1019 65 10000 4.1 300 14:39 22.12.2020
4569 Clouds 8 1020 61 10000 0.5 250 14:20 22.12.2020
4570 Clouds 8 1019 66 10000 2.1 0 13:44 22.12.2020
4571 Clouds 8 1019 75 10000 1 0 13:19 22.12.2020
4572 Clouds 8 1020 57 10000 1 0 12:52 22.12.2020
4573 Clouds 9 1020 57 10000 1 0 12:33 22.12.2020
4574 Clouds 9 1020 61 10000 0.5 0 11:57 22.12.2020
4575 Clouds 9 1020 71 10000 1 0 11:39 22.12.2020
4576 Clouds 9 1020 66 10000 1.5 10 11:20 22.12.2020
4577 Clouds 9 1020 66 10000 1.5 340 10:51 22.12.2020
4578 Clouds 9 1020 61 10000 1.5 160 10:24 22.12.2020
4579 Clouds 9 1020 57 10000 2.6 150 09:56 22.12.2020
4580 Clouds 9 1020 53 10000 1.5 160 09:23 22.12.2020
4581 Clouds 9 1020 53 10000 1.5 160 08:53 22.12.2020
4582 Clouds 10 1020 53 10000 1.5 160 08:30 22.12.2020
4583 Clouds 10 1020 46 10000 2.6 130 07:55 22.12.2020
4584 Clouds 10 1020 46 10000 2.6 130 07:55 22.12.2020
4585 Clouds 11 1020 43 10000 3.6 130 06:58 22.12.2020
4586 Clouds 10 1020 45 10000 3.1 130 05:48 22.12.2020
4587 Clouds 9 1023 42 10000 1 0 03:46 22.12.2020
4588 Clouds 5 1024 48 10000 1.5 340 01:35 22.12.2020
4589 Clouds 3 1023 69 10000 1.5 330 23:56 21.12.2020
4590 Clouds 3 1023 69 10000 1.5 330 23:37 21.12.2020
4591 Clouds 2 1023 64 10000 1.5 0 22:59 21.12.2020
4592 Clouds 2 1023 64 10000 3.1 20 22:36 21.12.2020
4593 Clouds 3 1023 64 10000 2.1 350 22:18 21.12.2020
4594 Clouds 3 1023 64 10000 2.1 310 21:41 21.12.2020
4595 Clouds 3 1023 59 10000 2.1 320 21:22 21.12.2020
4596 Clouds 3 1022 64 10000 1 0 20:40 21.12.2020
4597 Clouds 4 1023 55 10000 2.1 300 20:19 21.12.2020
4598 Clear 4 1023 52 10000 4.1 340 19:45 21.12.2020
4599 Clouds 5 1023 56 10000 4.1 350 19:20 21.12.2020
4600 Clear 5 1023 60 10000 3.6 310 18:54 21.12.2020
4601 Clear 4 1023 60 10000 3.6 310 18:36 21.12.2020
4602 Clear 4 1023 60 10000 3.1 300 18:18 21.12.2020
4603 Clear 4 1023 64 10000 2.1 310 17:41 21.12.2020
4604 Clear 5 1023 52 10000 2.6 10 17:22 21.12.2020
4605 Clouds 6 1023 48 10000 4.1 10 16:39 21.12.2020
4606 Clear 7 1023 45 10000 3.6 20 16:18 21.12.2020
4607 Clear 7 1023 45 10000 4.1 20 15:41 21.12.2020
4608 Clear 7 1023 49 10000 3.6 30 14:57 21.12.2020
4609 Clear 7 1023 49 10000 3.1 20 14:22 21.12.2020
4610 Clear 7 1023 42 10000 3.1 20 13:49 21.12.2020
4611 Clear 7 1023 42 10000 3.1 20 13:31 21.12.2020
4612 Clouds 8 1023 42 10000 4.1 20 12:57 21.12.2020
4613 Clouds 8 1022 39 10000 3.1 320 12:37 21.12.2020
4614 Clear 7 1022 31 10000 0.5 130 12:18 21.12.2020
4615 Clear 8 1022 29 10000 1 0 11:42 21.12.2020
4616 Clear 8 1022 27 10000 0.5 0 11:22 21.12.2020
4617 Clear 8 1021 31 10000 0.5 150 10:55 21.12.2020
4618 Clear 8 1021 31 10000 0.5 150 10:37 21.12.2020
4619 Clouds 8 1021 36 10000 1 0 09:55 21.12.2020
4620 Clouds 9 1021 29 10000 1.5 140 09:37 21.12.2020
4621 Clouds 8 1020 31 10000 2.1 170 09:18 21.12.2020
4622 Clouds 10 1020 23 10000 1.5 340 08:21 21.12.2020
4623 Clouds 10 1020 23 10000 1.5 0 06:48 21.12.2020
4624 Clouds 10 1020 23 10000 3.1 300 04:59 21.12.2020
4625 Clouds 10 1021 24 10000 3.6 280 04:27 21.12.2020
4626 Clouds 4 1022 44 10000 3.6 290 00:36 21.12.2020
4627 Clouds 3 1021 47 10000 2.6 310 23:39 20.12.2020
4628 Clouds 2 1021 47 10000 3.6 320 23:20 20.12.2020
4629 Clouds 3 1021 40 10000 4.6 300 22:43 20.12.2020
4630 Clouds 3 1021 44 10000 3.6 270 22:23 20.12.2020
4631 Clouds 3 1021 43 10000 2.6 260 21:42 20.12.2020
4632 Clouds 4 1020 35 10000 3.1 270 21:24 20.12.2020
4633 Clouds 4 1020 35 10000 4.6 310 20:59 20.12.2020
4634 Clouds 4 1020 35 10000 4.6 310 20:40 20.12.2020
4635 Clouds 4 1021 30 10000 6.2 320 20:21 20.12.2020
4636 Clouds 4 1021 32 10000 7.2 330 19:42 20.12.2020
4637 Clouds 4 1021 32 10000 8.2 330 19:20 20.12.2020
4638 Clouds 4 1021 35 10000 7.2 330 18:47 20.12.2020
4639 Clouds 4 1021 35 10000 7.2 330 18:29 20.12.2020
4640 Clouds 4 1021 38 10000 6.7 330 17:47 20.12.2020
4641 Clouds 4 1021 38 10000 6.7 320 17:28 20.12.2020
4642 Clouds 4 1021 38 10000 7.7 330 16:49 20.12.2020
4643 Clouds 4 1021 38 10000 7.2 330 16:30 20.12.2020
4644 Clouds 4 1021 35 10000 9.3 330 15:52 20.12.2020
4645 Clouds 4 1021 35 10000 9.3 330 15:30 20.12.2020
4646 Clouds 4 1021 38 10000 8.7 340 14:58 20.12.2020
4647 Clouds 4 1021 38 10000 8.7 340 14:38 20.12.2020
4648 Clouds 4 1021 38 10000 8.2 350 14:19 20.12.2020
4649 Clouds 4 1021 35 10000 7.2 330 13:41 20.12.2020
4650 Clouds 4 1021 35 10000 7.7 340 13:21 20.12.2020
4651 Clouds 5 1021 38 10000 8.2 340 12:49 20.12.2020
4652 Clouds 4 1021 41 10000 8.2 340 12:22 20.12.2020
4653 Clouds 5 1021 45 10000 7.7 350 11:49 20.12.2020
4654 Clouds 5 1021 45 10000 7.7 340 11:26 20.12.2020
4655 Clouds 5 1020 45 10000 6.7 350 10:49 20.12.2020
4656 Clouds 6 1020 42 10000 7.2 10 10:21 20.12.2020
4657 Clouds 6 1020 42 10000 7.2 10 09:56 20.12.2020
4658 Clouds 6 1020 42 10000 7.7 360 09:37 20.12.2020
4659 Clouds 7 1019 28 10000 4.6 340 09:18 20.12.2020
4660 Clouds 7 1019 28 10000 4.6 340 08:47 20.12.2020
4661 Clouds 7 1019 28 10000 4.6 340 08:28 20.12.2020
4662 Clouds 9 1018 24 10000 5.1 340 07:21 20.12.2020
4663 Clouds 8 1019 28 10000 4.6 310 03:44 20.12.2020
4664 Clouds 5 1019 51 10000 4.6 330 01:25 20.12.2020
4665 Clouds 4 1019 52 10000 5.7 330 23:58 19.12.2020
4666 Clouds 3 1019 51 10000 6.7 320 23:18 19.12.2020
4667 Clouds 3 1018 48 10000 7.7 330 22:44 19.12.2020
4668 Clear 3 1018 55 10000 5.7 330 22:25 19.12.2020
4669 Clear 3 1018 55 10000 5.7 330 21:58 19.12.2020
4670 Clear 3 1018 64 10000 3.6 310 21:39 19.12.2020
4671 Clear 3 1017 69 10000 3.1 280 21:21 19.12.2020
4672 Clear 3 1017 69 10000 3.6 290 20:39 19.12.2020
4673 Clear 3 1017 64 10000 3.1 290 20:18 19.12.2020
4674 Clear 3 1017 64 10000 3.1 320 19:49 19.12.2020
4675 Clear 3 1018 64 10000 3.6 310 19:24 19.12.2020
4676 Clear 3 1017 59 10000 3.1 280 18:37 19.12.2020
4677 Clear 3 1017 55 10000 3.6 290 18:19 19.12.2020
4678 Clouds 3 1017 59 10000 3.1 290 17:44 19.12.2020
4679 Clouds 3 1017 55 10000 3.6 320 17:22 19.12.2020
4680 Clouds 4 1016 51 10000 5.1 320 16:43 19.12.2020
4681 Clouds 4 1016 51 10000 4.6 320 16:25 19.12.2020
4682 Clouds 4 1016 51 10000 4.6 320 15:55 19.12.2020
4683 Clouds 4 1016 51 10000 3.6 310 15:33 19.12.2020
4684 Clouds 4 1016 48 10000 4.6 350 14:40 19.12.2020
4685 Clouds 4 1017 48 10000 5.7 350 14:21 19.12.2020
4686 Clouds 5 1016 48 10000 6.7 10 13:41 19.12.2020
4687 Clouds 5 1016 48 10000 6.7 10 13:41 19.12.2020
4688 Clouds 5 1017 52 10000 8.2 360 13:19 19.12.2020
4689 Clouds 5 1016 52 10000 8.7 360 12:44 19.12.2020
4690 Clouds 5 1017 48 10000 8.2 360 12:25 19.12.2020
4691 Clouds 5 1017 48 10000 8.2 360 11:57 19.12.2020
4692 Clouds 5 1017 48 10000 8.2 360 11:57 19.12.2020
4693 Clouds 5 1016 45 10000 8.2 10 11:35 19.12.2020
4694 Clouds 6 1015 45 10000 7.7 350 10:43 19.12.2020
4695 Clouds 6 1015 36 10000 7.2 350 10:24 19.12.2020
4696 Clouds 7 1015 36 10000 6.2 350 09:53 19.12.2020
4697 Clouds 7 1015 36 10000 6.2 350 09:35 19.12.2020
4698 Rain 8 1014 45 10000 0.5 0 08:36 19.12.2020
4699 Clouds 9 1014 49 10000 1.5 210 07:25 19.12.2020
4700 Rain 9 1014 36 10000 1.5 260 06:53 19.12.2020
4701 Clouds 9 1013 34 10000 4.1 10 06:20 19.12.2020
4702 Clouds 9 1014 36 10000 3.1 350 05:18 19.12.2020
4703 Clouds 8 1015 39 10000 4.6 20 03:20 19.12.2020
4704 Clouds 7 1016 49 10000 7.7 350 00:40 19.12.2020
4705 Clouds 6 1016 56 10000 7.7 350 00:18 19.12.2020
4706 Clouds 6 1015 52 10000 8.7 350 23:48 18.12.2020
4707 Clouds 6 1015 56 10000 8.2 350 23:23 18.12.2020
4708 Clouds 6 1014 56 10000 8.7 340 22:46 18.12.2020
4709 Clouds 6 1014 56 10000 5.7 330 22:24 18.12.2020
4710 Clouds 6 1014 56 10000 6.7 330 21:50 18.12.2020
4711 Clouds 6 1014 52 10000 6.2 330 21:31 18.12.2020
4712 Clouds 6 1013 48 10000 4.1 340 20:43 18.12.2020
4713 Clear 7 1013 49 10000 2.1 40 20:22 18.12.2020
4714 Clear 6 1013 55 10000 3.6 330 19:46 18.12.2020
4715 Clear 6 1013 60 10000 3.6 330 19:22 18.12.2020
4716 Clear 6 1012 60 10000 3.1 330 18:45 18.12.2020
4717 Clear 6 1013 56 10000 3.1 300 18:25 18.12.2020
4718 Clear 6 1013 48 10000 4.6 250 17:36 18.12.2020
4719 Clear 6 1013 52 10000 4.6 280 16:57 18.12.2020
4720 Clear 6 1013 52 10000 4.6 280 16:38 18.12.2020
4721 Clear 6 1013 56 10000 3.6 280 16:20 18.12.2020
4722 Clouds 7 1014 52 10000 5.1 250 15:44 18.12.2020
4723 Clouds 7 1014 52 10000 3.6 270 15:25 18.12.2020
4724 Clouds 7 1013 49 10000 3.1 270 14:55 18.12.2020
4725 Clouds 8 1014 49 10000 7.2 230 14:23 18.12.2020
4726 Clouds 8 1013 49 10000 7.2 240 13:51 18.12.2020
4727 Clouds 9 1013 49 10000 7.2 240 13:32 18.12.2020
4728 Clouds 9 1014 45 10000 5.7 230 12:57 18.12.2020
4729 Clouds 9 1014 43 10000 4.6 220 12:34 18.12.2020
4730 Clouds 10 1015 47 10000 4.1 180 11:28 18.12.2020
4731 Clouds 10 1015 57 10000 4.1 190 10:41 18.12.2020
4732 Clouds 10 1015 57 10000 4.1 190 10:41 18.12.2020
4733 Clouds 10 1016 57 10000 3.6 200 10:21 18.12.2020
4734 Clouds 10 1016 57 10000 3.6 200 09:58 18.12.2020
4735 Clouds 10 1016 66 10000 3.6 130 09:37 18.12.2020
4736 Clouds 10 1016 57 10000 1.5 80 09:18 18.12.2020
4737 Clouds 10 1016 57 10000 1.5 80 08:46 18.12.2020
4738 Clouds 11 1016 53 10000 1 0 08:20 18.12.2020
4739 Clouds 11 1016 53 10000 2.1 140 07:20 18.12.2020
4740 Clouds 11 1016 53 10000 2.1 140 06:59 18.12.2020
4741 Clouds 11 1017 43 10000 2.6 140 05:45 18.12.2020
4742 Clouds 10 1017 46 10000 2.1 140 05:23 18.12.2020
4743 Clouds 10 1017 46 10000 2.1 140 04:42 18.12.2020
4744 Clouds 7 1020 56 10000 2.6 30 01:47 18.12.2020
4745 Clouds 7 1020 56 10000 2.6 30 01:47 18.12.2020
4746 Clouds 5 1020 52 10000 2.1 300 00:38 18.12.2020
4747 Clouds 4 1020 55 10000 2.1 270 23:54 17.12.2020
4748 Clouds 3 1020 59 10000 1.5 280 23:25 17.12.2020
4749 Clouds 3 1019 59 10000 2.1 280 22:49 17.12.2020
4750 Clouds 3 1019 59 10000 2.6 280 22:28 17.12.2020
4751 Clouds 3 1019 59 10000 2.1 280 21:47 17.12.2020
4752 Clouds 4 1019 51 10000 2.1 300 21:25 17.12.2020
4753 Clouds 4 1018 51 10000 2.1 300 20:56 17.12.2020
4754 Clouds 4 1019 51 10000 2.1 300 20:37 17.12.2020
4755 Clouds 4 1019 51 10000 2.1 300 20:18 17.12.2020
4756 Clouds 4 1019 48 10000 2.6 300 19:44 17.12.2020
4757 Clouds 4 1019 44 10000 1 290 19:23 17.12.2020
4758 Clouds 4 1019 44 10000 1.5 320 18:41 17.12.2020
4759 Clouds 4 1019 40 10000 0.5 0 18:23 17.12.2020
4760 Clouds 4 1019 40 10000 1 0 17:53 17.12.2020
4761 Clouds 4 1019 40 10000 1 0 17:32 17.12.2020
4762 Clouds 4 1019 37 10000 1 0 16:44 17.12.2020
4763 Clouds 4 1019 37 10000 1.5 290 16:24 17.12.2020
4764 Clouds 5 1019 41 10000 1.5 270 15:52 17.12.2020
4765 Clouds 4 1019 41 10000 1.5 270 15:32 17.12.2020
4766 Clouds 4 1019 38 10000 3.1 310 14:55 17.12.2020
4767 Clouds 4 1019 38 10000 3.1 310 14:34 17.12.2020
4768 Clouds 5 1019 38 10000 3.6 320 13:58 17.12.2020
4769 Clouds 5 1019 38 10000 3.6 320 13:58 17.12.2020
4770 Clouds 5 1019 35 10000 5.1 350 13:35 17.12.2020
4771 Clouds 6 1018 36 10000 5.1 350 12:49 17.12.2020
4772 Clouds 6 1019 36 10000 6.7 350 12:26 17.12.2020
4773 Clouds 6 1018 33 10000 5.7 10 11:45 17.12.2020
4774 Clouds 6 1018 33 10000 5.7 10 11:25 17.12.2020
4775 Clouds 7 1018 31 10000 5.7 350 10:56 17.12.2020
4776 Clouds 7 1018 31 10000 5.7 350 10:29 17.12.2020
4777 Clouds 7 1016 15 10000 4.1 300 09:31 17.12.2020
4778 Clouds 8 1016 15 10000 4.1 300 08:37 17.12.2020
4779 Clouds 9 1016 14 10000 5.1 310 07:40 17.12.2020
4780 Clouds 9 1016 15 10000 3.6 320 07:18 17.12.2020
4781 Clouds 9 1016 15 10000 3.6 320 06:44 17.12.2020
4782 Clouds 9 1015 16 10000 6.2 300 06:26 17.12.2020
4783 Clouds 5 1017 41 10000 2.1 310 01:40 17.12.2020
4784 Clouds 4 1016 47 10000 4.6 320 23:58 16.12.2020
4785 Clouds 2 1016 51 10000 5.7 330 23:23 16.12.2020
4786 Clouds 2 1016 51 10000 5.7 330 22:58 16.12.2020
4787 Clouds 2 1015 51 10000 3.6 310 22:38 16.12.2020
4788 Clouds 2 1015 55 10000 2.1 290 21:58 16.12.2020
4789 Clouds 2 1015 55 10000 2.1 290 21:38 16.12.2020
4790 Clouds 2 1014 64 10000 3.6 310 21:20 16.12.2020
4791 Clouds 2 1014 59 10000 5.1 350 20:44 16.12.2020
4792 Clouds 3 1014 64 10000 5.1 20 20:19 16.12.2020
4793 Clouds 3 1014 55 10000 4.1 20 19:37 16.12.2020
4794 Clouds 3 1013 60 10000 5.1 20 19:18 16.12.2020
4795 Clouds 3 1013 60 10000 6.7 360 18:42 16.12.2020
4796 Clouds 3 1013 60 10000 6.7 360 18:22 16.12.2020
4797 Clouds 3 1012 55 10000 5.1 360 17:35 16.12.2020
4798 Clouds 3 1012 55 10000 4.6 360 16:43 16.12.2020
4799 Clouds 3 1013 55 10000 5.7 20 16:24 16.12.2020
4800 Clouds 4 1013 55 10000 5.7 20 15:57 16.12.2020
4801 Clouds 4 1012 56 10000 4.6 30 15:37 16.12.2020
4802 Clouds 4 1013 52 10000 4.1 20 15:18 16.12.2020
4803 Clouds 4 1013 52 10000 6.2 360 14:41 16.12.2020
4804 Clouds 4 1012 52 10000 6.7 350 14:22 16.12.2020
4805 Clouds 4 1012 52 10000 6.2 330 13:40 16.12.2020
4806 Clouds 5 1012 45 10000 6.7 360 13:20 16.12.2020
4807 Clouds 5 1011 48 10000 6.7 350 12:43 16.12.2020
4808 Clouds 6 1011 48 10000 6.7 360 11:49 16.12.2020
4809 Clouds 6 1011 48 10000 8.2 10 11:27 16.12.2020
4810 Clouds 6 1011 48 10000 8.2 10 10:54 16.12.2020
4811 Clouds 6 1010 45 10000 7.7 360 10:32 16.12.2020
4812 Clouds 7 1010 36 10000 5.7 350 09:56 16.12.2020
4813 Clouds 7 1010 36 10000 5.7 350 09:29 16.12.2020
4814 Clouds 8 1009 24 10000 2.6 20 08:22 16.12.2020
4815 Clouds 9 1009 24 10000 2.6 20 07:45 16.12.2020
4816 Clouds 9 1009 24 10000 3.1 60 07:20 16.12.2020
4817 Clouds 8 1012 31 10000 1.5 0 03:37 16.12.2020
4818 Clouds 7 1013 36 10000 2.1 40 01:59 16.12.2020
4819 Clouds 4 1013 27 10000 2.1 340 23:50 15.12.2020
4820 Clouds 5 1013 27 10000 2.1 340 23:32 15.12.2020
4821 Clouds 4 1012 29 10000 3.6 300 22:42 15.12.2020
4822 Clouds 5 1012 29 10000 2.1 240 22:22 15.12.2020
4823 Clouds 4 1012 32 10000 2.1 320 21:48 15.12.2020
4824 Clouds 4 1012 29 10000 2.1 250 21:24 15.12.2020
4825 Clouds 4 1012 29 10000 2.1 220 20:46 15.12.2020
4826 Clouds 4 1012 38 10000 3.1 300 20:27 15.12.2020
4827 Clouds 4 1012 38 10000 3.1 300 19:55 15.12.2020
4828 Clouds 4 1012 47 10000 2.1 280 19:34 15.12.2020
4829 Clouds 4 1012 47 10000 2.6 310 18:55 15.12.2020
4830 Clouds 4 1012 47 10000 2.6 310 18:36 15.12.2020
4831 Clouds 4 1012 51 10000 2.1 320 18:18 15.12.2020
4832 Clear 4 1012 51 10000 2.6 310 17:41 15.12.2020
4833 Clear 4 1012 48 10000 4.1 320 17:20 15.12.2020
4834 Clear 5 1012 51 10000 3.1 330 16:34 15.12.2020
4835 Clear 5 1012 45 10000 2.1 20 15:59 15.12.2020
4836 Clear 5 1012 44 10000 5.7 360 15:33 15.12.2020
4837 Clear 5 1012 44 10000 5.7 330 14:51 15.12.2020
4838 Clouds 5 1012 41 10000 6.2 350 14:25 15.12.2020
4839 Clouds 5 1012 41 10000 6.2 350 13:59 15.12.2020
4840 Clear 5 1012 48 10000 7.7 350 13:40 15.12.2020
4841 Clouds 6 1012 45 10000 8.2 330 13:22 15.12.2020
4842 Clouds 6 1011 45 10000 9.3 340 12:43 15.12.2020
4843 Clear 6 1012 39 10000 8.7 330 12:18 15.12.2020
4844 Clear 6 1011 42 10000 9.3 350 11:43 15.12.2020
4845 Clear 7 1011 36 10000 9.3 340 11:20 15.12.2020
4846 Clear 7 1010 42 10000 7.7 10 10:41 15.12.2020
4847 Clear 8 1010 36 10000 7.7 350 10:19 15.12.2020
4848 Clouds 8 1009 36 10000 7.7 350 09:39 15.12.2020
4849 Clouds 8 1009 27 10000 3.1 20 09:21 15.12.2020
4850 Clouds 9 1009 27 10000 3.1 20 08:37 15.12.2020
4851 Clouds 10 1008 27 10000 3.1 40 08:19 15.12.2020
4852 Clouds 10 1008 27 10000 3.1 40 07:40 15.12.2020
4853 Clouds 10 1008 37 10000 2.6 150 06:40 15.12.2020
4854 Clouds 10 1009 39 10000 1.5 100 05:27 15.12.2020
4855 Clouds 5 1011 48 10000 2.6 320 00:38 15.12.2020
4856 Clouds 4 1011 55 10000 3.6 320 23:48 14.12.2020
4857 Clouds 4 1011 55 10000 3.6 20 23:19 14.12.2020
4858 Clouds 5 1011 52 10000 3.6 30 22:39 14.12.2020
4859 Clear 5 1010 52 10000 4.1 20 21:56 14.12.2020
4860 Clear 5 1010 52 10000 4.1 20 21:36 14.12.2020
4861 Clear 4 1010 51 10000 2.6 320 21:18 14.12.2020
4862 Clouds 4 1010 51 10000 3.6 320 20:43 14.12.2020
4863 Clouds 5 1011 55 10000 2.6 360 20:24 14.12.2020
4864 Clouds 6 1010 48 10000 3.6 20 19:39 14.12.2020
4865 Clouds 5 1010 52 10000 3.1 20 19:21 14.12.2020
4866 Clouds 5 1010 52 10000 3.1 10 18:42 14.12.2020
4867 Clouds 5 1010 45 10000 4.1 20 18:22 14.12.2020
4868 Clouds 6 1010 56 10000 4.1 20 17:38 14.12.2020
4869 Clouds 6 1010 65 10000 4.1 30 17:19 14.12.2020
4870 Clouds 6 1010 60 10000 5.1 30 16:40 14.12.2020
4871 Clouds 6 1011 58 10000 5.1 30 16:22 14.12.2020
4872 Rain 7 1011 65 10000 5.1 30 15:33 14.12.2020
4873 Rain 7 1011 65 10000 5.1 30 15:33 14.12.2020
4874 Clouds 7 1010 61 10000 4.6 60 14:50 14.12.2020
4875 Clouds 7 1010 65 10000 5.1 70 14:29 14.12.2020
4876 Clouds 7 1010 65 10000 5.1 70 13:56 14.12.2020
4877 Rain 7 1010 65 10000 4.1 50 13:34 14.12.2020
4878 Clouds 8 1010 65 10000 5.7 40 12:56 14.12.2020
4879 Clouds 8 1010 65 10000 5.7 40 12:32 14.12.2020
4880 Clouds 8 1010 70 10000 5.7 70 11:57 14.12.2020
4881 Clouds 8 1009 70 10000 6.2 60 11:23 14.12.2020
4882 Clouds 8 1009 75 10000 6.7 50 10:28 14.12.2020
4883 Clouds 9 1008 70 10000 7.2 70 09:53 14.12.2020
4884 Clouds 9 1008 61 10000 5.1 40 09:25 14.12.2020
4885 Clouds 9 1008 61 10000 5.1 40 08:44 14.12.2020
4886 Clouds 9 1007 53 10000 5.7 40 08:23 14.12.2020
4887 Rain 10 1007 43 10000 3.1 20 07:22 14.12.2020
4888 Rain 11 1007 43 10000 3.1 20 06:44 14.12.2020
4889 Clouds 12 1007 40 10000 3.6 360 04:19 14.12.2020
4890 Clouds 11 1007 50 10000 4.6 310 02:25 14.12.2020
4891 Clouds 9 1005 57 10000 5.1 250 00:51 14.12.2020
4892 Clouds 9 1005 57 10000 5.1 250 00:29 14.12.2020
4893 Clouds 11 1005 50 10000 8.2 210 23:44 13.12.2020
4894 Clouds 11 1005 50 10000 6.7 220 23:20 13.12.2020
4895 Clouds 10 1004 50 10000 7.2 230 22:43 13.12.2020
4896 Clear 12 1004 46 10000 8.2 210 22:18 13.12.2020
4897 Clear 11 1004 46 10000 7.7 220 21:42 13.12.2020
4898 Clear 11 1004 46 10000 7.7 220 21:18 13.12.2020
4899 Clear 12 1004 50 10000 9.3 220 20:33 13.12.2020
4900 Clear 11 1004 53 10000 8.2 240 19:50 13.12.2020
4901 Clear 11 1004 57 10000 8.2 230 19:27 13.12.2020
4902 Clear 10 1004 57 10000 8.2 230 18:57 13.12.2020
4903 Clear 10 1005 62 10000 5.7 240 18:39 13.12.2020
4904 Clouds 10 1005 62 10000 7.2 230 18:19 13.12.2020
4905 Clouds 10 1005 76 10000 5.1 210 17:45 13.12.2020
4906 Clouds 9 1006 81 10000 3.6 180 17:18 13.12.2020
4907 Clouds 9 1007 81 10000 1.5 230 16:53 13.12.2020
4908 Clouds 9 1007 81 10000 1.5 230 16:34 13.12.2020
4909 Clouds 10 1008 76 10000 2.6 310 15:56 13.12.2020
4910 Clouds 9 1009 81 10000 2.1 340 15:38 13.12.2020
4911 Clouds 10 1009 76 10000 1.5 60 15:18 13.12.2020
4912 Clouds 10 1009 81 10000 3.6 70 14:42 13.12.2020
4913 Clouds 10 1009 76 10000 3.6 70 14:18 13.12.2020
4914 Clouds 9 1010 76 10000 5.7 90 13:36 13.12.2020
4915 Clouds 9 1010 81 10000 6.7 90 13:18 13.12.2020
4916 Clouds 9 1010 81 10000 6.2 80 12:37 13.12.2020
4917 Clouds 9 1010 81 10000 7.2 80 12:18 13.12.2020
4918 Clouds 9 1010 87 10000 9.8 70 11:35 13.12.2020
4919 Clouds 10 1010 87 10000 8.7 70 10:49 13.12.2020
4920 Clouds 10 1010 87 10000 8.7 70 10:30 13.12.2020
4921 Clouds 12 1010 47 10000 5.1 360 09:54 13.12.2020
4922 Clouds 13 1009 62 10000 2.1 30 08:58 13.12.2020
4923 Clouds 13 1009 62 10000 2.1 30 08:33 13.12.2020
4924 Clouds 14 1008 58 10000 1 0 07:29 13.12.2020
4925 Clouds 13 1007 62 10000 1.5 40 04:23 13.12.2020
4926 Clouds 12 1009 66 10000 2.1 30 02:40 13.12.2020
4927 Clouds 10 1009 76 10000 2.1 10 01:37 13.12.2020
4928 Clouds 10 1009 76 10000 2.1 10 01:37 13.12.2020
4929 Clouds 10 1009 76 10000 2.1 10 01:37 13.12.2020
4930 Clouds 10 1009 76 10000 2.1 10 01:37 13.12.2020
4931 Clouds 11 1009 81 10000 1.5 90 00:48 13.12.2020
4932 Clouds 10 1008 87 10000 2.6 130 23:51 12.12.2020
4933 Clouds 9 1008 87 10000 2.6 130 23:31 12.12.2020
4934 Clouds 10 1008 76 10000 3.1 110 22:49 12.12.2020
4935 Clouds 10 1008 76 10000 3.1 90 21:56 12.12.2020
4936 Clouds 10 1008 76 10000 3.1 90 21:34 12.12.2020
4937 Clouds 10 1008 81 10000 3.1 70 20:55 12.12.2020
4938 Clouds 10 1007 81 10000 4.6 70 20:29 12.12.2020
4939 Clouds 10 1007 76 10000 4.6 70 19:57 12.12.2020
4940 Clouds 10 1007 76 10000 5.7 80 19:39 12.12.2020
4941 Clouds 10 1007 76 10000 5.7 70 19:20 12.12.2020
4942 Clouds 10 1008 81 10000 5.1 70 18:42 12.12.2020
4943 Clouds 10 1008 76 10000 3.6 70 18:23 12.12.2020
4944 Clouds 10 1008 76 10000 4.1 60 17:47 12.12.2020
4945 Clouds 10 1007 76 10000 5.7 50 16:55 12.12.2020
4946 Clouds 10 1007 81 10000 6.2 40 16:20 12.12.2020
4947 Clouds 11 1007 81 10000 6.7 40 15:45 12.12.2020
4948 Clouds 11 1007 81 10000 6.7 50 15:27 12.12.2020
4949 Clouds 11 1007 76 10000 5.1 40 14:45 12.12.2020
4950 Clouds 11 1007 76 10000 5.1 30 13:55 12.12.2020
4951 Clouds 11 1007 76 10000 5.7 40 13:36 12.12.2020
4952 Clouds 11 1006 76 10000 6.2 50 12:53 12.12.2020
4953 Clouds 12 1005 76 10000 7.7 60 11:48 12.12.2020
4954 Clouds 12 1005 66 10000 5.1 40 10:53 12.12.2020
4955 Clouds 13 1005 71 10000 2.1 60 09:46 12.12.2020
4956 Clouds 13 1004 62 8000 1 0 08:54 12.12.2020
4957 Clouds 12 1008 62 6000 1 0 02:56 12.12.2020
4958 Rain 9 1010 71 10000 1 0 23:54 11.12.2020
4959 Rain 10 1010 71 10000 3.6 310 22:28 11.12.2020
4960 Clouds 10 1010 71 10000 4.1 340 20:48 11.12.2020
4961 Clouds 10 1012 76 10000 3.1 330 18:26 11.12.2020
4962 Clouds 11 1014 71 10000 4.1 10 15:54 11.12.2020
4963 Clouds 12 1015 71 10000 3.6 10 13:59 11.12.2020
4964 Clouds 12 1015 71 10000 4.6 40 13:23 11.12.2020
4965 Clouds 12 1015 71 10000 4.1 60 12:18 11.12.2020
4966 Clouds 12 1015 76 10000 4.1 60 11:51 11.12.2020
4967 Clouds 13 1015 71 10000 2.6 90 10:46 11.12.2020
4968 Clouds 13 1015 62 10000 3.1 140 08:48 11.12.2020
4969 Clouds 13 1015 58 10000 1.5 0 05:42 11.12.2020
4970 Clouds 13 1016 62 10000 1.5 0 04:52 11.12.2020
4971 Clouds 10 1018 76 7000 1 0 02:18 11.12.2020
4972 Clouds 9 1018 81 10000 2.6 10 00:23 11.12.2020
4973 Clouds 7 1017 87 10000 2.6 30 22:52 10.12.2020
4974 Clouds 8 1017 81 10000 2.1 30 21:36 10.12.2020
4975 Clear 8 1017 87 10000 1.5 280 20:42 10.12.2020
4976 Clear 8 1017 81 10000 2.6 300 19:44 10.12.2020
4977 Clear 9 1017 81 10000 2.6 310 18:57 10.12.2020
4978 Clouds 9 1017 81 10000 2.1 290 18:21 10.12.2020
4979 Clouds 10 1016 93 10000 2.1 320 16:32 10.12.2020
4980 Clouds 10 1017 87 10000 2.6 330 15:44 10.12.2020
4981 Clouds 11 1017 87 10000 2.6 50 14:52 10.12.2020
4982 Clouds 11 1017 81 10000 1.5 40 14:28 10.12.2020
4983 Clouds 11 1017 81 10000 2.6 90 13:20 10.12.2020
4984 Clouds 11 1016 87 10000 3.6 90 11:41 10.12.2020
4985 Clouds 11 1015 66 10000 3.1 40 08:57 10.12.2020
4986 Clouds 12 1015 62 10000 1.5 0 07:59 10.12.2020
4987 Clouds 12 1014 58 10000 2.1 340 06:46 10.12.2020
4988 Clouds 10 1018 71 10000 2.6 330 03:40 10.12.2020
4989 Clouds 9 1021 81 10000 3.6 330 02:24 10.12.2020
4990 Clouds 8 1021 75 6000 5.1 320 00:28 10.12.2020
4991 Clouds 8 1021 70 10000 6.7 340 22:58 09.12.2020
4992 Clouds 9 1022 61 10000 5.1 350 20:37 09.12.2020
4993 Clouds 9 1022 61 10000 5.1 360 19:34 09.12.2020
4994 Clouds 10 1022 57 10000 4.1 10 17:53 09.12.2020
4995 Clouds 10 1023 61 10000 4.6 20 16:52 09.12.2020
4996 Clouds 10 1023 61 10000 4.6 30 16:24 09.12.2020
4997 Clouds 10 1024 62 10000 4.1 20 15:37 09.12.2020
4998 Clouds 10 1024 62 10000 4.6 10 14:43 09.12.2020
4999 Clouds 10 1024 62 10000 4.6 20 14:23 09.12.2020
5000 Clouds 10 1024 62 10000 3.6 20 13:19 09.12.2020
5001 Clouds 10 1024 66 10000 3.6 30 12:46 09.12.2020
5002 Clouds 10 1023 62 10000 4.1 60 11:54 09.12.2020
5003 Clouds 10 1023 62 10000 4.1 60 11:27 09.12.2020
5004 Clouds 10 1023 66 10000 3.6 90 09:39 09.12.2020
5005 Clouds 11 1022 66 10000 4.1 90 08:26 09.12.2020
5006 Clouds 12 1022 57 10000 3.6 80 05:57 09.12.2020
5007 Clouds 11 1024 57 10000 3.1 30 04:21 09.12.2020
5008 Clouds 11 1024 66 10000 3.1 70 02:22 09.12.2020
5009 Clouds 9 1023 66 10000 3.6 60 23:45 08.12.2020
5010 Rain 9 1023 61 10000 3.6 40 23:21 08.12.2020
5011 Clouds 10 1022 61 10000 5.7 30 21:35 08.12.2020
5012 Clouds 10 1020 66 10000 7.2 40 19:46 08.12.2020
5013 Clouds 10 1020 66 10000 7.2 40 19:46 08.12.2020
5014 Clouds 10 1021 66 10000 7.2 30 19:25 08.12.2020
5015 Clouds 10 1020 66 10000 6.2 30 18:27 08.12.2020
5016 Clouds 11 1020 66 10000 7.2 20 15:54 08.12.2020
5017 Clouds 12 1019 76 10000 7.7 60 14:35 08.12.2020
5018 Clouds 12 1019 76 10000 6.7 60 13:40 08.12.2020
5019 Clouds 13 1018 76 10000 6.2 70 12:35 08.12.2020
5020 Clouds 13 1018 71 10000 5.7 70 11:52 08.12.2020
5021 Clouds 14 1018 67 10000 6.7 90 10:52 08.12.2020
5022 Clouds 14 1018 67 10000 6.7 90 10:31 08.12.2020
5023 Clouds 14 1016 58 10000 5.1 120 09:34 08.12.2020
5024 Clouds 16 1016 58 10000 3.6 150 07:34 08.12.2020
5025 Clear 15 1016 44 10000 4.1 30 04:22 08.12.2020
5026 Clear 12 1017 66 10000 0.5 0 01:38 08.12.2020
5027 Clouds 11 1016 71 10000 2.6 290 00:44 08.12.2020
5028 Clouds 8 1015 75 10000 2.1 250 22:56 07.12.2020
5029 Clouds 9 1015 81 10000 2.1 300 22:18 07.12.2020
5030 Clouds 8 1015 81 10000 2.1 260 20:47 07.12.2020
5031 Clouds 9 1015 87 10000 3.6 360 18:58 07.12.2020
5032 Clouds 10 1015 76 10000 1 0 17:38 07.12.2020
5033 Clouds 10 1016 81 10000 2.6 300 17:18 07.12.2020
5034 Clouds 10 1017 76 10000 1.5 330 16:23 07.12.2020
5035 Clouds 11 1016 66 10000 1 0 15:24 07.12.2020
5036 Clouds 12 1018 66 10000 1.5 340 14:28 07.12.2020
5037 Clouds 12 1017 62 10000 1.5 350 13:35 07.12.2020
5038 Clouds 12 1017 71 10000 1 0 11:58 07.12.2020
5039 Clouds 12 1017 71 10000 1 0 11:58 07.12.2020
5040 Clouds 12 1018 71 10000 1.5 120 11:38 07.12.2020
5041 Clouds 12 1018 76 10000 0.5 30 10:23 07.12.2020
5042 Clouds 14 1017 54 10000 0.5 0 08:56 07.12.2020
5043 Clouds 15 1017 67 10000 2.1 150 07:30 07.12.2020
5044 Clouds 15 1018 67 10000 2.6 140 05:26 07.12.2020
5045 Clouds 13 1020 62 10000 1.5 60 03:43 07.12.2020
5046 Clouds 8 1021 76 10000 5.1 340 00:39 07.12.2020
5047 Clouds 6 1021 75 10000 5.1 340 22:48 06.12.2020
5048 Clouds 7 1021 75 10000 3.6 340 21:44 06.12.2020
5049 Clouds 8 1021 81 10000 2.6 10 20:41 06.12.2020
5050 Clouds 8 1021 81 10000 4.1 10 20:19 06.12.2020
5051 Clouds 7 1022 81 10000 1.5 290 19:20 06.12.2020
5052 Clouds 9 1022 81 10000 1.5 10 17:31 06.12.2020
5053 Clouds 9 1022 81 10000 2.1 330 16:33 06.12.2020
5054 Clouds 11 1023 76 10000 2.1 70 14:49 06.12.2020
5055 Clouds 10 1023 76 10000 3.1 60 13:21 06.12.2020
5056 Clouds 11 1023 71 10000 2.6 70 12:30 06.12.2020
5057 Clouds 11 1023 71 10000 2.6 80 11:42 06.12.2020
5058 Clouds 12 1023 71 10000 2.6 70 11:23 06.12.2020
5059 Clouds 12 1023 62 10000 2.6 70 10:34 06.12.2020
5060 Clouds 12 1022 54 10000 2.6 90 09:23 06.12.2020
5061 Clouds 13 1022 54 10000 2.1 50 07:29 06.12.2020
5062 Clouds 12 1023 66 10000 1 0 04:47 06.12.2020
5063 Clouds 9 1025 75 10000 6.2 350 00:45 06.12.2020
5064 Clouds 9 1025 75 10000 6.2 350 00:26 06.12.2020
5065 Clouds 8 1025 75 10000 5.7 340 23:56 05.12.2020
5066 Clouds 5 1024 81 10000 4.6 320 22:25 05.12.2020
5067 Clouds 6 1024 81 10000 3.1 300 21:55 05.12.2020
5068 Clouds 7 1023 75 10000 3.6 300 21:30 05.12.2020
5069 Clouds 7 1023 81 10000 4.6 320 19:54 05.12.2020
5070 Clouds 9 1024 76 10000 4.6 350 18:46 05.12.2020
5071 Clouds 8 1024 76 10000 4.6 360 17:51 05.12.2020
5072 Clouds 8 1023 81 10000 4.6 10 16:45 05.12.2020
5073 Clouds 8 1024 87 10000 4.6 20 16:25 05.12.2020
5074 Clouds 8 1024 87 10000 3.6 320 14:52 05.12.2020
5075 Clouds 9 1024 87 10000 3.6 20 12:36 05.12.2020
5076 Clouds 9 1025 81 10000 3.6 10 11:50 05.12.2020
5077 Clouds 8 1024 87 10000 4.6 20 10:35 05.12.2020
5078 Clouds 8 1023 93 6000 1.5 10 08:54 05.12.2020
5079 Mist 8 1023 93 5000 2.1 360 07:48 05.12.2020
5080 Clouds 8 1023 93 6000 3.1 320 05:33 05.12.2020
5081 Clouds 6 1025 87 10000 5.7 340 00:40 05.12.2020
5082 Rain 6 1025 75 10000 6.7 350 23:23 04.12.2020
5083 Rain 8 1024 61 10000 5.7 350 21:34 04.12.2020
5084 Clouds 8 1024 51 10000 6.2 360 19:21 04.12.2020
5085 Clouds 8 1024 50 10000 5.7 360 18:39 04.12.2020
5086 Clouds 8 1024 50 10000 4.6 360 17:47 04.12.2020
5087 Clouds 8 1024 49 10000 4.6 10 16:32 04.12.2020
5088 Clouds 9 1024 48 10000 5.7 20 15:25 04.12.2020
5089 Clouds 10 1025 53 10000 4.6 90 13:37 04.12.2020
5090 Clouds 10 1025 54 10000 4.6 100 13:18 04.12.2020
5091 Clouds 11 1025 53 10000 5.7 90 12:22 04.12.2020
5092 Clouds 11 1023 54 10000 5.7 90 10:37 04.12.2020
5093 Clouds 12 1022 34 10000 3.6 40 09:25 04.12.2020
5094 Clouds 14 1021 30 10000 4.1 20 06:40 04.12.2020
5095 Clouds 13 1021 42 10000 3.6 30 04:53 04.12.2020
5096 Clouds 10 1023 57 10000 2.1 20 01:53 04.12.2020
5097 Clear 7 1021 75 10000 6.7 20 22:51 03.12.2020
5098 Clear 7 1020 75 10000 7.2 20 21:38 03.12.2020
5099 Clouds 8 1019 87 9000 6.7 20 20:47 03.12.2020
5100 Clouds 8 1018 87 8000 5.7 360 19:25 03.12.2020
5101 Clouds 7 1018 87 9000 5.7 360 18:48 03.12.2020
5102 Clouds 9 1017 81 9000 6.2 10 17:21 03.12.2020
5103 Clouds 9 1016 81 9000 4.6 20 16:45 03.12.2020
5104 Clouds 9 1016 81 9000 5.7 360 15:34 03.12.2020
5105 Clouds 10 1016 81 9000 3.6 30 14:50 03.12.2020
5106 Clouds 10 1017 81 9000 3.1 10 14:19 03.12.2020
5107 Clouds 9 1016 87 9000 4.6 20 12:55 03.12.2020
5108 Clouds 10 1015 87 9000 4.1 30 12:25 03.12.2020
5109 Clouds 10 1015 81 9000 4.6 30 11:23 03.12.2020
5110 Clouds 10 1014 81 7000 2.1 80 08:49 03.12.2020
5111 Clouds 10 1015 87 7000 1.5 0 04:44 03.12.2020
5112 Clouds 9 1018 87 7000 2.6 320 02:22 03.12.2020
5113 Clouds 8 1018 93 10000 4.6 340 00:42 03.12.2020
5114 Clouds 7 1019 93 9000 6.2 330 22:47 02.12.2020
5115 Clouds 7 1019 87 9000 6.7 340 22:21 02.12.2020
5116 Clouds 7 1019 93 9000 6.2 330 20:55 02.12.2020
5117 Clouds 8 1019 93 7000 6.2 350 20:37 02.12.2020
5118 Clouds 8 1019 93 6000 6.2 350 20:18 02.12.2020
5119 Clouds 8 1020 93 10000 6.2 360 17:56 02.12.2020
5120 Clouds 8 1020 93 10000 6.2 360 17:37 02.12.2020
5121 Clouds 8 1020 87 10000 6.7 10 17:19 02.12.2020
5122 Clouds 8 1022 87 10000 7.2 20 15:18 02.12.2020
5123 Rain 8 1024 93 10000 6.7 20 11:52 02.12.2020
5124 Rain 8 1024 93 8000 6.2 10 10:28 02.12.2020
5125 Rain 9 1024 87 6000 3.6 20 09:22 02.12.2020
5126 Clouds 10 1027 70 10000 3.1 10 04:25 02.12.2020
5127 Clouds 10 1027 70 10000 3.1 10 04:25 02.12.2020
5128 Clouds 10 1027 66 10000 6.2 360 22:21 01.12.2020
5129 Clouds 10 1027 71 10000 6.2 10 21:41 01.12.2020
5130 Clouds 9 1027 76 10000 5.1 10 19:35 01.12.2020
5131 Clouds 9 1027 71 10000 5.7 360 17:58 01.12.2020
5132 Clouds 10 1027 71 10000 6.2 20 16:36 01.12.2020
5133 Clouds 11 1027 71 10000 5.7 70 13:39 01.12.2020
5134 Clouds 11 1027 71 10000 5.1 80 12:25 01.12.2020
5135 Clouds 12 1027 66 10000 4.6 100 11:27 01.12.2020
5136 Clouds 13 1026 66 10000 5.7 110 10:39 01.12.2020
5137 Clouds 13 1025 54 10000 4.6 120 09:24 01.12.2020
5138 Clouds 14 1025 47 10000 1.5 60 06:50 01.12.2020
5139 Clouds 10 1028 71 10000 3.1 30 01:56 01.12.2020
5140 Clouds 9 1029 76 10000 2.1 20 00:56 01.12.2020
5141 Clouds 7 1028 66 10000 5.1 10 23:22 30.11.2020
5142 Clouds 8 1027 70 10000 5.1 20 22:45 30.11.2020
5143 Clouds 8 1026 76 10000 5.1 30 22:25 30.11.2020
5144 Clouds 9 1026 61 10000 5.7 20 21:55 30.11.2020
5145 Clouds 10 1026 76 10000 4.6 360 19:45 30.11.2020
5146 Clouds 10 1026 71 10000 4.6 10 18:40 30.11.2020
5147 Clouds 10 1026 76 10000 5.7 10 18:20 30.11.2020
5148 Clouds 10 1026 76 10000 4.6 20 17:42 30.11.2020
5149 Clouds 10 1026 81 10000 4.6 360 16:44 30.11.2020
5150 Clouds 11 1026 87 10000 3.6 50 14:47 30.11.2020
5151 Clouds 11 1025 81 10000 5.1 50 13:55 30.11.2020
5152 Clouds 11 1025 76 10000 6.2 60 12:40 30.11.2020
5153 Clouds 11 1024 76 10000 6.2 60 12:20 30.11.2020
5154 Clouds 12 1023 76 10000 6.2 60 10:32 30.11.2020
5155 Clouds 13 1024 58 10000 2.1 30 09:52 30.11.2020
5156 Clouds 14 1022 58 10000 1.5 160 07:58 30.11.2020
5157 Clouds 9 1023 65 10000 2.1 320 01:21 30.11.2020
5158 Clouds 7 1022 70 10000 4.1 340 22:22 29.11.2020
5159 Clouds 7 1021 70 10000 4.1 340 21:44 29.11.2020
5160 Clouds 8 1022 65 10000 3.6 330 21:25 29.11.2020
5161 Clouds 8 1022 70 10000 3.1 310 18:46 29.11.2020
5162 Clear 9 1022 75 10000 3.6 310 17:31 29.11.2020
5163 Clouds 11 1022 66 10000 3.6 10 13:35 29.11.2020
5164 Clouds 11 1022 66 10000 4.1 360 12:44 29.11.2020
5165 Clouds 11 1022 71 10000 3.6 30 11:25 29.11.2020
5166 Clouds 12 1021 62 10000 2.6 60 08:53 29.11.2020
5167 Clouds 12 1021 62 10000 2.6 60 08:34 29.11.2020
5168 Clouds 11 1023 43 10000 1 0 02:31 29.11.2020
5169 Clear 9 1022 53 10000 4.1 50 22:59 28.11.2020
5170 Clear 9 1021 57 10000 5.1 40 22:18 28.11.2020
5171 Clouds 9 1020 46 10000 5.7 10 19:58 28.11.2020
5172 Clouds 10 1020 53 10000 5.7 20 19:27 28.11.2020
5173 Clouds 10 1020 46 10000 5.1 10 18:56 28.11.2020
5174 Clouds 10 1019 53 10000 6.7 350 18:19 28.11.2020
5175 Clouds 10 1019 44 10000 6.2 10 16:57 28.11.2020
5176 Clear 10 1018 40 10000 6.7 360 14:58 28.11.2020
5177 Clear 10 1018 43 10000 7.7 350 13:47 28.11.2020
5178 Clouds 10 1018 40 10000 10.3 340 11:27 28.11.2020
5179 Clouds 13 1014 33 10000 6.2 310 09:26 28.11.2020
5180 Clouds 16 1011 36 10000 6.7 310 03:40 28.11.2020
5181 Clouds 15 1011 58 10000 4.6 310 01:53 28.11.2020
5182 Clouds 11 1010 87 10000 4.6 10 23:22 27.11.2020
5183 Clouds 10 1009 81 10000 4.1 10 22:33 27.11.2020
5184 Clouds 10 1008 87 10000 5.1 350 20:39 27.11.2020
5185 Clouds 10 1008 81 10000 3.1 10 19:34 27.11.2020
5186 Clouds 11 1009 87 10000 4.1 360 18:57 27.11.2020
5187 Clouds 11 1010 81 10000 2.6 60 16:55 27.11.2020
5188 Clouds 11 1010 81 10000 2.6 60 16:55 27.11.2020
5189 Clouds 11 1010 81 10000 2.6 60 16:55 27.11.2020
5190 Clouds 12 1014 87 10000 4.1 90 14:45 27.11.2020
5191 Clouds 12 1016 81 10000 3.6 80 13:21 27.11.2020
5192 Clouds 12 1016 81 10000 4.6 80 12:47 27.11.2020
5193 Clouds 12 1017 81 10000 5.1 70 11:34 27.11.2020
5194 Clouds 12 1017 81 10000 6.2 80 10:45 27.11.2020
5195 Clouds 12 1018 81 10000 6.2 80 09:53 27.11.2020
5196 Clouds 12 1022 81 10000 5.7 40 23:50 26.11.2020
5197 Clouds 12 1021 84 10000 5.44 31 22:25 26.11.2020
5198 Clouds 12 1020 84 10000 5.44 31 21:56 26.11.2020
5199 Clouds 12 1021 76 10000 7.2 20 20:49 26.11.2020
5200 Clouds 12 1021 82 10000 6.2 20 18:37 26.11.2020
5201 Clouds 13 1021 76 10000 5.7 10 17:34 26.11.2020
5202 Clouds 14 1021 77 10000 5.7 10 14:39 26.11.2020
5203 Clouds 14 1021 72 10000 3.6 10 13:19 26.11.2020
5204 Clouds 14 1021 72 10000 3.6 30 12:41 26.11.2020
5205 Clouds 15 1020 59 10000 2.6 350 11:29 26.11.2020
5206 Clouds 15 1019 77 10000 1.5 80 10:25 26.11.2020
5207 Clouds 15 1019 67 10000 2.6 50 09:39 26.11.2020
5208 Clouds 16 1019 59 10000 2.6 140 09:18 26.11.2020
5209 Clouds 16 1019 59 10000 2.6 140 08:34 26.11.2020
5210 Clouds 13 1022 87 6000 1 0 02:19 26.11.2020
5211 Clouds 11 1021 93 7000 2.6 80 22:31 25.11.2020
5212 Clouds 12 1020 93 9000 2.6 20 20:38 25.11.2020
5213 Clouds 11 1019 93 10000 0.5 0 19:27 25.11.2020
5214 Clouds 11 1020 93 10000 1.5 100 18:22 25.11.2020
5215 Clouds 12 1020 82 10000 1.5 60 15:56 25.11.2020
5216 Clouds 12 1020 82 10000 1.5 60 15:35 25.11.2020
5217 Clouds 12 1021 82 10000 2.1 20 13:47 25.11.2020
5218 Clouds 12 1021 82 10000 2.1 20 13:29 25.11.2020
5219 Clouds 12 1020 82 10000 3.1 20 11:44 25.11.2020
5220 Clouds 12 1020 87 10000 3.1 360 11:18 25.11.2020
5221 Clouds 12 1020 87 10000 2.1 10 09:18 25.11.2020
5222 Clouds 12 1020 87 10000 2.1 10 08:40 25.11.2020
5223 Rain 11 1022 93 8000 4.1 310 03:58 25.11.2020
5224 Mist 10 1024 93 5000 2.6 330 01:51 25.11.2020
5225 Rain 10 1024 87 10000 5.7 350 00:22 25.11.2020
5226 Rain 10 1024 87 10000 7.2 360 23:36 24.11.2020
5227 Rain 10 1023 87 10000 7.7 360 22:57 24.11.2020
5228 Clouds 10 1024 87 10000 7.2 360 21:51 24.11.2020
5229 Clouds 10 1024 87 10000 7.2 350 21:29 24.11.2020
5230 Rain 10 1024 81 10000 7.2 340 20:19 24.11.2020
5231 Clouds 10 1024 81 10000 6.7 340 18:39 24.11.2020
5232 Clouds 10 1025 87 10000 7.2 360 17:30 24.11.2020
5233 Clouds 10 1025 81 10000 6.7 360 16:39 24.11.2020
5234 Clouds 11 1025 76 10000 7.2 20 15:58 24.11.2020
5235 Clouds 11 1025 76 10000 6.2 10 15:40 24.11.2020
5236 Clouds 11 1026 76 10000 6.2 10 15:18 24.11.2020
5237 Clouds 12 1025 76 10000 5.7 10 14:33 24.11.2020
5238 Clouds 12 1025 66 10000 4.6 10 12:45 24.11.2020
5239 Rain 12 1025 62 10000 4.6 30 12:22 24.11.2020
5240 Clouds 12 1025 62 10000 5.1 30 11:38 24.11.2020
5241 Clouds 13 1025 66 10000 5.1 60 10:41 24.11.2020
5242 Rain 13 1025 66 10000 5.1 70 10:22 24.11.2020
5243 Clouds 13 1025 66 10000 5.1 60 09:35 24.11.2020
5244 Clouds 12 1024 62 10000 2.6 30 07:57 24.11.2020
5245 Clouds 13 1024 43 10000 3.1 20 04:21 24.11.2020
5246 Clouds 11 1022 46 10000 8.2 350 22:34 23.11.2020
5247 Clouds 12 1022 47 10000 10.3 350 21:37 23.11.2020
5248 Clouds 12 1021 50 10000 8.7 350 20:54 23.11.2020
5249 Clouds 12 1021 50 10000 8.7 350 20:27 23.11.2020
5250 Clouds 12 1019 59 10000 0.89 340 19:24 23.11.2020
5251 Clouds 13 1020 54 10000 6.7 10 17:26 23.11.2020
5252 Clouds 14 1020 50 10000 5.1 10 16:28 23.11.2020
5253 Clouds 14 1019 67 10000 4.1 40 14:49 23.11.2020
5254 Clouds 15 1019 67 10000 4.6 60 13:43 23.11.2020
5255 Clouds 15 1019 72 10000 5.7 80 12:38 23.11.2020
5256 Clouds 15 1018 67 10000 6.7 100 11:49 23.11.2020
5257 Clouds 16 1018 67 10000 6.7 90 11:25 23.11.2020
5258 Clouds 17 1016 72 10000 6.7 100 09:42 23.11.2020
5259 Clouds 18 1015 36 10000 3.6 10 08:49 23.11.2020
5260 Clouds 18 1014 36 10000 3.6 310 07:34 23.11.2020
5261 Clouds 17 1012 48 10000 4.1 10 01:45 23.11.2020
5262 Clouds 15 1010 67 10000 4.1 300 23:41 22.11.2020
5263 Clouds 14 1009 71 10000 3.1 360 22:19 22.11.2020
5264 Clouds 14 1008 67 10000 2.6 310 21:24 22.11.2020
5265 Clouds 15 1008 67 10000 2.1 310 19:59 22.11.2020
5266 Clouds 15 1008 77 10000 3.1 10 18:57 22.11.2020
5267 Clouds 18 1009 68 10000 7.7 210 17:59 22.11.2020
5268 Clouds 18 1011 77 10000 5.7 200 16:25 22.11.2020
5269 Clouds 19 1011 77 10000 6.2 190 14:58 22.11.2020
5270 Clouds 19 1013 77 10000 7.7 200 13:23 22.11.2020
5271 Clouds 19 1013 68 10000 8.2 210 12:42 22.11.2020
5272 Clouds 19 1014 68 10000 7.7 210 11:39 22.11.2020
5273 Clouds 19 1015 68 10000 7.7 210 10:50 22.11.2020
5274 Clouds 19 1015 68 10000 7.7 210 10:32 22.11.2020
5275 Clouds 17 1020 58 10000 2.1 100 04:33 22.11.2020
5276 Clouds 12 1023 66 10000 2.1 20 23:56 21.11.2020
5277 Clouds 9 1023 66 10000 4.1 10 22:41 21.11.2020
5278 Clouds 10 1023 62 10000 4.1 10 21:31 21.11.2020
5279 Clouds 12 1023 71 10000 4.6 360 20:49 21.11.2020
5280 Clouds 12 1023 71 10000 3.1 60 20:20 21.11.2020
5281 Clouds 13 1023 71 10000 4.1 100 19:42 21.11.2020
5282 Clouds 12 1023 66 10000 3.1 80 18:54 21.11.2020
5283 Clouds 13 1023 67 10000 5.1 70 17:30 21.11.2020
5284 Clouds 13 1023 67 10000 5.1 80 16:44 21.11.2020
5285 Clouds 14 1023 62 10000 3.6 80 15:40 21.11.2020
5286 Clouds 14 1023 62 10000 3.6 90 15:20 21.11.2020
5287 Clouds 14 1022 54 10000 4.1 80 14:40 21.11.2020
5288 Clouds 15 1020 47 10000 5.1 10 12:44 21.11.2020
5289 Clouds 15 1021 44 10000 5.7 20 12:22 21.11.2020
5290 Clouds 15 1020 44 10000 6.2 20 11:49 21.11.2020
5291 Clouds 16 1019 42 10000 6.2 20 10:28 21.11.2020
5292 Clouds 17 1017 31 10000 3.6 310 08:52 21.11.2020
5293 Clouds 18 1017 31 10000 3.6 310 08:34 21.11.2020
5294 Clouds 19 1014 32 10000 7.2 330 05:42 21.11.2020
5295 Clouds 19 1013 37 10000 6.7 330 02:52 21.11.2020
5296 Clouds 18 1011 55 10000 8.7 360 00:22 21.11.2020
5297 Clouds 17 1009 52 10000 7.2 20 22:59 20.11.2020
5298 Clouds 18 1008 55 10000 7.2 360 21:45 20.11.2020
5299 Clouds 18 1007 59 10000 4.1 360 21:22 20.11.2020
5300 Clouds 19 1006 63 10000 5.1 350 19:55 20.11.2020
5301 Clouds 19 1006 68 10000 5.1 340 18:55 20.11.2020
5302 Clouds 19 1006 72 10000 4.6 360 18:27 20.11.2020
5303 Clouds 19 1006 77 10000 6.2 340 17:31 20.11.2020
5304 Clouds 19 1005 77 10000 5.7 330 16:47 20.11.2020
5305 Clouds 19 1005 82 10000 5.7 330 15:59 20.11.2020
5306 Clouds 19 1005 77 10000 4.6 320 15:39 20.11.2020
5307 Clouds 21 1005 83 10000 4.1 230 13:54 20.11.2020
5308 Clouds 21 1004 83 10000 6.7 200 13:20 20.11.2020
5309 Clouds 22 1004 78 10000 6.7 210 12:50 20.11.2020
5310 Clouds 23 1004 73 10000 10.8 220 11:52 20.11.2020
5311 Clouds 22 1004 73 10000 10.8 220 11:26 20.11.2020
5312 Clouds 23 1004 73 10000 10.8 220 09:52 20.11.2020
5313 Clouds 23 1004 69 10000 8.7 210 08:30 20.11.2020
5314 Clouds 23 1005 69 10000 6.7 220 07:49 20.11.2020
5315 Rain 24 1006 69 10000 7.7 200 05:19 20.11.2020
5316 Clouds 22 1010 78 10000 11.8 220 00:21 20.11.2020
5317 Clouds 22 1010 78 10000 11.8 210 22:30 19.11.2020
5318 Clouds 22 1011 78 10000 9.8 210 21:53 19.11.2020
5319 Clouds 22 1011 73 10000 7.7 200 20:57 19.11.2020
5320 Clouds 22 1011 78 10000 8.2 200 20:20 19.11.2020
5321 Clouds 22 1012 78 10000 10.8 210 19:27 19.11.2020
5322 Clouds 22 1012 78 10000 10.8 210 18:54 19.11.2020
5323 Clouds 22 1012 78 10000 8.2 210 17:27 19.11.2020
5324 Clouds 22 1013 78 10000 10.3 210 16:33 19.11.2020
5325 Clouds 22 1012 78 10000 10.8 210 15:31 19.11.2020
5326 Clouds 21 1014 73 10000 8.2 210 13:55 19.11.2020
5327 Clouds 21 1014 73 10000 9.8 220 13:36 19.11.2020
5328 Clouds 21 1014 73 10000 7.7 210 12:54 19.11.2020
5329 Clouds 21 1015 73 10000 8.7 210 12:33 19.11.2020
5330 Clouds 21 1015 73 10000 7.7 210 11:41 19.11.2020
5331 Clouds 21 1015 73 10000 7.7 210 11:22 19.11.2020
5332 Clouds 22 1015 78 10000 7.7 200 10:31 19.11.2020
5333 Clouds 22 1016 78 10000 7.7 200 09:48 19.11.2020
5334 Clouds 22 1016 73 10000 5.7 200 09:28 19.11.2020
5335 Clouds 23 1016 73 10000 5.7 200 08:37 19.11.2020
5336 Clouds 24 1016 69 10000 5.1 190 07:35 19.11.2020
5337 Clouds 18 1021 72 6000 1 0 01:48 19.11.2020
5338 Clouds 17 1022 82 6000 2.1 60 00:32 19.11.2020
5339 Clouds 16 1022 82 6000 2.1 90 23:32 18.11.2020
5340 Clouds 16 1022 82 6000 2.6 80 22:59 18.11.2020
5341 Rain 16 1022 77 7000 2.1 30 22:29 18.11.2020
5342 Clouds 16 1021 87 7000 0.5 0 21:44 18.11.2020
5343 Clouds 16 1021 87 7000 1 0 21:25 18.11.2020
5344 Clouds 16 1021 82 7000 1.5 120 20:37 18.11.2020
5345 Rain 16 1022 82 8000 0.5 0 19:43 18.11.2020
5346 Clouds 16 1022 82 8000 0.5 0 19:22 18.11.2020
5347 Clouds 16 1022 82 8000 2.1 300 18:45 18.11.2020
5348 Clouds 17 1022 82 8000 1.5 50 17:44 18.11.2020
5349 Clouds 17 1023 82 9000 1 350 16:52 18.11.2020
5350 Clouds 16 1023 77 10000 2.6 310 16:18 18.11.2020
5351 Clouds 17 1023 77 10000 3.1 280 14:42 18.11.2020
5352 Clouds 17 1023 82 10000 2.6 190 14:19 18.11.2020
5353 Clouds 18 1023 82 10000 2.6 180 13:22 18.11.2020
5354 Clouds 17 1023 88 10000 4.1 150 12:43 18.11.2020
5355 Clouds 18 1023 88 10000 4.6 140 11:56 18.11.2020
5356 Clouds 19 1023 88 10000 2.1 130 10:57 18.11.2020
5357 Clouds 20 1023 72 10000 3.6 180 10:30 18.11.2020
5358 Clouds 20 1022 72 10000 4.6 190 08:41 18.11.2020
5359 Clouds 21 1023 72 10000 3.1 120 07:28 18.11.2020
5360 Clouds 19 1024 60 7000 3.1 50 04:34 18.11.2020
5361 Clouds 14 1027 82 10000 2.1 20 00:20 18.11.2020
5362 Clouds 13 1027 82 10000 2.6 40 23:25 17.11.2020
5363 Clouds 11 1026 81 10000 1.5 60 22:44 17.11.2020
5364 Clouds 11 1026 81 10000 1.5 60 22:26 17.11.2020
5365 Clouds 13 1026 76 10000 2.1 20 21:47 17.11.2020
5366 Clouds 14 1027 76 10000 2.6 20 21:23 17.11.2020
5367 Clouds 14 1027 76 10000 2.6 20 21:23 17.11.2020
5368 Clouds 14 1026 82 10000 3.1 20 20:43 17.11.2020
5369 Clouds 14 1027 82 10000 3.6 20 20:23 17.11.2020
5370 Clouds 13 1027 82 10000 2.1 360 19:44 17.11.2020
5371 Clouds 13 1028 76 10000 2.1 360 18:23 17.11.2020
5372 Clouds 13 1028 76 10000 2.6 10 17:28 17.11.2020
5373 Clouds 14 1028 82 10000 3.1 60 16:36 17.11.2020
5374 Clouds 14 1029 82 10000 2.6 50 15:57 17.11.2020
5375 Clouds 15 1029 77 10000 2.6 50 15:36 17.11.2020
5376 Clouds 15 1029 77 10000 2.6 50 14:58 17.11.2020
5377 Clouds 15 1029 77 10000 2.1 50 14:30 17.11.2020
5378 Clouds 15 1028 77 10000 2.6 60 13:45 17.11.2020
5379 Clouds 15 1029 77 10000 3.1 70 13:21 17.11.2020
5380 Clouds 15 1029 77 10000 3.1 70 13:21 17.11.2020
5381 Clouds 15 1028 77 10000 2.6 90 12:42 17.11.2020
5382 Clouds 16 1028 72 10000 3.1 110 11:45 17.11.2020
5383 Clouds 16 1028 72 10000 4.1 110 11:21 17.11.2020
5384 Clear 16 1028 72 10000 5.7 100 10:39 17.11.2020
5385 Clear 17 1028 63 10000 5.1 110 09:53 17.11.2020
5386 Clear 17 1028 67 10000 5.7 110 09:34 17.11.2020
5387 Clear 18 1027 59 10000 6.7 130 08:26 17.11.2020
5388 Clear 19 1027 55 10000 5.7 110 07:57 17.11.2020
5389 Clear 20 1027 55 10000 5.7 110 07:28 17.11.2020
5390 Clear 19 1027 52 10000 3.6 110 04:30 17.11.2020
5391 Clear 18 1028 52 10000 2.1 40 03:22 17.11.2020
5392 Clear 18 1028 52 10000 2.1 40 03:22 17.11.2020
5393 Clear 18 1028 52 10000 2.1 40 02:29 17.11.2020
5394 Clear 16 1027 51 10000 5.1 10 00:56 17.11.2020
5395 Clear 16 1027 55 10000 4.6 360 23:53 16.11.2020
5396 Clear 15 1027 59 10000 4.1 10 23:30 16.11.2020
5397 Clouds 15 1026 59 10000 5.1 10 22:49 16.11.2020
5398 Clouds 15 1026 59 10000 6.2 10 22:23 16.11.2020
5399 Clouds 15 1026 59 10000 6.2 10 21:56 16.11.2020
5400 Clouds 15 1026 59 10000 5.1 10 21:37 16.11.2020
5401 Clouds 14 1026 59 10000 7.2 360 21:18 16.11.2020
5402 Clouds 15 1025 63 10000 6.2 360 20:26 16.11.2020
5403 Clouds 15 1025 63 10000 5.7 10 19:50 16.11.2020
5404 Clouds 15 1024 63 10000 4.1 30 19:28 16.11.2020
5405 Clouds 16 1024 59 10000 5.1 10 18:48 16.11.2020
5406 Clouds 16 1025 55 10000 6.2 350 18:18 16.11.2020
5407 Clouds 16 1025 59 10000 3.6 30 17:27 16.11.2020
5408 Clouds 16 1024 59 10000 5.7 10 16:57 16.11.2020
5409 Clouds 16 1024 59 10000 5.7 10 16:39 16.11.2020
5410 Clouds 16 1024 59 10000 3.1 20 16:19 16.11.2020
5411 Clouds 16 1024 63 10000 3.1 10 15:43 16.11.2020
5412 Clouds 16 1024 77 10000 2.6 20 15:22 16.11.2020
5413 Clouds 16 1023 72 10000 3.6 310 14:47 16.11.2020
5414 Clouds 16 1023 72 10000 0.5 0 13:40 16.11.2020
5415 Clouds 17 1022 82 10000 1.5 360 12:45 16.11.2020
5416 Clouds 17 1022 82 10000 1.5 360 12:45 16.11.2020
5417 Clouds 17 1022 82 10000 1.5 360 12:25 16.11.2020
5418 Clouds 17 1022 88 10000 3.1 10 11:38 16.11.2020
5419 Clouds 17 1022 88 10000 1.5 10 11:20 16.11.2020
5420 Clouds 17 1021 77 10000 1.5 160 10:42 16.11.2020
5421 Clouds 17 1021 77 10000 1.5 160 10:24 16.11.2020
5422 Clouds 18 1021 77 10000 1.5 170 09:43 16.11.2020
5423 Clear 19 1020 77 10000 1.5 170 09:22 16.11.2020
5424 Clear 19 1020 77 10000 1.5 170 08:40 16.11.2020
5425 Clear 20 1020 68 10000 1.5 130 07:45 16.11.2020
5426 Clear 20 1020 63 10000 1.5 160 06:50 16.11.2020
5427 Clear 20 1020 63 10000 1.5 160 06:24 16.11.2020
5428 Clouds 19 1021 55 10000 2.1 140 04:48 16.11.2020
5429 Clear 16 1023 55 10000 1.5 0 02:30 16.11.2020
5430 Clear 14 1024 58 10000 2.1 330 01:44 16.11.2020
5431 Clear 14 1024 67 10000 3.1 20 23:58 15.11.2020
5432 Clear 13 1023 71 10000 1 0 23:26 15.11.2020
5433 Clouds 11 1023 71 10000 2.6 10 22:51 15.11.2020
5434 Clouds 11 1023 71 10000 3.1 10 22:22 15.11.2020
5435 Clouds 11 1023 66 10000 3.6 30 21:47 15.11.2020
5436 Clouds 11 1023 66 10000 3.6 30 21:25 15.11.2020
5437 Clouds 12 1024 71 10000 3.6 30 20:44 15.11.2020
5438 Clouds 12 1024 71 10000 4.1 40 20:22 15.11.2020
5439 Clouds 13 1024 67 10000 2.6 40 19:48 15.11.2020
5440 Clouds 13 1024 67 10000 2.6 30 19:23 15.11.2020
5441 Clouds 13 1024 67 10000 2.6 30 18:59 15.11.2020
5442 Clouds 13 1024 71 10000 2.6 30 18:41 15.11.2020
5443 Clouds 14 1024 71 10000 2.1 10 18:21 15.11.2020
5444 Clouds 14 1024 66 10000 1.5 350 17:46 15.11.2020
5445 Clouds 13 1025 67 10000 2.6 340 17:25 15.11.2020
5446 Clouds 13 1025 67 10000 2.6 340 16:51 15.11.2020
5447 Clouds 15 1025 62 10000 2.6 310 16:21 15.11.2020
5448 Clouds 15 1025 62 10000 2.6 310 15:56 15.11.2020
5449 Clouds 14 1025 67 10000 2.1 300 15:37 15.11.2020
5450 Clouds 14 1025 67 10000 3.1 300 15:19 15.11.2020
5451 Clouds 15 1025 72 10000 3.6 290 14:36 15.11.2020
5452 Clouds 16 1025 67 10000 2.1 290 14:18 15.11.2020
5453 Clouds 16 1026 63 10000 5.1 260 13:39 15.11.2020
5454 Clouds 17 1026 63 10000 5.7 200 12:52 15.11.2020
5455 Clouds 17 1025 63 10000 5.7 190 12:26 15.11.2020
5456 Clouds 17 1026 63 10000 6.7 180 11:58 15.11.2020
5457 Clouds 17 1026 68 10000 5.1 180 11:40 15.11.2020
5458 Clouds 17 1026 72 10000 6.2 170 11:18 15.11.2020
5459 Clouds 17 1026 68 10000 6.7 190 10:46 15.11.2020
5460 Clouds 17 1026 68 10000 6.7 190 10:27 15.11.2020
5461 Clouds 17 1026 63 10000 8.7 190 09:45 15.11.2020
5462 Clouds 17 1027 63 10000 5.7 190 09:22 15.11.2020
5463 Clouds 18 1027 63 10000 5.7 190 08:53 15.11.2020
5464 Clouds 18 1026 59 10000 4.6 180 08:30 15.11.2020
5465 Clouds 18 1027 55 10000 5.7 190 07:43 15.11.2020
5466 Clouds 18 1029 62 10000 2.1 140 05:18 15.11.2020
5467 Clouds 17 1029 62 10000 2.1 140 04:49 15.11.2020
5468 Clouds 14 1031 58 10000 1.5 320 00:49 15.11.2020
5469 Clouds 14 1031 58 10000 1.5 320 00:29 15.11.2020
5470 Clouds 11 1031 61 10000 2.6 320 23:39 14.11.2020
5471 Clouds 9 1031 66 10000 3.1 310 22:50 14.11.2020
5472 Clouds 9 1031 66 10000 2.6 320 22:31 14.11.2020
5473 Clear 9 1030 71 10000 3.1 310 21:44 14.11.2020
5474 Clear 11 1030 66 10000 3.6 10 21:23 14.11.2020
5475 Clear 11 1030 66 10000 3.6 10 20:59 14.11.2020
5476 Clear 11 1030 71 10000 4.1 10 20:30 14.11.2020
5477 Clear 11 1030 71 10000 4.1 10 20:30 14.11.2020
5478 Clear 11 1030 71 10000 4.6 20 19:55 14.11.2020
5479 Clouds 11 1030 76 10000 4.6 30 19:35 14.11.2020
5480 Clouds 13 1030 71 10000 2.6 100 18:44 14.11.2020
5481 Clouds 13 1030 71 10000 2.6 110 18:25 14.11.2020
5482 Clouds 14 1030 71 10000 2.6 110 17:59 14.11.2020
5483 Clouds 14 1030 67 10000 3.6 90 17:41 14.11.2020
5484 Clear 14 1030 67 10000 3.1 100 17:20 14.11.2020
5485 Clouds 15 1029 67 10000 3.6 110 16:44 14.11.2020
5486 Clouds 15 1029 67 10000 3.6 110 16:24 14.11.2020
5487 Clear 15 1029 67 10000 3.6 90 15:52 14.11.2020
5488 Clear 15 1029 67 10000 3.1 80 15:29 14.11.2020
5489 Clear 15 1029 67 10000 1.5 90 14:49 14.11.2020
5490 Clear 15 1029 67 10000 1.5 90 14:26 14.11.2020
5491 Clear 14 1029 67 10000 3.1 100 13:49 14.11.2020
5492 Clear 15 1029 67 10000 3.1 100 13:26 14.11.2020
5493 Clear 14 1029 72 10000 4.1 80 12:48 14.11.2020
5494 Clear 14 1029 72 10000 4.1 80 12:48 14.11.2020
5495 Clear 14 1029 72 10000 4.1 80 12:30 14.11.2020
5496 Clear 15 1028 63 10000 4.6 90 11:48 14.11.2020
5497 Clear 15 1028 63 10000 4.6 90 11:30 14.11.2020
5498 Clear 16 1027 67 10000 5.1 110 10:50 14.11.2020
5499 Clear 16 1027 67 10000 5.1 110 10:27 14.11.2020
5500 Clear 16 1027 67 10000 5.1 110 10:27 14.11.2020
5501 Clear 17 1026 67 10000 5.1 110 09:56 14.11.2020
5502 Clear 17 1026 59 10000 4.6 90 09:38 14.11.2020
5503 Clouds 17 1025 42 10000 3.6 80 09:19 14.11.2020
5504 Clouds 18 1025 42 10000 3.6 80 08:39 14.11.2020
5505 Clouds 20 1025 39 10000 3.6 50 07:55 14.11.2020
5506 Clouds 20 1025 39 10000 3.6 50 07:36 14.11.2020
5507 Clear 20 1024 37 10000 3.1 30 06:37 14.11.2020
5508 Clear 20 1024 37 10000 2.1 30 06:19 14.11.2020
5509 Clear 19 1025 39 10000 4.1 30 04:39 14.11.2020
5510 Clear 16 1025 44 10000 5.1 340 01:29 14.11.2020
5511 Clouds 15 1025 51 10000 9.8 350 23:54 13.11.2020
5512 Clouds 15 1024 51 10000 10.3 350 23:33 13.11.2020
5513 Clouds 14 1024 54 10000 10.3 360 22:58 13.11.2020
5514 Clouds 13 1023 58 10000 10.8 350 22:39 13.11.2020
5515 Clear 13 1023 58 10000 10.3 350 22:19 13.11.2020
5516 Clear 13 1022 54 10000 10.3 340 21:43 13.11.2020
5517 Clear 14 1022 55 10000 10.8 350 21:22 13.11.2020
5518 Clear 14 1022 58 10000 8.2 350 20:51 13.11.2020
5519 Clear 14 1022 58 10000 8.2 350 20:23 13.11.2020
5520 Clear 13 1022 62 10000 5.1 320 19:47 13.11.2020
5521 Clear 14 1022 62 10000 5.1 320 19:24 13.11.2020
5522 Clear 14 1022 71 10000 3.1 310 18:59 13.11.2020
5523 Clear 13 1022 54 10000 2.6 320 18:32 13.11.2020
5524 Clear 15 1022 62 10000 4.1 330 17:43 13.11.2020
5525 Clear 15 1023 62 10000 3.1 320 17:21 13.11.2020
5526 Clear 15 1023 62 10000 3.6 330 16:50 13.11.2020
5527 Clear 15 1023 62 10000 3.6 330 16:25 13.11.2020
5528 Clear 15 1023 67 10000 3.1 320 15:59 13.11.2020
5529 Clear 15 1023 71 10000 3.1 310 15:39 13.11.2020
5530 Clear 15 1023 67 10000 2.6 310 15:20 13.11.2020
5531 Clouds 16 1023 67 10000 2.1 20 14:37 13.11.2020
5532 Clouds 16 1023 67 10000 3.6 10 14:18 13.11.2020
5533 Clouds 15 1022 77 10000 3.6 30 13:32 13.11.2020
5534 Clouds 15 1023 77 10000 2.6 10 12:57 13.11.2020
5535 Clouds 16 1022 72 10000 2.1 360 12:39 13.11.2020
5536 Clouds 16 1022 82 10000 2.1 360 12:20 13.11.2020
5537 Clouds 16 1022 67 10000 0.5 0 11:46 13.11.2020
5538 Clouds 16 1022 77 10000 0.5 20 11:21 13.11.2020
5539 Clouds 16 1022 72 10000 0.5 70 10:47 13.11.2020
5540 Clouds 16 1022 72 10000 0.5 70 10:47 13.11.2020
5541 Clouds 16 1022 72 10000 0.5 70 10:29 13.11.2020
5542 Clouds 17 1021 77 10000 1 100 09:48 13.11.2020
5543 Clouds 17 1021 67 10000 1.5 160 09:29 13.11.2020
5544 Clouds 18 1021 67 10000 1.5 160 08:53 13.11.2020
5545 Clear 19 1021 63 10000 2.6 150 08:27 13.11.2020
5546 Clear 19 1021 63 10000 2.6 150 07:50 13.11.2020
5547 Clear 19 1021 63 10000 2.6 150 07:27 13.11.2020
5548 Clouds 19 1021 63 10000 2.1 150 06:55 13.11.2020
5549 Clouds 19 1021 63 10000 2.1 150 06:36 13.11.2020
5550 Clouds 19 1022 63 10000 2.1 50 05:41 13.11.2020
5551 Clouds 16 1025 55 10000 1 0 03:44 13.11.2020
5552 Clouds 13 1027 58 10000 2.6 330 01:42 13.11.2020
5553 Clouds 13 1027 66 10000 4.1 340 00:37 13.11.2020
5554 Clouds 11 1026 62 10000 3.6 20 23:50 12.11.2020
5555 Clouds 11 1026 62 10000 4.1 20 23:21 12.11.2020
5556 Clouds 11 1026 62 10000 4.1 20 22:55 12.11.2020
5557 Clouds 11 1026 62 10000 4.1 10 22:37 12.11.2020
5558 Clouds 11 1026 62 10000 3.6 10 21:59 12.11.2020
5559 Clouds 11 1027 62 10000 4.6 10 21:41 12.11.2020
5560 Clouds 11 1027 58 10000 4.1 10 21:22 12.11.2020
5561 Clouds 11 1027 62 10000 4.6 10 20:42 12.11.2020
5562 Clouds 11 1027 62 10000 4.6 10 20:23 12.11.2020
5563 Clouds 11 1027 66 10000 4.6 10 19:55 12.11.2020
5564 Clouds 11 1027 66 10000 4.6 10 19:37 12.11.2020
5565 Clouds 12 1028 62 10000 4.6 10 19:19 12.11.2020
5566 Clouds 12 1028 62 10000 4.1 10 18:42 12.11.2020
5567 Clouds 12 1028 62 10000 4.6 10 18:20 12.11.2020
5568 Clouds 12 1028 58 10000 5.1 10 17:43 12.11.2020
5569 Clouds 12 1029 62 10000 4.6 10 17:24 12.11.2020
5570 Clouds 12 1029 62 10000 4.6 10 16:45 12.11.2020
5571 Clouds 12 1029 62 10000 4.6 20 16:24 12.11.2020
5572 Clouds 12 1029 62 10000 4.6 20 15:53 12.11.2020
5573 Clouds 12 1030 62 10000 4.1 20 15:30 12.11.2020
5574 Clouds 12 1030 62 10000 4.1 20 14:56 12.11.2020
5575 Clouds 12 1030 66 10000 4.6 20 14:38 12.11.2020
5576 Clouds 12 1031 66 10000 4.1 20 14:19 12.11.2020
5577 Clouds 12 1031 66 10000 4.1 10 13:45 12.11.2020
5578 Clouds 12 1031 66 10000 4.1 20 13:20 12.11.2020
5579 Clouds 12 1031 66 10000 4.1 30 12:49 12.11.2020
5580 Clouds 12 1031 66 10000 4.1 30 12:25 12.11.2020
5581 Clouds 13 1031 66 10000 4.6 40 11:57 12.11.2020
5582 Clouds 12 1031 71 10000 5.1 30 11:39 12.11.2020
5583 Clouds 12 1031 66 10000 4.1 50 10:54 12.11.2020
5584 Clouds 12 1031 66 10000 4.1 50 10:35 12.11.2020
5585 Clouds 12 1031 62 10000 4.6 50 09:58 12.11.2020
5586 Clouds 12 1031 62 10000 3.6 70 09:38 12.11.2020
5587 Clouds 13 1031 62 10000 3.6 70 09:18 12.11.2020
5588 Clouds 13 1031 62 10000 3.6 70 08:40 12.11.2020
5589 Clouds 13 1031 58 10000 3.1 50 08:21 12.11.2020
5590 Clouds 13 1031 58 10000 3.1 50 07:56 12.11.2020
5591 Clouds 13 1031 58 10000 3.1 50 07:37 12.11.2020
5592 Clouds 13 1031 58 10000 2.6 40 06:54 12.11.2020
5593 Clouds 13 1031 58 10000 2.6 40 06:27 12.11.2020
5594 Clouds 12 1033 54 10000 2.6 360 03:50 12.11.2020
5595 Clouds 12 1034 57 10000 3.6 350 03:20 12.11.2020
5596 Clouds 9 1034 66 10000 7.7 360 00:49 12.11.2020
5597 Clouds 9 1034 57 10000 7.7 360 23:46 11.11.2020
5598 Clouds 8 1034 61 10000 7.2 10 23:25 11.11.2020
5599 Clouds 8 1034 61 10000 7.2 10 22:57 11.11.2020
5600 Clouds 8 1034 57 10000 6.7 10 22:38 11.11.2020
5601 Clouds 8 1034 61 10000 7.2 360 22:18 11.11.2020
5602 Clouds 9 1033 61 10000 7.7 360 21:41 11.11.2020
5603 Clouds 9 1033 61 10000 8.2 360 21:23 11.11.2020
5604 Clouds 9 1033 61 10000 8.2 360 20:55 11.11.2020
5605 Clouds 9 1033 61 10000 8.2 360 20:36 11.11.2020
5606 Clouds 9 1033 66 10000 8.2 10 20:18 11.11.2020
5607 Clouds 9 1033 66 10000 7.7 360 19:46 11.11.2020
5608 Clouds 9 1033 66 10000 7.7 360 19:28 11.11.2020
5609 Clouds 9 1033 66 10000 6.7 10 18:47 11.11.2020
5610 Clouds 9 1033 66 10000 6.7 10 18:27 11.11.2020
5611 Clouds 10 1033 66 10000 6.2 20 17:41 11.11.2020
5612 Clouds 10 1033 62 10000 5.1 20 17:22 11.11.2020
5613 Clouds 10 1033 62 10000 4.6 20 16:47 11.11.2020
5614 Clouds 10 1033 62 10000 4.6 20 16:28 11.11.2020
5615 Clouds 10 1033 62 10000 4.6 20 15:48 11.11.2020
5616 Clouds 10 1033 62 10000 4.6 40 15:26 11.11.2020
5617 Clouds 10 1033 62 10000 4.6 40 14:55 11.11.2020
5618 Clouds 10 1033 57 10000 5.7 30 14:34 11.11.2020
5619 Clouds 11 1033 54 10000 6.2 30 13:56 11.11.2020
5620 Clouds 11 1032 58 10000 6.2 30 13:33 11.11.2020
5621 Clouds 12 1032 62 10000 7.7 70 12:44 11.11.2020
5622 Clouds 12 1031 54 10000 5.7 60 12:20 11.11.2020
5623 Clouds 12 1031 50 10000 5.1 60 11:49 11.11.2020
5624 Clouds 13 1031 50 10000 5.1 60 11:30 11.11.2020
5625 Clouds 13 1030 50 10000 6.2 70 10:42 11.11.2020
5626 Clouds 13 1030 50 10000 6.2 70 10:24 11.11.2020
5627 Clouds 14 1030 58 10000 6.2 60 09:48 11.11.2020
5628 Clouds 14 1029 34 10000 3.6 10 09:28 11.11.2020
5629 Clouds 14 1029 34 10000 3.6 10 08:47 11.11.2020
5630 Clouds 15 1028 33 10000 4.1 10 08:28 11.11.2020
5631 Clouds 15 1028 33 10000 4.1 10 07:52 11.11.2020
5632 Clouds 16 1028 32 10000 4.1 10 07:32 11.11.2020
5633 Clouds 16 1027 32 10000 3.6 10 06:28 11.11.2020
5634 Clouds 16 1027 33 10000 5.1 330 04:47 11.11.2020
5635 Clouds 14 1027 35 10000 4.1 330 01:32 11.11.2020
5636 Clouds 12 1026 43 10000 8.2 350 00:42 11.11.2020
5637 Clouds 11 1026 50 10000 8.2 350 23:56 10.11.2020
5638 Clouds 10 1026 53 10000 9.8 350 23:24 10.11.2020
5639 Clouds 10 1026 53 10000 9.8 350 22:57 10.11.2020
5640 Clouds 10 1025 57 10000 9.8 350 22:28 10.11.2020
5641 Clouds 10 1025 53 10000 9.8 350 21:56 10.11.2020
5642 Clouds 10 1024 57 10000 9.3 350 21:38 10.11.2020
5643 Clouds 10 1024 50 10000 9.8 340 21:19 10.11.2020
5644 Clouds 11 1024 53 10000 9.3 350 20:43 10.11.2020
5645 Clouds 11 1024 50 10000 7.7 350 20:23 10.11.2020
5646 Clouds 11 1024 50 10000 7.7 350 19:56 10.11.2020
5647 Clouds 10 1023 53 10000 8.2 350 19:37 10.11.2020
5648 Clouds 11 1023 46 10000 6.2 350 19:18 10.11.2020
5649 Clouds 10 1023 54 10000 6.7 340 18:41 10.11.2020
5650 Clouds 10 1023 57 10000 4.1 320 18:20 10.11.2020
5651 Clouds 10 1023 57 10000 5.1 320 17:45 10.11.2020
5652 Clouds 10 1023 57 10000 5.1 320 17:45 10.11.2020
5653 Clouds 11 1023 57 10000 5.1 330 17:27 10.11.2020
5654 Clouds 11 1023 57 10000 5.1 330 16:58 10.11.2020
5655 Clouds 11 1023 53 10000 4.6 320 16:38 10.11.2020
5656 Clouds 11 1023 53 10000 4.6 10 16:20 10.11.2020
5657 Clouds 11 1022 66 10000 3.6 20 15:47 10.11.2020
5658 Clouds 12 1022 66 10000 3.6 20 15:27 10.11.2020
5659 Clouds 12 1022 66 10000 4.6 20 14:43 10.11.2020
5660 Clouds 12 1022 58 10000 2.1 100 14:23 10.11.2020
5661 Clouds 12 1022 58 10000 2.1 100 13:58 10.11.2020
5662 Clouds 12 1022 62 10000 2.6 130 13:37 10.11.2020
5663 Clouds 13 1022 58 10000 3.1 120 13:19 10.11.2020
5664 Clouds 13 1022 62 10000 4.1 120 12:44 10.11.2020
5665 Clouds 13 1022 62 10000 4.1 130 12:24 10.11.2020
5666 Clouds 13 1021 58 10000 4.1 130 11:41 10.11.2020
5667 Clouds 13 1021 62 10000 6.2 120 11:21 10.11.2020
5668 Clouds 14 1021 62 10000 6.2 120 10:56 10.11.2020
5669 Clouds 14 1021 38 10000 4.1 20 10:36 10.11.2020
5670 Clouds 14 1020 41 10000 3.6 60 10:18 10.11.2020
5671 Clouds 14 1020 44 10000 3.6 80 09:41 10.11.2020
5672 Clouds 15 1019 33 10000 2.6 30 09:23 10.11.2020
5673 Clouds 15 1019 33 10000 2.6 30 08:52 10.11.2020
5674 Clouds 15 1019 33 10000 2.6 30 08:26 10.11.2020
5675 Clouds 16 1019 32 10000 2.1 30 07:44 10.11.2020
5676 Clouds 16 1019 32 10000 2.1 30 07:21 10.11.2020
5677 Clouds 16 1018 36 10000 3.1 40 06:40 10.11.2020
5678 Clouds 16 1018 36 10000 3.6 40 05:42 10.11.2020
5679 Clouds 15 1019 41 10000 5.1 40 04:54 10.11.2020
5680 Clouds 14 1020 47 10000 4.1 20 02:28 10.11.2020
5681 Clouds 12 1020 54 10000 3.6 30 01:29 10.11.2020
5682 Clouds 11 1019 54 10000 6.7 350 23:54 09.11.2020
5683 Clouds 11 1018 54 10000 2.6 10 23:30 09.11.2020
5684 Clouds 11 1017 54 10000 3.6 340 22:47 09.11.2020
5685 Clouds 11 1017 54 10000 3.6 340 22:24 09.11.2020
5686 Clouds 11 1017 53 10000 4.6 330 21:46 09.11.2020
5687 Clouds 10 1017 53 10000 4.6 330 21:27 09.11.2020
5688 Clouds 10 1017 53 10000 4.6 330 21:27 09.11.2020
5689 Clouds 11 1017 57 10000 3.1 320 20:58 09.11.2020
5690 Clouds 11 1017 54 10000 4.6 350 20:36 09.11.2020
5691 Clouds 11 1017 54 10000 4.1 330 20:18 09.11.2020
5692 Clouds 11 1016 54 10000 4.1 310 19:40 09.11.2020
5693 Clouds 11 1016 54 10000 4.1 310 19:21 09.11.2020
5694 Clouds 11 1016 54 10000 4.1 310 19:21 09.11.2020
5695 Clouds 11 1016 57 10000 3.1 340 18:41 09.11.2020
5696 Clouds 11 1016 58 10000 4.1 350 18:20 09.11.2020
5697 Clouds 11 1016 58 10000 4.6 10 17:52 09.11.2020
5698 Clouds 12 1016 58 10000 4.6 10 17:31 09.11.2020
5699 Clouds 12 1016 58 10000 5.7 10 16:46 09.11.2020
5700 Clouds 12 1016 58 10000 6.2 360 16:28 09.11.2020
5701 Clouds 12 1016 58 10000 6.2 360 15:56 09.11.2020
5702 Clouds 12 1016 50 10000 6.2 10 15:38 09.11.2020
5703 Clouds 13 1016 47 10000 5.1 360 15:20 09.11.2020
5704 Clouds 13 1016 50 10000 5.1 10 14:41 09.11.2020
5705 Clouds 12 1016 50 10000 5.1 340 14:23 09.11.2020
5706 Rain 13 1016 47 10000 5.1 330 13:46 09.11.2020
5707 Rain 13 1016 43 10000 5.1 330 13:20 09.11.2020
5708 Rain 13 1016 43 10000 5.1 330 13:20 09.11.2020
5709 Rain 14 1015 43 10000 5.1 330 12:47 09.11.2020
5710 Rain 14 1015 43 10000 5.1 330 12:25 09.11.2020
5711 Rain 15 1015 41 10000 3.1 60 11:56 09.11.2020
5712 Rain 15 1014 38 10000 3.1 40 11:37 09.11.2020
5713 Rain 15 1014 38 10000 2.1 50 11:18 09.11.2020
5714 Clouds 15 1014 41 10000 3.1 60 10:42 09.11.2020
5715 Clouds 15 1014 39 10000 2.1 40 10:23 09.11.2020
5716 Rain 15 1013 41 10000 2.6 50 09:41 09.11.2020
5717 Clouds 15 1013 44 10000 1.5 170 09:23 09.11.2020
5718 Clouds 16 1013 44 10000 1.5 170 08:39 09.11.2020
5719 Clouds 17 1012 36 10000 1.5 0 08:19 09.11.2020
5720 Clouds 17 1012 36 10000 1.5 0 07:39 09.11.2020
5721 Clouds 17 1012 36 10000 1 0 07:19 09.11.2020
5722 Clouds 17 1012 36 10000 2.1 270 06:23 09.11.2020
5723 Clouds 16 1013 33 10000 3.1 330 03:19 09.11.2020
5724 Clouds 15 1013 35 10000 2.6 330 01:43 09.11.2020
5725 Clouds 14 1013 37 10000 3.1 320 00:58 09.11.2020
5726 Clouds 13 1013 47 10000 7.7 350 23:53 08.11.2020
5727 Clouds 13 1013 47 10000 7.7 350 23:30 08.11.2020
5728 Clouds 12 1012 50 10000 9.3 360 22:46 08.11.2020
5729 Clouds 13 1012 54 10000 10.8 360 22:23 08.11.2020
5730 Clouds 13 1012 54 10000 10.8 360 21:55 08.11.2020
5731 Clouds 13 1012 54 10000 10.8 360 21:55 08.11.2020
5732 Clouds 13 1011 47 10000 11.8 360 21:37 08.11.2020
5733 Clouds 13 1011 50 10000 12.3 350 21:18 08.11.2020
5734 Clouds 13 1011 50 10000 11.8 350 20:39 08.11.2020
5735 Clouds 13 1011 50 10000 11.8 350 20:39 08.11.2020
5736 Clouds 13 1011 50 10000 11.8 350 20:39 08.11.2020
5737 Clouds 13 1010 47 10000 12.3 350 20:21 08.11.2020
5738 Clouds 14 1010 47 10000 11.8 340 19:57 08.11.2020
5739 Clouds 14 1010 47 10000 11.8 340 19:39 08.11.2020
5740 Clouds 14 1009 47 10000 12.3 340 19:20 08.11.2020
5741 Clouds 14 1009 47 10000 10.8 340 18:47 08.11.2020
5742 Clouds 15 1009 51 10000 11.8 330 18:21 08.11.2020
5743 Clouds 15 1009 51 10000 11.8 330 17:57 08.11.2020
5744 Clouds 15 1009 48 10000 10.8 340 17:38 08.11.2020
5745 Clouds 16 1009 48 10000 10.3 350 17:19 08.11.2020
5746 Clouds 16 1008 48 10000 10.3 350 16:48 08.11.2020
5747 Clouds 16 1008 51 10000 9.8 340 16:21 08.11.2020
5748 Clouds 17 1008 51 10000 9.8 340 15:57 08.11.2020
5749 Clouds 17 1008 48 10000 8.2 340 15:38 08.11.2020
5750 Rain 17 1008 51 10000 8.2 330 15:20 08.11.2020
5751 Rain 17 1008 55 10000 8.2 330 14:40 08.11.2020
5752 Clouds 17 1008 59 10000 2.1 350 14:21 08.11.2020
5753 Rain 18 1008 88 10000 3.1 350 13:46 08.11.2020
5754 Rain 18 1008 93 10000 1.5 20 13:22 08.11.2020
5755 Rain 19 1008 82 10000 1.5 180 12:43 08.11.2020
5756 Rain 19 1008 82 10000 1.5 180 12:25 08.11.2020
5757 Clouds 19 1008 93 10000 1 0 11:58 08.11.2020
5758 Clouds 19 1008 88 10000 2.6 150 11:39 08.11.2020
5759 Clouds 19 1008 88 10000 2.1 130 11:20 08.11.2020
5760 Clouds 19 1008 88 10000 3.6 160 10:50 08.11.2020
5761 Clouds 20 1008 88 10000 2.6 130 10:19 08.11.2020
5762 Clouds 20 1008 88 10000 3.1 110 09:44 08.11.2020
5763 Clouds 20 1008 77 10000 3.6 120 09:24 08.11.2020
5764 Clouds 21 1008 77 10000 3.6 120 08:58 08.11.2020
5765 Clouds 21 1008 77 10000 3.6 120 08:39 08.11.2020
5766 Clouds 21 1007 73 10000 2.6 110 08:18 08.11.2020
5767 Clouds 21 1007 73 10000 2.6 110 07:51 08.11.2020
5768 Clouds 22 1008 73 10000 2.1 110 07:21 08.11.2020
5769 Clouds 22 1008 64 10000 1.5 300 05:56 08.11.2020
5770 Clouds 22 1008 64 10000 1.5 300 05:31 08.11.2020
5771 Clouds 21 1008 68 10000 2.1 50 04:31 08.11.2020
5772 Clouds 19 1010 72 10000 1 0 01:51 08.11.2020
5773 Clouds 19 1010 68 10000 0.5 0 01:18 08.11.2020
5774 Clouds 19 1010 68 10000 0.5 0 01:18 08.11.2020
5775 Clouds 18 1010 72 10000 2.1 40 00:27 08.11.2020
5776 Clouds 18 1010 72 10000 2.1 40 00:27 08.11.2020
5777 Clouds 16 1009 72 10000 1.5 60 23:46 07.11.2020
5778 Clouds 16 1009 72 10000 1.5 60 23:28 07.11.2020
5779 Clouds 16 1009 72 10000 1.5 350 22:43 07.11.2020
5780 Clouds 16 1009 72 10000 1.5 350 22:25 07.11.2020
5781 Clouds 16 1009 67 10000 3.6 360 21:54 07.11.2020
5782 Clouds 16 1009 77 10000 3.6 350 21:36 07.11.2020
5783 Clouds 16 1009 77 10000 1 360 21:18 07.11.2020
5784 Clouds 16 1009 77 10000 1.5 260 20:40 07.11.2020
5785 Clouds 16 1008 82 10000 1 0 20:22 07.11.2020
5786 Clouds 16 1008 72 10000 2.1 330 19:43 07.11.2020
5787 Clouds 16 1008 72 10000 2.1 330 19:24 07.11.2020
5788 Clouds 16 1008 82 10000 2.6 320 18:40 07.11.2020
5789 Clouds 16 1008 72 10000 2.1 360 18:22 07.11.2020
5790 Rain 17 1008 72 10000 2.1 20 17:46 07.11.2020
5791 Rain 17 1008 72 10000 2.1 20 17:27 07.11.2020
5792 Rain 17 1008 72 10000 2.1 20 17:27 07.11.2020
5793 Clouds 16 1008 82 10000 3.6 20 16:45 07.11.2020
5794 Clouds 16 1009 87 10000 3.1 320 16:25 07.11.2020
5795 Rain 16 1009 87 10000 3.1 320 15:51 07.11.2020
5796 Rain 17 1009 87 10000 3.1 320 15:25 07.11.2020
5797 Clouds 17 1009 87 10000 2.1 310 14:59 07.11.2020
5798 Clouds 17 1010 88 10000 3.6 310 14:41 07.11.2020
5799 Rain 17 1010 93 9000 4.6 220 14:20 07.11.2020
5800 Mist 18 1010 88 10000 4.6 230 13:43 07.11.2020
5801 Rain 19 1010 88 10000 4.6 230 13:23 07.11.2020
5802 Clouds 19 1010 88 10000 7.7 220 12:37 07.11.2020
5803 Clouds 19 1011 88 10000 8.2 200 11:54 07.11.2020
5804 Clouds 19 1011 88 10000 8.2 200 11:36 07.11.2020
5805 Clouds 20 1011 83 10000 7.2 200 11:18 07.11.2020
5806 Clouds 20 1011 83 10000 7.2 200 10:42 07.11.2020
5807 Clouds 20 1011 83 10000 7.2 200 10:23 07.11.2020
5808 Clouds 20 1012 77 10000 8.2 210 09:48 07.11.2020
5809 Rain 20 1012 82 10000 2.6 190 09:24 07.11.2020
5810 Rain 20 1012 82 10000 2.6 190 08:51 07.11.2020
5811 Rain 20 1012 82 10000 2.6 190 08:31 07.11.2020
5812 Rain 20 1012 77 8000 1 0 07:48 07.11.2020
5813 Clouds 20 1013 77 7000 1.5 170 06:58 07.11.2020
5814 Clouds 20 1013 77 7000 1.5 170 06:37 07.11.2020
5815 Clouds 19 1015 72 7000 2.6 150 04:32 07.11.2020
5816 Clouds 17 1017 63 8000 2.6 30 03:22 07.11.2020
5817 Clouds 15 1018 71 8000 2.1 30 01:28 07.11.2020
5818 Clouds 14 1018 76 10000 3.1 40 00:40 07.11.2020
5819 Clouds 14 1018 76 10000 2.6 20 23:45 06.11.2020
5820 Rain 13 1018 71 10000 2.1 40 23:19 06.11.2020
5821 Clouds 13 1017 71 10000 2.6 60 22:41 06.11.2020
5822 Rain 13 1019 71 10000 2.1 40 22:19 06.11.2020
5823 Rain 13 1018 71 10000 2.6 40 21:44 06.11.2020
5824 Rain 13 1019 67 10000 2.1 20 21:21 06.11.2020
5825 Clouds 14 1018 71 10000 2.1 50 20:51 06.11.2020
5826 Rain 13 1019 67 10000 1.5 330 20:20 06.11.2020
5827 Clouds 13 1019 67 10000 1.5 330 19:55 06.11.2020
5828 Clouds 13 1019 71 10000 2.1 330 19:37 06.11.2020
5829 Rain 13 1019 76 10000 3.1 320 19:19 06.11.2020
5830 Clouds 14 1020 71 10000 1.5 300 18:44 06.11.2020
5831 Clouds 14 1020 67 10000 2.1 300 18:22 06.11.2020
5832 Clouds 14 1020 76 10000 2.1 290 17:50 06.11.2020
5833 Clouds 13 1020 71 10000 2.1 310 17:25 06.11.2020
5834 Clouds 14 1020 71 10000 0.5 0 16:49 06.11.2020
5835 Clouds 14 1020 71 10000 0.5 0 16:27 06.11.2020
5836 Clouds 14 1021 76 10000 0.5 0 15:49 06.11.2020
5837 Clouds 14 1021 76 10000 0.5 0 15:28 06.11.2020
5838 Clouds 14 1022 72 10000 0.5 0 14:53 06.11.2020
5839 Clouds 14 1021 72 10000 1.5 100 14:26 06.11.2020
5840 Clouds 14 1022 72 10000 2.1 80 13:46 06.11.2020
5841 Clouds 14 1023 67 10000 2.1 30 13:24 06.11.2020
5842 Clouds 14 1023 67 10000 3.1 10 12:46 06.11.2020
5843 Clouds 15 1023 62 10000 3.6 10 12:23 06.11.2020
5844 Clouds 15 1023 62 10000 3.6 10 11:55 06.11.2020
5845 Clouds 15 1023 62 10000 3.6 20 11:35 06.11.2020
5846 Clouds 15 1022 67 10000 3.1 20 10:46 06.11.2020
5847 Clouds 15 1022 67 10000 3.1 20 10:25 06.11.2020
5848 Clouds 15 1022 63 10000 2.6 20 09:49 06.11.2020
5849 Clouds 15 1022 62 10000 1.5 30 09:22 06.11.2020
5850 Clouds 15 1022 62 10000 1.5 30 08:51 06.11.2020
5851 Clouds 15 1022 62 10000 1.5 30 08:29 06.11.2020
5852 Clouds 16 1023 59 10000 1 0 07:54 06.11.2020
5853 Clouds 16 1023 59 10000 1 0 07:35 06.11.2020
5854 Clouds 16 1023 59 10000 1 0 06:59 06.11.2020
5855 Clouds 16 1023 59 10000 1 0 06:32 06.11.2020
5856 Clouds 16 1023 55 10000 2.6 50 05:36 06.11.2020
5857 Clouds 13 1027 62 10000 1.5 360 01:23 06.11.2020
5858 Clouds 13 1027 62 10000 3.6 360 00:23 06.11.2020
5859 Clear 13 1027 66 10000 3.6 30 23:39 05.11.2020
5860 Clouds 12 1027 62 10000 3.6 330 22:59 05.11.2020
5861 Clouds 12 1026 66 10000 2.6 340 22:41 05.11.2020
5862 Clouds 12 1026 66 10000 3.6 360 22:22 05.11.2020
5863 Clouds 12 1026 66 10000 3.6 350 21:44 05.11.2020
5864 Clouds 12 1026 66 10000 3.6 350 21:23 05.11.2020
5865 Clouds 12 1026 66 10000 3.6 350 20:58 05.11.2020
5866 Clouds 12 1026 66 10000 4.6 330 20:40 05.11.2020
5867 Clouds 13 1026 66 10000 4.6 340 20:21 05.11.2020
5868 Clear 13 1026 66 10000 3.6 350 19:43 05.11.2020
5869 Clear 12 1026 66 10000 3.6 350 19:25 05.11.2020
5870 Clouds 13 1026 62 10000 4.1 320 18:50 05.11.2020
5871 Clouds 12 1026 62 10000 4.1 320 18:32 05.11.2020
5872 Clouds 14 1026 62 10000 3.6 10 17:56 05.11.2020
5873 Clouds 14 1025 62 10000 3.6 350 17:38 05.11.2020
5874 Clear 13 1026 67 10000 3.1 320 17:20 05.11.2020
5875 Clear 14 1026 67 10000 2.6 300 16:43 05.11.2020
5876 Clear 14 1026 67 10000 2.6 300 16:43 05.11.2020
5877 Clear 14 1026 67 10000 2.6 290 16:22 05.11.2020
5878 Clouds 14 1026 67 10000 1.5 260 15:50 05.11.2020
5879 Clouds 15 1026 67 10000 1.5 260 15:26 05.11.2020
5880 Clouds 15 1026 82 10000 1.5 140 14:49 05.11.2020
5881 Clouds 15 1026 82 10000 1.5 140 14:31 05.11.2020
5882 Clouds 15 1026 72 10000 2.1 130 13:49 05.11.2020
5883 Clouds 15 1026 72 10000 2.1 130 13:31 05.11.2020
5884 Clear 15 1026 72 10000 2.6 150 12:54 05.11.2020
5885 Clear 17 1025 67 10000 3.6 130 12:30 05.11.2020
5886 Clouds 16 1025 67 10000 2.6 80 11:58 05.11.2020
5887 Clouds 16 1025 59 10000 2.1 80 11:38 05.11.2020
5888 Clear 17 1025 55 10000 2.1 70 11:19 05.11.2020
5889 Clear 17 1024 59 10000 1 70 10:45 05.11.2020
5890 Clear 16 1024 59 10000 1 70 10:26 05.11.2020
5891 Clouds 17 1024 59 10000 1.5 130 09:48 05.11.2020
5892 Clear 17 1023 51 10000 3.1 160 09:23 05.11.2020
5893 Clear 18 1023 51 10000 3.1 160 08:45 05.11.2020
5894 Clear 18 1023 51 10000 3.1 160 08:26 05.11.2020
5895 Clouds 19 1023 45 10000 3.6 140 07:42 05.11.2020
5896 Clouds 20 1022 39 10000 2.6 60 07:22 05.11.2020
5897 Clouds 19 1022 39 10000 2.6 60 06:42 05.11.2020
5898 Clear 19 1023 37 10000 3.1 40 05:54 05.11.2020
5899 Clouds 14 1025 44 10000 3.6 330 01:39 05.11.2020
5900 Clouds 12 1024 54 10000 5.7 340 00:34 05.11.2020
5901 Clouds 13 1023 50 10000 5.7 340 23:46 04.11.2020
5902 Clouds 13 1023 58 10000 6.7 350 23:26 04.11.2020
5903 Clouds 12 1023 58 10000 6.7 350 22:55 04.11.2020
5904 Clouds 12 1022 54 10000 6.7 350 22:36 04.11.2020
5905 Clouds 12 1022 58 10000 6.7 350 22:18 04.11.2020
5906 Clouds 11 1022 54 10000 6.7 350 21:43 04.11.2020
5907 Clouds 11 1022 54 10000 6.7 350 21:24 04.11.2020
5908 Clouds 12 1021 58 10000 6.7 350 20:46 04.11.2020
5909 Clouds 12 1021 58 10000 6.7 350 20:28 04.11.2020
5910 Clouds 12 1021 58 10000 5.7 340 19:50 04.11.2020
5911 Clouds 12 1021 54 10000 5.7 350 19:30 04.11.2020
5912 Clouds 12 1021 54 10000 6.2 340 18:58 04.11.2020
5913 Clouds 12 1021 50 10000 6.2 340 18:39 04.11.2020
5914 Clouds 12 1020 50 10000 6.7 340 18:20 04.11.2020
5915 Clouds 12 1020 47 10000 6.7 340 17:45 04.11.2020
5916 Clouds 12 1020 50 10000 5.1 350 17:24 04.11.2020
5917 Clouds 13 1020 47 10000 5.7 350 16:44 04.11.2020
5918 Clouds 13 1020 54 10000 5.1 10 16:24 04.11.2020
5919 Clouds 13 1020 54 10000 5.1 10 15:55 04.11.2020
5920 Clouds 13 1020 54 10000 3.6 350 15:36 04.11.2020
5921 Clouds 13 1020 50 10000 4.6 350 15:18 04.11.2020
5922 Clouds 13 1019 54 10000 4.1 350 14:41 04.11.2020
5923 Clouds 13 1019 58 10000 1 0 14:23 04.11.2020
5924 Clouds 14 1019 62 10000 2.6 150 13:48 04.11.2020
5925 Clouds 14 1018 62 10000 3.6 150 13:21 04.11.2020
5926 Clouds 14 1018 62 10000 3.6 150 12:55 04.11.2020
5927 Clouds 15 1018 58 10000 4.1 160 12:37 04.11.2020
5928 Clouds 15 1018 62 10000 3.6 150 12:18 04.11.2020
5929 Clouds 15 1017 50 10000 4.6 150 11:42 04.11.2020
5930 Clouds 15 1018 38 10000 2.1 130 11:20 04.11.2020
5931 Clouds 15 1017 40 10000 2.1 140 10:47 04.11.2020
5932 Clouds 15 1016 38 10000 2.1 140 10:23 04.11.2020
5933 Clouds 16 1016 38 10000 2.1 140 09:54 04.11.2020
5934 Clouds 16 1016 41 10000 2.6 160 09:26 04.11.2020
5935 Clouds 17 1016 41 10000 2.6 160 08:47 04.11.2020
5936 Clouds 17 1015 42 10000 4.1 150 08:22 04.11.2020
5937 Clouds 17 1015 42 10000 4.1 150 07:56 04.11.2020
5938 Clouds 18 1015 42 10000 4.1 150 07:30 04.11.2020
5939 Clouds 18 1014 31 10000 2.6 80 06:56 04.11.2020
5940 Clouds 18 1014 31 10000 2.6 80 06:37 04.11.2020
5941 Clouds 17 1014 33 10000 3.1 310 04:18 04.11.2020
5942 Clouds 16 1015 33 10000 3.1 320 02:31 04.11.2020
5943 Clouds 14 1014 47 10000 3.6 360 01:22 04.11.2020
5944 Clouds 12 1013 54 10000 6.2 30 23:50 03.11.2020
5945 Clouds 12 1012 50 10000 6.2 10 23:24 03.11.2020
5946 Clouds 12 1012 50 10000 6.2 10 22:54 03.11.2020
5947 Clouds 11 1011 54 10000 9.3 350 22:36 03.11.2020
5948 Clear 12 1011 54 10000 8.7 340 22:18 03.11.2020
5949 Clear 12 1010 46 10000 8.7 340 21:41 03.11.2020
5950 Clear 12 1010 46 10000 8.7 340 21:22 03.11.2020
5951 Clear 12 1008 39 10000 10.8 330 20:48 03.11.2020
5952 Clear 13 1008 38 10000 10.8 330 20:26 03.11.2020
5953 Clear 13 1007 47 10000 9.3 340 19:49 03.11.2020
5954 Clear 13 1007 47 10000 9.3 340 19:29 03.11.2020
5955 Clear 14 1008 50 10000 7.7 330 18:58 03.11.2020
5956 Clear 14 1006 50 10000 7.7 320 18:40 03.11.2020
5957 Clear 14 1007 54 10000 8.2 330 18:18 03.11.2020
5958 Clouds 14 1006 54 10000 7.2 330 17:44 03.11.2020
5959 Clouds 14 1006 58 10000 8.2 330 17:26 03.11.2020
5960 Clouds 14 1005 87 10000 5.1 330 16:45 03.11.2020
5961 Clouds 14 1005 87 10000 5.1 330 16:27 03.11.2020
5962 Clouds 15 1005 87 10000 4.1 310 15:53 03.11.2020
5963 Clouds 15 1004 87 10000 3.6 300 15:30 03.11.2020
5964 Clouds 15 1004 87 10000 3.6 300 15:30 03.11.2020
5965 Clouds 16 1005 82 10000 3.6 300 14:54 03.11.2020
5966 Clouds 15 1004 87 10000 3.1 300 14:33 03.11.2020
5967 Clouds 16 1004 82 10000 2.6 310 13:59 03.11.2020
5968 Clouds 16 1004 82 10000 1.5 350 13:40 03.11.2020
5969 Clouds 16 1004 87 10000 2.6 350 13:20 03.11.2020
5970 Clouds 16 1004 82 10000 3.1 20 12:44 03.11.2020
5971 Clouds 16 1004 87 10000 3.1 30 12:21 03.11.2020
5972 Clouds 16 1004 87 10000 3.6 10 11:46 03.11.2020
5973 Rain 16 1003 90 10000 3.08 78 11:22 03.11.2020
5974 Clouds 16 1003 88 10000 3.08 78 10:55 03.11.2020
5975 Clouds 16 1004 82 10000 3.6 60 10:55 03.11.2020
5976 Clouds 16 1003 88 10000 3.08 78 10:36 03.11.2020
5977 Clouds 16 1004 88 10000 4.1 80 10:18 03.11.2020
5978 Clouds 16 1004 88 10000 3.6 50 09:44 03.11.2020
5979 Clouds 16 1004 93 10000 2.6 50 09:20 03.11.2020
5980 Clouds 17 1004 93 10000 2.6 50 08:45 03.11.2020
5981 Clouds 17 1004 93 10000 2.6 50 08:26 03.11.2020
5982 Clouds 17 1004 88 10000 3.6 110 07:37 03.11.2020
5983 Clouds 17 1005 87 10000 1.5 70 07:19 03.11.2020
5984 Clouds 17 1005 82 10000 3.1 40 06:21 03.11.2020
5985 Clouds 17 1007 87 7000 1 0 03:59 03.11.2020
5986 Clouds 16 1009 93 10000 4.1 10 00:44 03.11.2020
5987 Clouds 15 1009 100 7000 2.6 350 00:20 03.11.2020
5988 Clouds 15 1009 93 6000 2.6 10 23:43 02.11.2020
5989 Rain 15 1009 93 7000 1.5 10 23:20 02.11.2020
5990 Rain 15 1008 93 7000 0.5 0 22:43 02.11.2020
5991 Rain 15 1008 93 7000 0.5 0 22:24 02.11.2020
5992 Clouds 15 1009 93 10000 0.5 0 21:39 02.11.2020
5993 Rain 15 1009 93 10000 2.6 20 21:20 02.11.2020
5994 Rain 15 1009 93 10000 2.6 20 20:55 02.11.2020
5995 Rain 15 1009 93 10000 2.1 20 20:37 02.11.2020
5996 Clouds 14 1009 93 10000 2.1 360 20:18 02.11.2020
5997 Rain 15 1010 93 9000 3.1 350 19:42 02.11.2020
5998 Rain 14 1010 93 9000 3.1 350 19:24 02.11.2020
5999 Rain 15 1010 93 4500 3.6 320 18:42 02.11.2020
6000 Rain 15 1011 93 5000 3.1 300 18:21 02.11.2020
6001 Rain 15 1011 93 5000 3.1 300 17:57 02.11.2020
6002 Rain 15 1010 93 5000 3.1 310 17:39 02.11.2020
6003 Rain 15 1011 93 4500 3.6 320 17:20 02.11.2020
6004 Rain 15 1011 93 4500 3.6 320 17:20 02.11.2020
6005 Rain 15 1011 93 4500 3.1 320 16:41 02.11.2020
6006 Rain 15 1011 93 6000 3.1 310 16:23 02.11.2020
6007 Rain 15 1011 87 6000 2.6 350 15:42 02.11.2020
6008 Rain 16 1011 87 6000 2.6 350 15:24 02.11.2020
6009 Rain 16 1012 87 5000 2.6 20 14:54 02.11.2020
6010 Rain 17 1013 87 7000 2.1 20 14:21 02.11.2020
6011 Rain 17 1013 87 7000 2.1 20 13:58 02.11.2020
6012 Rain 16 1013 82 8000 3.1 360 13:40 02.11.2020
6013 Rain 17 1014 82 8000 3.6 360 13:21 02.11.2020
6014 Rain 17 1014 82 8000 4.1 10 12:40 02.11.2020
6015 Rain 17 1014 87 7000 2.6 30 12:20 02.11.2020
6016 Rain 16 1014 87 8000 2.6 360 11:45 02.11.2020
6017 Rain 18 1014 82 10000 3.6 350 11:19 02.11.2020
6018 Rain 18 1014 77 10000 2.6 360 10:44 02.11.2020
6019 Rain 17 1014 77 10000 3.1 20 10:22 02.11.2020
6020 Rain 18 1014 88 10000 3.6 10 09:55 02.11.2020
6021 Rain 18 1014 82 10000 1.5 110 09:26 02.11.2020
6022 Rain 18 1014 82 10000 1.5 110 08:46 02.11.2020
6023 Rain 18 1014 82 10000 1.5 110 08:28 02.11.2020
6024 Clouds 18 1014 88 6000 2.1 120 07:55 02.11.2020
6025 Mist 18 1015 82 4000 2.1 140 07:32 02.11.2020
6026 Clouds 19 1015 68 10000 3.1 330 06:43 02.11.2020
6027 Rain 21 1016 68 10000 4.1 210 04:56 02.11.2020
6028 Rain 17 1019 72 10000 1.5 100 01:26 02.11.2020
6029 Clouds 16 1019 77 10000 1.5 90 00:37 02.11.2020
6030 Clouds 15 1020 72 10000 1 330 23:56 01.11.2020
6031 Clouds 15 1019 77 10000 2.6 350 23:37 01.11.2020
6032 Clouds 14 1020 72 10000 2.1 10 23:19 01.11.2020
6033 Clouds 13 1019 72 10000 2.1 20 22:41 01.11.2020
6034 Clouds 13 1020 77 10000 2.6 40 22:18 01.11.2020
6035 Clouds 13 1020 77 10000 1.5 30 21:41 01.11.2020
6036 Clouds 13 1020 77 10000 1.5 30 21:23 01.11.2020
6037 Clouds 13 1020 72 10000 0.5 340 20:46 01.11.2020
6038 Clouds 14 1020 72 10000 0.5 340 20:25 01.11.2020
6039 Clouds 15 1021 67 10000 0.5 0 19:46 01.11.2020
6040 Clouds 15 1021 67 10000 0.5 0 19:28 01.11.2020
6041 Clouds 16 1021 67 10000 1 330 18:57 01.11.2020
6042 Clouds 16 1021 67 10000 2.1 360 18:38 01.11.2020
6043 Clouds 15 1022 67 10000 2.1 10 18:19 01.11.2020
6044 Clouds 15 1022 67 10000 2.1 10 18:19 01.11.2020
6045 Clouds 16 1021 72 10000 1.5 330 17:43 01.11.2020
6046 Clouds 16 1021 67 10000 2.1 330 17:25 01.11.2020
6047 Clouds 16 1022 67 10000 3.1 310 16:45 01.11.2020
6048 Clouds 16 1022 67 10000 3.1 310 16:26 01.11.2020
6049 Clouds 16 1023 67 10000 1.5 200 15:58 01.11.2020
6050 Clouds 16 1023 59 10000 2.6 150 15:38 01.11.2020
6051 Clouds 17 1023 63 10000 1.5 150 15:19 01.11.2020
6052 Clouds 17 1023 63 10000 1.5 150 14:46 01.11.2020
6053 Clouds 17 1023 72 10000 1 0 14:22 01.11.2020
6054 Clouds 17 1023 72 10000 1 0 13:57 01.11.2020
6055 Clouds 16 1023 72 10000 1 0 13:39 01.11.2020
6056 Clouds 17 1023 68 10000 1 0 13:20 01.11.2020
6057 Clouds 17 1024 72 10000 1.5 0 12:40 01.11.2020
6058 Clouds 17 1024 82 10000 2.1 140 12:18 01.11.2020
6059 Clouds 18 1024 77 10000 2.6 120 11:48 01.11.2020
6060 Rain 18 1023 77 10000 2.6 120 11:18 01.11.2020
6061 Clouds 18 1022 77 10000 3.1 120 10:42 01.11.2020
6062 Clouds 18 1022 77 10000 3.1 120 10:24 01.11.2020
6063 Rain 18 1023 72 10000 0.5 0 09:49 01.11.2020
6064 Clouds 18 1023 68 10000 1.5 120 09:24 01.11.2020
6065 Clouds 18 1023 68 10000 1.5 120 08:40 01.11.2020
6066 Clouds 19 1024 63 10000 1.5 140 07:54 01.11.2020
6067 Clouds 19 1024 59 10000 1.5 140 06:52 01.11.2020
6068 Clouds 16 1027 55 10000 1.5 10 02:32 01.11.2020
6069 Clouds 14 1027 62 10000 1 0 01:42 01.11.2020
6070 Clouds 13 1028 67 10000 4.6 350 23:58 31.10.2020
6071 Clouds 13 1027 66 10000 3.6 320 23:24 31.10.2020
6072 Clouds 11 1027 76 10000 3.6 360 22:45 31.10.2020
6073 Clouds 11 1027 76 10000 3.6 360 22:24 31.10.2020
6074 Clear 10 1027 76 10000 2.1 360 21:47 31.10.2020
6075 Clear 10 1027 76 10000 3.6 310 21:23 31.10.2020
6076 Clear 10 1027 76 10000 3.6 310 21:23 31.10.2020
6077 Clear 10 1027 76 10000 3.6 310 20:59 31.10.2020
6078 Clear 10 1027 76 10000 3.6 310 20:38 31.10.2020
6079 Clear 11 1027 76 10000 4.1 310 20:18 31.10.2020
6080 Clear 11 1027 76 10000 4.1 330 19:38 31.10.2020
6081 Clear 11 1027 76 10000 4.1 310 19:19 31.10.2020
6082 Clear 12 1027 71 10000 3.6 310 18:45 31.10.2020
6083 Clear 13 1027 71 10000 3.6 310 17:58 31.10.2020
6084 Clear 12 1027 71 10000 4.1 310 17:40 31.10.2020
6085 Clear 13 1027 76 10000 4.6 300 17:19 31.10.2020
6086 Clouds 14 1027 66 10000 2.6 350 16:42 31.10.2020
6087 Clouds 14 1028 62 10000 2.6 50 16:20 31.10.2020
6088 Clouds 14 1027 62 10000 3.1 70 15:43 31.10.2020
6089 Clouds 15 1027 59 10000 3.1 70 15:23 31.10.2020
6090 Clear 15 1027 59 10000 4.1 70 14:47 31.10.2020
6091 Clear 14 1027 59 10000 4.1 70 14:28 31.10.2020
6092 Clear 15 1027 59 10000 5.7 80 13:50 31.10.2020
6093 Clear 15 1027 59 10000 5.7 80 13:26 31.10.2020
6094 Clear 15 1027 59 10000 5.1 80 12:43 31.10.2020
6095 Clouds 15 1026 63 10000 5.7 80 11:51 31.10.2020
6096 Clouds 15 1026 63 10000 5.7 80 11:30 31.10.2020
6097 Clouds 16 1026 63 10000 6.7 80 10:59 31.10.2020
6098 Clouds 16 1026 63 10000 5.7 70 10:36 31.10.2020
6099 Clouds 16 1025 55 10000 5.7 80 09:47 31.10.2020
6100 Clouds 17 1025 48 10000 5.1 100 09:28 31.10.2020
6101 Clouds 17 1025 48 10000 5.1 100 08:47 31.10.2020
6102 Clouds 18 1025 42 10000 5.7 80 08:18 31.10.2020
6103 Clouds 19 1025 42 10000 5.7 80 07:28 31.10.2020
6104 Clouds 19 1024 37 10000 3.6 30 06:42 31.10.2020
6105 Clouds 18 1024 42 10000 3.1 50 06:20 31.10.2020
6106 Clouds 17 1025 39 10000 3.1 30 03:46 31.10.2020
6107 Clouds 16 1026 44 10000 5.1 360 02:20 31.10.2020
6108 Clouds 15 1026 54 10000 5.1 20 00:49 31.10.2020
6109 Clouds 12 1026 54 10000 6.2 10 23:53 30.10.2020
6110 Clouds 11 1025 54 10000 6.7 10 23:28 30.10.2020
6111 Clouds 11 1025 58 10000 6.2 10 22:56 30.10.2020
6112 Clouds 11 1024 54 10000 6.2 360 22:37 30.10.2020
6113 Clouds 12 1024 58 10000 6.2 360 22:18 30.10.2020
6114 Clouds 12 1024 58 10000 6.2 360 22:18 30.10.2020
6115 Clear 11 1023 54 10000 6.7 10 21:42 30.10.2020
6116 Clear 12 1023 50 10000 6.2 10 21:22 30.10.2020
6117 Clear 12 1023 54 10000 8.2 350 20:45 30.10.2020
6118 Clear 11 1023 54 10000 8.2 350 20:26 30.10.2020
6119 Clear 12 1023 54 10000 8.2 360 19:56 30.10.2020
6120 Clear 12 1022 58 10000 6.2 10 19:22 30.10.2020
6121 Clear 12 1023 50 10000 6.2 360 18:59 30.10.2020
6122 Clear 12 1023 50 10000 6.2 360 18:59 30.10.2020
6123 Clear 12 1022 50 10000 7.7 350 18:41 30.10.2020
6124 Clear 12 1023 58 10000 7.7 350 18:22 30.10.2020
6125 Clear 12 1022 54 10000 9.8 350 17:43 30.10.2020
6126 Clear 12 1022 54 10000 8.7 350 17:20 30.10.2020
6127 Clear 12 1022 54 10000 7.2 10 16:50 30.10.2020
6128 Clear 12 1022 54 10000 7.2 10 16:24 30.10.2020
6129 Clouds 12 1021 50 10000 7.2 360 15:42 30.10.2020
6130 Clouds 12 1021 50 10000 8.7 360 15:24 30.10.2020
6131 Clouds 13 1021 50 10000 8.7 360 14:58 30.10.2020
6132 Clouds 13 1021 50 10000 8.2 350 14:39 30.10.2020
6133 Clouds 13 1021 47 10000 9.8 350 14:21 30.10.2020
6134 Clouds 14 1021 47 10000 9.3 340 13:41 30.10.2020
6135 Clouds 14 1021 44 10000 8.7 340 13:20 30.10.2020
6136 Clouds 14 1021 51 10000 8.2 350 12:43 30.10.2020
6137 Clouds 14 1021 51 10000 9.3 350 12:22 30.10.2020
6138 Clouds 15 1020 44 10000 7.7 330 11:46 30.10.2020
6139 Clouds 15 1020 38 10000 6.7 330 11:20 30.10.2020
6140 Clouds 15 1020 38 10000 6.7 330 10:50 30.10.2020
6141 Clouds 16 1018 55 10000 5.1 60 10:25 30.10.2020
6142 Clouds 17 1017 55 10000 5.7 60 09:47 30.10.2020
6143 Clouds 17 1017 45 10000 3.1 60 09:25 30.10.2020
6144 Clouds 17 1017 45 10000 3.1 60 08:59 30.10.2020
6145 Rain 17 1017 45 10000 3.1 60 08:31 30.10.2020
6146 Clouds 18 1016 48 10000 4.1 50 07:52 30.10.2020
6147 Clouds 17 1016 48 10000 4.1 50 07:33 30.10.2020
6148 Clouds 17 1016 45 10000 2.1 30 06:50 30.10.2020
6149 Clouds 17 1016 45 10000 3.1 20 05:45 30.10.2020
6150 Clouds 16 1018 44 10000 5.7 310 02:43 30.10.2020
6151 Clouds 16 1018 44 10000 4.1 330 01:18 30.10.2020
6152 Clouds 15 1018 51 10000 6.7 350 23:59 29.10.2020
6153 Clouds 15 1018 54 10000 8.2 350 23:41 29.10.2020
6154 Clouds 15 1018 51 10000 8.2 350 23:21 29.10.2020
6155 Clouds 15 1017 47 10000 8.2 350 22:44 29.10.2020
6156 Clouds 15 1017 47 10000 8.2 350 22:25 29.10.2020
6157 Clouds 15 1017 47 10000 7.7 350 21:43 29.10.2020
6158 Clouds 15 1017 51 10000 8.2 350 21:22 29.10.2020
6159 Clouds 15 1016 54 10000 9.3 350 20:43 29.10.2020
6160 Clouds 15 1017 47 10000 6.7 330 20:21 29.10.2020
6161 Clouds 15 1017 47 10000 6.7 330 19:56 29.10.2020
6162 Clouds 15 1016 47 10000 7.7 340 19:37 29.10.2020
6163 Clouds 15 1016 51 10000 8.2 350 19:18 29.10.2020
6164 Clouds 15 1017 51 10000 8.2 350 18:41 29.10.2020
6165 Clouds 15 1017 48 10000 8.2 350 18:21 29.10.2020
6166 Clouds 15 1017 48 10000 7.7 350 17:42 29.10.2020
6167 Clouds 16 1017 51 10000 7.7 350 17:22 29.10.2020
6168 Clouds 16 1017 55 10000 7.7 350 16:52 29.10.2020
6169 Clouds 16 1017 51 10000 8.2 360 16:23 29.10.2020
6170 Clouds 16 1017 51 10000 8.2 360 15:58 29.10.2020
6171 Clouds 16 1017 51 10000 7.7 360 15:40 29.10.2020
6172 Clouds 16 1017 51 10000 7.2 360 15:21 29.10.2020
6173 Clouds 16 1017 48 10000 6.2 340 14:47 29.10.2020
6174 Clouds 16 1017 48 10000 6.7 350 14:24 29.10.2020
6175 Clouds 17 1017 48 10000 6.7 350 13:59 29.10.2020
6176 Clouds 17 1016 42 10000 5.7 330 13:40 29.10.2020
6177 Clouds 17 1017 45 10000 5.1 330 13:21 29.10.2020
6178 Clouds 17 1016 42 10000 5.1 340 12:40 29.10.2020
6179 Clouds 17 1017 42 10000 4.6 340 12:19 29.10.2020
6180 Clouds 17 1016 39 10000 4.6 360 11:47 29.10.2020
6181 Clouds 18 1016 39 10000 4.6 360 11:24 29.10.2020
6182 Clouds 19 1016 39 10000 5.1 330 10:38 29.10.2020
6183 Clouds 19 1016 42 10000 4.1 360 10:19 29.10.2020
6184 Clouds 19 1016 42 10000 4.1 360 09:53 29.10.2020
6185 Clouds 20 1015 35 10000 2.6 340 09:28 29.10.2020
6186 Clouds 20 1015 35 10000 2.6 340 08:58 29.10.2020
6187 Clouds 21 1015 35 10000 2.6 340 08:38 29.10.2020
6188 Clouds 21 1014 33 10000 3.1 340 07:58 29.10.2020
6189 Clouds 21 1014 33 10000 3.1 340 07:39 29.10.2020
6190 Clouds 22 1014 35 10000 2.6 10 06:57 29.10.2020
6191 Clouds 22 1014 37 10000 3.6 30 06:21 29.10.2020
6192 Clouds 22 1015 46 10000 2.6 10 04:46 29.10.2020
6193 Clear 19 1015 62 10000 3.13 283 01:25 29.10.2020
6194 Clear 17 1015 71 10000 2.68 64 00:31 29.10.2020
6195 Clear 16 1015 80 10000 4.9 343 23:49 28.10.2020
6196 Clear 16 1016 67 10000 4.47 360 23:22 28.10.2020
6197 Clouds 16 1015 82 10000 3.6 350 22:45 28.10.2020
6198 Clouds 15 1015 82 10000 3.6 350 22:27 28.10.2020
6199 Clouds 15 1015 82 10000 3.6 350 22:27 28.10.2020
6200 Clouds 15 1015 82 10000 3.6 350 21:59 28.10.2020
6201 Clouds 15 1015 82 10000 4.1 330 21:41 28.10.2020
6202 Clouds 15 1015 77 10000 5.1 330 21:23 28.10.2020
6203 Clouds 15 1015 77 10000 5.1 330 20:42 28.10.2020
6204 Clouds 15 1015 82 10000 4.6 330 20:22 28.10.2020
6205 Clouds 15 1015 82 10000 4.6 330 19:51 28.10.2020
6206 Clouds 16 1015 82 10000 4.6 320 19:30 28.10.2020
6207 Clouds 16 1015 82 10000 3.1 290 18:50 28.10.2020
6208 Clouds 16 1015 77 10000 3.1 300 18:22 28.10.2020
6209 Clouds 16 1015 77 10000 3.1 300 17:57 28.10.2020
6210 Clouds 17 1015 77 10000 4.1 300 17:39 28.10.2020
6211 Clouds 18 1015 72 10000 3.6 260 17:18 28.10.2020
6212 Clouds 18 1016 72 10000 3.1 230 16:44 28.10.2020
6213 Clouds 18 1016 68 10000 3.1 210 16:25 28.10.2020
6214 Clouds 19 1016 72 10000 3.6 190 15:41 28.10.2020
6215 Clouds 19 1015 84 10000 4.93 220 15:19 28.10.2020
6216 Clouds 19 1018 77 10000 4.1 180 14:44 28.10.2020
6217 Rain 19 1015 83 10000 5.12 204 14:26 28.10.2020
6218 Rain 19 1016 81 10000 5.49 191 12:59 28.10.2020
6219 Rain 19 1016 81 10000 5.38 194 12:36 28.10.2020
6220 Rain 19 1016 80 10000 5.71 185 12:18 28.10.2020
6221 Rain 19 1016 79 10000 5.71 185 11:42 28.10.2020
6222 Rain 19 1016 78 10000 5.73 180 11:21 28.10.2020
6223 Rain 19 1016 74 10000 5.73 180 10:53 28.10.2020
6224 Rain 19 1018 63 10000 3.1 160 10:33 28.10.2020
6225 Rain 19 1018 63 10000 3.1 160 09:56 28.10.2020
6226 Rain 19 1018 63 10000 3.1 160 09:37 28.10.2020
6227 Rain 19 1018 63 10000 1 0 09:19 28.10.2020
6228 Rain 20 1018 63 10000 1 0 08:43 28.10.2020
6229 Rain 19 1018 68 10000 1.5 0 08:23 28.10.2020
6230 Clouds 19 1018 68 10000 1.5 0 07:44 28.10.2020
6231 Clouds 19 1018 68 10000 1.5 0 07:26 28.10.2020
6232 Clouds 19 1018 68 10000 2.1 140 06:40 28.10.2020
6233 Clouds 20 1018 68 10000 1.5 140 05:49 28.10.2020
6234 Clouds 20 1019 68 10000 1 0 04:52 28.10.2020
6235 Clouds 19 1019 68 10000 1 0 04:24 28.10.2020
6236 Clouds 18 1020 68 10000 2.1 20 02:25 28.10.2020
6237 Clear 17 1021 67 10000 1.5 0 01:26 28.10.2020
6238 Clouds 16 1020 77 10000 2.6 10 23:52 27.10.2020
6239 Clouds 16 1021 77 10000 3.1 350 23:23 27.10.2020
6240 Clouds 16 1019 85 10000 2.03 34 22:55 27.10.2020
6241 Clouds 15 1020 72 10000 3.6 10 22:37 27.10.2020
6242 Clouds 15 1021 77 10000 3.1 10 22:18 27.10.2020
6243 Clouds 15 1021 77 10000 3.1 10 21:55 27.10.2020
6244 Clouds 15 1020 77 10000 3.6 10 21:36 27.10.2020
6245 Clouds 15 1020 72 10000 2.6 10 21:18 27.10.2020
6246 Clouds 15 1020 72 10000 2.6 10 21:18 27.10.2020
6247 Clouds 15 1019 77 10000 3.6 10 20:39 27.10.2020
6248 Clouds 15 1019 77 10000 3.6 10 20:21 27.10.2020
6249 Clouds 15 1019 72 10000 3.6 360 19:39 27.10.2020
6250 Clouds 15 1019 72 10000 3.6 360 19:21 27.10.2020
6251 Clouds 15 1020 77 10000 3.6 350 18:58 27.10.2020
6252 Clouds 16 1019 72 10000 4.1 360 18:40 27.10.2020
6253 Clouds 16 1020 72 10000 4.1 350 18:19 27.10.2020
6254 Clouds 16 1019 67 10000 4.1 360 17:43 27.10.2020
6255 Clouds 16 1019 67 10000 4.1 360 17:21 27.10.2020
6256 Clouds 16 1019 72 10000 3.6 10 16:48 27.10.2020
6257 Clouds 16 1019 72 10000 3.6 10 16:27 27.10.2020
6258 Clouds 17 1019 67 10000 3.6 10 15:55 27.10.2020
6259 Clouds 17 1020 72 10000 3.1 30 15:37 27.10.2020
6260 Clouds 17 1020 72 10000 2.6 20 15:18 27.10.2020
6261 Clouds 17 1020 67 10000 3.6 20 14:41 27.10.2020
6262 Clouds 17 1020 72 10000 4.1 30 14:22 27.10.2020
6263 Clouds 17 1020 67 10000 3.6 20 13:41 27.10.2020
6264 Clouds 17 1020 72 10000 3.6 30 13:21 27.10.2020
6265 Clouds 18 1020 72 10000 4.1 60 12:40 27.10.2020
6266 Clouds 17 1020 68 10000 4.6 70 12:21 27.10.2020
6267 Clouds 18 1020 68 10000 5.1 80 11:42 27.10.2020
6268 Clouds 18 1019 72 10000 5.1 90 11:23 27.10.2020
6269 Clouds 18 1020 68 10000 4.6 80 10:47 27.10.2020
6270 Clouds 19 1020 68 10000 4.6 80 10:28 27.10.2020
6271 Clouds 19 1018 63 10000 4.6 70 09:46 27.10.2020
6272 Clouds 19 1018 59 10000 4.6 90 09:26 27.10.2020
6273 Clouds 20 1018 59 10000 4.6 90 08:41 27.10.2020
6274 Clouds 20 1017 60 10000 4.6 80 08:22 27.10.2020
6275 Clouds 20 1017 60 10000 4.6 80 07:46 27.10.2020
6276 Clouds 20 1017 60 10000 4.6 80 07:28 27.10.2020
6277 Clouds 20 1017 60 10000 5.1 90 06:38 27.10.2020
6278 Clouds 20 1018 63 10000 3.1 60 06:19 27.10.2020
6279 Clouds 20 1018 63 10000 3.1 60 05:41 27.10.2020
6280 Clouds 20 1018 56 10000 3.6 60 04:50 27.10.2020
6281 Clouds 18 1019 55 10000 3.6 10 02:34 27.10.2020
6282 Clouds 17 1020 55 10000 3.1 340 00:58 27.10.2020
6283 Clouds 16 1019 67 10000 6.2 350 23:47 26.10.2020
6284 Clouds 16 1019 67 10000 6.2 350 23:29 26.10.2020
6285 Clouds 15 1019 63 10000 5.1 360 22:51 26.10.2020
6286 Clouds 15 1019 63 10000 5.1 360 22:27 26.10.2020
6287 Clouds 15 1018 67 10000 5.7 360 21:50 26.10.2020
6288 Clouds 16 1018 63 10000 6.2 10 21:21 26.10.2020
6289 Clouds 16 1018 63 10000 6.2 10 20:58 26.10.2020
6290 Clouds 16 1017 63 10000 5.7 360 20:40 26.10.2020
6291 Clouds 16 1018 67 10000 5.1 360 20:22 26.10.2020
6292 Clouds 16 1018 72 10000 5.7 350 19:48 26.10.2020
6293 Clouds 16 1018 72 10000 5.7 350 19:26 26.10.2020
6294 Clouds 16 1017 72 10000 5.7 360 18:46 26.10.2020
6295 Clouds 16 1016 75 10000 3.99 345 18:25 26.10.2020
6296 Clouds 16 1017 67 10000 5.7 360 17:59 26.10.2020
6297 Clouds 16 1018 67 10000 5.7 350 17:40 26.10.2020
6298 Clouds 16 1017 72 10000 5.7 360 17:22 26.10.2020
6299 Clouds 16 1017 72 10000 4.6 360 16:43 26.10.2020
6300 Clear 16 1017 72 10000 4.1 10 16:22 26.10.2020
6301 Clear 16 1017 72 10000 4.6 20 15:44 26.10.2020
6302 Clear 17 1017 72 10000 4.6 20 15:25 26.10.2020
6303 Clear 17 1017 77 10000 4.1 20 14:56 26.10.2020
6304 Clear 17 1017 77 10000 4.6 10 14:38 26.10.2020
6305 Clouds 18 1017 77 10000 0.5 0 13:48 26.10.2020
6306 Clouds 18 1016 77 10000 2.1 130 13:29 26.10.2020
6307 Clouds 18 1016 77 10000 2.1 130 12:58 26.10.2020
6308 Clouds 19 1016 82 10000 2.6 140 12:40 26.10.2020
6309 Clouds 18 1016 77 10000 3.1 140 12:20 26.10.2020
6310 Clouds 19 1016 82 10000 2.1 130 11:46 26.10.2020
6311 Clouds 19 1016 77 10000 3.6 140 11:23 26.10.2020
6312 Clouds 19 1015 77 10000 2.6 130 10:57 26.10.2020
6313 Clouds 19 1015 77 10000 2.6 130 10:38 26.10.2020
6314 Clouds 19 1016 77 10000 3.1 110 10:19 26.10.2020
6315 Clouds 20 1015 63 10000 1 110 09:39 26.10.2020
6316 Clouds 20 1015 49 10000 1 0 09:18 26.10.2020
6317 Clouds 21 1015 49 10000 1 0 08:27 26.10.2020
6318 Clouds 21 1014 40 10000 1.5 120 07:52 26.10.2020
6319 Clouds 22 1014 40 10000 1.5 120 07:31 26.10.2020
6320 Clouds 21 1015 64 10000 2.1 110 05:58 26.10.2020
6321 Clouds 20 1016 63 10000 2.6 140 04:20 26.10.2020
6322 Clouds 19 1016 59 10000 1.5 110 03:21 26.10.2020
6323 Clouds 19 1016 59 10000 1.5 110 03:21 26.10.2020
6324 Clouds 19 1016 59 10000 1.5 110 03:21 26.10.2020
6325 Clouds 19 1016 59 10000 1.5 110 03:21 26.10.2020
6326 Clouds 18 1017 63 10000 1 0 01:37 26.10.2020
6327 Clouds 16 1017 62 10000 3.1 280 00:44 26.10.2020
6328 Clouds 15 1017 67 10000 2.6 320 00:25 26.10.2020
6329 Clouds 14 1016 71 10000 1.5 300 23:38 25.10.2020
6330 Clouds 14 1016 76 10000 2.6 310 23:18 25.10.2020
6331 Clouds 14 1015 76 10000 3.6 320 22:39 25.10.2020
6332 Clouds 14 1015 71 10000 1.5 240 22:20 25.10.2020
6333 Clouds 14 1015 71 10000 1.5 250 21:40 25.10.2020
6334 Clear 15 1016 67 10000 2.1 290 21:20 25.10.2020
6335 Clear 14 1015 67 10000 3.1 310 20:45 25.10.2020
6336 Clear 14 1015 71 10000 2.6 310 20:25 25.10.2020
6337 Clear 14 1015 71 10000 2.6 310 19:59 25.10.2020
6338 Clear 14 1015 71 10000 2.6 300 19:41 25.10.2020
6339 Clear 14 1015 76 10000 1.5 300 19:21 25.10.2020
6340 Clear 15 1015 76 10000 2.1 280 18:42 25.10.2020
6341 Clear 14 1015 82 10000 1 260 18:23 25.10.2020
6342 Clear 15 1015 82 10000 1 260 17:59 25.10.2020
6343 Clear 15 1015 76 10000 3.1 270 17:38 25.10.2020
6344 Clouds 15 1015 76 10000 3.1 270 17:20 25.10.2020
6345 Clear 16 1015 76 10000 3.1 280 16:52 25.10.2020
6346 Clear 16 1015 76 10000 3.1 280 16:32 25.10.2020
6347 Clear 16 1015 72 10000 1.5 280 15:52 25.10.2020
6348 Clear 16 1015 72 10000 1.5 280 15:32 25.10.2020
6349 Clear 17 1015 67 10000 3.1 270 14:59 25.10.2020
6350 Clear 17 1015 63 10000 2.6 270 14:40 25.10.2020
6351 Clear 17 1015 67 10000 2.6 270 14:21 25.10.2020
6352 Clear 17 1014 67 10000 2.1 270 13:42 25.10.2020
6353 Clear 17 1015 63 10000 3.1 270 13:20 25.10.2020
6354 Clear 17 1014 59 10000 2.6 270 12:46 25.10.2020
6355 Clear 17 1014 55 10000 3.1 260 12:26 25.10.2020
6356 Clear 17 1014 55 10000 3.1 260 11:54 25.10.2020
6357 Clear 18 1013 52 10000 4.1 240 11:36 25.10.2020
6358 Clear 18 1013 48 10000 4.1 230 11:18 25.10.2020
6359 Clear 18 1013 39 10000 4.6 200 10:43 25.10.2020
6360 Clouds 19 1013 39 10000 4.1 200 10:21 25.10.2020
6361 Clouds 19 1012 45 10000 4.6 200 09:43 25.10.2020
6362 Clouds 19 1011 42 10000 3.6 200 09:19 25.10.2020
6363 Clouds 19 1011 42 10000 3.6 200 08:47 25.10.2020
6364 Clouds 20 1011 42 10000 3.6 200 08:29 25.10.2020
6365 Clouds 20 1011 40 10000 3.1 190 07:48 25.10.2020
6366 Clouds 21 1011 28 10000 1.5 270 07:27 25.10.2020
6367 Clouds 21 1011 28 10000 1.5 270 06:48 25.10.2020
6368 Clouds 20 1011 30 10000 2.1 290 05:47 25.10.2020
6369 Clouds 20 1011 32 10000 3.1 320 04:52 25.10.2020
6370 Clouds 17 1012 41 10000 5.7 300 02:59 25.10.2020
6371 Clouds 15 1013 47 10000 7.7 340 01:32 25.10.2020
6372 Clouds 15 1012 54 10000 7.2 340 00:47 25.10.2020
6373 Clouds 14 1012 54 10000 6.2 330 00:19 25.10.2020
6374 Clouds 14 1012 54 10000 6.2 330 23:52 24.10.2020
6375 Clouds 14 1011 50 10000 6.7 330 23:25 24.10.2020
6376 Clear 14 1010 50 10000 5.7 330 22:55 24.10.2020
6377 Clear 14 1010 50 10000 5.7 330 22:37 24.10.2020
6378 Clear 13 1010 54 10000 5.1 330 22:18 24.10.2020
6379 Clear 14 1010 54 10000 6.2 330 21:41 24.10.2020
6380 Clear 14 1010 54 10000 5.1 320 21:20 24.10.2020
6381 Clear 14 1009 58 10000 5.1 320 20:47 24.10.2020
6382 Clear 14 1010 58 10000 5.1 320 20:23 24.10.2020
6383 Clear 14 1010 58 10000 5.1 320 19:55 24.10.2020
6384 Clear 14 1009 58 10000 5.7 330 19:37 24.10.2020
6385 Clear 15 1009 54 10000 7.2 340 19:18 24.10.2020
6386 Clear 15 1009 51 10000 6.2 330 18:42 24.10.2020
6387 Clear 15 1009 51 10000 8.2 340 18:22 24.10.2020
6388 Clear 15 1008 51 10000 7.2 340 17:39 24.10.2020
6389 Clear 15 1008 51 10000 7.2 340 17:21 24.10.2020
6390 Clear 15 1008 54 10000 5.1 330 16:45 24.10.2020
6391 Clouds 16 1008 51 10000 6.2 330 16:23 24.10.2020
6392 Clouds 16 1008 51 10000 6.7 330 15:41 24.10.2020
6393 Clouds 16 1008 51 10000 8.2 340 15:20 24.10.2020
6394 Clouds 17 1007 55 10000 6.7 360 14:54 24.10.2020
6395 Clouds 18 1007 55 10000 6.7 360 14:29 24.10.2020
6396 Clear 18 1005 68 10000 3.6 270 13:47 24.10.2020
6397 Clear 18 1005 68 10000 3.6 270 13:29 24.10.2020
6398 Clouds 18 1005 55 10000 3.6 260 12:58 24.10.2020
6399 Clouds 19 1005 63 10000 2.6 270 12:37 24.10.2020
6400 Clouds 18 1005 68 10000 2.6 120 12:19 24.10.2020
6401 Clouds 18 1005 72 10000 2.6 130 11:43 24.10.2020
6402 Clouds 19 1005 55 10000 3.1 140 10:59 24.10.2020
6403 Clouds 19 1004 52 10000 4.1 170 10:39 24.10.2020
6404 Clouds 20 1004 49 10000 2.6 180 09:58 24.10.2020
6405 Clouds 20 1004 49 10000 2.6 180 09:40 24.10.2020
6406 Clouds 20 1003 52 10000 1.5 120 09:21 24.10.2020
6407 Clouds 20 1003 52 10000 1.5 120 08:51 24.10.2020
6408 Clouds 19 1003 49 10000 1.5 110 08:18 24.10.2020
6409 Clouds 20 1003 49 10000 1.5 110 07:48 24.10.2020
6410 Clouds 20 1004 45 10000 1.5 60 07:19 24.10.2020
6411 Clouds 20 1004 45 10000 1.5 60 06:44 24.10.2020
6412 Clouds 20 1005 45 10000 3.1 20 04:45 24.10.2020
6413 Clouds 18 1006 45 10000 4.6 320 02:20 24.10.2020
6414 Clouds 17 1006 51 10000 8.2 330 00:44 24.10.2020
6415 Clouds 17 1006 51 10000 8.2 330 00:23 24.10.2020
6416 Clouds 17 1005 55 10000 8.2 350 23:59 23.10.2020
6417 Clouds 17 1005 55 10000 8.2 350 23:38 23.10.2020
6418 Clouds 17 1005 55 10000 6.7 350 23:19 23.10.2020
6419 Clouds 17 1004 55 10000 6.7 350 22:42 23.10.2020
6420 Clouds 17 1004 55 10000 6.7 350 22:21 23.10.2020
6421 Clouds 17 1004 55 10000 7.2 350 21:53 23.10.2020
6422 Clouds 18 1004 55 10000 7.2 350 21:30 23.10.2020
6423 Clouds 18 1003 55 10000 6.7 360 20:58 23.10.2020
6424 Clouds 18 1003 59 10000 7.7 350 20:38 23.10.2020
6425 Clouds 18 1003 59 10000 8.7 360 20:18 23.10.2020
6426 Clouds 18 1002 63 10000 6.7 350 19:43 23.10.2020
6427 Clouds 18 1002 63 10000 6.7 350 19:25 23.10.2020
6428 Clouds 18 1002 63 10000 6.2 350 18:42 23.10.2020
6429 Clouds 18 1002 59 10000 5.7 360 18:23 23.10.2020
6430 Clouds 18 1001 59 10000 5.1 360 17:45 23.10.2020
6431 Clouds 18 1002 72 10000 5.7 360 17:21 23.10.2020
6432 Clouds 18 1001 59 10000 5.1 360 17:21 23.10.2020
6433 Clouds 18 1001 82 10000 3.6 350 16:50 23.10.2020
6434 Clouds 18 1001 88 10000 3.6 10 16:30 23.10.2020
6435 Clouds 18 1001 88 10000 3.6 10 15:56 23.10.2020
6436 Clouds 18 1001 88 10000 3.1 10 15:38 23.10.2020
6437 Clouds 18 1001 88 10000 3.6 360 15:19 23.10.2020
6438 Clouds 18 1001 93 10000 2.1 30 14:41 23.10.2020
6439 Clouds 18 1000 88 10000 0.5 0 14:22 23.10.2020
6440 Clouds 18 1001 93 10000 1.5 130 13:41 23.10.2020
6441 Clouds 18 1001 93 10000 1.5 130 13:23 23.10.2020
6442 Clouds 19 1000 93 10000 1 350 12:50 23.10.2020
6443 Clouds 19 1000 93 10000 1 350 12:30 23.10.2020
6444 Rain 18 1000 100 10000 1.5 20 11:50 23.10.2020
6445 Rain 18 1000 100 10000 1.5 20 11:26 23.10.2020
6446 Clouds 18 1000 93 7000 1.5 290 10:52 23.10.2020
6447 Clouds 18 1000 93 7000 1.5 290 10:26 23.10.2020
6448 Clouds 18 1000 93 7000 1.5 290 09:57 23.10.2020
6449 Clouds 18 999 93 6000 3.1 300 09:38 23.10.2020
6450 Rain 18 999 93 6000 2.6 360 09:19 23.10.2020
6451 Rain 18 999 93 6000 2.6 360 08:49 23.10.2020
6452 Rain 18 999 93 6000 2.6 360 08:23 23.10.2020
6453 Rain 17 1000 93 2000 5.1 310 07:26 23.10.2020
6454 Rain 18 999 93 10000 3.1 350 06:46 23.10.2020
6455 Clouds 17 1000 93 10000 3.1 360 06:19 23.10.2020
6456 Mist 18 1002 93 2000 1.5 340 03:37 23.10.2020
6457 Mist 18 1003 88 5000 2.1 30 02:26 23.10.2020
6458 Clouds 17 1005 93 10000 0.5 0 00:49 23.10.2020
6459 Clouds 17 1005 93 10000 0.5 0 00:29 23.10.2020
6460 Clouds 17 1006 93 10000 3.1 360 23:37 22.10.2020
6461 Rain 17 1006 88 10000 5.1 10 23:18 22.10.2020
6462 Rain 17 1006 82 10000 3.6 10 22:44 22.10.2020
6463 Rain 17 1007 88 10000 4.6 340 22:23 22.10.2020
6464 Rain 17 1008 82 10000 3.6 340 21:49 22.10.2020
6465 Rain 17 1008 82 10000 3.6 340 21:31 22.10.2020
6466 Rain 17 1008 77 10000 5.1 350 20:59 22.10.2020
6467 Rain 17 1008 77 10000 5.1 350 20:41 22.10.2020
6468 Clouds 17 1009 77 10000 5.1 360 20:23 22.10.2020
6469 Rain 17 1009 77 10000 5.7 360 19:43 22.10.2020
6470 Clouds 18 1011 77 10000 5.7 360 19:20 22.10.2020
6471 Rain 18 1010 72 10000 4.6 10 18:44 22.10.2020
6472 Rain 19 1012 72 10000 4.1 330 18:22 22.10.2020
6473 Rain 19 1012 72 10000 4.1 330 17:58 22.10.2020
6474 Clouds 19 1011 72 10000 3.6 340 17:39 22.10.2020
6475 Rain 19 1012 72 10000 4.6 340 17:20 22.10.2020
6476 Rain 19 1012 72 10000 4.1 350 16:42 22.10.2020
6477 Rain 19 1013 72 10000 4.1 330 16:23 22.10.2020
6478 Clouds 19 1013 72 10000 4.1 340 15:48 22.10.2020
6479 Rain 19 1013 72 10000 4.1 340 15:26 22.10.2020
6480 Clouds 19 1015 72 10000 3.1 330 14:50 22.10.2020
6481 Clouds 19 1015 72 10000 3.6 330 14:27 22.10.2020
6482 Clouds 19 1015 72 10000 3.6 330 13:58 22.10.2020
6483 Clouds 19 1015 72 10000 3.6 350 13:39 22.10.2020
6484 Clouds 19 1015 72 10000 3.6 360 13:20 22.10.2020
6485 Clouds 19 1015 72 10000 2.6 20 12:29 22.10.2020
6486 Clouds 20 1016 68 10000 3.6 10 11:54 22.10.2020
6487 Clouds 20 1016 68 10000 3.6 10 11:36 22.10.2020
6488 Rain 20 1015 68 10000 4.1 10 11:18 22.10.2020
6489 Rain 20 1016 68 10000 3.6 20 10:44 22.10.2020
6490 Clouds 20 1016 64 10000 3.1 30 10:23 22.10.2020
6491 Clouds 20 1016 64 10000 3.1 30 09:42 22.10.2020
6492 Clouds 20 1016 64 10000 2.6 30 09:18 22.10.2020
6493 Clouds 20 1016 64 10000 2.6 30 08:39 22.10.2020
6494 Clouds 21 1016 56 10000 2.1 20 08:20 22.10.2020
6495 Clouds 21 1016 56 10000 2.1 20 07:43 22.10.2020
6496 Clouds 21 1017 60 10000 3.1 30 07:18 22.10.2020
6497 Clouds 21 1017 60 10000 3.1 30 06:41 22.10.2020
6498 Clouds 21 1018 60 10000 3.1 30 06:23 22.10.2020
6499 Clouds 21 1018 60 10000 3.1 30 05:38 22.10.2020
6500 Rain 19 1020 59 10000 3.6 360 03:25 22.10.2020
6501 Clouds 16 1020 72 10000 5.7 340 00:55 22.10.2020
6502 Rain 16 1020 67 10000 5.7 340 00:22 22.10.2020
6503 Rain 15 1020 67 10000 6.2 350 23:43 21.10.2020
6504 Rain 15 1021 72 10000 7.2 340 23:19 21.10.2020
6505 Clouds 15 1020 72 10000 6.2 340 22:38 21.10.2020
6506 Rain 15 1020 67 10000 6.2 340 22:19 21.10.2020
6507 Clouds 15 1020 67 10000 6.2 340 22:19 21.10.2020
6508 Clouds 15 1020 67 10000 6.2 340 22:19 21.10.2020
6509 Clouds 15 1020 67 10000 6.7 340 21:46 21.10.2020
6510 Clouds 15 1021 72 10000 5.7 330 21:20 21.10.2020
6511 Clouds 15 1020 77 10000 4.6 320 20:59 21.10.2020
6512 Clouds 15 1020 77 10000 4.6 320 20:40 21.10.2020
6513 Clouds 15 1020 77 10000 4.1 360 20:18 21.10.2020
6514 Clouds 15 1020 77 10000 3.1 360 19:41 21.10.2020
6515 Rain 15 1021 77 10000 4.1 360 19:22 21.10.2020
6516 Rain 15 1022 82 10000 5.7 340 18:53 21.10.2020
6517 Rain 15 1022 82 10000 5.7 340 18:30 21.10.2020
6518 Clouds 16 1022 87 10000 6.7 360 17:51 21.10.2020
6519 Clouds 16 1022 82 10000 7.2 10 17:22 21.10.2020
6520 Clouds 16 1022 82 10000 7.2 10 16:59 21.10.2020
6521 Clouds 16 1022 82 10000 7.2 10 16:39 21.10.2020
6522 Clouds 16 1022 77 10000 6.2 20 16:20 21.10.2020
6523 Clouds 17 1023 72 10000 6.2 20 15:46 21.10.2020
6524 Rain 17 1023 72 10000 7.2 10 15:22 21.10.2020
6525 Clouds 17 1023 72 10000 7.2 10 14:56 21.10.2020
6526 Rain 17 1023 72 10000 6.7 20 14:38 21.10.2020
6527 Rain 17 1024 72 10000 6.7 30 14:19 21.10.2020
6528 Clouds 17 1024 72 10000 7.2 20 13:41 21.10.2020
6529 Clouds 17 1024 72 10000 7.2 20 13:20 21.10.2020
6530 Clouds 17 1023 77 10000 7.2 40 12:41 21.10.2020
6531 Clouds 17 1023 77 10000 7.2 40 12:20 21.10.2020
6532 Clouds 18 1024 68 10000 6.2 30 11:47 21.10.2020
6533 Clouds 18 1023 68 10000 7.2 30 11:21 21.10.2020
6534 Clouds 18 1023 72 10000 7.2 40 10:58 21.10.2020
6535 Clouds 18 1023 68 10000 6.2 40 10:40 21.10.2020
6536 Clouds 18 1023 52 10000 5.1 60 10:20 21.10.2020
6537 Clouds 19 1023 52 10000 5.1 60 09:42 21.10.2020
6538 Clouds 19 1023 52 10000 5.1 60 09:18 21.10.2020
6539 Clouds 20 1023 52 10000 4.6 60 08:40 21.10.2020
6540 Clouds 20 1023 52 10000 4.6 60 08:22 21.10.2020
6541 Clouds 20 1023 52 10000 4.6 60 07:49 21.10.2020
6542 Clouds 20 1024 52 10000 4.6 40 07:20 21.10.2020
6543 Clouds 20 1024 52 10000 4.6 40 06:37 21.10.2020
6544 Clouds 20 1024 52 10000 4.6 40 06:19 21.10.2020
6545 Clouds 19 1027 59 10000 2.6 20 03:38 21.10.2020
6546 Clouds 14 1026 72 10000 6.7 340 00:31 21.10.2020
6547 Clouds 14 1026 77 10000 7.2 360 23:35 20.10.2020
6548 Clouds 14 1025 77 10000 6.7 360 22:47 20.10.2020
6549 Clouds 14 1025 77 10000 6.7 360 22:25 20.10.2020
6550 Clouds 14 1025 72 10000 6.7 360 21:48 20.10.2020
6551 Clouds 15 1025 72 10000 6.2 360 21:20 20.10.2020
6552 Clouds 15 1025 77 10000 6.2 360 20:44 20.10.2020
6553 Clouds 15 1025 77 10000 6.2 360 20:24 20.10.2020
6554 Clouds 15 1025 77 10000 5.7 360 19:57 20.10.2020
6555 Clouds 15 1025 77 10000 6.2 360 19:38 20.10.2020
6556 Clouds 15 1025 77 10000 6.2 360 19:19 20.10.2020
6557 Clouds 15 1025 77 10000 5.7 360 18:44 20.10.2020
6558 Clouds 16 1025 72 10000 6.2 20 18:25 20.10.2020
6559 Clouds 16 1025 77 10000 6.2 20 17:41 20.10.2020
6560 Clouds 16 1025 72 10000 5.1 20 17:23 20.10.2020
6561 Clouds 16 1025 72 10000 4.6 20 16:43 20.10.2020
6562 Clouds 16 1025 72 10000 4.6 20 16:24 20.10.2020
6563 Clouds 17 1025 72 10000 4.1 20 15:49 20.10.2020
6564 Clouds 17 1025 72 10000 4.1 20 15:30 20.10.2020
6565 Clouds 17 1025 77 10000 4.6 30 14:55 20.10.2020
6566 Clouds 17 1025 77 10000 5.1 40 14:36 20.10.2020
6567 Clouds 17 1025 77 10000 5.1 50 14:18 20.10.2020
6568 Clouds 18 1025 72 10000 5.1 50 13:41 20.10.2020
6569 Clouds 18 1025 72 10000 5.1 50 13:21 20.10.2020
6570 Clouds 18 1025 72 10000 4.6 50 12:54 20.10.2020
6571 Clouds 18 1025 72 10000 5.1 50 12:31 20.10.2020
6572 Clouds 18 1024 68 10000 4.6 50 11:48 20.10.2020
6573 Clouds 19 1024 63 10000 4.6 60 11:30 20.10.2020
6574 Clouds 19 1024 59 10000 6.2 50 10:53 20.10.2020
6575 Clouds 19 1023 59 10000 4.6 70 10:28 20.10.2020
6576 Clouds 20 1023 59 10000 4.6 70 09:47 20.10.2020
6577 Clouds 20 1023 59 10000 4.6 70 09:20 20.10.2020
6578 Clouds 20 1023 52 10000 5.7 70 08:53 20.10.2020
6579 Clouds 21 1023 52 10000 5.7 70 08:27 20.10.2020
6580 Clouds 21 1023 56 10000 4.6 50 07:49 20.10.2020
6581 Clouds 21 1023 56 10000 5.1 50 07:24 20.10.2020
6582 Clouds 21 1023 56 10000 5.1 50 06:24 20.10.2020
6583 Clouds 19 1025 55 10000 4.1 30 05:21 20.10.2020
6584 Clouds 16 1025 59 10000 1.5 350 02:33 20.10.2020
6585 Clouds 17 1025 63 10000 2.1 330 01:59 20.10.2020
6586 Clouds 15 1025 67 10000 7.7 340 00:57 20.10.2020
6587 Clouds 14 1024 76 10000 7.2 350 00:39 20.10.2020
6588 Clouds 14 1024 76 10000 7.2 350 00:39 20.10.2020
6589 Clouds 14 1025 71 10000 8.7 340 00:18 20.10.2020
6590 Clouds 14 1025 71 10000 8.7 340 00:18 20.10.2020
6591 Clouds 14 1024 76 10000 8.7 340 23:40 19.10.2020
6592 Clouds 14 1024 76 10000 7.2 350 23:19 19.10.2020
6593 Clouds 15 1023 72 10000 5.7 340 22:42 19.10.2020
6594 Clouds 15 1023 72 10000 5.7 340 22:20 19.10.2020
6595 Clouds 14 1023 82 10000 6.2 350 21:42 19.10.2020
6596 Clouds 14 1023 82 10000 4.6 330 21:20 19.10.2020
6597 Clouds 14 1023 82 10000 3.6 320 20:45 19.10.2020
6598 Clouds 14 1023 82 10000 3.6 320 20:27 19.10.2020
6599 Clouds 14 1023 87 10000 3.6 320 19:47 19.10.2020
6600 Clouds 14 1024 87 10000 3.6 310 19:22 19.10.2020
6601 Clouds 14 1024 87 10000 3.6 310 18:53 19.10.2020
6602 Rain 13 1023 87 10000 3.1 310 18:32 19.10.2020
6603 Clouds 13 1023 87 10000 3.6 320 17:57 19.10.2020
6604 Clouds 13 1023 87 10000 2.6 310 17:39 19.10.2020
6605 Clouds 13 1023 87 10000 3.1 320 17:20 19.10.2020
6606 Clouds 13 1023 87 10000 3.1 310 16:42 19.10.2020
6607 Rain 13 1024 73 10000 0.92 342 16:21 19.10.2020
6608 Clouds 13 1024 74 10000 0.92 342 15:40 19.10.2020
6609 Clouds 13 1024 75 10000 0.45 326 15:22 19.10.2020
6610 Clouds 13 1024 75 10000 1.11 99 14:51 19.10.2020
6611 Rain 13 1024 78 10000 2.21 62 14:24 19.10.2020
6612 Rain 13 1024 79 10000 1.84 49 13:52 19.10.2020
6613 Clouds 14 1024 79 10000 1.84 49 13:31 19.10.2020
6614 Rain 13 1024 98 10000 0.6 153 12:50 19.10.2020
6615 Rain 17 1017 78 10000 0.6 153 12:32 19.10.2020
6616 Rain 16 1017 78 10000 2.59 44 11:51 19.10.2020
6617 Rain 14 1021 87 8000 3.6 10 11:25 19.10.2020
6618 Rain 14 1021 87 8000 3.6 10 10:56 19.10.2020
6619 Rain 14 1023 93 10000 0.5 0 10:38 19.10.2020
6620 Rain 16 1023 87 7000 1.5 320 10:19 19.10.2020
6621 Rain 16 1023 87 7000 1.5 320 09:42 19.10.2020
6622 Rain 16 1023 87 8000 3.1 300 09:19 19.10.2020
6623 Rain 16 1022 82 10000 3.1 310 08:48 19.10.2020
6624 Rain 16 1022 82 10000 3.1 310 08:23 19.10.2020
6625 Rain 17 1022 77 10000 2.1 320 07:39 19.10.2020
6626 Rain 17 1022 77 10000 1.5 330 07:18 19.10.2020
6627 Rain 18 1022 55 10000 2.1 330 06:18 19.10.2020
6628 Clouds 18 1022 59 10000 4.6 340 03:48 19.10.2020
6629 Clouds 16 1023 67 10000 4.1 330 02:28 19.10.2020
6630 Clouds 13 1021 71 10000 7.2 340 00:50 19.10.2020
6631 Clouds 14 1022 76 10000 5.1 330 00:24 19.10.2020
6632 Clouds 15 1021 72 10000 5.1 350 23:47 18.10.2020
6633 Clouds 15 1021 72 10000 5.1 350 23:24 18.10.2020
6634 Clouds 14 1021 76 10000 3.6 320 22:51 18.10.2020
6635 Clouds 12 1021 82 10000 6.2 350 22:22 18.10.2020
6636 Clouds 12 1021 82 10000 5.7 340 21:54 18.10.2020
6637 Clouds 12 1021 82 10000 5.7 340 21:32 18.10.2020
6638 Clouds 14 1021 76 10000 5.7 330 20:59 18.10.2020
6639 Clouds 13 1021 82 10000 4.1 330 20:39 18.10.2020
6640 Clouds 14 1021 82 10000 4.1 330 20:19 18.10.2020
6641 Clouds 13 1021 76 10000 3.6 310 19:43 18.10.2020
6642 Clouds 13 1022 82 10000 4.1 320 19:25 18.10.2020
6643 Clouds 14 1021 82 10000 3.6 320 18:48 18.10.2020
6644 Clouds 15 1021 77 10000 3.1 310 18:27 18.10.2020
6645 Clouds 15 1022 77 10000 3.6 300 17:43 18.10.2020
6646 Clouds 17 1022 82 10000 4.1 300 17:25 18.10.2020
6647 Clouds 17 1021 77 10000 3.6 350 16:46 18.10.2020
6648 Clouds 17 1021 77 10000 3.6 350 16:27 18.10.2020
6649 Clouds 17 1021 72 10000 5.1 360 15:59 18.10.2020
6650 Clouds 18 1021 67 10000 4.6 360 15:41 18.10.2020
6651 Clouds 18 1022 72 10000 4.1 20 15:19 18.10.2020
6652 Clouds 18 1022 72 10000 4.1 360 14:53 18.10.2020
6653 Clouds 18 1022 72 10000 4.1 360 14:28 18.10.2020
6654 Clouds 18 1022 67 10000 4.1 360 13:56 18.10.2020
6655 Clouds 17 1021 72 10000 4.1 360 13:37 18.10.2020
6656 Clouds 16 1022 67 10000 4.1 20 13:19 18.10.2020
6657 Clouds 18 1021 72 10000 4.1 20 12:41 18.10.2020
6658 Clouds 18 1021 67 10000 4.6 20 12:21 18.10.2020
6659 Clouds 18 1021 63 10000 5.1 40 11:42 18.10.2020
6660 Clouds 18 1021 63 10000 5.1 40 11:22 18.1